<?xml version="1.0" encoding="UTF-8" standalone="no" ?>
<gpx xmlns="http://www.topografix.com/GPX/1/1" xmlns:xsi="http://www.w3.org/2001/XMLSchema-instance" xsi:schemaLocation="http://www.topografix.com/GPX/1/1 http://www.topografix.com/GPX/1/1/gpx.xsd" version="1.1" creator="VisuGPX - https://www.visugpx.com">
  <metadata>
    <name>Lavelanet-Rivel-Montbel</name>
    <desc><![CDATA[Lavelanet-Rivel-Montbel]]></desc>
  </metadata>
  <trk>
    <name><![CDATA[Lavelanet-Rivel-Montbel]]></name>
    <trkseg>
      <trkpt lat="42.94033" lon="1.85524">
        <ele>473</ele>
        <time>2014-10-11T10:24:08Z</time>
      </trkpt>
      <trkpt lat="42.94032" lon="1.85524">
        <ele>473</ele>
        <time>2014-10-11T10:24:10Z</time>
      </trkpt>
      <trkpt lat="42.94032" lon="1.85524">
        <ele>473</ele>
        <time>2014-10-11T10:24:12Z</time>
      </trkpt>
      <trkpt lat="42.94033" lon="1.85521">
        <ele>473</ele>
        <time>2014-10-11T10:24:14Z</time>
      </trkpt>
      <trkpt lat="42.94036" lon="1.85514">
        <ele>473</ele>
        <time>2014-10-11T10:24:17Z</time>
      </trkpt>
      <trkpt lat="42.94042" lon="1.85513">
        <ele>473</ele>
        <time>2014-10-11T10:24:19Z</time>
      </trkpt>
      <trkpt lat="42.94049" lon="1.85514">
        <ele>473</ele>
        <time>2014-10-11T10:24:21Z</time>
      </trkpt>
      <trkpt lat="42.94056" lon="1.85518">
        <ele>473</ele>
        <time>2014-10-11T10:24:23Z</time>
      </trkpt>
      <trkpt lat="42.94062" lon="1.85523">
        <ele>474</ele>
        <time>2014-10-11T10:24:25Z</time>
      </trkpt>
      <trkpt lat="42.94074" lon="1.85533">
        <ele>474</ele>
        <time>2014-10-11T10:24:28Z</time>
      </trkpt>
      <trkpt lat="42.94082" lon="1.85539">
        <ele>474</ele>
        <time>2014-10-11T10:24:30Z</time>
      </trkpt>
      <trkpt lat="42.94095" lon="1.85551">
        <ele>473</ele>
        <time>2014-10-11T10:24:33Z</time>
      </trkpt>
      <trkpt lat="42.94103" lon="1.85559">
        <ele>473</ele>
        <time>2014-10-11T10:24:35Z</time>
      </trkpt>
      <trkpt lat="42.94117" lon="1.85572">
        <ele>473</ele>
        <time>2014-10-11T10:24:38Z</time>
      </trkpt>
      <trkpt lat="42.94133" lon="1.85585">
        <ele>473</ele>
        <time>2014-10-11T10:24:41Z</time>
      </trkpt>
      <trkpt lat="42.94146" lon="1.85601">
        <ele>473</ele>
        <time>2014-10-11T10:24:44Z</time>
      </trkpt>
      <trkpt lat="42.94152" lon="1.8562">
        <ele>473</ele>
        <time>2014-10-11T10:24:47Z</time>
      </trkpt>
      <trkpt lat="42.94159" lon="1.85638">
        <ele>473</ele>
        <time>2014-10-11T10:24:50Z</time>
      </trkpt>
      <trkpt lat="42.94169" lon="1.85654">
        <ele>473</ele>
        <time>2014-10-11T10:24:53Z</time>
      </trkpt>
      <trkpt lat="42.94178" lon="1.8567">
        <ele>474</ele>
        <time>2014-10-11T10:24:56Z</time>
      </trkpt>
      <trkpt lat="42.94188" lon="1.85683">
        <ele>474</ele>
        <time>2014-10-11T10:24:59Z</time>
      </trkpt>
      <trkpt lat="42.94195" lon="1.85697">
        <ele>473</ele>
        <time>2014-10-11T10:25:02Z</time>
      </trkpt>
      <trkpt lat="42.94198" lon="1.85709">
        <ele>473</ele>
        <time>2014-10-11T10:25:05Z</time>
      </trkpt>
      <trkpt lat="42.94199" lon="1.85714">
        <ele>473</ele>
        <time>2014-10-11T10:25:07Z</time>
      </trkpt>
      <trkpt lat="42.942" lon="1.85717">
        <ele>473</ele>
        <time>2014-10-11T10:25:09Z</time>
      </trkpt>
      <trkpt lat="42.942" lon="1.85719">
        <ele>473</ele>
        <time>2014-10-11T10:25:11Z</time>
      </trkpt>
      <trkpt lat="42.94201" lon="1.8572">
        <ele>473</ele>
        <time>2014-10-11T10:25:14Z</time>
      </trkpt>
      <trkpt lat="42.94201" lon="1.8572">
        <ele>473</ele>
        <time>2014-10-11T10:25:17Z</time>
      </trkpt>
      <trkpt lat="42.94199" lon="1.85712">
        <ele>473</ele>
        <time>2014-10-11T10:25:20Z</time>
      </trkpt>
      <trkpt lat="42.94199" lon="1.85713">
        <ele>473</ele>
        <time>2014-10-11T10:25:22Z</time>
      </trkpt>
      <trkpt lat="42.94199" lon="1.85711">
        <ele>473</ele>
        <time>2014-10-11T10:25:25Z</time>
      </trkpt>
      <trkpt lat="42.94201" lon="1.85711">
        <ele>473</ele>
        <time>2014-10-11T10:25:28Z</time>
      </trkpt>
      <trkpt lat="42.94204" lon="1.85713">
        <ele>473</ele>
        <time>2014-10-11T10:25:31Z</time>
      </trkpt>
      <trkpt lat="42.9421" lon="1.85718">
        <ele>473</ele>
        <time>2014-10-11T10:25:34Z</time>
      </trkpt>
      <trkpt lat="42.94216" lon="1.85724">
        <ele>473</ele>
        <time>2014-10-11T10:25:36Z</time>
      </trkpt>
      <trkpt lat="42.94228" lon="1.85734">
        <ele>473</ele>
        <time>2014-10-11T10:25:39Z</time>
      </trkpt>
      <trkpt lat="42.94239" lon="1.85744">
        <ele>473</ele>
        <time>2014-10-11T10:25:42Z</time>
      </trkpt>
      <trkpt lat="42.9425" lon="1.85753">
        <ele>473</ele>
        <time>2014-10-11T10:25:45Z</time>
      </trkpt>
      <trkpt lat="42.94252" lon="1.85754">
        <ele>473</ele>
        <time>2014-10-11T10:25:48Z</time>
      </trkpt>
      <trkpt lat="42.94253" lon="1.85754">
        <ele>473</ele>
        <time>2014-10-11T10:25:50Z</time>
      </trkpt>
      <trkpt lat="42.94253" lon="1.85755">
        <ele>472</ele>
        <time>2014-10-11T10:25:52Z</time>
      </trkpt>
      <trkpt lat="42.94254" lon="1.85755">
        <ele>473</ele>
        <time>2014-10-11T10:25:55Z</time>
      </trkpt>
      <trkpt lat="42.94255" lon="1.85755">
        <ele>472</ele>
        <time>2014-10-11T10:25:58Z</time>
      </trkpt>
      <trkpt lat="42.94255" lon="1.85755">
        <ele>472</ele>
        <time>2014-10-11T10:26:00Z</time>
      </trkpt>
      <trkpt lat="42.94256" lon="1.85756">
        <ele>472</ele>
        <time>2014-10-11T10:26:02Z</time>
      </trkpt>
      <trkpt lat="42.94256" lon="1.85756">
        <ele>473</ele>
        <time>2014-10-11T10:26:04Z</time>
      </trkpt>
      <trkpt lat="42.9426" lon="1.85761">
        <ele>473</ele>
        <time>2014-10-11T10:26:07Z</time>
      </trkpt>
      <trkpt lat="42.94271" lon="1.85769">
        <ele>473</ele>
        <time>2014-10-11T10:26:10Z</time>
      </trkpt>
      <trkpt lat="42.94288" lon="1.85783">
        <ele>473</ele>
        <time>2014-10-11T10:26:13Z</time>
      </trkpt>
      <trkpt lat="42.94307" lon="1.858">
        <ele>474</ele>
        <time>2014-10-11T10:26:16Z</time>
      </trkpt>
      <trkpt lat="42.94325" lon="1.85815">
        <ele>475</ele>
        <time>2014-10-11T10:26:19Z</time>
      </trkpt>
      <trkpt lat="42.94345" lon="1.85832">
        <ele>474</ele>
        <time>2014-10-11T10:26:22Z</time>
      </trkpt>
      <trkpt lat="42.94366" lon="1.85849">
        <ele>474</ele>
        <time>2014-10-11T10:26:25Z</time>
      </trkpt>
      <trkpt lat="42.94379" lon="1.85862">
        <ele>473</ele>
        <time>2014-10-11T10:26:27Z</time>
      </trkpt>
      <trkpt lat="42.94392" lon="1.85875">
        <ele>473</ele>
        <time>2014-10-11T10:26:29Z</time>
      </trkpt>
      <trkpt lat="42.9441" lon="1.85894">
        <ele>473</ele>
        <time>2014-10-11T10:26:32Z</time>
      </trkpt>
      <trkpt lat="42.94421" lon="1.85907">
        <ele>472</ele>
        <time>2014-10-11T10:26:34Z</time>
      </trkpt>
      <trkpt lat="42.94433" lon="1.8592">
        <ele>472</ele>
        <time>2014-10-11T10:26:36Z</time>
      </trkpt>
      <trkpt lat="42.94448" lon="1.85939">
        <ele>472</ele>
        <time>2014-10-11T10:26:39Z</time>
      </trkpt>
      <trkpt lat="42.94463" lon="1.85957">
        <ele>471</ele>
        <time>2014-10-11T10:26:42Z</time>
      </trkpt>
      <trkpt lat="42.94478" lon="1.85973">
        <ele>471</ele>
        <time>2014-10-11T10:26:45Z</time>
      </trkpt>
      <trkpt lat="42.9449" lon="1.85987">
        <ele>470</ele>
        <time>2014-10-11T10:26:48Z</time>
      </trkpt>
      <trkpt lat="42.94499" lon="1.86007">
        <ele>470</ele>
        <time>2014-10-11T10:26:51Z</time>
      </trkpt>
      <trkpt lat="42.94511" lon="1.86022">
        <ele>470</ele>
        <time>2014-10-11T10:26:54Z</time>
      </trkpt>
      <trkpt lat="42.94519" lon="1.86033">
        <ele>469</ele>
        <time>2014-10-11T10:26:56Z</time>
      </trkpt>
      <trkpt lat="42.94529" lon="1.8605">
        <ele>469</ele>
        <time>2014-10-11T10:26:59Z</time>
      </trkpt>
      <trkpt lat="42.9454" lon="1.86065">
        <ele>469</ele>
        <time>2014-10-11T10:27:02Z</time>
      </trkpt>
      <trkpt lat="42.94551" lon="1.86081">
        <ele>469</ele>
        <time>2014-10-11T10:27:05Z</time>
      </trkpt>
      <trkpt lat="42.94563" lon="1.86099">
        <ele>468</ele>
        <time>2014-10-11T10:27:08Z</time>
      </trkpt>
      <trkpt lat="42.94571" lon="1.86111">
        <ele>468</ele>
        <time>2014-10-11T10:27:10Z</time>
      </trkpt>
      <trkpt lat="42.94579" lon="1.86124">
        <ele>468</ele>
        <time>2014-10-11T10:27:12Z</time>
      </trkpt>
      <trkpt lat="42.94591" lon="1.86141">
        <ele>468</ele>
        <time>2014-10-11T10:27:15Z</time>
      </trkpt>
      <trkpt lat="42.94601" lon="1.86158">
        <ele>467</ele>
        <time>2014-10-11T10:27:18Z</time>
      </trkpt>
      <trkpt lat="42.94608" lon="1.86168">
        <ele>467</ele>
        <time>2014-10-11T10:27:20Z</time>
      </trkpt>
      <trkpt lat="42.9462" lon="1.86184">
        <ele>467</ele>
        <time>2014-10-11T10:27:23Z</time>
      </trkpt>
      <trkpt lat="42.94633" lon="1.86202">
        <ele>467</ele>
        <time>2014-10-11T10:27:26Z</time>
      </trkpt>
      <trkpt lat="42.94646" lon="1.8622">
        <ele>467</ele>
        <time>2014-10-11T10:27:29Z</time>
      </trkpt>
      <trkpt lat="42.94656" lon="1.86236">
        <ele>466</ele>
        <time>2014-10-11T10:27:32Z</time>
      </trkpt>
      <trkpt lat="42.94663" lon="1.86247">
        <ele>466</ele>
        <time>2014-10-11T10:27:34Z</time>
      </trkpt>
      <trkpt lat="42.94675" lon="1.86266">
        <ele>466</ele>
        <time>2014-10-11T10:27:37Z</time>
      </trkpt>
      <trkpt lat="42.94683" lon="1.86277">
        <ele>466</ele>
        <time>2014-10-11T10:27:39Z</time>
      </trkpt>
      <trkpt lat="42.94693" lon="1.8629">
        <ele>465</ele>
        <time>2014-10-11T10:27:42Z</time>
      </trkpt>
      <trkpt lat="42.94698" lon="1.86298">
        <ele>465</ele>
        <time>2014-10-11T10:27:44Z</time>
      </trkpt>
      <trkpt lat="42.94703" lon="1.86304">
        <ele>465</ele>
        <time>2014-10-11T10:27:46Z</time>
      </trkpt>
      <trkpt lat="42.94707" lon="1.86309">
        <ele>465</ele>
        <time>2014-10-11T10:27:48Z</time>
      </trkpt>
      <trkpt lat="42.94712" lon="1.86314">
        <ele>464</ele>
        <time>2014-10-11T10:27:51Z</time>
      </trkpt>
      <trkpt lat="42.94727" lon="1.86332">
        <ele>464</ele>
        <time>2014-10-11T10:27:54Z</time>
      </trkpt>
      <trkpt lat="42.94735" lon="1.86345">
        <ele>465</ele>
        <time>2014-10-11T10:27:56Z</time>
      </trkpt>
      <trkpt lat="42.94744" lon="1.86358">
        <ele>465</ele>
        <time>2014-10-11T10:27:58Z</time>
      </trkpt>
      <trkpt lat="42.94758" lon="1.86378">
        <ele>465</ele>
        <time>2014-10-11T10:28:01Z</time>
      </trkpt>
      <trkpt lat="42.94771" lon="1.86397">
        <ele>465</ele>
        <time>2014-10-11T10:28:04Z</time>
      </trkpt>
      <trkpt lat="42.94788" lon="1.86411">
        <ele>464</ele>
        <time>2014-10-11T10:28:07Z</time>
      </trkpt>
      <trkpt lat="42.94798" lon="1.86421">
        <ele>464</ele>
        <time>2014-10-11T10:28:09Z</time>
      </trkpt>
      <trkpt lat="42.94805" lon="1.86432">
        <ele>464</ele>
        <time>2014-10-11T10:28:12Z</time>
      </trkpt>
      <trkpt lat="42.94809" lon="1.86443">
        <ele>463</ele>
        <time>2014-10-11T10:28:15Z</time>
      </trkpt>
      <trkpt lat="42.94808" lon="1.86451">
        <ele>463</ele>
        <time>2014-10-11T10:28:18Z</time>
      </trkpt>
      <trkpt lat="42.94806" lon="1.86453">
        <ele>463</ele>
        <time>2014-10-11T10:28:21Z</time>
      </trkpt>
      <trkpt lat="42.94806" lon="1.86453">
        <ele>463</ele>
        <time>2014-10-11T10:28:23Z</time>
      </trkpt>
      <trkpt lat="42.94806" lon="1.86453">
        <ele>463</ele>
        <time>2014-10-11T10:28:25Z</time>
      </trkpt>
      <trkpt lat="42.94801" lon="1.86451">
        <ele>463</ele>
        <time>2014-10-11T10:28:28Z</time>
      </trkpt>
      <trkpt lat="42.94796" lon="1.86449">
        <ele>463</ele>
        <time>2014-10-11T10:28:30Z</time>
      </trkpt>
      <trkpt lat="42.94789" lon="1.86446">
        <ele>463</ele>
        <time>2014-10-11T10:28:33Z</time>
      </trkpt>
      <trkpt lat="42.94784" lon="1.86443">
        <ele>463</ele>
        <time>2014-10-11T10:28:35Z</time>
      </trkpt>
      <trkpt lat="42.94777" lon="1.86443">
        <ele>464</ele>
        <time>2014-10-11T10:28:38Z</time>
      </trkpt>
      <trkpt lat="42.94773" lon="1.86448">
        <ele>465</ele>
        <time>2014-10-11T10:28:40Z</time>
      </trkpt>
      <trkpt lat="42.94768" lon="1.86457">
        <ele>466</ele>
        <time>2014-10-11T10:28:43Z</time>
      </trkpt>
      <trkpt lat="42.94765" lon="1.86462">
        <ele>467</ele>
        <time>2014-10-11T10:28:45Z</time>
      </trkpt>
      <trkpt lat="42.9476" lon="1.8647">
        <ele>467</ele>
        <time>2014-10-11T10:28:48Z</time>
      </trkpt>
      <trkpt lat="42.94757" lon="1.86474">
        <ele>468</ele>
        <time>2014-10-11T10:28:50Z</time>
      </trkpt>
      <trkpt lat="42.94754" lon="1.8648">
        <ele>468</ele>
        <time>2014-10-11T10:28:52Z</time>
      </trkpt>
      <trkpt lat="42.94748" lon="1.86489">
        <ele>469</ele>
        <time>2014-10-11T10:28:55Z</time>
      </trkpt>
      <trkpt lat="42.94743" lon="1.86497">
        <ele>470</ele>
        <time>2014-10-11T10:28:58Z</time>
      </trkpt>
      <trkpt lat="42.9474" lon="1.86503">
        <ele>470</ele>
        <time>2014-10-11T10:29:00Z</time>
      </trkpt>
      <trkpt lat="42.94735" lon="1.86509">
        <ele>470</ele>
        <time>2014-10-11T10:29:02Z</time>
      </trkpt>
      <trkpt lat="42.94732" lon="1.86514">
        <ele>471</ele>
        <time>2014-10-11T10:29:04Z</time>
      </trkpt>
      <trkpt lat="42.94725" lon="1.86522">
        <ele>472</ele>
        <time>2014-10-11T10:29:07Z</time>
      </trkpt>
      <trkpt lat="42.94722" lon="1.86527">
        <ele>472</ele>
        <time>2014-10-11T10:29:09Z</time>
      </trkpt>
      <trkpt lat="42.94718" lon="1.86533">
        <ele>472</ele>
        <time>2014-10-11T10:29:11Z</time>
      </trkpt>
      <trkpt lat="42.94712" lon="1.86542">
        <ele>473</ele>
        <time>2014-10-11T10:29:14Z</time>
      </trkpt>
      <trkpt lat="42.94708" lon="1.86548">
        <ele>473</ele>
        <time>2014-10-11T10:29:16Z</time>
      </trkpt>
      <trkpt lat="42.94705" lon="1.86554">
        <ele>474</ele>
        <time>2014-10-11T10:29:18Z</time>
      </trkpt>
      <trkpt lat="42.94702" lon="1.8656">
        <ele>474</ele>
        <time>2014-10-11T10:29:20Z</time>
      </trkpt>
      <trkpt lat="42.94699" lon="1.8657">
        <ele>474</ele>
        <time>2014-10-11T10:29:23Z</time>
      </trkpt>
      <trkpt lat="42.94698" lon="1.86577">
        <ele>475</ele>
        <time>2014-10-11T10:29:25Z</time>
      </trkpt>
      <trkpt lat="42.94696" lon="1.86585">
        <ele>475</ele>
        <time>2014-10-11T10:29:28Z</time>
      </trkpt>
      <trkpt lat="42.94696" lon="1.86589">
        <ele>475</ele>
        <time>2014-10-11T10:29:30Z</time>
      </trkpt>
      <trkpt lat="42.94694" lon="1.86598">
        <ele>475</ele>
        <time>2014-10-11T10:29:33Z</time>
      </trkpt>
      <trkpt lat="42.94691" lon="1.86606">
        <ele>475</ele>
        <time>2014-10-11T10:29:35Z</time>
      </trkpt>
      <trkpt lat="42.94689" lon="1.86618">
        <ele>476</ele>
        <time>2014-10-11T10:29:38Z</time>
      </trkpt>
      <trkpt lat="42.94687" lon="1.86628">
        <ele>476</ele>
        <time>2014-10-11T10:29:40Z</time>
      </trkpt>
      <trkpt lat="42.94682" lon="1.86641">
        <ele>476</ele>
        <time>2014-10-11T10:29:43Z</time>
      </trkpt>
      <trkpt lat="42.9468" lon="1.86649">
        <ele>476</ele>
        <time>2014-10-11T10:29:45Z</time>
      </trkpt>
      <trkpt lat="42.94677" lon="1.86657">
        <ele>476</ele>
        <time>2014-10-11T10:29:47Z</time>
      </trkpt>
      <trkpt lat="42.94677" lon="1.86668">
        <ele>476</ele>
        <time>2014-10-11T10:29:49Z</time>
      </trkpt>
      <trkpt lat="42.94675" lon="1.86677">
        <ele>476</ele>
        <time>2014-10-11T10:29:51Z</time>
      </trkpt>
      <trkpt lat="42.94673" lon="1.86694">
        <ele>476</ele>
        <time>2014-10-11T10:29:54Z</time>
      </trkpt>
      <trkpt lat="42.94672" lon="1.8671">
        <ele>477</ele>
        <time>2014-10-11T10:29:56Z</time>
      </trkpt>
      <trkpt lat="42.94667" lon="1.86731">
        <ele>477</ele>
        <time>2014-10-11T10:29:59Z</time>
      </trkpt>
      <trkpt lat="42.9466" lon="1.86746">
        <ele>477</ele>
        <time>2014-10-11T10:30:02Z</time>
      </trkpt>
      <trkpt lat="42.94654" lon="1.86755">
        <ele>477</ele>
        <time>2014-10-11T10:30:04Z</time>
      </trkpt>
      <trkpt lat="42.94648" lon="1.86764">
        <ele>476</ele>
        <time>2014-10-11T10:30:06Z</time>
      </trkpt>
      <trkpt lat="42.94641" lon="1.86772">
        <ele>477</ele>
        <time>2014-10-11T10:30:08Z</time>
      </trkpt>
      <trkpt lat="42.94634" lon="1.86783">
        <ele>476</ele>
        <time>2014-10-11T10:30:11Z</time>
      </trkpt>
      <trkpt lat="42.94631" lon="1.86792">
        <ele>477</ele>
        <time>2014-10-11T10:30:14Z</time>
      </trkpt>
      <trkpt lat="42.9463" lon="1.86796">
        <ele>477</ele>
        <time>2014-10-11T10:30:16Z</time>
      </trkpt>
      <trkpt lat="42.94629" lon="1.86804">
        <ele>477</ele>
        <time>2014-10-11T10:30:19Z</time>
      </trkpt>
      <trkpt lat="42.9463" lon="1.86808">
        <ele>477</ele>
        <time>2014-10-11T10:30:21Z</time>
      </trkpt>
      <trkpt lat="42.94629" lon="1.86815">
        <ele>478</ele>
        <time>2014-10-11T10:30:24Z</time>
      </trkpt>
      <trkpt lat="42.94627" lon="1.86819">
        <ele>478</ele>
        <time>2014-10-11T10:30:26Z</time>
      </trkpt>
      <trkpt lat="42.94626" lon="1.86825">
        <ele>479</ele>
        <time>2014-10-11T10:30:29Z</time>
      </trkpt>
      <trkpt lat="42.94625" lon="1.86829">
        <ele>479</ele>
        <time>2014-10-11T10:30:31Z</time>
      </trkpt>
      <trkpt lat="42.94621" lon="1.86835">
        <ele>480</ele>
        <time>2014-10-11T10:30:34Z</time>
      </trkpt>
      <trkpt lat="42.94617" lon="1.8684">
        <ele>480</ele>
        <time>2014-10-11T10:30:37Z</time>
      </trkpt>
      <trkpt lat="42.94614" lon="1.86844">
        <ele>481</ele>
        <time>2014-10-11T10:30:39Z</time>
      </trkpt>
      <trkpt lat="42.94612" lon="1.86851">
        <ele>481</ele>
        <time>2014-10-11T10:30:42Z</time>
      </trkpt>
      <trkpt lat="42.94611" lon="1.86857">
        <ele>482</ele>
        <time>2014-10-11T10:30:44Z</time>
      </trkpt>
      <trkpt lat="42.94609" lon="1.86863">
        <ele>483</ele>
        <time>2014-10-11T10:30:46Z</time>
      </trkpt>
      <trkpt lat="42.94608" lon="1.86873">
        <ele>483</ele>
        <time>2014-10-11T10:30:49Z</time>
      </trkpt>
      <trkpt lat="42.94606" lon="1.86879">
        <ele>484</ele>
        <time>2014-10-11T10:30:51Z</time>
      </trkpt>
      <trkpt lat="42.94604" lon="1.86888">
        <ele>484</ele>
        <time>2014-10-11T10:30:54Z</time>
      </trkpt>
      <trkpt lat="42.94603" lon="1.86893">
        <ele>485</ele>
        <time>2014-10-11T10:30:56Z</time>
      </trkpt>
      <trkpt lat="42.94602" lon="1.86899">
        <ele>485</ele>
        <time>2014-10-11T10:30:58Z</time>
      </trkpt>
      <trkpt lat="42.94599" lon="1.86906">
        <ele>486</ele>
        <time>2014-10-11T10:31:01Z</time>
      </trkpt>
      <trkpt lat="42.94596" lon="1.86912">
        <ele>486</ele>
        <time>2014-10-11T10:31:03Z</time>
      </trkpt>
      <trkpt lat="42.94594" lon="1.86917">
        <ele>486</ele>
        <time>2014-10-11T10:31:05Z</time>
      </trkpt>
      <trkpt lat="42.94592" lon="1.86923">
        <ele>487</ele>
        <time>2014-10-11T10:31:07Z</time>
      </trkpt>
      <trkpt lat="42.9459" lon="1.86932">
        <ele>487</ele>
        <time>2014-10-11T10:31:10Z</time>
      </trkpt>
      <trkpt lat="42.94587" lon="1.8694">
        <ele>488</ele>
        <time>2014-10-11T10:31:13Z</time>
      </trkpt>
      <trkpt lat="42.94584" lon="1.86948">
        <ele>488</ele>
        <time>2014-10-11T10:31:16Z</time>
      </trkpt>
      <trkpt lat="42.94582" lon="1.86952">
        <ele>489</ele>
        <time>2014-10-11T10:31:18Z</time>
      </trkpt>
      <trkpt lat="42.94579" lon="1.86958">
        <ele>489</ele>
        <time>2014-10-11T10:31:21Z</time>
      </trkpt>
      <trkpt lat="42.94575" lon="1.86965">
        <ele>490</ele>
        <time>2014-10-11T10:31:24Z</time>
      </trkpt>
      <trkpt lat="42.94575" lon="1.8697">
        <ele>491</ele>
        <time>2014-10-11T10:31:26Z</time>
      </trkpt>
      <trkpt lat="42.94571" lon="1.86975">
        <ele>492</ele>
        <time>2014-10-11T10:31:29Z</time>
      </trkpt>
      <trkpt lat="42.9457" lon="1.86979">
        <ele>492</ele>
        <time>2014-10-11T10:31:31Z</time>
      </trkpt>
      <trkpt lat="42.94567" lon="1.86985">
        <ele>493</ele>
        <time>2014-10-11T10:31:34Z</time>
      </trkpt>
      <trkpt lat="42.94566" lon="1.86989">
        <ele>493</ele>
        <time>2014-10-11T10:31:36Z</time>
      </trkpt>
      <trkpt lat="42.94563" lon="1.86995">
        <ele>494</ele>
        <time>2014-10-11T10:31:39Z</time>
      </trkpt>
      <trkpt lat="42.94562" lon="1.86999">
        <ele>494</ele>
        <time>2014-10-11T10:31:41Z</time>
      </trkpt>
      <trkpt lat="42.94561" lon="1.87005">
        <ele>494</ele>
        <time>2014-10-11T10:31:44Z</time>
      </trkpt>
      <trkpt lat="42.94559" lon="1.87009">
        <ele>494</ele>
        <time>2014-10-11T10:31:46Z</time>
      </trkpt>
      <trkpt lat="42.94557" lon="1.87016">
        <ele>495</ele>
        <time>2014-10-11T10:31:49Z</time>
      </trkpt>
      <trkpt lat="42.94553" lon="1.87024">
        <ele>495</ele>
        <time>2014-10-11T10:31:52Z</time>
      </trkpt>
      <trkpt lat="42.9455" lon="1.8703">
        <ele>495</ele>
        <time>2014-10-11T10:31:54Z</time>
      </trkpt>
      <trkpt lat="42.94547" lon="1.87038">
        <ele>495</ele>
        <time>2014-10-11T10:31:57Z</time>
      </trkpt>
      <trkpt lat="42.94546" lon="1.87044">
        <ele>496</ele>
        <time>2014-10-11T10:31:59Z</time>
      </trkpt>
      <trkpt lat="42.94544" lon="1.87053">
        <ele>497</ele>
        <time>2014-10-11T10:32:02Z</time>
      </trkpt>
      <trkpt lat="42.94542" lon="1.87057">
        <ele>498</ele>
        <time>2014-10-11T10:32:04Z</time>
      </trkpt>
      <trkpt lat="42.9454" lon="1.87066">
        <ele>498</ele>
        <time>2014-10-11T10:32:07Z</time>
      </trkpt>
      <trkpt lat="42.94538" lon="1.87076">
        <ele>498</ele>
        <time>2014-10-11T10:32:10Z</time>
      </trkpt>
      <trkpt lat="42.94537" lon="1.87084">
        <ele>499</ele>
        <time>2014-10-11T10:32:13Z</time>
      </trkpt>
      <trkpt lat="42.94535" lon="1.87093">
        <ele>499</ele>
        <time>2014-10-11T10:32:16Z</time>
      </trkpt>
      <trkpt lat="42.94533" lon="1.87098">
        <ele>500</ele>
        <time>2014-10-11T10:32:18Z</time>
      </trkpt>
      <trkpt lat="42.94532" lon="1.87102">
        <ele>500</ele>
        <time>2014-10-11T10:32:20Z</time>
      </trkpt>
      <trkpt lat="42.94528" lon="1.87109">
        <ele>501</ele>
        <time>2014-10-11T10:32:23Z</time>
      </trkpt>
      <trkpt lat="42.94527" lon="1.87116">
        <ele>502</ele>
        <time>2014-10-11T10:32:26Z</time>
      </trkpt>
      <trkpt lat="42.94526" lon="1.87122">
        <ele>502</ele>
        <time>2014-10-11T10:32:28Z</time>
      </trkpt>
      <trkpt lat="42.94525" lon="1.8713">
        <ele>503</ele>
        <time>2014-10-11T10:32:31Z</time>
      </trkpt>
      <trkpt lat="42.94523" lon="1.87138">
        <ele>503</ele>
        <time>2014-10-11T10:32:34Z</time>
      </trkpt>
      <trkpt lat="42.94522" lon="1.87144">
        <ele>504</ele>
        <time>2014-10-11T10:32:36Z</time>
      </trkpt>
      <trkpt lat="42.9452" lon="1.87153">
        <ele>504</ele>
        <time>2014-10-11T10:32:39Z</time>
      </trkpt>
      <trkpt lat="42.94519" lon="1.87159">
        <ele>505</ele>
        <time>2014-10-11T10:32:41Z</time>
      </trkpt>
      <trkpt lat="42.94517" lon="1.87164">
        <ele>505</ele>
        <time>2014-10-11T10:32:43Z</time>
      </trkpt>
      <trkpt lat="42.94516" lon="1.87169">
        <ele>505</ele>
        <time>2014-10-11T10:32:45Z</time>
      </trkpt>
      <trkpt lat="42.94515" lon="1.87176">
        <ele>506</ele>
        <time>2014-10-11T10:32:47Z</time>
      </trkpt>
      <trkpt lat="42.94513" lon="1.87184">
        <ele>506</ele>
        <time>2014-10-11T10:32:50Z</time>
      </trkpt>
      <trkpt lat="42.94513" lon="1.8719">
        <ele>506</ele>
        <time>2014-10-11T10:32:52Z</time>
      </trkpt>
      <trkpt lat="42.94511" lon="1.87199">
        <ele>507</ele>
        <time>2014-10-11T10:32:55Z</time>
      </trkpt>
      <trkpt lat="42.94509" lon="1.87207">
        <ele>507</ele>
        <time>2014-10-11T10:32:58Z</time>
      </trkpt>
      <trkpt lat="42.94508" lon="1.87212">
        <ele>508</ele>
        <time>2014-10-11T10:33:00Z</time>
      </trkpt>
      <trkpt lat="42.94506" lon="1.87216">
        <ele>508</ele>
        <time>2014-10-11T10:33:02Z</time>
      </trkpt>
      <trkpt lat="42.94505" lon="1.87222">
        <ele>509</ele>
        <time>2014-10-11T10:33:05Z</time>
      </trkpt>
      <trkpt lat="42.94503" lon="1.87229">
        <ele>509</ele>
        <time>2014-10-11T10:33:08Z</time>
      </trkpt>
      <trkpt lat="42.94501" lon="1.87235">
        <ele>509</ele>
        <time>2014-10-11T10:33:11Z</time>
      </trkpt>
      <trkpt lat="42.94499" lon="1.8724">
        <ele>510</ele>
        <time>2014-10-11T10:33:13Z</time>
      </trkpt>
      <trkpt lat="42.94497" lon="1.87246">
        <ele>510</ele>
        <time>2014-10-11T10:33:16Z</time>
      </trkpt>
      <trkpt lat="42.94495" lon="1.87252">
        <ele>511</ele>
        <time>2014-10-11T10:33:19Z</time>
      </trkpt>
      <trkpt lat="42.94493" lon="1.87258">
        <ele>511</ele>
        <time>2014-10-11T10:33:22Z</time>
      </trkpt>
      <trkpt lat="42.94491" lon="1.87261">
        <ele>511</ele>
        <time>2014-10-11T10:33:24Z</time>
      </trkpt>
      <trkpt lat="42.9449" lon="1.87266">
        <ele>511</ele>
        <time>2014-10-11T10:33:26Z</time>
      </trkpt>
      <trkpt lat="42.94488" lon="1.87269">
        <ele>512</ele>
        <time>2014-10-11T10:33:28Z</time>
      </trkpt>
      <trkpt lat="42.94485" lon="1.87273">
        <ele>512</ele>
        <time>2014-10-11T10:33:30Z</time>
      </trkpt>
      <trkpt lat="42.94483" lon="1.8728">
        <ele>513</ele>
        <time>2014-10-11T10:33:33Z</time>
      </trkpt>
      <trkpt lat="42.94481" lon="1.87284">
        <ele>514</ele>
        <time>2014-10-11T10:33:35Z</time>
      </trkpt>
      <trkpt lat="42.94479" lon="1.87291">
        <ele>514</ele>
        <time>2014-10-11T10:33:38Z</time>
      </trkpt>
      <trkpt lat="42.94478" lon="1.87295">
        <ele>515</ele>
        <time>2014-10-11T10:33:40Z</time>
      </trkpt>
      <trkpt lat="42.94476" lon="1.87299">
        <ele>515</ele>
        <time>2014-10-11T10:33:42Z</time>
      </trkpt>
      <trkpt lat="42.94473" lon="1.87306">
        <ele>516</ele>
        <time>2014-10-11T10:33:45Z</time>
      </trkpt>
      <trkpt lat="42.9447" lon="1.8731">
        <ele>516</ele>
        <time>2014-10-11T10:33:47Z</time>
      </trkpt>
      <trkpt lat="42.94469" lon="1.87314">
        <ele>517</ele>
        <time>2014-10-11T10:33:49Z</time>
      </trkpt>
      <trkpt lat="42.94468" lon="1.8732">
        <ele>517</ele>
        <time>2014-10-11T10:33:51Z</time>
      </trkpt>
      <trkpt lat="42.94466" lon="1.87324">
        <ele>517</ele>
        <time>2014-10-11T10:33:53Z</time>
      </trkpt>
      <trkpt lat="42.94464" lon="1.8733">
        <ele>518</ele>
        <time>2014-10-11T10:33:56Z</time>
      </trkpt>
      <trkpt lat="42.94463" lon="1.87336">
        <ele>518</ele>
        <time>2014-10-11T10:33:58Z</time>
      </trkpt>
      <trkpt lat="42.94461" lon="1.8734">
        <ele>519</ele>
        <time>2014-10-11T10:34:00Z</time>
      </trkpt>
      <trkpt lat="42.9446" lon="1.87345">
        <ele>519</ele>
        <time>2014-10-11T10:34:02Z</time>
      </trkpt>
      <trkpt lat="42.94459" lon="1.87351">
        <ele>519</ele>
        <time>2014-10-11T10:34:04Z</time>
      </trkpt>
      <trkpt lat="42.94458" lon="1.87361">
        <ele>519</ele>
        <time>2014-10-11T10:34:07Z</time>
      </trkpt>
      <trkpt lat="42.94456" lon="1.87367">
        <ele>519</ele>
        <time>2014-10-11T10:34:09Z</time>
      </trkpt>
      <trkpt lat="42.94454" lon="1.87373">
        <ele>520</ele>
        <time>2014-10-11T10:34:11Z</time>
      </trkpt>
      <trkpt lat="42.94451" lon="1.87381">
        <ele>520</ele>
        <time>2014-10-11T10:34:14Z</time>
      </trkpt>
      <trkpt lat="42.9445" lon="1.87387">
        <ele>520</ele>
        <time>2014-10-11T10:34:16Z</time>
      </trkpt>
      <trkpt lat="42.9445" lon="1.87394">
        <ele>521</ele>
        <time>2014-10-11T10:34:19Z</time>
      </trkpt>
      <trkpt lat="42.9445" lon="1.87399">
        <ele>521</ele>
        <time>2014-10-11T10:34:21Z</time>
      </trkpt>
      <trkpt lat="42.94449" lon="1.87403">
        <ele>521</ele>
        <time>2014-10-11T10:34:23Z</time>
      </trkpt>
      <trkpt lat="42.94448" lon="1.87408">
        <ele>521</ele>
        <time>2014-10-11T10:34:26Z</time>
      </trkpt>
      <trkpt lat="42.94446" lon="1.87412">
        <ele>521</ele>
        <time>2014-10-11T10:34:28Z</time>
      </trkpt>
      <trkpt lat="42.94444" lon="1.87421">
        <ele>522</ele>
        <time>2014-10-11T10:34:31Z</time>
      </trkpt>
      <trkpt lat="42.94443" lon="1.87427">
        <ele>522</ele>
        <time>2014-10-11T10:34:33Z</time>
      </trkpt>
      <trkpt lat="42.94442" lon="1.87435">
        <ele>523</ele>
        <time>2014-10-11T10:34:36Z</time>
      </trkpt>
      <trkpt lat="42.94442" lon="1.87441">
        <ele>523</ele>
        <time>2014-10-11T10:34:38Z</time>
      </trkpt>
      <trkpt lat="42.94442" lon="1.8745">
        <ele>524</ele>
        <time>2014-10-11T10:34:41Z</time>
      </trkpt>
      <trkpt lat="42.94441" lon="1.87455">
        <ele>524</ele>
        <time>2014-10-11T10:34:43Z</time>
      </trkpt>
      <trkpt lat="42.94439" lon="1.87463">
        <ele>525</ele>
        <time>2014-10-11T10:34:46Z</time>
      </trkpt>
      <trkpt lat="42.94437" lon="1.87472">
        <ele>525</ele>
        <time>2014-10-11T10:34:49Z</time>
      </trkpt>
      <trkpt lat="42.94435" lon="1.87479">
        <ele>525</ele>
        <time>2014-10-11T10:34:52Z</time>
      </trkpt>
      <trkpt lat="42.94432" lon="1.87487">
        <ele>526</ele>
        <time>2014-10-11T10:34:55Z</time>
      </trkpt>
      <trkpt lat="42.9443" lon="1.87495">
        <ele>526</ele>
        <time>2014-10-11T10:34:58Z</time>
      </trkpt>
      <trkpt lat="42.9443" lon="1.87506">
        <ele>527</ele>
        <time>2014-10-11T10:35:01Z</time>
      </trkpt>
      <trkpt lat="42.94431" lon="1.87514">
        <ele>527</ele>
        <time>2014-10-11T10:35:03Z</time>
      </trkpt>
      <trkpt lat="42.94429" lon="1.87523">
        <ele>527</ele>
        <time>2014-10-11T10:35:06Z</time>
      </trkpt>
      <trkpt lat="42.94428" lon="1.87527">
        <ele>528</ele>
        <time>2014-10-11T10:35:08Z</time>
      </trkpt>
      <trkpt lat="42.94426" lon="1.87533">
        <ele>529</ele>
        <time>2014-10-11T10:35:11Z</time>
      </trkpt>
      <trkpt lat="42.94424" lon="1.87538">
        <ele>529</ele>
        <time>2014-10-11T10:35:13Z</time>
      </trkpt>
      <trkpt lat="42.94421" lon="1.87544">
        <ele>529</ele>
        <time>2014-10-11T10:35:16Z</time>
      </trkpt>
      <trkpt lat="42.94416" lon="1.87551">
        <ele>530</ele>
        <time>2014-10-11T10:35:19Z</time>
      </trkpt>
      <trkpt lat="42.94414" lon="1.8756">
        <ele>531</ele>
        <time>2014-10-11T10:35:22Z</time>
      </trkpt>
      <trkpt lat="42.94411" lon="1.87565">
        <ele>531</ele>
        <time>2014-10-11T10:35:24Z</time>
      </trkpt>
      <trkpt lat="42.94408" lon="1.87573">
        <ele>532</ele>
        <time>2014-10-11T10:35:27Z</time>
      </trkpt>
      <trkpt lat="42.94406" lon="1.87578">
        <ele>532</ele>
        <time>2014-10-11T10:35:29Z</time>
      </trkpt>
      <trkpt lat="42.94405" lon="1.87587">
        <ele>532</ele>
        <time>2014-10-11T10:35:32Z</time>
      </trkpt>
      <trkpt lat="42.94403" lon="1.87594">
        <ele>532</ele>
        <time>2014-10-11T10:35:34Z</time>
      </trkpt>
      <trkpt lat="42.94403" lon="1.87604">
        <ele>533</ele>
        <time>2014-10-11T10:35:37Z</time>
      </trkpt>
      <trkpt lat="42.94403" lon="1.87609">
        <ele>533</ele>
        <time>2014-10-11T10:35:39Z</time>
      </trkpt>
      <trkpt lat="42.94401" lon="1.87615">
        <ele>533</ele>
        <time>2014-10-11T10:35:42Z</time>
      </trkpt>
      <trkpt lat="42.94401" lon="1.8762">
        <ele>533</ele>
        <time>2014-10-11T10:35:44Z</time>
      </trkpt>
      <trkpt lat="42.944" lon="1.87629">
        <ele>533</ele>
        <time>2014-10-11T10:35:47Z</time>
      </trkpt>
      <trkpt lat="42.94398" lon="1.87634">
        <ele>534</ele>
        <time>2014-10-11T10:35:49Z</time>
      </trkpt>
      <trkpt lat="42.94397" lon="1.8764">
        <ele>534</ele>
        <time>2014-10-11T10:35:51Z</time>
      </trkpt>
      <trkpt lat="42.94395" lon="1.87649">
        <ele>535</ele>
        <time>2014-10-11T10:35:54Z</time>
      </trkpt>
      <trkpt lat="42.94392" lon="1.87657">
        <ele>536</ele>
        <time>2014-10-11T10:35:57Z</time>
      </trkpt>
      <trkpt lat="42.94389" lon="1.87665">
        <ele>536</ele>
        <time>2014-10-11T10:36:00Z</time>
      </trkpt>
      <trkpt lat="42.94387" lon="1.87673">
        <ele>536</ele>
        <time>2014-10-11T10:36:03Z</time>
      </trkpt>
      <trkpt lat="42.94384" lon="1.87681">
        <ele>536</ele>
        <time>2014-10-11T10:36:06Z</time>
      </trkpt>
      <trkpt lat="42.94381" lon="1.8769">
        <ele>537</ele>
        <time>2014-10-11T10:36:09Z</time>
      </trkpt>
      <trkpt lat="42.94379" lon="1.877">
        <ele>537</ele>
        <time>2014-10-11T10:36:12Z</time>
      </trkpt>
      <trkpt lat="42.94378" lon="1.87705">
        <ele>538</ele>
        <time>2014-10-11T10:36:14Z</time>
      </trkpt>
      <trkpt lat="42.94378" lon="1.87714">
        <ele>538</ele>
        <time>2014-10-11T10:36:17Z</time>
      </trkpt>
      <trkpt lat="42.94381" lon="1.87722">
        <ele>539</ele>
        <time>2014-10-11T10:36:20Z</time>
      </trkpt>
      <trkpt lat="42.94378" lon="1.87728">
        <ele>540</ele>
        <time>2014-10-11T10:36:23Z</time>
      </trkpt>
      <trkpt lat="42.94375" lon="1.87734">
        <ele>540</ele>
        <time>2014-10-11T10:36:26Z</time>
      </trkpt>
      <trkpt lat="42.94376" lon="1.87741">
        <ele>541</ele>
        <time>2014-10-11T10:36:29Z</time>
      </trkpt>
      <trkpt lat="42.94379" lon="1.87744">
        <ele>541</ele>
        <time>2014-10-11T10:36:32Z</time>
      </trkpt>
      <trkpt lat="42.94381" lon="1.87744">
        <ele>542</ele>
        <time>2014-10-11T10:36:35Z</time>
      </trkpt>
      <trkpt lat="42.94382" lon="1.87746">
        <ele>542</ele>
        <time>2014-10-11T10:36:38Z</time>
      </trkpt>
      <trkpt lat="42.94381" lon="1.87749">
        <ele>541</ele>
        <time>2014-10-11T10:36:40Z</time>
      </trkpt>
      <trkpt lat="42.94379" lon="1.87752">
        <ele>541</ele>
        <time>2014-10-11T10:36:43Z</time>
      </trkpt>
      <trkpt lat="42.94379" lon="1.87754">
        <ele>541</ele>
        <time>2014-10-11T10:36:45Z</time>
      </trkpt>
      <trkpt lat="42.9438" lon="1.87755">
        <ele>541</ele>
        <time>2014-10-11T10:36:47Z</time>
      </trkpt>
      <trkpt lat="42.9438" lon="1.87757">
        <ele>542</ele>
        <time>2014-10-11T10:36:50Z</time>
      </trkpt>
      <trkpt lat="42.94381" lon="1.8776">
        <ele>542</ele>
        <time>2014-10-11T10:36:53Z</time>
      </trkpt>
      <trkpt lat="42.94383" lon="1.87761">
        <ele>542</ele>
        <time>2014-10-11T10:36:55Z</time>
      </trkpt>
      <trkpt lat="42.94386" lon="1.87759">
        <ele>542</ele>
        <time>2014-10-11T10:36:58Z</time>
      </trkpt>
      <trkpt lat="42.94389" lon="1.87761">
        <ele>542</ele>
        <time>2014-10-11T10:37:01Z</time>
      </trkpt>
      <trkpt lat="42.9439" lon="1.87764">
        <ele>542</ele>
        <time>2014-10-11T10:37:04Z</time>
      </trkpt>
      <trkpt lat="42.9439" lon="1.87765">
        <ele>541</ele>
        <time>2014-10-11T10:37:06Z</time>
      </trkpt>
      <trkpt lat="42.9439" lon="1.87765">
        <ele>540</ele>
        <time>2014-10-11T10:37:09Z</time>
      </trkpt>
      <trkpt lat="42.9439" lon="1.87766">
        <ele>540</ele>
        <time>2014-10-11T10:37:12Z</time>
      </trkpt>
      <trkpt lat="42.9439" lon="1.87765">
        <ele>540</ele>
        <time>2014-10-11T10:37:15Z</time>
      </trkpt>
      <trkpt lat="42.94391" lon="1.87765">
        <ele>540</ele>
        <time>2014-10-11T10:37:17Z</time>
      </trkpt>
      <trkpt lat="42.94389" lon="1.87763">
        <ele>540</ele>
        <time>2014-10-11T10:37:20Z</time>
      </trkpt>
      <trkpt lat="42.94387" lon="1.87761">
        <ele>541</ele>
        <time>2014-10-11T10:37:23Z</time>
      </trkpt>
      <trkpt lat="42.94384" lon="1.87761">
        <ele>540</ele>
        <time>2014-10-11T10:37:25Z</time>
      </trkpt>
      <trkpt lat="42.94381" lon="1.87765">
        <ele>540</ele>
        <time>2014-10-11T10:37:28Z</time>
      </trkpt>
      <trkpt lat="42.94381" lon="1.87769">
        <ele>541</ele>
        <time>2014-10-11T10:37:30Z</time>
      </trkpt>
      <trkpt lat="42.94382" lon="1.87772">
        <ele>541</ele>
        <time>2014-10-11T10:37:32Z</time>
      </trkpt>
      <trkpt lat="42.94382" lon="1.87783">
        <ele>541</ele>
        <time>2014-10-11T10:37:35Z</time>
      </trkpt>
      <trkpt lat="42.94383" lon="1.87793">
        <ele>541</ele>
        <time>2014-10-11T10:37:38Z</time>
      </trkpt>
      <trkpt lat="42.94386" lon="1.87809">
        <ele>540</ele>
        <time>2014-10-11T10:37:41Z</time>
      </trkpt>
      <trkpt lat="42.94387" lon="1.87839">
        <ele>540</ele>
        <time>2014-10-11T10:37:44Z</time>
      </trkpt>
      <trkpt lat="42.94387" lon="1.87879">
        <ele>540</ele>
        <time>2014-10-11T10:37:47Z</time>
      </trkpt>
      <trkpt lat="42.94388" lon="1.87923">
        <ele>540</ele>
        <time>2014-10-11T10:37:50Z</time>
      </trkpt>
      <trkpt lat="42.94388" lon="1.87953">
        <ele>540</ele>
        <time>2014-10-11T10:37:52Z</time>
      </trkpt>
      <trkpt lat="42.94384" lon="1.87997">
        <ele>539</ele>
        <time>2014-10-11T10:37:55Z</time>
      </trkpt>
      <trkpt lat="42.94382" lon="1.88024">
        <ele>539</ele>
        <time>2014-10-11T10:37:57Z</time>
      </trkpt>
      <trkpt lat="42.94382" lon="1.88049">
        <ele>539</ele>
        <time>2014-10-11T10:37:59Z</time>
      </trkpt>
      <trkpt lat="42.9438" lon="1.88079">
        <ele>539</ele>
        <time>2014-10-11T10:38:02Z</time>
      </trkpt>
      <trkpt lat="42.94378" lon="1.88105">
        <ele>539</ele>
        <time>2014-10-11T10:38:05Z</time>
      </trkpt>
      <trkpt lat="42.94376" lon="1.88128">
        <ele>540</ele>
        <time>2014-10-11T10:38:08Z</time>
      </trkpt>
      <trkpt lat="42.94374" lon="1.88145">
        <ele>540</ele>
        <time>2014-10-11T10:38:11Z</time>
      </trkpt>
      <trkpt lat="42.94373" lon="1.88162">
        <ele>540</ele>
        <time>2014-10-11T10:38:14Z</time>
      </trkpt>
      <trkpt lat="42.94374" lon="1.88178">
        <ele>541</ele>
        <time>2014-10-11T10:38:17Z</time>
      </trkpt>
      <trkpt lat="42.94373" lon="1.88187">
        <ele>541</ele>
        <time>2014-10-11T10:38:19Z</time>
      </trkpt>
      <trkpt lat="42.94373" lon="1.88198">
        <ele>542</ele>
        <time>2014-10-11T10:38:22Z</time>
      </trkpt>
      <trkpt lat="42.94373" lon="1.88206">
        <ele>542</ele>
        <time>2014-10-11T10:38:24Z</time>
      </trkpt>
      <trkpt lat="42.94373" lon="1.88215">
        <ele>542</ele>
        <time>2014-10-11T10:38:26Z</time>
      </trkpt>
      <trkpt lat="42.94371" lon="1.88227">
        <ele>543</ele>
        <time>2014-10-11T10:38:29Z</time>
      </trkpt>
      <trkpt lat="42.94368" lon="1.88238">
        <ele>543</ele>
        <time>2014-10-11T10:38:32Z</time>
      </trkpt>
      <trkpt lat="42.94368" lon="1.88251">
        <ele>544</ele>
        <time>2014-10-11T10:38:35Z</time>
      </trkpt>
      <trkpt lat="42.94367" lon="1.88266">
        <ele>544</ele>
        <time>2014-10-11T10:38:38Z</time>
      </trkpt>
      <trkpt lat="42.94369" lon="1.88278">
        <ele>544</ele>
        <time>2014-10-11T10:38:41Z</time>
      </trkpt>
      <trkpt lat="42.94371" lon="1.88288">
        <ele>544</ele>
        <time>2014-10-11T10:38:44Z</time>
      </trkpt>
      <trkpt lat="42.94372" lon="1.88297">
        <ele>544</ele>
        <time>2014-10-11T10:38:47Z</time>
      </trkpt>
      <trkpt lat="42.94376" lon="1.88308">
        <ele>544</ele>
        <time>2014-10-11T10:38:50Z</time>
      </trkpt>
      <trkpt lat="42.94381" lon="1.88322">
        <ele>544</ele>
        <time>2014-10-11T10:38:53Z</time>
      </trkpt>
      <trkpt lat="42.94387" lon="1.88336">
        <ele>543</ele>
        <time>2014-10-11T10:38:56Z</time>
      </trkpt>
      <trkpt lat="42.94395" lon="1.88351">
        <ele>543</ele>
        <time>2014-10-11T10:38:59Z</time>
      </trkpt>
      <trkpt lat="42.944" lon="1.88363">
        <ele>543</ele>
        <time>2014-10-11T10:39:01Z</time>
      </trkpt>
      <trkpt lat="42.94403" lon="1.88372">
        <ele>543</ele>
        <time>2014-10-11T10:39:04Z</time>
      </trkpt>
      <trkpt lat="42.94405" lon="1.88376">
        <ele>542</ele>
        <time>2014-10-11T10:39:06Z</time>
      </trkpt>
      <trkpt lat="42.94407" lon="1.88382">
        <ele>541</ele>
        <time>2014-10-11T10:39:08Z</time>
      </trkpt>
      <trkpt lat="42.94414" lon="1.88402">
        <ele>541</ele>
        <time>2014-10-11T10:39:11Z</time>
      </trkpt>
      <trkpt lat="42.9442" lon="1.88421">
        <ele>540</ele>
        <time>2014-10-11T10:39:14Z</time>
      </trkpt>
      <trkpt lat="42.94424" lon="1.88448">
        <ele>539</ele>
        <time>2014-10-11T10:39:17Z</time>
      </trkpt>
      <trkpt lat="42.94426" lon="1.88473">
        <ele>539</ele>
        <time>2014-10-11T10:39:19Z</time>
      </trkpt>
      <trkpt lat="42.94425" lon="1.88501">
        <ele>538</ele>
        <time>2014-10-11T10:39:21Z</time>
      </trkpt>
      <trkpt lat="42.94427" lon="1.88541">
        <ele>536</ele>
        <time>2014-10-11T10:39:24Z</time>
      </trkpt>
      <trkpt lat="42.94423" lon="1.88565">
        <ele>535</ele>
        <time>2014-10-11T10:39:26Z</time>
      </trkpt>
      <trkpt lat="42.94412" lon="1.88599">
        <ele>534</ele>
        <time>2014-10-11T10:39:29Z</time>
      </trkpt>
      <trkpt lat="42.94408" lon="1.88634">
        <ele>532</ele>
        <time>2014-10-11T10:39:32Z</time>
      </trkpt>
      <trkpt lat="42.94407" lon="1.88659">
        <ele>531</ele>
        <time>2014-10-11T10:39:34Z</time>
      </trkpt>
      <trkpt lat="42.94408" lon="1.88684">
        <ele>530</ele>
        <time>2014-10-11T10:39:36Z</time>
      </trkpt>
      <trkpt lat="42.94408" lon="1.88718">
        <ele>528</ele>
        <time>2014-10-11T10:39:39Z</time>
      </trkpt>
      <trkpt lat="42.94408" lon="1.88754">
        <ele>526</ele>
        <time>2014-10-11T10:39:42Z</time>
      </trkpt>
      <trkpt lat="42.94409" lon="1.88778">
        <ele>525</ele>
        <time>2014-10-11T10:39:44Z</time>
      </trkpt>
      <trkpt lat="42.9441" lon="1.88816">
        <ele>523</ele>
        <time>2014-10-11T10:39:47Z</time>
      </trkpt>
      <trkpt lat="42.9441" lon="1.88857">
        <ele>520</ele>
        <time>2014-10-11T10:39:50Z</time>
      </trkpt>
      <trkpt lat="42.9441" lon="1.88886">
        <ele>518</ele>
        <time>2014-10-11T10:39:52Z</time>
      </trkpt>
      <trkpt lat="42.9441" lon="1.88928">
        <ele>515</ele>
        <time>2014-10-11T10:39:55Z</time>
      </trkpt>
      <trkpt lat="42.94411" lon="1.88966">
        <ele>511</ele>
        <time>2014-10-11T10:39:58Z</time>
      </trkpt>
      <trkpt lat="42.9441" lon="1.88999">
        <ele>507</ele>
        <time>2014-10-11T10:40:01Z</time>
      </trkpt>
      <trkpt lat="42.94407" lon="1.89018">
        <ele>506</ele>
        <time>2014-10-11T10:40:03Z</time>
      </trkpt>
      <trkpt lat="42.94408" lon="1.89037">
        <ele>505</ele>
        <time>2014-10-11T10:40:05Z</time>
      </trkpt>
      <trkpt lat="42.94412" lon="1.89065">
        <ele>504</ele>
        <time>2014-10-11T10:40:08Z</time>
      </trkpt>
      <trkpt lat="42.9441" lon="1.89084">
        <ele>503</ele>
        <time>2014-10-11T10:40:11Z</time>
      </trkpt>
      <trkpt lat="42.94408" lon="1.89096">
        <ele>503</ele>
        <time>2014-10-11T10:40:13Z</time>
      </trkpt>
      <trkpt lat="42.94407" lon="1.89108">
        <ele>502</ele>
        <time>2014-10-11T10:40:15Z</time>
      </trkpt>
      <trkpt lat="42.94407" lon="1.89121">
        <ele>503</ele>
        <time>2014-10-11T10:40:17Z</time>
      </trkpt>
      <trkpt lat="42.94407" lon="1.89137">
        <ele>503</ele>
        <time>2014-10-11T10:40:20Z</time>
      </trkpt>
      <trkpt lat="42.94407" lon="1.89152">
        <ele>503</ele>
        <time>2014-10-11T10:40:23Z</time>
      </trkpt>
      <trkpt lat="42.94407" lon="1.89158">
        <ele>503</ele>
        <time>2014-10-11T10:40:25Z</time>
      </trkpt>
      <trkpt lat="42.94405" lon="1.89163">
        <ele>503</ele>
        <time>2014-10-11T10:40:28Z</time>
      </trkpt>
      <trkpt lat="42.94405" lon="1.89165">
        <ele>503</ele>
        <time>2014-10-11T10:40:30Z</time>
      </trkpt>
      <trkpt lat="42.94403" lon="1.89169">
        <ele>503</ele>
        <time>2014-10-11T10:40:33Z</time>
      </trkpt>
      <trkpt lat="42.94402" lon="1.89175">
        <ele>502</ele>
        <time>2014-10-11T10:40:35Z</time>
      </trkpt>
      <trkpt lat="42.94399" lon="1.89186">
        <ele>502</ele>
        <time>2014-10-11T10:40:38Z</time>
      </trkpt>
      <trkpt lat="42.94398" lon="1.89202">
        <ele>501</ele>
        <time>2014-10-11T10:40:41Z</time>
      </trkpt>
      <trkpt lat="42.94398" lon="1.89212">
        <ele>501</ele>
        <time>2014-10-11T10:40:43Z</time>
      </trkpt>
      <trkpt lat="42.944" lon="1.89219">
        <ele>501</ele>
        <time>2014-10-11T10:40:45Z</time>
      </trkpt>
      <trkpt lat="42.94403" lon="1.89228">
        <ele>502</ele>
        <time>2014-10-11T10:40:48Z</time>
      </trkpt>
      <trkpt lat="42.94408" lon="1.89236">
        <ele>501</ele>
        <time>2014-10-11T10:40:51Z</time>
      </trkpt>
      <trkpt lat="42.94412" lon="1.89241">
        <ele>502</ele>
        <time>2014-10-11T10:40:53Z</time>
      </trkpt>
      <trkpt lat="42.94416" lon="1.89247">
        <ele>501</ele>
        <time>2014-10-11T10:40:55Z</time>
      </trkpt>
      <trkpt lat="42.94421" lon="1.89253">
        <ele>501</ele>
        <time>2014-10-11T10:40:57Z</time>
      </trkpt>
      <trkpt lat="42.94427" lon="1.89265">
        <ele>501</ele>
        <time>2014-10-11T10:41:00Z</time>
      </trkpt>
      <trkpt lat="42.9443" lon="1.8927">
        <ele>501</ele>
        <time>2014-10-11T10:41:02Z</time>
      </trkpt>
      <trkpt lat="42.94432" lon="1.89274">
        <ele>501</ele>
        <time>2014-10-11T10:41:04Z</time>
      </trkpt>
      <trkpt lat="42.94436" lon="1.89281">
        <ele>501</ele>
        <time>2014-10-11T10:41:07Z</time>
      </trkpt>
      <trkpt lat="42.94441" lon="1.89289">
        <ele>501</ele>
        <time>2014-10-11T10:41:10Z</time>
      </trkpt>
      <trkpt lat="42.94444" lon="1.89295">
        <ele>501</ele>
        <time>2014-10-11T10:41:12Z</time>
      </trkpt>
      <trkpt lat="42.94448" lon="1.89302">
        <ele>502</ele>
        <time>2014-10-11T10:41:15Z</time>
      </trkpt>
      <trkpt lat="42.9445" lon="1.89306">
        <ele>502</ele>
        <time>2014-10-11T10:41:17Z</time>
      </trkpt>
      <trkpt lat="42.94453" lon="1.89311">
        <ele>502</ele>
        <time>2014-10-11T10:41:19Z</time>
      </trkpt>
      <trkpt lat="42.94455" lon="1.89317">
        <ele>502</ele>
        <time>2014-10-11T10:41:22Z</time>
      </trkpt>
      <trkpt lat="42.94458" lon="1.89324">
        <ele>502</ele>
        <time>2014-10-11T10:41:25Z</time>
      </trkpt>
      <trkpt lat="42.94459" lon="1.89329">
        <ele>502</ele>
        <time>2014-10-11T10:41:27Z</time>
      </trkpt>
      <trkpt lat="42.94461" lon="1.89337">
        <ele>502</ele>
        <time>2014-10-11T10:41:30Z</time>
      </trkpt>
      <trkpt lat="42.94462" lon="1.89343">
        <ele>502</ele>
        <time>2014-10-11T10:41:32Z</time>
      </trkpt>
      <trkpt lat="42.94464" lon="1.89352">
        <ele>502</ele>
        <time>2014-10-11T10:41:34Z</time>
      </trkpt>
      <trkpt lat="42.94466" lon="1.89366">
        <ele>502</ele>
        <time>2014-10-11T10:41:37Z</time>
      </trkpt>
      <trkpt lat="42.94468" lon="1.89373">
        <ele>501</ele>
        <time>2014-10-11T10:41:39Z</time>
      </trkpt>
      <trkpt lat="42.9447" lon="1.89383">
        <ele>501</ele>
        <time>2014-10-11T10:41:42Z</time>
      </trkpt>
      <trkpt lat="42.94473" lon="1.89399">
        <ele>501</ele>
        <time>2014-10-11T10:41:45Z</time>
      </trkpt>
      <trkpt lat="42.94473" lon="1.89409">
        <ele>501</ele>
        <time>2014-10-11T10:41:47Z</time>
      </trkpt>
      <trkpt lat="42.94473" lon="1.89418">
        <ele>501</ele>
        <time>2014-10-11T10:41:49Z</time>
      </trkpt>
      <trkpt lat="42.94474" lon="1.89435">
        <ele>500</ele>
        <time>2014-10-11T10:41:52Z</time>
      </trkpt>
      <trkpt lat="42.94475" lon="1.89451">
        <ele>500</ele>
        <time>2014-10-11T10:41:55Z</time>
      </trkpt>
      <trkpt lat="42.94474" lon="1.89467">
        <ele>501</ele>
        <time>2014-10-11T10:41:58Z</time>
      </trkpt>
      <trkpt lat="42.94474" lon="1.89479">
        <ele>500</ele>
        <time>2014-10-11T10:42:00Z</time>
      </trkpt>
      <trkpt lat="42.94474" lon="1.89495">
        <ele>500</ele>
        <time>2014-10-11T10:42:03Z</time>
      </trkpt>
      <trkpt lat="42.94475" lon="1.89511">
        <ele>500</ele>
        <time>2014-10-11T10:42:06Z</time>
      </trkpt>
      <trkpt lat="42.94476" lon="1.8952">
        <ele>499</ele>
        <time>2014-10-11T10:42:08Z</time>
      </trkpt>
      <trkpt lat="42.94478" lon="1.89534">
        <ele>499</ele>
        <time>2014-10-11T10:42:11Z</time>
      </trkpt>
      <trkpt lat="42.94479" lon="1.89541">
        <ele>499</ele>
        <time>2014-10-11T10:42:13Z</time>
      </trkpt>
      <trkpt lat="42.94479" lon="1.89545">
        <ele>498</ele>
        <time>2014-10-11T10:42:16Z</time>
      </trkpt>
      <trkpt lat="42.9448" lon="1.89546">
        <ele>497</ele>
        <time>2014-10-11T10:42:18Z</time>
      </trkpt>
      <trkpt lat="42.94479" lon="1.89547">
        <ele>497</ele>
        <time>2014-10-11T10:42:20Z</time>
      </trkpt>
      <trkpt lat="42.94479" lon="1.89549">
        <ele>497</ele>
        <time>2014-10-11T10:42:22Z</time>
      </trkpt>
      <trkpt lat="42.94479" lon="1.89551">
        <ele>497</ele>
        <time>2014-10-11T10:42:25Z</time>
      </trkpt>
      <trkpt lat="42.94482" lon="1.89564">
        <ele>497</ele>
        <time>2014-10-11T10:42:28Z</time>
      </trkpt>
      <trkpt lat="42.94484" lon="1.89581">
        <ele>496</ele>
        <time>2014-10-11T10:42:30Z</time>
      </trkpt>
      <trkpt lat="42.94484" lon="1.89605">
        <ele>494</ele>
        <time>2014-10-11T10:42:32Z</time>
      </trkpt>
      <trkpt lat="42.9449" lon="1.89649">
        <ele>491</ele>
        <time>2014-10-11T10:42:35Z</time>
      </trkpt>
      <trkpt lat="42.94502" lon="1.89676">
        <ele>488</ele>
        <time>2014-10-11T10:42:37Z</time>
      </trkpt>
      <trkpt lat="42.94513" lon="1.89698">
        <ele>485</ele>
        <time>2014-10-11T10:42:39Z</time>
      </trkpt>
      <trkpt lat="42.94516" lon="1.89734">
        <ele>482</ele>
        <time>2014-10-11T10:42:42Z</time>
      </trkpt>
      <trkpt lat="42.94516" lon="1.89761">
        <ele>481</ele>
        <time>2014-10-11T10:42:45Z</time>
      </trkpt>
      <trkpt lat="42.9452" lon="1.89804">
        <ele>479</ele>
        <time>2014-10-11T10:42:47Z</time>
      </trkpt>
      <trkpt lat="42.94522" lon="1.89853">
        <ele>476</ele>
        <time>2014-10-11T10:42:50Z</time>
      </trkpt>
      <trkpt lat="42.9453" lon="1.89893">
        <ele>470</ele>
        <time>2014-10-11T10:42:53Z</time>
      </trkpt>
      <trkpt lat="42.94533" lon="1.89909">
        <ele>466</ele>
        <time>2014-10-11T10:42:55Z</time>
      </trkpt>
      <trkpt lat="42.94526" lon="1.89915">
        <ele>463</ele>
        <time>2014-10-11T10:42:58Z</time>
      </trkpt>
      <trkpt lat="42.94513" lon="1.89897">
        <ele>460</ele>
        <time>2014-10-11T10:43:00Z</time>
      </trkpt>
      <trkpt lat="42.94501" lon="1.8989">
        <ele>458</ele>
        <time>2014-10-11T10:43:02Z</time>
      </trkpt>
      <trkpt lat="42.94487" lon="1.8988">
        <ele>457</ele>
        <time>2014-10-11T10:43:04Z</time>
      </trkpt>
      <trkpt lat="42.94469" lon="1.89853">
        <ele>454</ele>
        <time>2014-10-11T10:43:07Z</time>
      </trkpt>
      <trkpt lat="42.94457" lon="1.89849">
        <ele>452</ele>
        <time>2014-10-11T10:43:10Z</time>
      </trkpt>
      <trkpt lat="42.94455" lon="1.89873">
        <ele>449</ele>
        <time>2014-10-11T10:43:13Z</time>
      </trkpt>
      <trkpt lat="42.94458" lon="1.89892">
        <ele>448</ele>
        <time>2014-10-11T10:43:15Z</time>
      </trkpt>
      <trkpt lat="42.9446" lon="1.89923">
        <ele>446</ele>
        <time>2014-10-11T10:43:18Z</time>
      </trkpt>
      <trkpt lat="42.94466" lon="1.89944">
        <ele>445</ele>
        <time>2014-10-11T10:43:20Z</time>
      </trkpt>
      <trkpt lat="42.9448" lon="1.89978">
        <ele>444</ele>
        <time>2014-10-11T10:43:23Z</time>
      </trkpt>
      <trkpt lat="42.94486" lon="1.9002">
        <ele>441</ele>
        <time>2014-10-11T10:43:26Z</time>
      </trkpt>
      <trkpt lat="42.9449" lon="1.90051">
        <ele>439</ele>
        <time>2014-10-11T10:43:28Z</time>
      </trkpt>
      <trkpt lat="42.94505" lon="1.90094">
        <ele>435</ele>
        <time>2014-10-11T10:43:31Z</time>
      </trkpt>
      <trkpt lat="42.94519" lon="1.90117">
        <ele>432</ele>
        <time>2014-10-11T10:43:34Z</time>
      </trkpt>
      <trkpt lat="42.94535" lon="1.90141">
        <ele>429</ele>
        <time>2014-10-11T10:43:36Z</time>
      </trkpt>
      <trkpt lat="42.94543" lon="1.90155">
        <ele>425</ele>
        <time>2014-10-11T10:43:39Z</time>
      </trkpt>
      <trkpt lat="42.94544" lon="1.9016">
        <ele>422</ele>
        <time>2014-10-11T10:43:41Z</time>
      </trkpt>
      <trkpt lat="42.94542" lon="1.90162">
        <ele>420</ele>
        <time>2014-10-11T10:43:44Z</time>
      </trkpt>
      <trkpt lat="42.9454" lon="1.9016">
        <ele>419</ele>
        <time>2014-10-11T10:43:46Z</time>
      </trkpt>
      <trkpt lat="42.94535" lon="1.90158">
        <ele>419</ele>
        <time>2014-10-11T10:43:49Z</time>
      </trkpt>
      <trkpt lat="42.9453" lon="1.90154">
        <ele>419</ele>
        <time>2014-10-11T10:43:52Z</time>
      </trkpt>
      <trkpt lat="42.94521" lon="1.9015">
        <ele>419</ele>
        <time>2014-10-11T10:43:55Z</time>
      </trkpt>
      <trkpt lat="42.94515" lon="1.90147">
        <ele>419</ele>
        <time>2014-10-11T10:43:57Z</time>
      </trkpt>
      <trkpt lat="42.94506" lon="1.90141">
        <ele>419</ele>
        <time>2014-10-11T10:44:00Z</time>
      </trkpt>
      <trkpt lat="42.94496" lon="1.90136">
        <ele>419</ele>
        <time>2014-10-11T10:44:03Z</time>
      </trkpt>
      <trkpt lat="42.94487" lon="1.90129">
        <ele>419</ele>
        <time>2014-10-11T10:44:06Z</time>
      </trkpt>
      <trkpt lat="42.94481" lon="1.90124">
        <ele>419</ele>
        <time>2014-10-11T10:44:08Z</time>
      </trkpt>
      <trkpt lat="42.94473" lon="1.90118">
        <ele>419</ele>
        <time>2014-10-11T10:44:11Z</time>
      </trkpt>
      <trkpt lat="42.94468" lon="1.90113">
        <ele>419</ele>
        <time>2014-10-11T10:44:13Z</time>
      </trkpt>
      <trkpt lat="42.94462" lon="1.90106">
        <ele>419</ele>
        <time>2014-10-11T10:44:16Z</time>
      </trkpt>
      <trkpt lat="42.94453" lon="1.90099">
        <ele>419</ele>
        <time>2014-10-11T10:44:19Z</time>
      </trkpt>
      <trkpt lat="42.94442" lon="1.90088">
        <ele>419</ele>
        <time>2014-10-11T10:44:22Z</time>
      </trkpt>
      <trkpt lat="42.94434" lon="1.9008">
        <ele>419</ele>
        <time>2014-10-11T10:44:24Z</time>
      </trkpt>
      <trkpt lat="42.94425" lon="1.90073">
        <ele>419</ele>
        <time>2014-10-11T10:44:27Z</time>
      </trkpt>
      <trkpt lat="42.94412" lon="1.9006">
        <ele>419</ele>
        <time>2014-10-11T10:44:29Z</time>
      </trkpt>
      <trkpt lat="42.94397" lon="1.90047">
        <ele>419</ele>
        <time>2014-10-11T10:44:32Z</time>
      </trkpt>
      <trkpt lat="42.94384" lon="1.90033">
        <ele>419</ele>
        <time>2014-10-11T10:44:35Z</time>
      </trkpt>
      <trkpt lat="42.9437" lon="1.90021">
        <ele>419</ele>
        <time>2014-10-11T10:44:38Z</time>
      </trkpt>
      <trkpt lat="42.94361" lon="1.90012">
        <ele>420</ele>
        <time>2014-10-11T10:44:40Z</time>
      </trkpt>
      <trkpt lat="42.94347" lon="1.89999">
        <ele>420</ele>
        <time>2014-10-11T10:44:43Z</time>
      </trkpt>
      <trkpt lat="42.94339" lon="1.89991">
        <ele>420</ele>
        <time>2014-10-11T10:44:45Z</time>
      </trkpt>
      <trkpt lat="42.94331" lon="1.89982">
        <ele>420</ele>
        <time>2014-10-11T10:44:47Z</time>
      </trkpt>
      <trkpt lat="42.94319" lon="1.89972">
        <ele>419</ele>
        <time>2014-10-11T10:44:50Z</time>
      </trkpt>
      <trkpt lat="42.9431" lon="1.8997">
        <ele>419</ele>
        <time>2014-10-11T10:44:52Z</time>
      </trkpt>
      <trkpt lat="42.94299" lon="1.89971">
        <ele>419</ele>
        <time>2014-10-11T10:44:54Z</time>
      </trkpt>
      <trkpt lat="42.94281" lon="1.89975">
        <ele>418</ele>
        <time>2014-10-11T10:44:57Z</time>
      </trkpt>
      <trkpt lat="42.94269" lon="1.89974">
        <ele>418</ele>
        <time>2014-10-11T10:44:59Z</time>
      </trkpt>
      <trkpt lat="42.94257" lon="1.89976">
        <ele>417</ele>
        <time>2014-10-11T10:45:01Z</time>
      </trkpt>
      <trkpt lat="42.94239" lon="1.89978">
        <ele>418</ele>
        <time>2014-10-11T10:45:04Z</time>
      </trkpt>
      <trkpt lat="42.94227" lon="1.89981">
        <ele>418</ele>
        <time>2014-10-11T10:45:06Z</time>
      </trkpt>
      <trkpt lat="42.9421" lon="1.89992">
        <ele>418</ele>
        <time>2014-10-11T10:45:09Z</time>
      </trkpt>
      <trkpt lat="42.94202" lon="1.90003">
        <ele>418</ele>
        <time>2014-10-11T10:45:11Z</time>
      </trkpt>
      <trkpt lat="42.94195" lon="1.90024">
        <ele>417</ele>
        <time>2014-10-11T10:45:14Z</time>
      </trkpt>
      <trkpt lat="42.94192" lon="1.90047">
        <ele>417</ele>
        <time>2014-10-11T10:45:17Z</time>
      </trkpt>
      <trkpt lat="42.9419" lon="1.90061">
        <ele>417</ele>
        <time>2014-10-11T10:45:19Z</time>
      </trkpt>
      <trkpt lat="42.94186" lon="1.90081">
        <ele>417</ele>
        <time>2014-10-11T10:45:22Z</time>
      </trkpt>
      <trkpt lat="42.94183" lon="1.90093">
        <ele>417</ele>
        <time>2014-10-11T10:45:24Z</time>
      </trkpt>
      <trkpt lat="42.94172" lon="1.90095">
        <ele>417</ele>
        <time>2014-10-11T10:45:27Z</time>
      </trkpt>
      <trkpt lat="42.94165" lon="1.90098">
        <ele>418</ele>
        <time>2014-10-11T10:45:29Z</time>
      </trkpt>
      <trkpt lat="42.94158" lon="1.90109">
        <ele>418</ele>
        <time>2014-10-11T10:45:32Z</time>
      </trkpt>
      <trkpt lat="42.94158" lon="1.90123">
        <ele>419</ele>
        <time>2014-10-11T10:45:35Z</time>
      </trkpt>
      <trkpt lat="42.94165" lon="1.90133">
        <ele>420</ele>
        <time>2014-10-11T10:45:38Z</time>
      </trkpt>
      <trkpt lat="42.94172" lon="1.90139">
        <ele>420</ele>
        <time>2014-10-11T10:45:41Z</time>
      </trkpt>
      <trkpt lat="42.9418" lon="1.90145">
        <ele>420</ele>
        <time>2014-10-11T10:45:44Z</time>
      </trkpt>
      <trkpt lat="42.94186" lon="1.9015">
        <ele>421</ele>
        <time>2014-10-11T10:45:47Z</time>
      </trkpt>
      <trkpt lat="42.94191" lon="1.90155">
        <ele>422</ele>
        <time>2014-10-11T10:45:50Z</time>
      </trkpt>
      <trkpt lat="42.94193" lon="1.90162">
        <ele>423</ele>
        <time>2014-10-11T10:45:53Z</time>
      </trkpt>
      <trkpt lat="42.94193" lon="1.9017">
        <ele>423</ele>
        <time>2014-10-11T10:45:56Z</time>
      </trkpt>
      <trkpt lat="42.94194" lon="1.90178">
        <ele>424</ele>
        <time>2014-10-11T10:45:58Z</time>
      </trkpt>
      <trkpt lat="42.94196" lon="1.90186">
        <ele>425</ele>
        <time>2014-10-11T10:46:00Z</time>
      </trkpt>
      <trkpt lat="42.94199" lon="1.90197">
        <ele>426</ele>
        <time>2014-10-11T10:46:03Z</time>
      </trkpt>
      <trkpt lat="42.94201" lon="1.90204">
        <ele>426</ele>
        <time>2014-10-11T10:46:05Z</time>
      </trkpt>
      <trkpt lat="42.94203" lon="1.90212">
        <ele>427</ele>
        <time>2014-10-11T10:46:07Z</time>
      </trkpt>
      <trkpt lat="42.94205" lon="1.90223">
        <ele>427</ele>
        <time>2014-10-11T10:46:10Z</time>
      </trkpt>
      <trkpt lat="42.94207" lon="1.90231">
        <ele>428</ele>
        <time>2014-10-11T10:46:12Z</time>
      </trkpt>
      <trkpt lat="42.94208" lon="1.90238">
        <ele>429</ele>
        <time>2014-10-11T10:46:14Z</time>
      </trkpt>
      <trkpt lat="42.94211" lon="1.90246">
        <ele>429</ele>
        <time>2014-10-11T10:46:17Z</time>
      </trkpt>
      <trkpt lat="42.94213" lon="1.90255">
        <ele>431</ele>
        <time>2014-10-11T10:46:20Z</time>
      </trkpt>
      <trkpt lat="42.94215" lon="1.9026">
        <ele>431</ele>
        <time>2014-10-11T10:46:22Z</time>
      </trkpt>
      <trkpt lat="42.9422" lon="1.90269">
        <ele>431</ele>
        <time>2014-10-11T10:46:25Z</time>
      </trkpt>
      <trkpt lat="42.94223" lon="1.90277">
        <ele>432</ele>
        <time>2014-10-11T10:46:28Z</time>
      </trkpt>
      <trkpt lat="42.94225" lon="1.90283">
        <ele>432</ele>
        <time>2014-10-11T10:46:30Z</time>
      </trkpt>
      <trkpt lat="42.94223" lon="1.90288">
        <ele>433</ele>
        <time>2014-10-11T10:46:33Z</time>
      </trkpt>
      <trkpt lat="42.9422" lon="1.9029">
        <ele>433</ele>
        <time>2014-10-11T10:46:36Z</time>
      </trkpt>
      <trkpt lat="42.94216" lon="1.90287">
        <ele>434</ele>
        <time>2014-10-11T10:46:39Z</time>
      </trkpt>
      <trkpt lat="42.94214" lon="1.90284">
        <ele>435</ele>
        <time>2014-10-11T10:46:41Z</time>
      </trkpt>
      <trkpt lat="42.94212" lon="1.9028">
        <ele>435</ele>
        <time>2014-10-11T10:46:43Z</time>
      </trkpt>
      <trkpt lat="42.94208" lon="1.90277">
        <ele>436</ele>
        <time>2014-10-11T10:46:46Z</time>
      </trkpt>
      <trkpt lat="42.94203" lon="1.90277">
        <ele>437</ele>
        <time>2014-10-11T10:46:49Z</time>
      </trkpt>
      <trkpt lat="42.94197" lon="1.90279">
        <ele>437</ele>
        <time>2014-10-11T10:46:52Z</time>
      </trkpt>
      <trkpt lat="42.94192" lon="1.90281">
        <ele>437</ele>
        <time>2014-10-11T10:46:54Z</time>
      </trkpt>
      <trkpt lat="42.94186" lon="1.90287">
        <ele>438</ele>
        <time>2014-10-11T10:46:57Z</time>
      </trkpt>
      <trkpt lat="42.9418" lon="1.90294">
        <ele>439</ele>
        <time>2014-10-11T10:47:00Z</time>
      </trkpt>
      <trkpt lat="42.94176" lon="1.90298">
        <ele>439</ele>
        <time>2014-10-11T10:47:02Z</time>
      </trkpt>
      <trkpt lat="42.94171" lon="1.90305">
        <ele>440</ele>
        <time>2014-10-11T10:47:05Z</time>
      </trkpt>
      <trkpt lat="42.94167" lon="1.90312">
        <ele>441</ele>
        <time>2014-10-11T10:47:08Z</time>
      </trkpt>
      <trkpt lat="42.94165" lon="1.90317">
        <ele>441</ele>
        <time>2014-10-11T10:47:10Z</time>
      </trkpt>
      <trkpt lat="42.94162" lon="1.90327">
        <ele>442</ele>
        <time>2014-10-11T10:47:13Z</time>
      </trkpt>
      <trkpt lat="42.94161" lon="1.90333">
        <ele>442</ele>
        <time>2014-10-11T10:47:15Z</time>
      </trkpt>
      <trkpt lat="42.9416" lon="1.90339">
        <ele>443</ele>
        <time>2014-10-11T10:47:17Z</time>
      </trkpt>
      <trkpt lat="42.94159" lon="1.90349">
        <ele>444</ele>
        <time>2014-10-11T10:47:20Z</time>
      </trkpt>
      <trkpt lat="42.94159" lon="1.90356">
        <ele>444</ele>
        <time>2014-10-11T10:47:22Z</time>
      </trkpt>
      <trkpt lat="42.9416" lon="1.90365">
        <ele>444</ele>
        <time>2014-10-11T10:47:25Z</time>
      </trkpt>
      <trkpt lat="42.9416" lon="1.90369">
        <ele>444</ele>
        <time>2014-10-11T10:47:27Z</time>
      </trkpt>
      <trkpt lat="42.9416" lon="1.90374">
        <ele>445</ele>
        <time>2014-10-11T10:47:30Z</time>
      </trkpt>
      <trkpt lat="42.94159" lon="1.90377">
        <ele>445</ele>
        <time>2014-10-11T10:47:32Z</time>
      </trkpt>
      <trkpt lat="42.94157" lon="1.90385">
        <ele>445</ele>
        <time>2014-10-11T10:47:35Z</time>
      </trkpt>
      <trkpt lat="42.94154" lon="1.90395">
        <ele>446</ele>
        <time>2014-10-11T10:47:38Z</time>
      </trkpt>
      <trkpt lat="42.94152" lon="1.90405">
        <ele>446</ele>
        <time>2014-10-11T10:47:41Z</time>
      </trkpt>
      <trkpt lat="42.94149" lon="1.90412">
        <ele>447</ele>
        <time>2014-10-11T10:47:43Z</time>
      </trkpt>
      <trkpt lat="42.94144" lon="1.9042">
        <ele>448</ele>
        <time>2014-10-11T10:47:46Z</time>
      </trkpt>
      <trkpt lat="42.94141" lon="1.90425">
        <ele>449</ele>
        <time>2014-10-11T10:47:48Z</time>
      </trkpt>
      <trkpt lat="42.94136" lon="1.90431">
        <ele>449</ele>
        <time>2014-10-11T10:47:51Z</time>
      </trkpt>
      <trkpt lat="42.94132" lon="1.90436">
        <ele>450</ele>
        <time>2014-10-11T10:47:54Z</time>
      </trkpt>
      <trkpt lat="42.94129" lon="1.9044">
        <ele>451</ele>
        <time>2014-10-11T10:47:56Z</time>
      </trkpt>
      <trkpt lat="42.94125" lon="1.90446">
        <ele>451</ele>
        <time>2014-10-11T10:47:59Z</time>
      </trkpt>
      <trkpt lat="42.94122" lon="1.90451">
        <ele>452</ele>
        <time>2014-10-11T10:48:01Z</time>
      </trkpt>
      <trkpt lat="42.9412" lon="1.90455">
        <ele>453</ele>
        <time>2014-10-11T10:48:03Z</time>
      </trkpt>
      <trkpt lat="42.94117" lon="1.90461">
        <ele>453</ele>
        <time>2014-10-11T10:48:06Z</time>
      </trkpt>
      <trkpt lat="42.94117" lon="1.90465">
        <ele>454</ele>
        <time>2014-10-11T10:48:09Z</time>
      </trkpt>
      <trkpt lat="42.94121" lon="1.9047">
        <ele>455</ele>
        <time>2014-10-11T10:48:12Z</time>
      </trkpt>
      <trkpt lat="42.94123" lon="1.90471">
        <ele>455</ele>
        <time>2014-10-11T10:48:14Z</time>
      </trkpt>
      <trkpt lat="42.94129" lon="1.90476">
        <ele>456</ele>
        <time>2014-10-11T10:48:17Z</time>
      </trkpt>
      <trkpt lat="42.94134" lon="1.9048">
        <ele>456</ele>
        <time>2014-10-11T10:48:20Z</time>
      </trkpt>
      <trkpt lat="42.94137" lon="1.90481">
        <ele>456</ele>
        <time>2014-10-11T10:48:22Z</time>
      </trkpt>
      <trkpt lat="42.94142" lon="1.90482">
        <ele>456</ele>
        <time>2014-10-11T10:48:25Z</time>
      </trkpt>
      <trkpt lat="42.94146" lon="1.90483">
        <ele>457</ele>
        <time>2014-10-11T10:48:27Z</time>
      </trkpt>
      <trkpt lat="42.94151" lon="1.90486">
        <ele>457</ele>
        <time>2014-10-11T10:48:30Z</time>
      </trkpt>
      <trkpt lat="42.94153" lon="1.90486">
        <ele>457</ele>
        <time>2014-10-11T10:48:32Z</time>
      </trkpt>
      <trkpt lat="42.94162" lon="1.90487">
        <ele>457</ele>
        <time>2014-10-11T10:48:35Z</time>
      </trkpt>
      <trkpt lat="42.9417" lon="1.9049">
        <ele>457</ele>
        <time>2014-10-11T10:48:38Z</time>
      </trkpt>
      <trkpt lat="42.94175" lon="1.90492">
        <ele>457</ele>
        <time>2014-10-11T10:48:41Z</time>
      </trkpt>
      <trkpt lat="42.94176" lon="1.90492">
        <ele>457</ele>
        <time>2014-10-11T10:48:43Z</time>
      </trkpt>
      <trkpt lat="42.94177" lon="1.90492">
        <ele>458</ele>
        <time>2014-10-11T10:48:45Z</time>
      </trkpt>
      <trkpt lat="42.94184" lon="1.90486">
        <ele>458</ele>
        <time>2014-10-11T10:48:48Z</time>
      </trkpt>
      <trkpt lat="42.94184" lon="1.90487">
        <ele>458</ele>
        <time>2014-10-11T10:48:50Z</time>
      </trkpt>
      <trkpt lat="42.94186" lon="1.90486">
        <ele>458</ele>
        <time>2014-10-11T10:48:53Z</time>
      </trkpt>
      <trkpt lat="42.9419" lon="1.90486">
        <ele>458</ele>
        <time>2014-10-11T10:48:56Z</time>
      </trkpt>
      <trkpt lat="42.94194" lon="1.90487">
        <ele>457</ele>
        <time>2014-10-11T10:48:58Z</time>
      </trkpt>
      <trkpt lat="42.94199" lon="1.90489">
        <ele>457</ele>
        <time>2014-10-11T10:49:00Z</time>
      </trkpt>
      <trkpt lat="42.94203" lon="1.90492">
        <ele>456</ele>
        <time>2014-10-11T10:49:03Z</time>
      </trkpt>
      <trkpt lat="42.94212" lon="1.90492">
        <ele>455</ele>
        <time>2014-10-11T10:49:06Z</time>
      </trkpt>
      <trkpt lat="42.94219" lon="1.90491">
        <ele>454</ele>
        <time>2014-10-11T10:49:08Z</time>
      </trkpt>
      <trkpt lat="42.94228" lon="1.90486">
        <ele>453</ele>
        <time>2014-10-11T10:49:11Z</time>
      </trkpt>
      <trkpt lat="42.94238" lon="1.90475">
        <ele>451</ele>
        <time>2014-10-11T10:49:14Z</time>
      </trkpt>
      <trkpt lat="42.94246" lon="1.90463">
        <ele>450</ele>
        <time>2014-10-11T10:49:16Z</time>
      </trkpt>
      <trkpt lat="42.94258" lon="1.9045">
        <ele>448</ele>
        <time>2014-10-11T10:49:19Z</time>
      </trkpt>
      <trkpt lat="42.94269" lon="1.90441">
        <ele>446</ele>
        <time>2014-10-11T10:49:22Z</time>
      </trkpt>
      <trkpt lat="42.94281" lon="1.90434">
        <ele>446</ele>
        <time>2014-10-11T10:49:25Z</time>
      </trkpt>
      <trkpt lat="42.94289" lon="1.90427">
        <ele>445</ele>
        <time>2014-10-11T10:49:27Z</time>
      </trkpt>
      <trkpt lat="42.94298" lon="1.9042">
        <ele>444</ele>
        <time>2014-10-11T10:49:29Z</time>
      </trkpt>
      <trkpt lat="42.9431" lon="1.90413">
        <ele>443</ele>
        <time>2014-10-11T10:49:32Z</time>
      </trkpt>
      <trkpt lat="42.94319" lon="1.9041">
        <ele>442</ele>
        <time>2014-10-11T10:49:34Z</time>
      </trkpt>
      <trkpt lat="42.94329" lon="1.90403">
        <ele>440</ele>
        <time>2014-10-11T10:49:37Z</time>
      </trkpt>
      <trkpt lat="42.94337" lon="1.90403">
        <ele>438</ele>
        <time>2014-10-11T10:49:40Z</time>
      </trkpt>
      <trkpt lat="42.94346" lon="1.90402">
        <ele>437</ele>
        <time>2014-10-11T10:49:43Z</time>
      </trkpt>
      <trkpt lat="42.94348" lon="1.90405">
        <ele>437</ele>
        <time>2014-10-11T10:49:46Z</time>
      </trkpt>
      <trkpt lat="42.94353" lon="1.90408">
        <ele>436</ele>
        <time>2014-10-11T10:49:48Z</time>
      </trkpt>
      <trkpt lat="42.94364" lon="1.90414">
        <ele>436</ele>
        <time>2014-10-11T10:49:51Z</time>
      </trkpt>
      <trkpt lat="42.94373" lon="1.90417">
        <ele>435</ele>
        <time>2014-10-11T10:49:54Z</time>
      </trkpt>
      <trkpt lat="42.94387" lon="1.9042">
        <ele>434</ele>
        <time>2014-10-11T10:49:57Z</time>
      </trkpt>
      <trkpt lat="42.94399" lon="1.90423">
        <ele>432</ele>
        <time>2014-10-11T10:49:59Z</time>
      </trkpt>
      <trkpt lat="42.94414" lon="1.90427">
        <ele>431</ele>
        <time>2014-10-11T10:50:02Z</time>
      </trkpt>
      <trkpt lat="42.94421" lon="1.90425">
        <ele>430</ele>
        <time>2014-10-11T10:50:05Z</time>
      </trkpt>
      <trkpt lat="42.94429" lon="1.90424">
        <ele>430</ele>
        <time>2014-10-11T10:50:08Z</time>
      </trkpt>
      <trkpt lat="42.94435" lon="1.90424">
        <ele>431</ele>
        <time>2014-10-11T10:50:10Z</time>
      </trkpt>
      <trkpt lat="42.94445" lon="1.90423">
        <ele>431</ele>
        <time>2014-10-11T10:50:13Z</time>
      </trkpt>
      <trkpt lat="42.94455" lon="1.90424">
        <ele>432</ele>
        <time>2014-10-11T10:50:16Z</time>
      </trkpt>
      <trkpt lat="42.94459" lon="1.90425">
        <ele>433</ele>
        <time>2014-10-11T10:50:18Z</time>
      </trkpt>
      <trkpt lat="42.94462" lon="1.90424">
        <ele>434</ele>
        <time>2014-10-11T10:50:20Z</time>
      </trkpt>
      <trkpt lat="42.94467" lon="1.90419">
        <ele>434</ele>
        <time>2014-10-11T10:50:23Z</time>
      </trkpt>
      <trkpt lat="42.94473" lon="1.9041">
        <ele>434</ele>
        <time>2014-10-11T10:50:26Z</time>
      </trkpt>
      <trkpt lat="42.94476" lon="1.90408">
        <ele>433</ele>
        <time>2014-10-11T10:50:28Z</time>
      </trkpt>
      <trkpt lat="42.94483" lon="1.90405">
        <ele>432</ele>
        <time>2014-10-11T10:50:31Z</time>
      </trkpt>
      <trkpt lat="42.94489" lon="1.90403">
        <ele>431</ele>
        <time>2014-10-11T10:50:33Z</time>
      </trkpt>
      <trkpt lat="42.94497" lon="1.90398">
        <ele>431</ele>
        <time>2014-10-11T10:50:36Z</time>
      </trkpt>
      <trkpt lat="42.94502" lon="1.90393">
        <ele>431</ele>
        <time>2014-10-11T10:50:38Z</time>
      </trkpt>
      <trkpt lat="42.94513" lon="1.90385">
        <ele>431</ele>
        <time>2014-10-11T10:50:41Z</time>
      </trkpt>
      <trkpt lat="42.94521" lon="1.90376">
        <ele>431</ele>
        <time>2014-10-11T10:50:43Z</time>
      </trkpt>
      <trkpt lat="42.94534" lon="1.90364">
        <ele>430</ele>
        <time>2014-10-11T10:50:46Z</time>
      </trkpt>
      <trkpt lat="42.94548" lon="1.90352">
        <ele>429</ele>
        <time>2014-10-11T10:50:49Z</time>
      </trkpt>
      <trkpt lat="42.94556" lon="1.90341">
        <ele>427</ele>
        <time>2014-10-11T10:50:52Z</time>
      </trkpt>
      <trkpt lat="42.94564" lon="1.90326">
        <ele>425</ele>
        <time>2014-10-11T10:50:55Z</time>
      </trkpt>
      <trkpt lat="42.94576" lon="1.90306">
        <ele>422</ele>
        <time>2014-10-11T10:50:58Z</time>
      </trkpt>
      <trkpt lat="42.94587" lon="1.90288">
        <ele>420</ele>
        <time>2014-10-11T10:51:01Z</time>
      </trkpt>
      <trkpt lat="42.94596" lon="1.90283">
        <ele>418</ele>
        <time>2014-10-11T10:51:04Z</time>
      </trkpt>
      <trkpt lat="42.94599" lon="1.9028">
        <ele>417</ele>
        <time>2014-10-11T10:51:06Z</time>
      </trkpt>
      <trkpt lat="42.94602" lon="1.90279">
        <ele>416</ele>
        <time>2014-10-11T10:51:08Z</time>
      </trkpt>
      <trkpt lat="42.94607" lon="1.90278">
        <ele>416</ele>
        <time>2014-10-11T10:51:11Z</time>
      </trkpt>
      <trkpt lat="42.94611" lon="1.90277">
        <ele>415</ele>
        <time>2014-10-11T10:51:14Z</time>
      </trkpt>
      <trkpt lat="42.94613" lon="1.90277">
        <ele>415</ele>
        <time>2014-10-11T10:51:17Z</time>
      </trkpt>
      <trkpt lat="42.94616" lon="1.90277">
        <ele>415</ele>
        <time>2014-10-11T10:51:20Z</time>
      </trkpt>
      <trkpt lat="42.94618" lon="1.90278">
        <ele>416</ele>
        <time>2014-10-11T10:51:23Z</time>
      </trkpt>
      <trkpt lat="42.94618" lon="1.90277">
        <ele>416</ele>
        <time>2014-10-11T10:51:26Z</time>
      </trkpt>
      <trkpt lat="42.94626" lon="1.9027">
        <ele>417</ele>
        <time>2014-10-11T10:51:29Z</time>
      </trkpt>
      <trkpt lat="42.94625" lon="1.90268">
        <ele>416</ele>
        <time>2014-10-11T10:51:32Z</time>
      </trkpt>
      <trkpt lat="42.94624" lon="1.90268">
        <ele>416</ele>
        <time>2014-10-11T10:51:34Z</time>
      </trkpt>
      <trkpt lat="42.94624" lon="1.90269">
        <ele>416</ele>
        <time>2014-10-11T10:51:36Z</time>
      </trkpt>
      <trkpt lat="42.94624" lon="1.90269">
        <ele>416</ele>
        <time>2014-10-11T10:51:39Z</time>
      </trkpt>
      <trkpt lat="42.94623" lon="1.90269">
        <ele>416</ele>
        <time>2014-10-11T10:51:41Z</time>
      </trkpt>
      <trkpt lat="42.9462" lon="1.90267">
        <ele>416</ele>
        <time>2014-10-11T10:51:44Z</time>
      </trkpt>
      <trkpt lat="42.94616" lon="1.90264">
        <ele>416</ele>
        <time>2014-10-11T10:51:46Z</time>
      </trkpt>
      <trkpt lat="42.94608" lon="1.90262">
        <ele>416</ele>
        <time>2014-10-11T10:51:49Z</time>
      </trkpt>
      <trkpt lat="42.94604" lon="1.90262">
        <ele>416</ele>
        <time>2014-10-11T10:51:51Z</time>
      </trkpt>
      <trkpt lat="42.946" lon="1.90262">
        <ele>416</ele>
        <time>2014-10-11T10:51:53Z</time>
      </trkpt>
      <trkpt lat="42.94594" lon="1.90261">
        <ele>416</ele>
        <time>2014-10-11T10:51:56Z</time>
      </trkpt>
      <trkpt lat="42.94588" lon="1.90261">
        <ele>417</ele>
        <time>2014-10-11T10:51:58Z</time>
      </trkpt>
      <trkpt lat="42.94582" lon="1.90263">
        <ele>418</ele>
        <time>2014-10-11T10:52:01Z</time>
      </trkpt>
      <trkpt lat="42.94578" lon="1.90264">
        <ele>418</ele>
        <time>2014-10-11T10:52:03Z</time>
      </trkpt>
      <trkpt lat="42.94573" lon="1.90267">
        <ele>419</ele>
        <time>2014-10-11T10:52:06Z</time>
      </trkpt>
      <trkpt lat="42.94569" lon="1.9027">
        <ele>420</ele>
        <time>2014-10-11T10:52:09Z</time>
      </trkpt>
      <trkpt lat="42.94564" lon="1.90272">
        <ele>420</ele>
        <time>2014-10-11T10:52:12Z</time>
      </trkpt>
      <trkpt lat="42.94561" lon="1.90273">
        <ele>421</ele>
        <time>2014-10-11T10:52:14Z</time>
      </trkpt>
      <trkpt lat="42.94558" lon="1.90275">
        <ele>421</ele>
        <time>2014-10-11T10:52:16Z</time>
      </trkpt>
      <trkpt lat="42.94556" lon="1.90277">
        <ele>422</ele>
        <time>2014-10-11T10:52:18Z</time>
      </trkpt>
      <trkpt lat="42.94552" lon="1.90281">
        <ele>423</ele>
        <time>2014-10-11T10:52:21Z</time>
      </trkpt>
      <trkpt lat="42.94549" lon="1.90282">
        <ele>424</ele>
        <time>2014-10-11T10:52:23Z</time>
      </trkpt>
      <trkpt lat="42.94545" lon="1.90286">
        <ele>425</ele>
        <time>2014-10-11T10:52:26Z</time>
      </trkpt>
      <trkpt lat="42.94542" lon="1.90289">
        <ele>426</ele>
        <time>2014-10-11T10:52:29Z</time>
      </trkpt>
      <trkpt lat="42.9454" lon="1.90292">
        <ele>426</ele>
        <time>2014-10-11T10:52:31Z</time>
      </trkpt>
      <trkpt lat="42.94536" lon="1.90296">
        <ele>427</ele>
        <time>2014-10-11T10:52:34Z</time>
      </trkpt>
      <trkpt lat="42.94532" lon="1.90302">
        <ele>428</ele>
        <time>2014-10-11T10:52:37Z</time>
      </trkpt>
      <trkpt lat="42.94529" lon="1.90307">
        <ele>428</ele>
        <time>2014-10-11T10:52:40Z</time>
      </trkpt>
      <trkpt lat="42.94525" lon="1.90312">
        <ele>429</ele>
        <time>2014-10-11T10:52:43Z</time>
      </trkpt>
      <trkpt lat="42.94522" lon="1.90315">
        <ele>429</ele>
        <time>2014-10-11T10:52:45Z</time>
      </trkpt>
      <trkpt lat="42.94519" lon="1.90318">
        <ele>429</ele>
        <time>2014-10-11T10:52:47Z</time>
      </trkpt>
      <trkpt lat="42.94516" lon="1.90322">
        <ele>429</ele>
        <time>2014-10-11T10:52:49Z</time>
      </trkpt>
      <trkpt lat="42.94511" lon="1.90328">
        <ele>429</ele>
        <time>2014-10-11T10:52:52Z</time>
      </trkpt>
      <trkpt lat="42.94508" lon="1.90332">
        <ele>430</ele>
        <time>2014-10-11T10:52:54Z</time>
      </trkpt>
      <trkpt lat="42.94504" lon="1.90338">
        <ele>431</ele>
        <time>2014-10-11T10:52:57Z</time>
      </trkpt>
      <trkpt lat="42.94501" lon="1.9034">
        <ele>431</ele>
        <time>2014-10-11T10:52:59Z</time>
      </trkpt>
      <trkpt lat="42.94499" lon="1.90343">
        <ele>431</ele>
        <time>2014-10-11T10:53:01Z</time>
      </trkpt>
      <trkpt lat="42.94495" lon="1.90349">
        <ele>432</ele>
        <time>2014-10-11T10:53:04Z</time>
      </trkpt>
      <trkpt lat="42.94492" lon="1.90352">
        <ele>432</ele>
        <time>2014-10-11T10:53:06Z</time>
      </trkpt>
      <trkpt lat="42.94489" lon="1.90355">
        <ele>432</ele>
        <time>2014-10-11T10:53:08Z</time>
      </trkpt>
      <trkpt lat="42.94484" lon="1.9036">
        <ele>432</ele>
        <time>2014-10-11T10:53:11Z</time>
      </trkpt>
      <trkpt lat="42.94478" lon="1.90365">
        <ele>432</ele>
        <time>2014-10-11T10:53:14Z</time>
      </trkpt>
      <trkpt lat="42.94474" lon="1.90372">
        <ele>432</ele>
        <time>2014-10-11T10:53:17Z</time>
      </trkpt>
      <trkpt lat="42.94471" lon="1.90381">
        <ele>433</ele>
        <time>2014-10-11T10:53:20Z</time>
      </trkpt>
      <trkpt lat="42.94468" lon="1.90388">
        <ele>435</ele>
        <time>2014-10-11T10:53:23Z</time>
      </trkpt>
      <trkpt lat="42.94466" lon="1.90391">
        <ele>436</ele>
        <time>2014-10-11T10:53:25Z</time>
      </trkpt>
      <trkpt lat="42.94464" lon="1.90394">
        <ele>437</ele>
        <time>2014-10-11T10:53:27Z</time>
      </trkpt>
      <trkpt lat="42.94461" lon="1.90397">
        <ele>438</ele>
        <time>2014-10-11T10:53:30Z</time>
      </trkpt>
      <trkpt lat="42.94461" lon="1.90398">
        <ele>438</ele>
        <time>2014-10-11T10:53:32Z</time>
      </trkpt>
      <trkpt lat="42.94461" lon="1.90399">
        <ele>439</ele>
        <time>2014-10-11T10:53:34Z</time>
      </trkpt>
      <trkpt lat="42.94461" lon="1.90401">
        <ele>439</ele>
        <time>2014-10-11T10:53:37Z</time>
      </trkpt>
      <trkpt lat="42.9446" lon="1.90403">
        <ele>439</ele>
        <time>2014-10-11T10:53:39Z</time>
      </trkpt>
      <trkpt lat="42.94459" lon="1.90405">
        <ele>440</ele>
        <time>2014-10-11T10:53:41Z</time>
      </trkpt>
      <trkpt lat="42.94458" lon="1.90408">
        <ele>440</ele>
        <time>2014-10-11T10:53:44Z</time>
      </trkpt>
      <trkpt lat="42.94458" lon="1.90409">
        <ele>441</ele>
        <time>2014-10-11T10:53:46Z</time>
      </trkpt>
      <trkpt lat="42.94457" lon="1.90411">
        <ele>441</ele>
        <time>2014-10-11T10:53:49Z</time>
      </trkpt>
      <trkpt lat="42.94456" lon="1.90413">
        <ele>442</ele>
        <time>2014-10-11T10:53:52Z</time>
      </trkpt>
      <trkpt lat="42.94454" lon="1.90415">
        <ele>442</ele>
        <time>2014-10-11T10:53:55Z</time>
      </trkpt>
      <trkpt lat="42.94453" lon="1.90416">
        <ele>443</ele>
        <time>2014-10-11T10:53:57Z</time>
      </trkpt>
      <trkpt lat="42.94451" lon="1.90418">
        <ele>443</ele>
        <time>2014-10-11T10:54:00Z</time>
      </trkpt>
      <trkpt lat="42.94451" lon="1.90419">
        <ele>443</ele>
        <time>2014-10-11T10:54:02Z</time>
      </trkpt>
      <trkpt lat="42.9445" lon="1.90421">
        <ele>444</ele>
        <time>2014-10-11T10:54:05Z</time>
      </trkpt>
      <trkpt lat="42.94449" lon="1.90422">
        <ele>444</ele>
        <time>2014-10-11T10:54:07Z</time>
      </trkpt>
      <trkpt lat="42.94448" lon="1.90423">
        <ele>445</ele>
        <time>2014-10-11T10:54:09Z</time>
      </trkpt>
      <trkpt lat="42.94447" lon="1.90424">
        <ele>445</ele>
        <time>2014-10-11T10:54:12Z</time>
      </trkpt>
      <trkpt lat="42.94445" lon="1.90425">
        <ele>446</ele>
        <time>2014-10-11T10:54:14Z</time>
      </trkpt>
      <trkpt lat="42.94445" lon="1.90428">
        <ele>447</ele>
        <time>2014-10-11T10:54:17Z</time>
      </trkpt>
      <trkpt lat="42.94444" lon="1.90429">
        <ele>447</ele>
        <time>2014-10-11T10:54:19Z</time>
      </trkpt>
      <trkpt lat="42.94443" lon="1.90431">
        <ele>447</ele>
        <time>2014-10-11T10:54:21Z</time>
      </trkpt>
      <trkpt lat="42.94441" lon="1.90433">
        <ele>448</ele>
        <time>2014-10-11T10:54:24Z</time>
      </trkpt>
      <trkpt lat="42.94439" lon="1.90435">
        <ele>448</ele>
        <time>2014-10-11T10:54:27Z</time>
      </trkpt>
      <trkpt lat="42.94438" lon="1.90437">
        <ele>449</ele>
        <time>2014-10-11T10:54:30Z</time>
      </trkpt>
      <trkpt lat="42.94436" lon="1.90437">
        <ele>450</ele>
        <time>2014-10-11T10:54:33Z</time>
      </trkpt>
      <trkpt lat="42.94435" lon="1.90438">
        <ele>451</ele>
        <time>2014-10-11T10:54:35Z</time>
      </trkpt>
      <trkpt lat="42.94434" lon="1.90439">
        <ele>451</ele>
        <time>2014-10-11T10:54:37Z</time>
      </trkpt>
      <trkpt lat="42.94432" lon="1.9044">
        <ele>452</ele>
        <time>2014-10-11T10:54:39Z</time>
      </trkpt>
      <trkpt lat="42.94431" lon="1.90442">
        <ele>452</ele>
        <time>2014-10-11T10:54:42Z</time>
      </trkpt>
      <trkpt lat="42.9443" lon="1.90444">
        <ele>453</ele>
        <time>2014-10-11T10:54:44Z</time>
      </trkpt>
      <trkpt lat="42.94429" lon="1.90447">
        <ele>453</ele>
        <time>2014-10-11T10:54:47Z</time>
      </trkpt>
      <trkpt lat="42.94429" lon="1.90449">
        <ele>454</ele>
        <time>2014-10-11T10:54:50Z</time>
      </trkpt>
      <trkpt lat="42.94428" lon="1.90452">
        <ele>455</ele>
        <time>2014-10-11T10:54:53Z</time>
      </trkpt>
      <trkpt lat="42.94428" lon="1.90455">
        <ele>455</ele>
        <time>2014-10-11T10:54:56Z</time>
      </trkpt>
      <trkpt lat="42.94428" lon="1.90456">
        <ele>455</ele>
        <time>2014-10-11T10:54:58Z</time>
      </trkpt>
      <trkpt lat="42.94427" lon="1.9046">
        <ele>456</ele>
        <time>2014-10-11T10:55:01Z</time>
      </trkpt>
      <trkpt lat="42.94426" lon="1.90462">
        <ele>456</ele>
        <time>2014-10-11T10:55:03Z</time>
      </trkpt>
      <trkpt lat="42.94425" lon="1.90464">
        <ele>457</ele>
        <time>2014-10-11T10:55:06Z</time>
      </trkpt>
      <trkpt lat="42.94426" lon="1.90466">
        <ele>457</ele>
        <time>2014-10-11T10:55:09Z</time>
      </trkpt>
      <trkpt lat="42.94427" lon="1.90467">
        <ele>458</ele>
        <time>2014-10-11T10:55:11Z</time>
      </trkpt>
      <trkpt lat="42.94427" lon="1.90469">
        <ele>458</ele>
        <time>2014-10-11T10:55:14Z</time>
      </trkpt>
      <trkpt lat="42.94427" lon="1.90471">
        <ele>458</ele>
        <time>2014-10-11T10:55:17Z</time>
      </trkpt>
      <trkpt lat="42.94427" lon="1.90471">
        <ele>458</ele>
        <time>2014-10-11T10:55:19Z</time>
      </trkpt>
      <trkpt lat="42.94427" lon="1.90472">
        <ele>458</ele>
        <time>2014-10-11T10:55:22Z</time>
      </trkpt>
      <trkpt lat="42.94427" lon="1.90473">
        <ele>458</ele>
        <time>2014-10-11T10:55:25Z</time>
      </trkpt>
      <trkpt lat="42.94427" lon="1.90473">
        <ele>458</ele>
        <time>2014-10-11T10:55:27Z</time>
      </trkpt>
      <trkpt lat="42.94428" lon="1.90474">
        <ele>458</ele>
        <time>2014-10-11T10:55:29Z</time>
      </trkpt>
      <trkpt lat="42.94429" lon="1.90475">
        <ele>458</ele>
        <time>2014-10-11T10:55:32Z</time>
      </trkpt>
      <trkpt lat="42.94429" lon="1.90475">
        <ele>458</ele>
        <time>2014-10-11T10:55:34Z</time>
      </trkpt>
      <trkpt lat="42.94433" lon="1.90481">
        <ele>457</ele>
        <time>2014-10-11T10:55:36Z</time>
      </trkpt>
      <trkpt lat="42.94432" lon="1.90481">
        <ele>457</ele>
        <time>2014-10-11T10:55:38Z</time>
      </trkpt>
      <trkpt lat="42.94432" lon="1.90481">
        <ele>458</ele>
        <time>2014-10-11T10:55:42Z</time>
      </trkpt>
      <trkpt lat="42.9443" lon="1.90483">
        <ele>458</ele>
        <time>2014-10-11T10:55:45Z</time>
      </trkpt>
      <trkpt lat="42.94428" lon="1.90485">
        <ele>458</ele>
        <time>2014-10-11T10:55:47Z</time>
      </trkpt>
      <trkpt lat="42.94424" lon="1.9049">
        <ele>460</ele>
        <time>2014-10-11T10:55:50Z</time>
      </trkpt>
      <trkpt lat="42.94422" lon="1.90492">
        <ele>460</ele>
        <time>2014-10-11T10:55:52Z</time>
      </trkpt>
      <trkpt lat="42.9442" lon="1.90496">
        <ele>461</ele>
        <time>2014-10-11T10:55:55Z</time>
      </trkpt>
      <trkpt lat="42.94417" lon="1.905">
        <ele>463</ele>
        <time>2014-10-11T10:55:58Z</time>
      </trkpt>
      <trkpt lat="42.94414" lon="1.90504">
        <ele>464</ele>
        <time>2014-10-11T10:56:01Z</time>
      </trkpt>
      <trkpt lat="42.94413" lon="1.90506">
        <ele>464</ele>
        <time>2014-10-11T10:56:03Z</time>
      </trkpt>
      <trkpt lat="42.94411" lon="1.90508">
        <ele>465</ele>
        <time>2014-10-11T10:56:05Z</time>
      </trkpt>
      <trkpt lat="42.94407" lon="1.90512">
        <ele>466</ele>
        <time>2014-10-11T10:56:08Z</time>
      </trkpt>
      <trkpt lat="42.94405" lon="1.90516">
        <ele>467</ele>
        <time>2014-10-11T10:56:10Z</time>
      </trkpt>
      <trkpt lat="42.94403" lon="1.9052">
        <ele>467</ele>
        <time>2014-10-11T10:56:12Z</time>
      </trkpt>
      <trkpt lat="42.944" lon="1.90525">
        <ele>468</ele>
        <time>2014-10-11T10:56:15Z</time>
      </trkpt>
      <trkpt lat="42.94398" lon="1.90529">
        <ele>468</ele>
        <time>2014-10-11T10:56:17Z</time>
      </trkpt>
      <trkpt lat="42.94395" lon="1.90533">
        <ele>469</ele>
        <time>2014-10-11T10:56:19Z</time>
      </trkpt>
      <trkpt lat="42.94393" lon="1.90537">
        <ele>469</ele>
        <time>2014-10-11T10:56:22Z</time>
      </trkpt>
      <trkpt lat="42.94392" lon="1.90541">
        <ele>469</ele>
        <time>2014-10-11T10:56:24Z</time>
      </trkpt>
      <trkpt lat="42.94389" lon="1.90546">
        <ele>470</ele>
        <time>2014-10-11T10:56:27Z</time>
      </trkpt>
      <trkpt lat="42.94387" lon="1.90549">
        <ele>471</ele>
        <time>2014-10-11T10:56:29Z</time>
      </trkpt>
      <trkpt lat="42.94384" lon="1.90555">
        <ele>471</ele>
        <time>2014-10-11T10:56:32Z</time>
      </trkpt>
      <trkpt lat="42.94383" lon="1.90558">
        <ele>472</ele>
        <time>2014-10-11T10:56:34Z</time>
      </trkpt>
      <trkpt lat="42.9438" lon="1.90563">
        <ele>472</ele>
        <time>2014-10-11T10:56:37Z</time>
      </trkpt>
      <trkpt lat="42.94378" lon="1.90565">
        <ele>473</ele>
        <time>2014-10-11T10:56:39Z</time>
      </trkpt>
      <trkpt lat="42.94377" lon="1.90568">
        <ele>474</ele>
        <time>2014-10-11T10:56:41Z</time>
      </trkpt>
      <trkpt lat="42.94375" lon="1.90571">
        <ele>475</ele>
        <time>2014-10-11T10:56:43Z</time>
      </trkpt>
      <trkpt lat="42.94374" lon="1.90576">
        <ele>475</ele>
        <time>2014-10-11T10:56:46Z</time>
      </trkpt>
      <trkpt lat="42.94372" lon="1.90579">
        <ele>476</ele>
        <time>2014-10-11T10:56:48Z</time>
      </trkpt>
      <trkpt lat="42.9437" lon="1.90584">
        <ele>477</ele>
        <time>2014-10-11T10:56:51Z</time>
      </trkpt>
      <trkpt lat="42.94368" lon="1.90587">
        <ele>478</ele>
        <time>2014-10-11T10:56:53Z</time>
      </trkpt>
      <trkpt lat="42.94366" lon="1.90593">
        <ele>479</ele>
        <time>2014-10-11T10:56:56Z</time>
      </trkpt>
      <trkpt lat="42.94364" lon="1.90597">
        <ele>480</ele>
        <time>2014-10-11T10:56:59Z</time>
      </trkpt>
      <trkpt lat="42.94363" lon="1.90603">
        <ele>481</ele>
        <time>2014-10-11T10:57:02Z</time>
      </trkpt>
      <trkpt lat="42.94362" lon="1.90607">
        <ele>482</ele>
        <time>2014-10-11T10:57:04Z</time>
      </trkpt>
      <trkpt lat="42.94361" lon="1.90612">
        <ele>482</ele>
        <time>2014-10-11T10:57:07Z</time>
      </trkpt>
      <trkpt lat="42.9436" lon="1.90615">
        <ele>483</ele>
        <time>2014-10-11T10:57:09Z</time>
      </trkpt>
      <trkpt lat="42.94358" lon="1.90618">
        <ele>484</ele>
        <time>2014-10-11T10:57:11Z</time>
      </trkpt>
      <trkpt lat="42.94356" lon="1.90622">
        <ele>485</ele>
        <time>2014-10-11T10:57:14Z</time>
      </trkpt>
      <trkpt lat="42.94354" lon="1.90625">
        <ele>485</ele>
        <time>2014-10-11T10:57:16Z</time>
      </trkpt>
      <trkpt lat="42.94351" lon="1.90628">
        <ele>486</ele>
        <time>2014-10-11T10:57:19Z</time>
      </trkpt>
      <trkpt lat="42.94349" lon="1.90631">
        <ele>486</ele>
        <time>2014-10-11T10:57:21Z</time>
      </trkpt>
      <trkpt lat="42.94345" lon="1.90636">
        <ele>488</ele>
        <time>2014-10-11T10:57:24Z</time>
      </trkpt>
      <trkpt lat="42.94344" lon="1.9064">
        <ele>489</ele>
        <time>2014-10-11T10:57:27Z</time>
      </trkpt>
      <trkpt lat="42.94342" lon="1.90643">
        <ele>489</ele>
        <time>2014-10-11T10:57:29Z</time>
      </trkpt>
      <trkpt lat="42.94337" lon="1.90649">
        <ele>490</ele>
        <time>2014-10-11T10:57:32Z</time>
      </trkpt>
      <trkpt lat="42.94336" lon="1.90653">
        <ele>490</ele>
        <time>2014-10-11T10:57:34Z</time>
      </trkpt>
      <trkpt lat="42.94333" lon="1.90655">
        <ele>490</ele>
        <time>2014-10-11T10:57:36Z</time>
      </trkpt>
      <trkpt lat="42.94331" lon="1.90659">
        <ele>491</ele>
        <time>2014-10-11T10:57:38Z</time>
      </trkpt>
      <trkpt lat="42.94327" lon="1.90663">
        <ele>492</ele>
        <time>2014-10-11T10:57:41Z</time>
      </trkpt>
      <trkpt lat="42.94323" lon="1.90666">
        <ele>492</ele>
        <time>2014-10-11T10:57:44Z</time>
      </trkpt>
      <trkpt lat="42.94318" lon="1.90669">
        <ele>493</ele>
        <time>2014-10-11T10:57:47Z</time>
      </trkpt>
      <trkpt lat="42.94314" lon="1.90671">
        <ele>493</ele>
        <time>2014-10-11T10:57:50Z</time>
      </trkpt>
      <trkpt lat="42.94312" lon="1.90673">
        <ele>493</ele>
        <time>2014-10-11T10:57:52Z</time>
      </trkpt>
      <trkpt lat="42.94307" lon="1.90676">
        <ele>494</ele>
        <time>2014-10-11T10:57:55Z</time>
      </trkpt>
      <trkpt lat="42.94304" lon="1.90677">
        <ele>495</ele>
        <time>2014-10-11T10:57:57Z</time>
      </trkpt>
      <trkpt lat="42.94301" lon="1.90679">
        <ele>495</ele>
        <time>2014-10-11T10:57:59Z</time>
      </trkpt>
      <trkpt lat="42.94298" lon="1.9068">
        <ele>496</ele>
        <time>2014-10-11T10:58:01Z</time>
      </trkpt>
      <trkpt lat="42.94294" lon="1.90684">
        <ele>496</ele>
        <time>2014-10-11T10:58:04Z</time>
      </trkpt>
      <trkpt lat="42.94291" lon="1.90686">
        <ele>496</ele>
        <time>2014-10-11T10:58:06Z</time>
      </trkpt>
      <trkpt lat="42.94287" lon="1.9069">
        <ele>497</ele>
        <time>2014-10-11T10:58:09Z</time>
      </trkpt>
      <trkpt lat="42.94285" lon="1.90693">
        <ele>498</ele>
        <time>2014-10-11T10:58:11Z</time>
      </trkpt>
      <trkpt lat="42.94282" lon="1.90695">
        <ele>499</ele>
        <time>2014-10-11T10:58:14Z</time>
      </trkpt>
      <trkpt lat="42.94279" lon="1.90698">
        <ele>500</ele>
        <time>2014-10-11T10:58:17Z</time>
      </trkpt>
      <trkpt lat="42.94276" lon="1.90701">
        <ele>501</ele>
        <time>2014-10-11T10:58:20Z</time>
      </trkpt>
      <trkpt lat="42.94274" lon="1.90704">
        <ele>501</ele>
        <time>2014-10-11T10:58:22Z</time>
      </trkpt>
      <trkpt lat="42.94271" lon="1.90708">
        <ele>502</ele>
        <time>2014-10-11T10:58:25Z</time>
      </trkpt>
      <trkpt lat="42.94269" lon="1.9071">
        <ele>502</ele>
        <time>2014-10-11T10:58:27Z</time>
      </trkpt>
      <trkpt lat="42.94265" lon="1.90715">
        <ele>502</ele>
        <time>2014-10-11T10:58:30Z</time>
      </trkpt>
      <trkpt lat="42.94263" lon="1.90718">
        <ele>503</ele>
        <time>2014-10-11T10:58:32Z</time>
      </trkpt>
      <trkpt lat="42.9426" lon="1.90722">
        <ele>504</ele>
        <time>2014-10-11T10:58:35Z</time>
      </trkpt>
      <trkpt lat="42.94257" lon="1.90726">
        <ele>504</ele>
        <time>2014-10-11T10:58:37Z</time>
      </trkpt>
      <trkpt lat="42.94254" lon="1.90731">
        <ele>505</ele>
        <time>2014-10-11T10:58:40Z</time>
      </trkpt>
      <trkpt lat="42.94252" lon="1.90734">
        <ele>505</ele>
        <time>2014-10-11T10:58:42Z</time>
      </trkpt>
      <trkpt lat="42.94249" lon="1.9074">
        <ele>505</ele>
        <time>2014-10-11T10:58:45Z</time>
      </trkpt>
      <trkpt lat="42.94246" lon="1.90745">
        <ele>506</ele>
        <time>2014-10-11T10:58:47Z</time>
      </trkpt>
      <trkpt lat="42.94242" lon="1.90751">
        <ele>506</ele>
        <time>2014-10-11T10:58:50Z</time>
      </trkpt>
      <trkpt lat="42.9424" lon="1.90758">
        <ele>506</ele>
        <time>2014-10-11T10:58:53Z</time>
      </trkpt>
      <trkpt lat="42.94239" lon="1.90762">
        <ele>506</ele>
        <time>2014-10-11T10:58:55Z</time>
      </trkpt>
      <trkpt lat="42.94236" lon="1.90768">
        <ele>506</ele>
        <time>2014-10-11T10:58:58Z</time>
      </trkpt>
      <trkpt lat="42.94234" lon="1.90773">
        <ele>506</ele>
        <time>2014-10-11T10:59:00Z</time>
      </trkpt>
      <trkpt lat="42.94232" lon="1.90782">
        <ele>506</ele>
        <time>2014-10-11T10:59:03Z</time>
      </trkpt>
      <trkpt lat="42.9423" lon="1.90788">
        <ele>506</ele>
        <time>2014-10-11T10:59:05Z</time>
      </trkpt>
      <trkpt lat="42.9423" lon="1.908">
        <ele>506</ele>
        <time>2014-10-11T10:59:08Z</time>
      </trkpt>
      <trkpt lat="42.94229" lon="1.90807">
        <ele>507</ele>
        <time>2014-10-11T10:59:10Z</time>
      </trkpt>
      <trkpt lat="42.94228" lon="1.90815">
        <ele>507</ele>
        <time>2014-10-11T10:59:13Z</time>
      </trkpt>
      <trkpt lat="42.94226" lon="1.90821">
        <ele>507</ele>
        <time>2014-10-11T10:59:15Z</time>
      </trkpt>
      <trkpt lat="42.94225" lon="1.90828">
        <ele>507</ele>
        <time>2014-10-11T10:59:17Z</time>
      </trkpt>
      <trkpt lat="42.94224" lon="1.90839">
        <ele>508</ele>
        <time>2014-10-11T10:59:20Z</time>
      </trkpt>
      <trkpt lat="42.94222" lon="1.90849">
        <ele>509</ele>
        <time>2014-10-11T10:59:23Z</time>
      </trkpt>
      <trkpt lat="42.94221" lon="1.9086">
        <ele>509</ele>
        <time>2014-10-11T10:59:26Z</time>
      </trkpt>
      <trkpt lat="42.9422" lon="1.90869">
        <ele>509</ele>
        <time>2014-10-11T10:59:28Z</time>
      </trkpt>
      <trkpt lat="42.94218" lon="1.90881">
        <ele>510</ele>
        <time>2014-10-11T10:59:31Z</time>
      </trkpt>
      <trkpt lat="42.94217" lon="1.90891">
        <ele>510</ele>
        <time>2014-10-11T10:59:34Z</time>
      </trkpt>
      <trkpt lat="42.94216" lon="1.909">
        <ele>510</ele>
        <time>2014-10-11T10:59:37Z</time>
      </trkpt>
      <trkpt lat="42.94214" lon="1.90907">
        <ele>510</ele>
        <time>2014-10-11T10:59:40Z</time>
      </trkpt>
      <trkpt lat="42.94212" lon="1.90912">
        <ele>511</ele>
        <time>2014-10-11T10:59:42Z</time>
      </trkpt>
      <trkpt lat="42.94209" lon="1.90919">
        <ele>511</ele>
        <time>2014-10-11T10:59:45Z</time>
      </trkpt>
      <trkpt lat="42.94205" lon="1.90924">
        <ele>512</ele>
        <time>2014-10-11T10:59:48Z</time>
      </trkpt>
      <trkpt lat="42.94202" lon="1.90926">
        <ele>512</ele>
        <time>2014-10-11T10:59:50Z</time>
      </trkpt>
      <trkpt lat="42.94199" lon="1.90928">
        <ele>513</ele>
        <time>2014-10-11T10:59:52Z</time>
      </trkpt>
      <trkpt lat="42.94196" lon="1.90931">
        <ele>513</ele>
        <time>2014-10-11T10:59:54Z</time>
      </trkpt>
      <trkpt lat="42.94191" lon="1.90935">
        <ele>513</ele>
        <time>2014-10-11T10:59:57Z</time>
      </trkpt>
      <trkpt lat="42.94187" lon="1.90937">
        <ele>513</ele>
        <time>2014-10-11T10:59:59Z</time>
      </trkpt>
      <trkpt lat="42.94181" lon="1.90941">
        <ele>514</ele>
        <time>2014-10-11T11:00:02Z</time>
      </trkpt>
      <trkpt lat="42.94176" lon="1.90944">
        <ele>514</ele>
        <time>2014-10-11T11:00:05Z</time>
      </trkpt>
      <trkpt lat="42.94173" lon="1.90947">
        <ele>515</ele>
        <time>2014-10-11T11:00:07Z</time>
      </trkpt>
      <trkpt lat="42.94168" lon="1.90953">
        <ele>516</ele>
        <time>2014-10-11T11:00:10Z</time>
      </trkpt>
      <trkpt lat="42.94165" lon="1.9096">
        <ele>517</ele>
        <time>2014-10-11T11:00:13Z</time>
      </trkpt>
      <trkpt lat="42.94161" lon="1.90967">
        <ele>518</ele>
        <time>2014-10-11T11:00:16Z</time>
      </trkpt>
      <trkpt lat="42.94159" lon="1.90972">
        <ele>518</ele>
        <time>2014-10-11T11:00:19Z</time>
      </trkpt>
      <trkpt lat="42.94158" lon="1.90975">
        <ele>519</ele>
        <time>2014-10-11T11:00:22Z</time>
      </trkpt>
      <trkpt lat="42.94158" lon="1.90976">
        <ele>520</ele>
        <time>2014-10-11T11:00:24Z</time>
      </trkpt>
      <trkpt lat="42.94157" lon="1.90979">
        <ele>520</ele>
        <time>2014-10-11T11:00:26Z</time>
      </trkpt>
      <trkpt lat="42.94155" lon="1.90984">
        <ele>520</ele>
        <time>2014-10-11T11:00:29Z</time>
      </trkpt>
      <trkpt lat="42.94154" lon="1.90988">
        <ele>520</ele>
        <time>2014-10-11T11:00:31Z</time>
      </trkpt>
      <trkpt lat="42.94151" lon="1.90993">
        <ele>521</ele>
        <time>2014-10-11T11:00:34Z</time>
      </trkpt>
      <trkpt lat="42.94149" lon="1.90997">
        <ele>522</ele>
        <time>2014-10-11T11:00:36Z</time>
      </trkpt>
      <trkpt lat="42.94147" lon="1.91001">
        <ele>522</ele>
        <time>2014-10-11T11:00:38Z</time>
      </trkpt>
      <trkpt lat="42.94145" lon="1.91008">
        <ele>523</ele>
        <time>2014-10-11T11:00:41Z</time>
      </trkpt>
      <trkpt lat="42.94143" lon="1.91013">
        <ele>524</ele>
        <time>2014-10-11T11:00:44Z</time>
      </trkpt>
      <trkpt lat="42.94141" lon="1.91017">
        <ele>524</ele>
        <time>2014-10-11T11:00:46Z</time>
      </trkpt>
      <trkpt lat="42.94139" lon="1.91022">
        <ele>525</ele>
        <time>2014-10-11T11:00:49Z</time>
      </trkpt>
      <trkpt lat="42.94138" lon="1.91025">
        <ele>526</ele>
        <time>2014-10-11T11:00:51Z</time>
      </trkpt>
      <trkpt lat="42.94136" lon="1.91029">
        <ele>526</ele>
        <time>2014-10-11T11:00:53Z</time>
      </trkpt>
      <trkpt lat="42.94133" lon="1.91034">
        <ele>526</ele>
        <time>2014-10-11T11:00:56Z</time>
      </trkpt>
      <trkpt lat="42.94129" lon="1.91039">
        <ele>527</ele>
        <time>2014-10-11T11:00:59Z</time>
      </trkpt>
      <trkpt lat="42.94126" lon="1.91042">
        <ele>529</ele>
        <time>2014-10-11T11:01:01Z</time>
      </trkpt>
      <trkpt lat="42.94122" lon="1.91047">
        <ele>530</ele>
        <time>2014-10-11T11:01:04Z</time>
      </trkpt>
      <trkpt lat="42.9412" lon="1.91049">
        <ele>531</ele>
        <time>2014-10-11T11:01:06Z</time>
      </trkpt>
      <trkpt lat="42.94117" lon="1.91053">
        <ele>532</ele>
        <time>2014-10-11T11:01:09Z</time>
      </trkpt>
      <trkpt lat="42.94115" lon="1.91055">
        <ele>533</ele>
        <time>2014-10-11T11:01:11Z</time>
      </trkpt>
      <trkpt lat="42.94112" lon="1.91059">
        <ele>534</ele>
        <time>2014-10-11T11:01:14Z</time>
      </trkpt>
      <trkpt lat="42.94109" lon="1.91062">
        <ele>534</ele>
        <time>2014-10-11T11:01:17Z</time>
      </trkpt>
      <trkpt lat="42.94107" lon="1.91065">
        <ele>534</ele>
        <time>2014-10-11T11:01:19Z</time>
      </trkpt>
      <trkpt lat="42.94104" lon="1.91068">
        <ele>535</ele>
        <time>2014-10-11T11:01:22Z</time>
      </trkpt>
      <trkpt lat="42.94102" lon="1.9107">
        <ele>535</ele>
        <time>2014-10-11T11:01:24Z</time>
      </trkpt>
      <trkpt lat="42.94101" lon="1.9108">
        <ele>535</ele>
        <time>2014-10-11T11:01:26Z</time>
      </trkpt>
      <trkpt lat="42.94099" lon="1.91084">
        <ele>534</ele>
        <time>2014-10-11T11:01:28Z</time>
      </trkpt>
      <trkpt lat="42.94096" lon="1.91091">
        <ele>535</ele>
        <time>2014-10-11T11:01:31Z</time>
      </trkpt>
      <trkpt lat="42.94092" lon="1.91098">
        <ele>535</ele>
        <time>2014-10-11T11:01:34Z</time>
      </trkpt>
      <trkpt lat="42.94088" lon="1.91106">
        <ele>536</ele>
        <time>2014-10-11T11:01:37Z</time>
      </trkpt>
      <trkpt lat="42.94085" lon="1.91113">
        <ele>536</ele>
        <time>2014-10-11T11:01:40Z</time>
      </trkpt>
      <trkpt lat="42.94082" lon="1.91118">
        <ele>536</ele>
        <time>2014-10-11T11:01:42Z</time>
      </trkpt>
      <trkpt lat="42.94079" lon="1.91122">
        <ele>536</ele>
        <time>2014-10-11T11:01:44Z</time>
      </trkpt>
      <trkpt lat="42.94074" lon="1.9113">
        <ele>536</ele>
        <time>2014-10-11T11:01:47Z</time>
      </trkpt>
      <trkpt lat="42.94073" lon="1.91137">
        <ele>536</ele>
        <time>2014-10-11T11:01:49Z</time>
      </trkpt>
      <trkpt lat="42.94072" lon="1.91147">
        <ele>537</ele>
        <time>2014-10-11T11:01:52Z</time>
      </trkpt>
      <trkpt lat="42.94073" lon="1.9115">
        <ele>537</ele>
        <time>2014-10-11T11:01:54Z</time>
      </trkpt>
      <trkpt lat="42.94074" lon="1.91157">
        <ele>537</ele>
        <time>2014-10-11T11:01:57Z</time>
      </trkpt>
      <trkpt lat="42.94074" lon="1.91164">
        <ele>537</ele>
        <time>2014-10-11T11:01:59Z</time>
      </trkpt>
      <trkpt lat="42.94074" lon="1.91171">
        <ele>537</ele>
        <time>2014-10-11T11:02:01Z</time>
      </trkpt>
      <trkpt lat="42.94073" lon="1.91177">
        <ele>537</ele>
        <time>2014-10-11T11:02:03Z</time>
      </trkpt>
      <trkpt lat="42.94073" lon="1.91183">
        <ele>538</ele>
        <time>2014-10-11T11:02:05Z</time>
      </trkpt>
      <trkpt lat="42.94072" lon="1.91193">
        <ele>538</ele>
        <time>2014-10-11T11:02:08Z</time>
      </trkpt>
      <trkpt lat="42.94072" lon="1.91201">
        <ele>539</ele>
        <time>2014-10-11T11:02:11Z</time>
      </trkpt>
      <trkpt lat="42.9407" lon="1.91206">
        <ele>539</ele>
        <time>2014-10-11T11:02:13Z</time>
      </trkpt>
      <trkpt lat="42.9407" lon="1.9121">
        <ele>540</ele>
        <time>2014-10-11T11:02:15Z</time>
      </trkpt>
      <trkpt lat="42.9407" lon="1.91213">
        <ele>540</ele>
        <time>2014-10-11T11:02:17Z</time>
      </trkpt>
      <trkpt lat="42.9407" lon="1.91216">
        <ele>540</ele>
        <time>2014-10-11T11:02:20Z</time>
      </trkpt>
      <trkpt lat="42.9407" lon="1.91222">
        <ele>541</ele>
        <time>2014-10-11T11:02:23Z</time>
      </trkpt>
      <trkpt lat="42.9407" lon="1.91228">
        <ele>541</ele>
        <time>2014-10-11T11:02:26Z</time>
      </trkpt>
      <trkpt lat="42.9407" lon="1.91232">
        <ele>542</ele>
        <time>2014-10-11T11:02:28Z</time>
      </trkpt>
      <trkpt lat="42.94072" lon="1.9124">
        <ele>543</ele>
        <time>2014-10-11T11:02:31Z</time>
      </trkpt>
      <trkpt lat="42.94074" lon="1.91248">
        <ele>544</ele>
        <time>2014-10-11T11:02:34Z</time>
      </trkpt>
      <trkpt lat="42.94075" lon="1.91253">
        <ele>545</ele>
        <time>2014-10-11T11:02:36Z</time>
      </trkpt>
      <trkpt lat="42.94075" lon="1.9126">
        <ele>547</ele>
        <time>2014-10-11T11:02:39Z</time>
      </trkpt>
      <trkpt lat="42.94073" lon="1.91267">
        <ele>548</ele>
        <time>2014-10-11T11:02:42Z</time>
      </trkpt>
      <trkpt lat="42.94071" lon="1.91272">
        <ele>549</ele>
        <time>2014-10-11T11:02:45Z</time>
      </trkpt>
      <trkpt lat="42.9407" lon="1.91279">
        <ele>549</ele>
        <time>2014-10-11T11:02:48Z</time>
      </trkpt>
      <trkpt lat="42.94066" lon="1.91286">
        <ele>550</ele>
        <time>2014-10-11T11:02:51Z</time>
      </trkpt>
      <trkpt lat="42.94064" lon="1.91291">
        <ele>550</ele>
        <time>2014-10-11T11:02:53Z</time>
      </trkpt>
      <trkpt lat="42.94062" lon="1.91301">
        <ele>552</ele>
        <time>2014-10-11T11:02:56Z</time>
      </trkpt>
      <trkpt lat="42.94062" lon="1.91308">
        <ele>553</ele>
        <time>2014-10-11T11:02:58Z</time>
      </trkpt>
      <trkpt lat="42.94062" lon="1.91313">
        <ele>554</ele>
        <time>2014-10-11T11:03:00Z</time>
      </trkpt>
      <trkpt lat="42.94061" lon="1.91321">
        <ele>555</ele>
        <time>2014-10-11T11:03:03Z</time>
      </trkpt>
      <trkpt lat="42.9406" lon="1.91326">
        <ele>556</ele>
        <time>2014-10-11T11:03:05Z</time>
      </trkpt>
      <trkpt lat="42.94059" lon="1.9133">
        <ele>557</ele>
        <time>2014-10-11T11:03:07Z</time>
      </trkpt>
      <trkpt lat="42.94056" lon="1.91335">
        <ele>558</ele>
        <time>2014-10-11T11:03:10Z</time>
      </trkpt>
      <trkpt lat="42.94054" lon="1.91338">
        <ele>558</ele>
        <time>2014-10-11T11:03:12Z</time>
      </trkpt>
      <trkpt lat="42.94052" lon="1.9134">
        <ele>559</ele>
        <time>2014-10-11T11:03:14Z</time>
      </trkpt>
      <trkpt lat="42.9405" lon="1.91342">
        <ele>560</ele>
        <time>2014-10-11T11:03:16Z</time>
      </trkpt>
      <trkpt lat="42.94049" lon="1.91344">
        <ele>561</ele>
        <time>2014-10-11T11:03:18Z</time>
      </trkpt>
      <trkpt lat="42.94047" lon="1.91349">
        <ele>562</ele>
        <time>2014-10-11T11:03:21Z</time>
      </trkpt>
      <trkpt lat="42.94047" lon="1.91351">
        <ele>562</ele>
        <time>2014-10-11T11:03:24Z</time>
      </trkpt>
      <trkpt lat="42.94048" lon="1.91353">
        <ele>562</ele>
        <time>2014-10-11T11:03:27Z</time>
      </trkpt>
      <trkpt lat="42.94049" lon="1.91368">
        <ele>562</ele>
        <time>2014-10-11T11:03:31Z</time>
      </trkpt>
      <trkpt lat="42.9405" lon="1.91368">
        <ele>562</ele>
        <time>2014-10-11T11:03:34Z</time>
      </trkpt>
      <trkpt lat="42.94048" lon="1.91369">
        <ele>562</ele>
        <time>2014-10-11T11:03:36Z</time>
      </trkpt>
      <trkpt lat="42.94046" lon="1.91373">
        <ele>562</ele>
        <time>2014-10-11T11:03:39Z</time>
      </trkpt>
      <trkpt lat="42.94041" lon="1.9138">
        <ele>563</ele>
        <time>2014-10-11T11:03:42Z</time>
      </trkpt>
      <trkpt lat="42.94038" lon="1.91389">
        <ele>564</ele>
        <time>2014-10-11T11:03:45Z</time>
      </trkpt>
      <trkpt lat="42.94033" lon="1.91399">
        <ele>566</ele>
        <time>2014-10-11T11:03:48Z</time>
      </trkpt>
      <trkpt lat="42.9403" lon="1.91408">
        <ele>568</ele>
        <time>2014-10-11T11:03:51Z</time>
      </trkpt>
      <trkpt lat="42.94028" lon="1.91416">
        <ele>569</ele>
        <time>2014-10-11T11:03:53Z</time>
      </trkpt>
      <trkpt lat="42.94025" lon="1.91426">
        <ele>570</ele>
        <time>2014-10-11T11:03:56Z</time>
      </trkpt>
      <trkpt lat="42.94021" lon="1.9143">
        <ele>572</ele>
        <time>2014-10-11T11:03:59Z</time>
      </trkpt>
      <trkpt lat="42.94019" lon="1.91434">
        <ele>573</ele>
        <time>2014-10-11T11:04:01Z</time>
      </trkpt>
      <trkpt lat="42.94016" lon="1.91439">
        <ele>574</ele>
        <time>2014-10-11T11:04:04Z</time>
      </trkpt>
      <trkpt lat="42.94014" lon="1.91442">
        <ele>574</ele>
        <time>2014-10-11T11:04:06Z</time>
      </trkpt>
      <trkpt lat="42.94011" lon="1.91447">
        <ele>575</ele>
        <time>2014-10-11T11:04:09Z</time>
      </trkpt>
      <trkpt lat="42.94008" lon="1.91453">
        <ele>576</ele>
        <time>2014-10-11T11:04:12Z</time>
      </trkpt>
      <trkpt lat="42.94006" lon="1.91458">
        <ele>577</ele>
        <time>2014-10-11T11:04:14Z</time>
      </trkpt>
      <trkpt lat="42.94005" lon="1.91464">
        <ele>578</ele>
        <time>2014-10-11T11:04:17Z</time>
      </trkpt>
      <trkpt lat="42.94004" lon="1.91468">
        <ele>578</ele>
        <time>2014-10-11T11:04:19Z</time>
      </trkpt>
      <trkpt lat="42.94003" lon="1.91473">
        <ele>579</ele>
        <time>2014-10-11T11:04:22Z</time>
      </trkpt>
      <trkpt lat="42.94001" lon="1.91477">
        <ele>579</ele>
        <time>2014-10-11T11:04:24Z</time>
      </trkpt>
      <trkpt lat="42.93999" lon="1.9148">
        <ele>579</ele>
        <time>2014-10-11T11:04:26Z</time>
      </trkpt>
      <trkpt lat="42.93994" lon="1.91489">
        <ele>579</ele>
        <time>2014-10-11T11:04:29Z</time>
      </trkpt>
      <trkpt lat="42.9399" lon="1.91497">
        <ele>578</ele>
        <time>2014-10-11T11:04:31Z</time>
      </trkpt>
      <trkpt lat="42.93987" lon="1.91504">
        <ele>578</ele>
        <time>2014-10-11T11:04:34Z</time>
      </trkpt>
      <trkpt lat="42.93984" lon="1.91512">
        <ele>577</ele>
        <time>2014-10-11T11:04:37Z</time>
      </trkpt>
      <trkpt lat="42.93981" lon="1.91519">
        <ele>577</ele>
        <time>2014-10-11T11:04:40Z</time>
      </trkpt>
      <trkpt lat="42.93979" lon="1.91523">
        <ele>577</ele>
        <time>2014-10-11T11:04:42Z</time>
      </trkpt>
      <trkpt lat="42.93978" lon="1.91527">
        <ele>577</ele>
        <time>2014-10-11T11:04:44Z</time>
      </trkpt>
      <trkpt lat="42.93975" lon="1.91532">
        <ele>577</ele>
        <time>2014-10-11T11:04:47Z</time>
      </trkpt>
      <trkpt lat="42.93975" lon="1.91534">
        <ele>577</ele>
        <time>2014-10-11T11:04:49Z</time>
      </trkpt>
      <trkpt lat="42.93974" lon="1.9154">
        <ele>577</ele>
        <time>2014-10-11T11:04:52Z</time>
      </trkpt>
      <trkpt lat="42.93972" lon="1.91546">
        <ele>577</ele>
        <time>2014-10-11T11:04:54Z</time>
      </trkpt>
      <trkpt lat="42.9397" lon="1.91553">
        <ele>577</ele>
        <time>2014-10-11T11:04:56Z</time>
      </trkpt>
      <trkpt lat="42.93968" lon="1.91557">
        <ele>577</ele>
        <time>2014-10-11T11:04:58Z</time>
      </trkpt>
      <trkpt lat="42.93967" lon="1.91566">
        <ele>576</ele>
        <time>2014-10-11T11:05:01Z</time>
      </trkpt>
      <trkpt lat="42.93968" lon="1.91579">
        <ele>576</ele>
        <time>2014-10-11T11:05:03Z</time>
      </trkpt>
      <trkpt lat="42.93967" lon="1.91594">
        <ele>575</ele>
        <time>2014-10-11T11:05:05Z</time>
      </trkpt>
      <trkpt lat="42.93966" lon="1.9161">
        <ele>574</ele>
        <time>2014-10-11T11:05:07Z</time>
      </trkpt>
      <trkpt lat="42.93965" lon="1.91623">
        <ele>573</ele>
        <time>2014-10-11T11:05:09Z</time>
      </trkpt>
      <trkpt lat="42.9396" lon="1.91638">
        <ele>571</ele>
        <time>2014-10-11T11:05:11Z</time>
      </trkpt>
      <trkpt lat="42.93956" lon="1.91663">
        <ele>570</ele>
        <time>2014-10-11T11:05:14Z</time>
      </trkpt>
      <trkpt lat="42.93955" lon="1.91682">
        <ele>570</ele>
        <time>2014-10-11T11:05:16Z</time>
      </trkpt>
      <trkpt lat="42.93951" lon="1.91702">
        <ele>569</ele>
        <time>2014-10-11T11:05:18Z</time>
      </trkpt>
      <trkpt lat="42.93947" lon="1.91734">
        <ele>567</ele>
        <time>2014-10-11T11:05:21Z</time>
      </trkpt>
      <trkpt lat="42.93944" lon="1.91742">
        <ele>566</ele>
        <time>2014-10-11T11:05:23Z</time>
      </trkpt>
      <trkpt lat="42.9394" lon="1.91754">
        <ele>564</ele>
        <time>2014-10-11T11:05:26Z</time>
      </trkpt>
      <trkpt lat="42.93931" lon="1.91773">
        <ele>563</ele>
        <time>2014-10-11T11:05:29Z</time>
      </trkpt>
      <trkpt lat="42.93923" lon="1.91784">
        <ele>562</ele>
        <time>2014-10-11T11:05:31Z</time>
      </trkpt>
      <trkpt lat="42.93915" lon="1.91791">
        <ele>561</ele>
        <time>2014-10-11T11:05:33Z</time>
      </trkpt>
      <trkpt lat="42.93904" lon="1.91798">
        <ele>559</ele>
        <time>2014-10-11T11:05:36Z</time>
      </trkpt>
      <trkpt lat="42.93896" lon="1.91799">
        <ele>557</ele>
        <time>2014-10-11T11:05:38Z</time>
      </trkpt>
      <trkpt lat="42.93887" lon="1.91799">
        <ele>555</ele>
        <time>2014-10-11T11:05:41Z</time>
      </trkpt>
      <trkpt lat="42.93879" lon="1.91798">
        <ele>553</ele>
        <time>2014-10-11T11:05:43Z</time>
      </trkpt>
      <trkpt lat="42.93866" lon="1.91793">
        <ele>552</ele>
        <time>2014-10-11T11:05:46Z</time>
      </trkpt>
      <trkpt lat="42.93855" lon="1.91792">
        <ele>551</ele>
        <time>2014-10-11T11:05:48Z</time>
      </trkpt>
      <trkpt lat="42.93844" lon="1.91791">
        <ele>549</ele>
        <time>2014-10-11T11:05:51Z</time>
      </trkpt>
      <trkpt lat="42.93837" lon="1.9179">
        <ele>548</ele>
        <time>2014-10-11T11:05:54Z</time>
      </trkpt>
      <trkpt lat="42.93832" lon="1.91788">
        <ele>547</ele>
        <time>2014-10-11T11:05:56Z</time>
      </trkpt>
      <trkpt lat="42.93824" lon="1.91781">
        <ele>546</ele>
        <time>2014-10-11T11:05:59Z</time>
      </trkpt>
      <trkpt lat="42.9382" lon="1.91774">
        <ele>546</ele>
        <time>2014-10-11T11:06:01Z</time>
      </trkpt>
      <trkpt lat="42.93814" lon="1.91769">
        <ele>546</ele>
        <time>2014-10-11T11:06:03Z</time>
      </trkpt>
      <trkpt lat="42.93806" lon="1.91765">
        <ele>545</ele>
        <time>2014-10-11T11:06:06Z</time>
      </trkpt>
      <trkpt lat="42.93798" lon="1.9176">
        <ele>545</ele>
        <time>2014-10-11T11:06:09Z</time>
      </trkpt>
      <trkpt lat="42.93792" lon="1.91758">
        <ele>545</ele>
        <time>2014-10-11T11:06:11Z</time>
      </trkpt>
      <trkpt lat="42.93787" lon="1.91756">
        <ele>546</ele>
        <time>2014-10-11T11:06:14Z</time>
      </trkpt>
      <trkpt lat="42.93784" lon="1.91754">
        <ele>546</ele>
        <time>2014-10-11T11:06:16Z</time>
      </trkpt>
      <trkpt lat="42.9378" lon="1.91752">
        <ele>547</ele>
        <time>2014-10-11T11:06:19Z</time>
      </trkpt>
      <trkpt lat="42.93777" lon="1.91751">
        <ele>549</ele>
        <time>2014-10-11T11:06:22Z</time>
      </trkpt>
      <trkpt lat="42.93776" lon="1.91751">
        <ele>549</ele>
        <time>2014-10-11T11:06:25Z</time>
      </trkpt>
      <trkpt lat="42.93774" lon="1.91751">
        <ele>550</ele>
        <time>2014-10-11T11:06:28Z</time>
      </trkpt>
      <trkpt lat="42.93772" lon="1.9175">
        <ele>551</ele>
        <time>2014-10-11T11:06:31Z</time>
      </trkpt>
      <trkpt lat="42.9377" lon="1.9175">
        <ele>551</ele>
        <time>2014-10-11T11:06:33Z</time>
      </trkpt>
      <trkpt lat="42.93768" lon="1.91753">
        <ele>552</ele>
        <time>2014-10-11T11:06:36Z</time>
      </trkpt>
      <trkpt lat="42.93766" lon="1.91756">
        <ele>552</ele>
        <time>2014-10-11T11:06:39Z</time>
      </trkpt>
      <trkpt lat="42.93764" lon="1.9176">
        <ele>553</ele>
        <time>2014-10-11T11:06:42Z</time>
      </trkpt>
      <trkpt lat="42.93769" lon="1.91759">
        <ele>552</ele>
        <time>2014-10-11T11:06:46Z</time>
      </trkpt>
      <trkpt lat="42.93769" lon="1.9176">
        <ele>552</ele>
        <time>2014-10-11T11:06:48Z</time>
      </trkpt>
      <trkpt lat="42.93769" lon="1.9176">
        <ele>552</ele>
        <time>2014-10-11T11:06:50Z</time>
      </trkpt>
      <trkpt lat="42.93769" lon="1.91759">
        <ele>552</ele>
        <time>2014-10-11T11:06:52Z</time>
      </trkpt>
      <trkpt lat="42.9377" lon="1.91758">
        <ele>552</ele>
        <time>2014-10-11T11:06:54Z</time>
      </trkpt>
      <trkpt lat="42.93771" lon="1.91758">
        <ele>552</ele>
        <time>2014-10-11T11:06:56Z</time>
      </trkpt>
      <trkpt lat="42.93779" lon="1.91759">
        <ele>551</ele>
        <time>2014-10-11T11:06:59Z</time>
      </trkpt>
      <trkpt lat="42.93786" lon="1.91763">
        <ele>550</ele>
        <time>2014-10-11T11:07:01Z</time>
      </trkpt>
      <trkpt lat="42.93798" lon="1.9177">
        <ele>549</ele>
        <time>2014-10-11T11:07:04Z</time>
      </trkpt>
      <trkpt lat="42.93805" lon="1.91775">
        <ele>547</ele>
        <time>2014-10-11T11:07:06Z</time>
      </trkpt>
      <trkpt lat="42.93812" lon="1.91778">
        <ele>546</ele>
        <time>2014-10-11T11:07:08Z</time>
      </trkpt>
      <trkpt lat="42.93819" lon="1.91783">
        <ele>545</ele>
        <time>2014-10-11T11:07:11Z</time>
      </trkpt>
      <trkpt lat="42.93821" lon="1.91787">
        <ele>545</ele>
        <time>2014-10-11T11:07:13Z</time>
      </trkpt>
      <trkpt lat="42.93823" lon="1.91791">
        <ele>545</ele>
        <time>2014-10-11T11:07:15Z</time>
      </trkpt>
      <trkpt lat="42.93828" lon="1.91797">
        <ele>546</ele>
        <time>2014-10-11T11:07:18Z</time>
      </trkpt>
      <trkpt lat="42.93833" lon="1.91799">
        <ele>546</ele>
        <time>2014-10-11T11:07:20Z</time>
      </trkpt>
      <trkpt lat="42.93839" lon="1.91802">
        <ele>547</ele>
        <time>2014-10-11T11:07:23Z</time>
      </trkpt>
      <trkpt lat="42.93844" lon="1.91803">
        <ele>547</ele>
        <time>2014-10-11T11:07:25Z</time>
      </trkpt>
      <trkpt lat="42.93851" lon="1.91804">
        <ele>548</ele>
        <time>2014-10-11T11:07:28Z</time>
      </trkpt>
      <trkpt lat="42.93858" lon="1.91805">
        <ele>548</ele>
        <time>2014-10-11T11:07:31Z</time>
      </trkpt>
      <trkpt lat="42.93862" lon="1.91806">
        <ele>549</ele>
        <time>2014-10-11T11:07:33Z</time>
      </trkpt>
      <trkpt lat="42.93866" lon="1.91807">
        <ele>549</ele>
        <time>2014-10-11T11:07:35Z</time>
      </trkpt>
      <trkpt lat="42.93871" lon="1.91809">
        <ele>549</ele>
        <time>2014-10-11T11:07:38Z</time>
      </trkpt>
      <trkpt lat="42.93876" lon="1.91813">
        <ele>550</ele>
        <time>2014-10-11T11:07:41Z</time>
      </trkpt>
      <trkpt lat="42.9388" lon="1.91814">
        <ele>551</ele>
        <time>2014-10-11T11:07:43Z</time>
      </trkpt>
      <trkpt lat="42.93883" lon="1.91815">
        <ele>551</ele>
        <time>2014-10-11T11:07:45Z</time>
      </trkpt>
      <trkpt lat="42.93886" lon="1.91816">
        <ele>552</ele>
        <time>2014-10-11T11:07:47Z</time>
      </trkpt>
      <trkpt lat="42.93891" lon="1.91817">
        <ele>552</ele>
        <time>2014-10-11T11:07:50Z</time>
      </trkpt>
      <trkpt lat="42.93894" lon="1.91818">
        <ele>552</ele>
        <time>2014-10-11T11:07:52Z</time>
      </trkpt>
      <trkpt lat="42.93898" lon="1.91819">
        <ele>552</ele>
        <time>2014-10-11T11:07:55Z</time>
      </trkpt>
      <trkpt lat="42.93902" lon="1.91819">
        <ele>554</ele>
        <time>2014-10-11T11:07:58Z</time>
      </trkpt>
      <trkpt lat="42.93905" lon="1.91819">
        <ele>554</ele>
        <time>2014-10-11T11:08:00Z</time>
      </trkpt>
      <trkpt lat="42.9391" lon="1.91819">
        <ele>555</ele>
        <time>2014-10-11T11:08:03Z</time>
      </trkpt>
      <trkpt lat="42.93914" lon="1.91817">
        <ele>555</ele>
        <time>2014-10-11T11:08:06Z</time>
      </trkpt>
      <trkpt lat="42.93918" lon="1.91816">
        <ele>556</ele>
        <time>2014-10-11T11:08:08Z</time>
      </trkpt>
      <trkpt lat="42.93922" lon="1.91814">
        <ele>557</ele>
        <time>2014-10-11T11:08:11Z</time>
      </trkpt>
      <trkpt lat="42.93927" lon="1.91811">
        <ele>558</ele>
        <time>2014-10-11T11:08:14Z</time>
      </trkpt>
      <trkpt lat="42.93931" lon="1.91808">
        <ele>558</ele>
        <time>2014-10-11T11:08:17Z</time>
      </trkpt>
      <trkpt lat="42.93935" lon="1.91805">
        <ele>559</ele>
        <time>2014-10-11T11:08:20Z</time>
      </trkpt>
      <trkpt lat="42.93938" lon="1.91801">
        <ele>560</ele>
        <time>2014-10-11T11:08:23Z</time>
      </trkpt>
      <trkpt lat="42.93941" lon="1.91797">
        <ele>560</ele>
        <time>2014-10-11T11:08:25Z</time>
      </trkpt>
      <trkpt lat="42.93943" lon="1.91794">
        <ele>560</ele>
        <time>2014-10-11T11:08:27Z</time>
      </trkpt>
      <trkpt lat="42.93948" lon="1.91789">
        <ele>561</ele>
        <time>2014-10-11T11:08:30Z</time>
      </trkpt>
      <trkpt lat="42.93952" lon="1.91784">
        <ele>562</ele>
        <time>2014-10-11T11:08:33Z</time>
      </trkpt>
      <trkpt lat="42.93955" lon="1.91777">
        <ele>562</ele>
        <time>2014-10-11T11:08:36Z</time>
      </trkpt>
      <trkpt lat="42.93958" lon="1.91773">
        <ele>563</ele>
        <time>2014-10-11T11:08:38Z</time>
      </trkpt>
      <trkpt lat="42.9396" lon="1.91769">
        <ele>563</ele>
        <time>2014-10-11T11:08:40Z</time>
      </trkpt>
      <trkpt lat="42.93962" lon="1.91762">
        <ele>563</ele>
        <time>2014-10-11T11:08:42Z</time>
      </trkpt>
      <trkpt lat="42.93964" lon="1.91753">
        <ele>563</ele>
        <time>2014-10-11T11:08:44Z</time>
      </trkpt>
      <trkpt lat="42.93967" lon="1.91744">
        <ele>563</ele>
        <time>2014-10-11T11:08:47Z</time>
      </trkpt>
      <trkpt lat="42.93969" lon="1.91736">
        <ele>564</ele>
        <time>2014-10-11T11:08:50Z</time>
      </trkpt>
      <trkpt lat="42.9397" lon="1.91732">
        <ele>565</ele>
        <time>2014-10-11T11:08:52Z</time>
      </trkpt>
      <trkpt lat="42.93972" lon="1.91725">
        <ele>566</ele>
        <time>2014-10-11T11:08:55Z</time>
      </trkpt>
      <trkpt lat="42.93974" lon="1.91721">
        <ele>566</ele>
        <time>2014-10-11T11:08:57Z</time>
      </trkpt>
      <trkpt lat="42.93975" lon="1.91718">
        <ele>567</ele>
        <time>2014-10-11T11:09:00Z</time>
      </trkpt>
      <trkpt lat="42.93976" lon="1.91716">
        <ele>567</ele>
        <time>2014-10-11T11:09:02Z</time>
      </trkpt>
      <trkpt lat="42.93978" lon="1.91715">
        <ele>568</ele>
        <time>2014-10-11T11:09:05Z</time>
      </trkpt>
      <trkpt lat="42.9398" lon="1.91714">
        <ele>568</ele>
        <time>2014-10-11T11:09:07Z</time>
      </trkpt>
      <trkpt lat="42.9398" lon="1.91713">
        <ele>569</ele>
        <time>2014-10-11T11:09:10Z</time>
      </trkpt>
      <trkpt lat="42.93979" lon="1.91712">
        <ele>569</ele>
        <time>2014-10-11T11:09:13Z</time>
      </trkpt>
      <trkpt lat="42.93979" lon="1.91712">
        <ele>569</ele>
        <time>2014-10-11T11:09:15Z</time>
      </trkpt>
      <trkpt lat="42.9398" lon="1.91712">
        <ele>569</ele>
        <time>2014-10-11T11:09:18Z</time>
      </trkpt>
      <trkpt lat="42.9398" lon="1.91711">
        <ele>569</ele>
        <time>2014-10-11T11:09:20Z</time>
      </trkpt>
      <trkpt lat="42.9398" lon="1.91712">
        <ele>570</ele>
        <time>2014-10-11T11:09:24Z</time>
      </trkpt>
      <trkpt lat="42.9398" lon="1.91712">
        <ele>570</ele>
        <time>2014-10-11T11:09:27Z</time>
      </trkpt>
      <trkpt lat="42.9398" lon="1.91711">
        <ele>570</ele>
        <time>2014-10-11T11:09:29Z</time>
      </trkpt>
      <trkpt lat="42.93981" lon="1.91711">
        <ele>570</ele>
        <time>2014-10-11T11:09:31Z</time>
      </trkpt>
      <trkpt lat="42.93982" lon="1.9171">
        <ele>570</ele>
        <time>2014-10-11T11:09:34Z</time>
      </trkpt>
      <trkpt lat="42.93982" lon="1.91709">
        <ele>570</ele>
        <time>2014-10-11T11:09:36Z</time>
      </trkpt>
      <trkpt lat="42.93984" lon="1.91708">
        <ele>571</ele>
        <time>2014-10-11T11:09:39Z</time>
      </trkpt>
      <trkpt lat="42.93984" lon="1.91707">
        <ele>571</ele>
        <time>2014-10-11T11:09:41Z</time>
      </trkpt>
      <trkpt lat="42.93985" lon="1.91706">
        <ele>571</ele>
        <time>2014-10-11T11:09:43Z</time>
      </trkpt>
      <trkpt lat="42.93987" lon="1.91705">
        <ele>572</ele>
        <time>2014-10-11T11:09:46Z</time>
      </trkpt>
      <trkpt lat="42.93988" lon="1.91704">
        <ele>572</ele>
        <time>2014-10-11T11:09:49Z</time>
      </trkpt>
      <trkpt lat="42.93989" lon="1.91703">
        <ele>572</ele>
        <time>2014-10-11T11:09:51Z</time>
      </trkpt>
      <trkpt lat="42.93989" lon="1.91703">
        <ele>573</ele>
        <time>2014-10-11T11:09:53Z</time>
      </trkpt>
      <trkpt lat="42.9399" lon="1.91702">
        <ele>573</ele>
        <time>2014-10-11T11:09:55Z</time>
      </trkpt>
      <trkpt lat="42.93991" lon="1.91702">
        <ele>573</ele>
        <time>2014-10-11T11:09:57Z</time>
      </trkpt>
      <trkpt lat="42.93992" lon="1.91701">
        <ele>573</ele>
        <time>2014-10-11T11:10:00Z</time>
      </trkpt>
      <trkpt lat="42.93989" lon="1.91691">
        <ele>573</ele>
        <time>2014-10-11T11:10:02Z</time>
      </trkpt>
      <trkpt lat="42.9399" lon="1.91691">
        <ele>573</ele>
        <time>2014-10-11T11:10:04Z</time>
      </trkpt>
      <trkpt lat="42.9399" lon="1.91691">
        <ele>573</ele>
        <time>2014-10-11T11:10:06Z</time>
      </trkpt>
      <trkpt lat="42.9399" lon="1.91691">
        <ele>573</ele>
        <time>2014-10-11T11:10:09Z</time>
      </trkpt>
      <trkpt lat="42.9399" lon="1.91691">
        <ele>573</ele>
        <time>2014-10-11T11:10:11Z</time>
      </trkpt>
      <trkpt lat="42.93989" lon="1.91691">
        <ele>573</ele>
        <time>2014-10-11T11:10:14Z</time>
      </trkpt>
      <trkpt lat="42.9399" lon="1.9169">
        <ele>573</ele>
        <time>2014-10-11T11:10:16Z</time>
      </trkpt>
      <trkpt lat="42.93991" lon="1.91685">
        <ele>573</ele>
        <time>2014-10-11T11:10:19Z</time>
      </trkpt>
      <trkpt lat="42.93993" lon="1.9168">
        <ele>573</ele>
        <time>2014-10-11T11:10:22Z</time>
      </trkpt>
      <trkpt lat="42.93993" lon="1.91675">
        <ele>573</ele>
        <time>2014-10-11T11:10:24Z</time>
      </trkpt>
      <trkpt lat="42.93995" lon="1.9167">
        <ele>573</ele>
        <time>2014-10-11T11:10:27Z</time>
      </trkpt>
      <trkpt lat="42.93997" lon="1.91665">
        <ele>573</ele>
        <time>2014-10-11T11:10:30Z</time>
      </trkpt>
      <trkpt lat="42.93999" lon="1.91661">
        <ele>573</ele>
        <time>2014-10-11T11:10:32Z</time>
      </trkpt>
      <trkpt lat="42.94002" lon="1.91656">
        <ele>573</ele>
        <time>2014-10-11T11:10:35Z</time>
      </trkpt>
      <trkpt lat="42.94005" lon="1.91653">
        <ele>573</ele>
        <time>2014-10-11T11:10:38Z</time>
      </trkpt>
      <trkpt lat="42.94008" lon="1.91651">
        <ele>574</ele>
        <time>2014-10-11T11:10:41Z</time>
      </trkpt>
      <trkpt lat="42.9401" lon="1.91649">
        <ele>574</ele>
        <time>2014-10-11T11:10:43Z</time>
      </trkpt>
      <trkpt lat="42.94012" lon="1.91646">
        <ele>574</ele>
        <time>2014-10-11T11:10:46Z</time>
      </trkpt>
      <trkpt lat="42.94014" lon="1.91648">
        <ele>574</ele>
        <time>2014-10-11T11:10:49Z</time>
      </trkpt>
      <trkpt lat="42.94016" lon="1.9165">
        <ele>574</ele>
        <time>2014-10-11T11:10:51Z</time>
      </trkpt>
      <trkpt lat="42.94019" lon="1.91654">
        <ele>574</ele>
        <time>2014-10-11T11:10:54Z</time>
      </trkpt>
      <trkpt lat="42.9402" lon="1.91655">
        <ele>574</ele>
        <time>2014-10-11T11:10:56Z</time>
      </trkpt>
      <trkpt lat="42.94023" lon="1.91655">
        <ele>574</ele>
        <time>2014-10-11T11:10:59Z</time>
      </trkpt>
      <trkpt lat="42.94025" lon="1.91656">
        <ele>575</ele>
        <time>2014-10-11T11:11:01Z</time>
      </trkpt>
      <trkpt lat="42.94027" lon="1.91657">
        <ele>575</ele>
        <time>2014-10-11T11:11:04Z</time>
      </trkpt>
      <trkpt lat="42.94026" lon="1.91658">
        <ele>576</ele>
        <time>2014-10-11T11:11:08Z</time>
      </trkpt>
      <trkpt lat="42.94026" lon="1.91658">
        <ele>576</ele>
        <time>2014-10-11T11:11:10Z</time>
      </trkpt>
      <trkpt lat="42.94027" lon="1.91658">
        <ele>576</ele>
        <time>2014-10-11T11:11:13Z</time>
      </trkpt>
      <trkpt lat="42.94028" lon="1.91657">
        <ele>576</ele>
        <time>2014-10-11T11:11:15Z</time>
      </trkpt>
      <trkpt lat="42.94029" lon="1.91656">
        <ele>576</ele>
        <time>2014-10-11T11:11:17Z</time>
      </trkpt>
      <trkpt lat="42.9403" lon="1.91657">
        <ele>576</ele>
        <time>2014-10-11T11:11:19Z</time>
      </trkpt>
      <trkpt lat="42.94033" lon="1.91657">
        <ele>576</ele>
        <time>2014-10-11T11:11:22Z</time>
      </trkpt>
      <trkpt lat="42.94038" lon="1.91657">
        <ele>576</ele>
        <time>2014-10-11T11:11:24Z</time>
      </trkpt>
      <trkpt lat="42.94044" lon="1.91657">
        <ele>576</ele>
        <time>2014-10-11T11:11:27Z</time>
      </trkpt>
      <trkpt lat="42.94048" lon="1.91654">
        <ele>576</ele>
        <time>2014-10-11T11:11:29Z</time>
      </trkpt>
      <trkpt lat="42.94055" lon="1.9165">
        <ele>576</ele>
        <time>2014-10-11T11:11:32Z</time>
      </trkpt>
      <trkpt lat="42.94059" lon="1.91648">
        <ele>576</ele>
        <time>2014-10-11T11:11:34Z</time>
      </trkpt>
      <trkpt lat="42.94063" lon="1.91645">
        <ele>576</ele>
        <time>2014-10-11T11:11:36Z</time>
      </trkpt>
      <trkpt lat="42.94068" lon="1.91642">
        <ele>576</ele>
        <time>2014-10-11T11:11:39Z</time>
      </trkpt>
      <trkpt lat="42.94071" lon="1.9164">
        <ele>576</ele>
        <time>2014-10-11T11:11:41Z</time>
      </trkpt>
      <trkpt lat="42.94075" lon="1.91635">
        <ele>575</ele>
        <time>2014-10-11T11:11:44Z</time>
      </trkpt>
      <trkpt lat="42.94076" lon="1.91635">
        <ele>576</ele>
        <time>2014-10-11T11:11:46Z</time>
      </trkpt>
      <trkpt lat="42.94076" lon="1.91635">
        <ele>576</ele>
        <time>2014-10-11T11:11:48Z</time>
      </trkpt>
      <trkpt lat="42.94076" lon="1.91635">
        <ele>576</ele>
        <time>2014-10-11T11:11:51Z</time>
      </trkpt>
      <trkpt lat="42.94076" lon="1.91634">
        <ele>576</ele>
        <time>2014-10-11T11:11:55Z</time>
      </trkpt>
      <trkpt lat="42.94076" lon="1.91633">
        <ele>576</ele>
        <time>2014-10-11T11:11:59Z</time>
      </trkpt>
      <trkpt lat="42.94076" lon="1.91633">
        <ele>576</ele>
        <time>2014-10-11T11:12:01Z</time>
      </trkpt>
      <trkpt lat="42.94076" lon="1.91633">
        <ele>576</ele>
        <time>2014-10-11T11:12:04Z</time>
      </trkpt>
      <trkpt lat="42.94076" lon="1.91632">
        <ele>576</ele>
        <time>2014-10-11T11:12:07Z</time>
      </trkpt>
      <trkpt lat="42.94077" lon="1.91633">
        <ele>576</ele>
        <time>2014-10-11T11:12:10Z</time>
      </trkpt>
      <trkpt lat="42.94081" lon="1.91637">
        <ele>576</ele>
        <time>2014-10-11T11:12:13Z</time>
      </trkpt>
      <trkpt lat="42.94084" lon="1.91638">
        <ele>576</ele>
        <time>2014-10-11T11:12:15Z</time>
      </trkpt>
      <trkpt lat="42.94088" lon="1.91641">
        <ele>576</ele>
        <time>2014-10-11T11:12:18Z</time>
      </trkpt>
      <trkpt lat="42.94092" lon="1.91642">
        <ele>576</ele>
        <time>2014-10-11T11:12:20Z</time>
      </trkpt>
      <trkpt lat="42.94096" lon="1.91645">
        <ele>577</ele>
        <time>2014-10-11T11:12:22Z</time>
      </trkpt>
      <trkpt lat="42.94098" lon="1.91647">
        <ele>577</ele>
        <time>2014-10-11T11:12:24Z</time>
      </trkpt>
      <trkpt lat="42.94099" lon="1.91651">
        <ele>577</ele>
        <time>2014-10-11T11:12:26Z</time>
      </trkpt>
      <trkpt lat="42.94098" lon="1.91656">
        <ele>577</ele>
        <time>2014-10-11T11:12:28Z</time>
      </trkpt>
      <trkpt lat="42.94097" lon="1.9166">
        <ele>578</ele>
        <time>2014-10-11T11:12:30Z</time>
      </trkpt>
      <trkpt lat="42.94093" lon="1.91666">
        <ele>579</ele>
        <time>2014-10-11T11:12:33Z</time>
      </trkpt>
      <trkpt lat="42.9409" lon="1.91669">
        <ele>579</ele>
        <time>2014-10-11T11:12:35Z</time>
      </trkpt>
      <trkpt lat="42.94085" lon="1.91674">
        <ele>579</ele>
        <time>2014-10-11T11:12:38Z</time>
      </trkpt>
      <trkpt lat="42.9408" lon="1.9168">
        <ele>579</ele>
        <time>2014-10-11T11:12:41Z</time>
      </trkpt>
      <trkpt lat="42.94077" lon="1.91683">
        <ele>580</ele>
        <time>2014-10-11T11:12:43Z</time>
      </trkpt>
      <trkpt lat="42.94073" lon="1.91686">
        <ele>580</ele>
        <time>2014-10-11T11:12:45Z</time>
      </trkpt>
      <trkpt lat="42.94068" lon="1.91692">
        <ele>581</ele>
        <time>2014-10-11T11:12:48Z</time>
      </trkpt>
      <trkpt lat="42.94063" lon="1.91698">
        <ele>581</ele>
        <time>2014-10-11T11:12:51Z</time>
      </trkpt>
      <trkpt lat="42.94058" lon="1.91703">
        <ele>582</ele>
        <time>2014-10-11T11:12:54Z</time>
      </trkpt>
      <trkpt lat="42.94055" lon="1.91706">
        <ele>582</ele>
        <time>2014-10-11T11:12:56Z</time>
      </trkpt>
      <trkpt lat="42.94052" lon="1.91713">
        <ele>582</ele>
        <time>2014-10-11T11:12:59Z</time>
      </trkpt>
      <trkpt lat="42.94056" lon="1.91718">
        <ele>582</ele>
        <time>2014-10-11T11:13:02Z</time>
      </trkpt>
      <trkpt lat="42.94059" lon="1.91721">
        <ele>582</ele>
        <time>2014-10-11T11:13:04Z</time>
      </trkpt>
      <trkpt lat="42.94063" lon="1.91724">
        <ele>583</ele>
        <time>2014-10-11T11:13:06Z</time>
      </trkpt>
      <trkpt lat="42.94069" lon="1.9173">
        <ele>583</ele>
        <time>2014-10-11T11:13:09Z</time>
      </trkpt>
      <trkpt lat="42.94073" lon="1.91734">
        <ele>584</ele>
        <time>2014-10-11T11:13:11Z</time>
      </trkpt>
      <trkpt lat="42.94078" lon="1.91739">
        <ele>586</ele>
        <time>2014-10-11T11:13:14Z</time>
      </trkpt>
      <trkpt lat="42.94081" lon="1.91742">
        <ele>587</ele>
        <time>2014-10-11T11:13:16Z</time>
      </trkpt>
      <trkpt lat="42.94084" lon="1.91747">
        <ele>588</ele>
        <time>2014-10-11T11:13:19Z</time>
      </trkpt>
      <trkpt lat="42.94086" lon="1.91754">
        <ele>589</ele>
        <time>2014-10-11T11:13:22Z</time>
      </trkpt>
      <trkpt lat="42.94089" lon="1.91757">
        <ele>590</ele>
        <time>2014-10-11T11:13:24Z</time>
      </trkpt>
      <trkpt lat="42.94091" lon="1.9176">
        <ele>591</ele>
        <time>2014-10-11T11:13:26Z</time>
      </trkpt>
      <trkpt lat="42.94093" lon="1.91765">
        <ele>592</ele>
        <time>2014-10-11T11:13:29Z</time>
      </trkpt>
      <trkpt lat="42.94095" lon="1.91771">
        <ele>592</ele>
        <time>2014-10-11T11:13:32Z</time>
      </trkpt>
      <trkpt lat="42.94094" lon="1.91777">
        <ele>592</ele>
        <time>2014-10-11T11:13:35Z</time>
      </trkpt>
      <trkpt lat="42.94094" lon="1.91781">
        <ele>593</ele>
        <time>2014-10-11T11:13:37Z</time>
      </trkpt>
      <trkpt lat="42.94095" lon="1.91785">
        <ele>593</ele>
        <time>2014-10-11T11:13:39Z</time>
      </trkpt>
      <trkpt lat="42.94095" lon="1.91791">
        <ele>594</ele>
        <time>2014-10-11T11:13:42Z</time>
      </trkpt>
      <trkpt lat="42.94095" lon="1.91794">
        <ele>594</ele>
        <time>2014-10-11T11:13:44Z</time>
      </trkpt>
      <trkpt lat="42.94096" lon="1.91798">
        <ele>594</ele>
        <time>2014-10-11T11:13:46Z</time>
      </trkpt>
      <trkpt lat="42.94096" lon="1.91801">
        <ele>595</ele>
        <time>2014-10-11T11:13:48Z</time>
      </trkpt>
      <trkpt lat="42.94098" lon="1.91806">
        <ele>595</ele>
        <time>2014-10-11T11:13:51Z</time>
      </trkpt>
      <trkpt lat="42.94099" lon="1.91809">
        <ele>595</ele>
        <time>2014-10-11T11:13:53Z</time>
      </trkpt>
      <trkpt lat="42.94099" lon="1.91813">
        <ele>596</ele>
        <time>2014-10-11T11:13:56Z</time>
      </trkpt>
      <trkpt lat="42.94099" lon="1.91815">
        <ele>596</ele>
        <time>2014-10-11T11:13:58Z</time>
      </trkpt>
      <trkpt lat="42.94097" lon="1.91818">
        <ele>597</ele>
        <time>2014-10-11T11:14:01Z</time>
      </trkpt>
      <trkpt lat="42.94098" lon="1.91823">
        <ele>597</ele>
        <time>2014-10-11T11:14:04Z</time>
      </trkpt>
      <trkpt lat="42.94098" lon="1.91826">
        <ele>597</ele>
        <time>2014-10-11T11:14:06Z</time>
      </trkpt>
      <trkpt lat="42.941" lon="1.91831">
        <ele>598</ele>
        <time>2014-10-11T11:14:09Z</time>
      </trkpt>
      <trkpt lat="42.94101" lon="1.91835">
        <ele>599</ele>
        <time>2014-10-11T11:14:12Z</time>
      </trkpt>
      <trkpt lat="42.94102" lon="1.91838">
        <ele>600</ele>
        <time>2014-10-11T11:14:14Z</time>
      </trkpt>
      <trkpt lat="42.94104" lon="1.91841">
        <ele>601</ele>
        <time>2014-10-11T11:14:16Z</time>
      </trkpt>
      <trkpt lat="42.94107" lon="1.91844">
        <ele>601</ele>
        <time>2014-10-11T11:14:19Z</time>
      </trkpt>
      <trkpt lat="42.94109" lon="1.91847">
        <ele>602</ele>
        <time>2014-10-11T11:14:22Z</time>
      </trkpt>
      <trkpt lat="42.94112" lon="1.91849">
        <ele>603</ele>
        <time>2014-10-11T11:14:25Z</time>
      </trkpt>
      <trkpt lat="42.94112" lon="1.9185">
        <ele>603</ele>
        <time>2014-10-11T11:14:27Z</time>
      </trkpt>
      <trkpt lat="42.94112" lon="1.91851">
        <ele>603</ele>
        <time>2014-10-11T11:14:30Z</time>
      </trkpt>
      <trkpt lat="42.94113" lon="1.91851">
        <ele>603</ele>
        <time>2014-10-11T11:14:32Z</time>
      </trkpt>
      <trkpt lat="42.94117" lon="1.91861">
        <ele>605</ele>
        <time>2014-10-11T11:14:36Z</time>
      </trkpt>
      <trkpt lat="42.94117" lon="1.91861">
        <ele>605</ele>
        <time>2014-10-11T11:14:38Z</time>
      </trkpt>
      <trkpt lat="42.94117" lon="1.91862">
        <ele>605</ele>
        <time>2014-10-11T11:14:41Z</time>
      </trkpt>
      <trkpt lat="42.94117" lon="1.91863">
        <ele>605</ele>
        <time>2014-10-11T11:14:43Z</time>
      </trkpt>
      <trkpt lat="42.94117" lon="1.91866">
        <ele>605</ele>
        <time>2014-10-11T11:14:46Z</time>
      </trkpt>
      <trkpt lat="42.94117" lon="1.91868">
        <ele>605</ele>
        <time>2014-10-11T11:14:48Z</time>
      </trkpt>
      <trkpt lat="42.94116" lon="1.9187">
        <ele>606</ele>
        <time>2014-10-11T11:14:51Z</time>
      </trkpt>
      <trkpt lat="42.94116" lon="1.91874">
        <ele>607</ele>
        <time>2014-10-11T11:14:54Z</time>
      </trkpt>
      <trkpt lat="42.94115" lon="1.91877">
        <ele>607</ele>
        <time>2014-10-11T11:14:56Z</time>
      </trkpt>
      <trkpt lat="42.94114" lon="1.91879">
        <ele>607</ele>
        <time>2014-10-11T11:14:58Z</time>
      </trkpt>
      <trkpt lat="42.94113" lon="1.91883">
        <ele>608</ele>
        <time>2014-10-11T11:15:01Z</time>
      </trkpt>
      <trkpt lat="42.94111" lon="1.91886">
        <ele>608</ele>
        <time>2014-10-11T11:15:04Z</time>
      </trkpt>
      <trkpt lat="42.94109" lon="1.91888">
        <ele>610</ele>
        <time>2014-10-11T11:15:07Z</time>
      </trkpt>
      <trkpt lat="42.94108" lon="1.9189">
        <ele>610</ele>
        <time>2014-10-11T11:15:09Z</time>
      </trkpt>
      <trkpt lat="42.94106" lon="1.91893">
        <ele>611</ele>
        <time>2014-10-11T11:15:11Z</time>
      </trkpt>
      <trkpt lat="42.94104" lon="1.91898">
        <ele>611</ele>
        <time>2014-10-11T11:15:14Z</time>
      </trkpt>
      <trkpt lat="42.94104" lon="1.91901">
        <ele>612</ele>
        <time>2014-10-11T11:15:16Z</time>
      </trkpt>
      <trkpt lat="42.94105" lon="1.91904">
        <ele>613</ele>
        <time>2014-10-11T11:15:18Z</time>
      </trkpt>
      <trkpt lat="42.94105" lon="1.91907">
        <ele>614</ele>
        <time>2014-10-11T11:15:21Z</time>
      </trkpt>
      <trkpt lat="42.94104" lon="1.9191">
        <ele>615</ele>
        <time>2014-10-11T11:15:23Z</time>
      </trkpt>
      <trkpt lat="42.94103" lon="1.91913">
        <ele>616</ele>
        <time>2014-10-11T11:15:25Z</time>
      </trkpt>
      <trkpt lat="42.94102" lon="1.91916">
        <ele>617</ele>
        <time>2014-10-11T11:15:28Z</time>
      </trkpt>
      <trkpt lat="42.94101" lon="1.9192">
        <ele>618</ele>
        <time>2014-10-11T11:15:31Z</time>
      </trkpt>
      <trkpt lat="42.941" lon="1.91922">
        <ele>618</ele>
        <time>2014-10-11T11:15:33Z</time>
      </trkpt>
      <trkpt lat="42.94099" lon="1.91925">
        <ele>618</ele>
        <time>2014-10-11T11:15:35Z</time>
      </trkpt>
      <trkpt lat="42.94099" lon="1.91928">
        <ele>619</ele>
        <time>2014-10-11T11:15:37Z</time>
      </trkpt>
      <trkpt lat="42.94098" lon="1.91931">
        <ele>619</ele>
        <time>2014-10-11T11:15:39Z</time>
      </trkpt>
      <trkpt lat="42.94097" lon="1.91935">
        <ele>619</ele>
        <time>2014-10-11T11:15:42Z</time>
      </trkpt>
      <trkpt lat="42.94095" lon="1.91939">
        <ele>620</ele>
        <time>2014-10-11T11:15:45Z</time>
      </trkpt>
      <trkpt lat="42.94093" lon="1.91944">
        <ele>620</ele>
        <time>2014-10-11T11:15:48Z</time>
      </trkpt>
      <trkpt lat="42.94093" lon="1.91945">
        <ele>620</ele>
        <time>2014-10-11T11:15:50Z</time>
      </trkpt>
      <trkpt lat="42.94093" lon="1.91946">
        <ele>620</ele>
        <time>2014-10-11T11:15:52Z</time>
      </trkpt>
      <trkpt lat="42.94093" lon="1.91951">
        <ele>620</ele>
        <time>2014-10-11T11:15:55Z</time>
      </trkpt>
      <trkpt lat="42.94091" lon="1.91954">
        <ele>619</ele>
        <time>2014-10-11T11:15:57Z</time>
      </trkpt>
      <trkpt lat="42.94091" lon="1.9196">
        <ele>619</ele>
        <time>2014-10-11T11:15:59Z</time>
      </trkpt>
      <trkpt lat="42.94088" lon="1.91967">
        <ele>618</ele>
        <time>2014-10-11T11:16:02Z</time>
      </trkpt>
      <trkpt lat="42.94086" lon="1.91971">
        <ele>618</ele>
        <time>2014-10-11T11:16:04Z</time>
      </trkpt>
      <trkpt lat="42.94085" lon="1.91975">
        <ele>617</ele>
        <time>2014-10-11T11:16:06Z</time>
      </trkpt>
      <trkpt lat="42.94084" lon="1.91979">
        <ele>617</ele>
        <time>2014-10-11T11:16:08Z</time>
      </trkpt>
      <trkpt lat="42.94082" lon="1.91982">
        <ele>617</ele>
        <time>2014-10-11T11:16:10Z</time>
      </trkpt>
      <trkpt lat="42.94081" lon="1.91986">
        <ele>617</ele>
        <time>2014-10-11T11:16:12Z</time>
      </trkpt>
      <trkpt lat="42.9408" lon="1.91992">
        <ele>618</ele>
        <time>2014-10-11T11:16:15Z</time>
      </trkpt>
      <trkpt lat="42.94078" lon="1.91998">
        <ele>618</ele>
        <time>2014-10-11T11:16:18Z</time>
      </trkpt>
      <trkpt lat="42.94077" lon="1.92005">
        <ele>618</ele>
        <time>2014-10-11T11:16:21Z</time>
      </trkpt>
      <trkpt lat="42.94075" lon="1.92013">
        <ele>618</ele>
        <time>2014-10-11T11:16:24Z</time>
      </trkpt>
      <trkpt lat="42.94075" lon="1.92022">
        <ele>618</ele>
        <time>2014-10-11T11:16:26Z</time>
      </trkpt>
      <trkpt lat="42.94075" lon="1.92027">
        <ele>619</ele>
        <time>2014-10-11T11:16:29Z</time>
      </trkpt>
      <trkpt lat="42.94074" lon="1.92036">
        <ele>619</ele>
        <time>2014-10-11T11:16:32Z</time>
      </trkpt>
      <trkpt lat="42.94074" lon="1.92042">
        <ele>619</ele>
        <time>2014-10-11T11:16:34Z</time>
      </trkpt>
      <trkpt lat="42.94073" lon="1.92051">
        <ele>619</ele>
        <time>2014-10-11T11:16:37Z</time>
      </trkpt>
      <trkpt lat="42.94073" lon="1.92057">
        <ele>619</ele>
        <time>2014-10-11T11:16:39Z</time>
      </trkpt>
      <trkpt lat="42.94072" lon="1.92067">
        <ele>619</ele>
        <time>2014-10-11T11:16:41Z</time>
      </trkpt>
      <trkpt lat="42.94071" lon="1.92073">
        <ele>619</ele>
        <time>2014-10-11T11:16:43Z</time>
      </trkpt>
      <trkpt lat="42.9407" lon="1.92078">
        <ele>619</ele>
        <time>2014-10-11T11:16:45Z</time>
      </trkpt>
      <trkpt lat="42.94068" lon="1.92083">
        <ele>620</ele>
        <time>2014-10-11T11:16:48Z</time>
      </trkpt>
      <trkpt lat="42.94067" lon="1.92089">
        <ele>619</ele>
        <time>2014-10-11T11:16:51Z</time>
      </trkpt>
      <trkpt lat="42.94067" lon="1.92093">
        <ele>619</ele>
        <time>2014-10-11T11:16:53Z</time>
      </trkpt>
      <trkpt lat="42.94065" lon="1.921">
        <ele>619</ele>
        <time>2014-10-11T11:16:56Z</time>
      </trkpt>
      <trkpt lat="42.94065" lon="1.92106">
        <ele>619</ele>
        <time>2014-10-11T11:16:58Z</time>
      </trkpt>
      <trkpt lat="42.94065" lon="1.92112">
        <ele>619</ele>
        <time>2014-10-11T11:17:00Z</time>
      </trkpt>
      <trkpt lat="42.94065" lon="1.92115">
        <ele>620</ele>
        <time>2014-10-11T11:17:03Z</time>
      </trkpt>
      <trkpt lat="42.94065" lon="1.92119">
        <ele>620</ele>
        <time>2014-10-11T11:17:05Z</time>
      </trkpt>
      <trkpt lat="42.94065" lon="1.92124">
        <ele>620</ele>
        <time>2014-10-11T11:17:08Z</time>
      </trkpt>
      <trkpt lat="42.94065" lon="1.92127">
        <ele>620</ele>
        <time>2014-10-11T11:17:10Z</time>
      </trkpt>
      <trkpt lat="42.94065" lon="1.92133">
        <ele>621</ele>
        <time>2014-10-11T11:17:13Z</time>
      </trkpt>
      <trkpt lat="42.94065" lon="1.9214">
        <ele>621</ele>
        <time>2014-10-11T11:17:15Z</time>
      </trkpt>
      <trkpt lat="42.94066" lon="1.92144">
        <ele>621</ele>
        <time>2014-10-11T11:17:18Z</time>
      </trkpt>
      <trkpt lat="42.94069" lon="1.9215">
        <ele>622</ele>
        <time>2014-10-11T11:17:20Z</time>
      </trkpt>
      <trkpt lat="42.9407" lon="1.92155">
        <ele>622</ele>
        <time>2014-10-11T11:17:23Z</time>
      </trkpt>
      <trkpt lat="42.94071" lon="1.92159">
        <ele>623</ele>
        <time>2014-10-11T11:17:25Z</time>
      </trkpt>
      <trkpt lat="42.94072" lon="1.92166">
        <ele>623</ele>
        <time>2014-10-11T11:17:27Z</time>
      </trkpt>
      <trkpt lat="42.94073" lon="1.9217">
        <ele>624</ele>
        <time>2014-10-11T11:17:30Z</time>
      </trkpt>
      <trkpt lat="42.94074" lon="1.92175">
        <ele>625</ele>
        <time>2014-10-11T11:17:33Z</time>
      </trkpt>
      <trkpt lat="42.94074" lon="1.9218">
        <ele>625</ele>
        <time>2014-10-11T11:17:36Z</time>
      </trkpt>
      <trkpt lat="42.94075" lon="1.92185">
        <ele>626</ele>
        <time>2014-10-11T11:17:39Z</time>
      </trkpt>
      <trkpt lat="42.94075" lon="1.92188">
        <ele>626</ele>
        <time>2014-10-11T11:17:41Z</time>
      </trkpt>
      <trkpt lat="42.94075" lon="1.92189">
        <ele>626</ele>
        <time>2014-10-11T11:17:44Z</time>
      </trkpt>
      <trkpt lat="42.94078" lon="1.92192">
        <ele>627</ele>
        <time>2014-10-11T11:17:46Z</time>
      </trkpt>
      <trkpt lat="42.94078" lon="1.92193">
        <ele>628</ele>
        <time>2014-10-11T11:17:49Z</time>
      </trkpt>
      <trkpt lat="42.94078" lon="1.92196">
        <ele>628</ele>
        <time>2014-10-11T11:17:51Z</time>
      </trkpt>
      <trkpt lat="42.94072" lon="1.92202">
        <ele>627</ele>
        <time>2014-10-11T11:17:55Z</time>
      </trkpt>
      <trkpt lat="42.94067" lon="1.9221">
        <ele>626</ele>
        <time>2014-10-11T11:17:57Z</time>
      </trkpt>
      <trkpt lat="42.94062" lon="1.92213">
        <ele>626</ele>
        <time>2014-10-11T11:18:00Z</time>
      </trkpt>
      <trkpt lat="42.94056" lon="1.9222">
        <ele>625</ele>
        <time>2014-10-11T11:18:02Z</time>
      </trkpt>
      <trkpt lat="42.94054" lon="1.92226">
        <ele>624</ele>
        <time>2014-10-11T11:18:04Z</time>
      </trkpt>
      <trkpt lat="42.94053" lon="1.92233">
        <ele>623</ele>
        <time>2014-10-11T11:18:08Z</time>
      </trkpt>
      <trkpt lat="42.94051" lon="1.92239">
        <ele>623</ele>
        <time>2014-10-11T11:18:10Z</time>
      </trkpt>
      <trkpt lat="42.94051" lon="1.92245">
        <ele>623</ele>
        <time>2014-10-11T11:18:13Z</time>
      </trkpt>
      <trkpt lat="42.9405" lon="1.92252">
        <ele>623</ele>
        <time>2014-10-11T11:18:17Z</time>
      </trkpt>
      <trkpt lat="42.94049" lon="1.92259">
        <ele>623</ele>
        <time>2014-10-11T11:18:19Z</time>
      </trkpt>
      <trkpt lat="42.94049" lon="1.92265">
        <ele>624</ele>
        <time>2014-10-11T11:18:21Z</time>
      </trkpt>
      <trkpt lat="42.94049" lon="1.92271">
        <ele>624</ele>
        <time>2014-10-11T11:18:23Z</time>
      </trkpt>
      <trkpt lat="42.94048" lon="1.92276">
        <ele>624</ele>
        <time>2014-10-11T11:18:25Z</time>
      </trkpt>
      <trkpt lat="42.94048" lon="1.9228">
        <ele>624</ele>
        <time>2014-10-11T11:18:28Z</time>
      </trkpt>
      <trkpt lat="42.94048" lon="1.9228">
        <ele>624</ele>
        <time>2014-10-11T11:18:31Z</time>
      </trkpt>
      <trkpt lat="42.94048" lon="1.92281">
        <ele>624</ele>
        <time>2014-10-11T11:18:33Z</time>
      </trkpt>
      <trkpt lat="42.94048" lon="1.92281">
        <ele>624</ele>
        <time>2014-10-11T11:18:36Z</time>
      </trkpt>
      <trkpt lat="42.94048" lon="1.92282">
        <ele>624</ele>
        <time>2014-10-11T11:18:38Z</time>
      </trkpt>
      <trkpt lat="42.94048" lon="1.92282">
        <ele>624</ele>
        <time>2014-10-11T11:18:40Z</time>
      </trkpt>
      <trkpt lat="42.94048" lon="1.92282">
        <ele>624</ele>
        <time>2014-10-11T11:18:43Z</time>
      </trkpt>
      <trkpt lat="42.94048" lon="1.92283">
        <ele>624</ele>
        <time>2014-10-11T11:18:46Z</time>
      </trkpt>
      <trkpt lat="42.94048" lon="1.92285">
        <ele>624</ele>
        <time>2014-10-11T11:18:48Z</time>
      </trkpt>
      <trkpt lat="42.94048" lon="1.92289">
        <ele>624</ele>
        <time>2014-10-11T11:18:51Z</time>
      </trkpt>
      <trkpt lat="42.94048" lon="1.92297">
        <ele>624</ele>
        <time>2014-10-11T11:18:54Z</time>
      </trkpt>
      <trkpt lat="42.94048" lon="1.92302">
        <ele>624</ele>
        <time>2014-10-11T11:18:56Z</time>
      </trkpt>
      <trkpt lat="42.94046" lon="1.92309">
        <ele>624</ele>
        <time>2014-10-11T11:18:59Z</time>
      </trkpt>
      <trkpt lat="42.94046" lon="1.92311">
        <ele>624</ele>
        <time>2014-10-11T11:19:01Z</time>
      </trkpt>
      <trkpt lat="42.94046" lon="1.92311">
        <ele>624</ele>
        <time>2014-10-11T11:19:03Z</time>
      </trkpt>
      <trkpt lat="42.94045" lon="1.92313">
        <ele>624</ele>
        <time>2014-10-11T11:19:05Z</time>
      </trkpt>
      <trkpt lat="42.94043" lon="1.92318">
        <ele>625</ele>
        <time>2014-10-11T11:19:08Z</time>
      </trkpt>
      <trkpt lat="42.94041" lon="1.92324">
        <ele>625</ele>
        <time>2014-10-11T11:19:10Z</time>
      </trkpt>
      <trkpt lat="42.94038" lon="1.92329">
        <ele>625</ele>
        <time>2014-10-11T11:19:12Z</time>
      </trkpt>
      <trkpt lat="42.94038" lon="1.92335">
        <ele>625</ele>
        <time>2014-10-11T11:19:14Z</time>
      </trkpt>
      <trkpt lat="42.94034" lon="1.92341">
        <ele>625</ele>
        <time>2014-10-11T11:19:17Z</time>
      </trkpt>
      <trkpt lat="42.94031" lon="1.92346">
        <ele>625</ele>
        <time>2014-10-11T11:19:19Z</time>
      </trkpt>
      <trkpt lat="42.9403" lon="1.92352">
        <ele>625</ele>
        <time>2014-10-11T11:19:21Z</time>
      </trkpt>
      <trkpt lat="42.94028" lon="1.92358">
        <ele>625</ele>
        <time>2014-10-11T11:19:23Z</time>
      </trkpt>
      <trkpt lat="42.94026" lon="1.92367">
        <ele>625</ele>
        <time>2014-10-11T11:19:26Z</time>
      </trkpt>
      <trkpt lat="42.94025" lon="1.92375">
        <ele>626</ele>
        <time>2014-10-11T11:19:29Z</time>
      </trkpt>
      <trkpt lat="42.94025" lon="1.92381">
        <ele>626</ele>
        <time>2014-10-11T11:19:32Z</time>
      </trkpt>
      <trkpt lat="42.94025" lon="1.92383">
        <ele>627</ele>
        <time>2014-10-11T11:19:35Z</time>
      </trkpt>
      <trkpt lat="42.94025" lon="1.92384">
        <ele>627</ele>
        <time>2014-10-11T11:19:38Z</time>
      </trkpt>
      <trkpt lat="42.94025" lon="1.92385">
        <ele>627</ele>
        <time>2014-10-11T11:19:40Z</time>
      </trkpt>
      <trkpt lat="42.94025" lon="1.92386">
        <ele>627</ele>
        <time>2014-10-11T11:19:42Z</time>
      </trkpt>
      <trkpt lat="42.94025" lon="1.92388">
        <ele>627</ele>
        <time>2014-10-11T11:19:45Z</time>
      </trkpt>
      <trkpt lat="42.94024" lon="1.9239">
        <ele>627</ele>
        <time>2014-10-11T11:19:48Z</time>
      </trkpt>
      <trkpt lat="42.94025" lon="1.92392">
        <ele>627</ele>
        <time>2014-10-11T11:19:51Z</time>
      </trkpt>
      <trkpt lat="42.94026" lon="1.92396">
        <ele>627</ele>
        <time>2014-10-11T11:19:53Z</time>
      </trkpt>
      <trkpt lat="42.94026" lon="1.92397">
        <ele>628</ele>
        <time>2014-10-11T11:19:55Z</time>
      </trkpt>
      <trkpt lat="42.94026" lon="1.92398">
        <ele>628</ele>
        <time>2014-10-11T11:19:58Z</time>
      </trkpt>
      <trkpt lat="42.94027" lon="1.92399">
        <ele>628</ele>
        <time>2014-10-11T11:20:00Z</time>
      </trkpt>
      <trkpt lat="42.94027" lon="1.92399">
        <ele>628</ele>
        <time>2014-10-11T11:20:03Z</time>
      </trkpt>
      <trkpt lat="42.94027" lon="1.924">
        <ele>628</ele>
        <time>2014-10-11T11:20:06Z</time>
      </trkpt>
      <trkpt lat="42.94027" lon="1.924">
        <ele>628</ele>
        <time>2014-10-11T11:20:09Z</time>
      </trkpt>
      <trkpt lat="42.94027" lon="1.924">
        <ele>628</ele>
        <time>2014-10-11T11:20:11Z</time>
      </trkpt>
      <trkpt lat="42.94027" lon="1.924">
        <ele>628</ele>
        <time>2014-10-11T11:20:13Z</time>
      </trkpt>
      <trkpt lat="42.94027" lon="1.92401">
        <ele>628</ele>
        <time>2014-10-11T11:20:17Z</time>
      </trkpt>
      <trkpt lat="42.94027" lon="1.92401">
        <ele>628</ele>
        <time>2014-10-11T11:20:21Z</time>
      </trkpt>
      <trkpt lat="42.94027" lon="1.92401">
        <ele>628</ele>
        <time>2014-10-11T11:20:24Z</time>
      </trkpt>
      <trkpt lat="42.94027" lon="1.92401">
        <ele>628</ele>
        <time>2014-10-11T11:20:27Z</time>
      </trkpt>
      <trkpt lat="42.94027" lon="1.92404">
        <ele>628</ele>
        <time>2014-10-11T11:20:30Z</time>
      </trkpt>
      <trkpt lat="42.94028" lon="1.92404">
        <ele>628</ele>
        <time>2014-10-11T11:20:33Z</time>
      </trkpt>
      <trkpt lat="42.94028" lon="1.92405">
        <ele>628</ele>
        <time>2014-10-11T11:20:35Z</time>
      </trkpt>
      <trkpt lat="42.94028" lon="1.92405">
        <ele>628</ele>
        <time>2014-10-11T11:20:38Z</time>
      </trkpt>
      <trkpt lat="42.94028" lon="1.92405">
        <ele>628</ele>
        <time>2014-10-11T11:20:41Z</time>
      </trkpt>
      <trkpt lat="42.94028" lon="1.92405">
        <ele>628</ele>
        <time>2014-10-11T11:20:43Z</time>
      </trkpt>
      <trkpt lat="42.94028" lon="1.92405">
        <ele>628</ele>
        <time>2014-10-11T11:20:46Z</time>
      </trkpt>
      <trkpt lat="42.94028" lon="1.92405">
        <ele>628</ele>
        <time>2014-10-11T11:20:49Z</time>
      </trkpt>
      <trkpt lat="42.94028" lon="1.92405">
        <ele>628</ele>
        <time>2014-10-11T11:20:52Z</time>
      </trkpt>
      <trkpt lat="42.94028" lon="1.92405">
        <ele>628</ele>
        <time>2014-10-11T11:20:54Z</time>
      </trkpt>
      <trkpt lat="42.94028" lon="1.92405">
        <ele>628</ele>
        <time>2014-10-11T11:20:56Z</time>
      </trkpt>
      <trkpt lat="42.94028" lon="1.92405">
        <ele>628</ele>
        <time>2014-10-11T11:21:00Z</time>
      </trkpt>
      <trkpt lat="42.94031" lon="1.92403">
        <ele>628</ele>
        <time>2014-10-11T11:21:03Z</time>
      </trkpt>
      <trkpt lat="42.94032" lon="1.92403">
        <ele>628</ele>
        <time>2014-10-11T11:21:06Z</time>
      </trkpt>
      <trkpt lat="42.94032" lon="1.92403">
        <ele>628</ele>
        <time>2014-10-11T11:21:08Z</time>
      </trkpt>
      <trkpt lat="42.94032" lon="1.92403">
        <ele>628</ele>
        <time>2014-10-11T11:21:11Z</time>
      </trkpt>
      <trkpt lat="42.94033" lon="1.92403">
        <ele>628</ele>
        <time>2014-10-11T11:21:13Z</time>
      </trkpt>
      <trkpt lat="42.94033" lon="1.92405">
        <ele>628</ele>
        <time>2014-10-11T11:21:16Z</time>
      </trkpt>
      <trkpt lat="42.94033" lon="1.92407">
        <ele>628</ele>
        <time>2014-10-11T11:21:19Z</time>
      </trkpt>
      <trkpt lat="42.94033" lon="1.92409">
        <ele>628</ele>
        <time>2014-10-11T11:21:21Z</time>
      </trkpt>
      <trkpt lat="42.94033" lon="1.9241">
        <ele>628</ele>
        <time>2014-10-11T11:21:23Z</time>
      </trkpt>
      <trkpt lat="42.94033" lon="1.92413">
        <ele>628</ele>
        <time>2014-10-11T11:21:26Z</time>
      </trkpt>
      <trkpt lat="42.94032" lon="1.92415">
        <ele>628</ele>
        <time>2014-10-11T11:21:28Z</time>
      </trkpt>
      <trkpt lat="42.94033" lon="1.92417">
        <ele>628</ele>
        <time>2014-10-11T11:21:30Z</time>
      </trkpt>
      <trkpt lat="42.94032" lon="1.9242">
        <ele>628</ele>
        <time>2014-10-11T11:21:33Z</time>
      </trkpt>
      <trkpt lat="42.94032" lon="1.92423">
        <ele>628</ele>
        <time>2014-10-11T11:21:36Z</time>
      </trkpt>
      <trkpt lat="42.94032" lon="1.92425">
        <ele>628</ele>
        <time>2014-10-11T11:21:38Z</time>
      </trkpt>
      <trkpt lat="42.94032" lon="1.92428">
        <ele>628</ele>
        <time>2014-10-11T11:21:41Z</time>
      </trkpt>
      <trkpt lat="42.94031" lon="1.9243">
        <ele>628</ele>
        <time>2014-10-11T11:21:43Z</time>
      </trkpt>
      <trkpt lat="42.94031" lon="1.92432">
        <ele>628</ele>
        <time>2014-10-11T11:21:45Z</time>
      </trkpt>
      <trkpt lat="42.9403" lon="1.92436">
        <ele>629</ele>
        <time>2014-10-11T11:21:48Z</time>
      </trkpt>
      <trkpt lat="42.94031" lon="1.92439">
        <ele>629</ele>
        <time>2014-10-11T11:21:51Z</time>
      </trkpt>
      <trkpt lat="42.94031" lon="1.9244">
        <ele>628</ele>
        <time>2014-10-11T11:21:53Z</time>
      </trkpt>
      <trkpt lat="42.94031" lon="1.92442">
        <ele>629</ele>
        <time>2014-10-11T11:21:56Z</time>
      </trkpt>
      <trkpt lat="42.94031" lon="1.92443">
        <ele>629</ele>
        <time>2014-10-11T11:21:58Z</time>
      </trkpt>
      <trkpt lat="42.94032" lon="1.92444">
        <ele>629</ele>
        <time>2014-10-11T11:22:00Z</time>
      </trkpt>
      <trkpt lat="42.94032" lon="1.92445">
        <ele>629</ele>
        <time>2014-10-11T11:22:03Z</time>
      </trkpt>
      <trkpt lat="42.94032" lon="1.92445">
        <ele>629</ele>
        <time>2014-10-11T11:22:05Z</time>
      </trkpt>
      <trkpt lat="42.94032" lon="1.92445">
        <ele>629</ele>
        <time>2014-10-11T11:22:07Z</time>
      </trkpt>
      <trkpt lat="42.94032" lon="1.92446">
        <ele>629</ele>
        <time>2014-10-11T11:22:09Z</time>
      </trkpt>
      <trkpt lat="42.94032" lon="1.92446">
        <ele>629</ele>
        <time>2014-10-11T11:22:12Z</time>
      </trkpt>
      <trkpt lat="42.94032" lon="1.92446">
        <ele>630</ele>
        <time>2014-10-11T11:22:14Z</time>
      </trkpt>
      <trkpt lat="42.94032" lon="1.92447">
        <ele>629</ele>
        <time>2014-10-11T11:22:17Z</time>
      </trkpt>
      <trkpt lat="42.94033" lon="1.92448">
        <ele>629</ele>
        <time>2014-10-11T11:22:20Z</time>
      </trkpt>
      <trkpt lat="42.94033" lon="1.92449">
        <ele>629</ele>
        <time>2014-10-11T11:22:22Z</time>
      </trkpt>
      <trkpt lat="42.94033" lon="1.92451">
        <ele>629</ele>
        <time>2014-10-11T11:22:24Z</time>
      </trkpt>
      <trkpt lat="42.94033" lon="1.92452">
        <ele>629</ele>
        <time>2014-10-11T11:22:26Z</time>
      </trkpt>
      <trkpt lat="42.94033" lon="1.92454">
        <ele>629</ele>
        <time>2014-10-11T11:22:28Z</time>
      </trkpt>
      <trkpt lat="42.94034" lon="1.92454">
        <ele>629</ele>
        <time>2014-10-11T11:22:31Z</time>
      </trkpt>
      <trkpt lat="42.94034" lon="1.92454">
        <ele>630</ele>
        <time>2014-10-11T11:22:33Z</time>
      </trkpt>
      <trkpt lat="42.94034" lon="1.92455">
        <ele>630</ele>
        <time>2014-10-11T11:22:35Z</time>
      </trkpt>
      <trkpt lat="42.94034" lon="1.92455">
        <ele>630</ele>
        <time>2014-10-11T11:22:38Z</time>
      </trkpt>
      <trkpt lat="42.94035" lon="1.92456">
        <ele>630</ele>
        <time>2014-10-11T11:22:40Z</time>
      </trkpt>
      <trkpt lat="42.94035" lon="1.92457">
        <ele>630</ele>
        <time>2014-10-11T11:22:43Z</time>
      </trkpt>
      <trkpt lat="42.94035" lon="1.92459">
        <ele>631</ele>
        <time>2014-10-11T11:22:45Z</time>
      </trkpt>
      <trkpt lat="42.94035" lon="1.92461">
        <ele>631</ele>
        <time>2014-10-11T11:22:48Z</time>
      </trkpt>
      <trkpt lat="42.94036" lon="1.92462">
        <ele>631</ele>
        <time>2014-10-11T11:22:50Z</time>
      </trkpt>
      <trkpt lat="42.94036" lon="1.92463">
        <ele>631</ele>
        <time>2014-10-11T11:22:53Z</time>
      </trkpt>
      <trkpt lat="42.94037" lon="1.92464">
        <ele>631</ele>
        <time>2014-10-11T11:22:55Z</time>
      </trkpt>
      <trkpt lat="42.94038" lon="1.92464">
        <ele>631</ele>
        <time>2014-10-11T11:22:58Z</time>
      </trkpt>
      <trkpt lat="42.94038" lon="1.92464">
        <ele>631</ele>
        <time>2014-10-11T11:23:00Z</time>
      </trkpt>
      <trkpt lat="42.94038" lon="1.92465">
        <ele>632</ele>
        <time>2014-10-11T11:23:03Z</time>
      </trkpt>
      <trkpt lat="42.94038" lon="1.92465">
        <ele>632</ele>
        <time>2014-10-11T11:23:05Z</time>
      </trkpt>
      <trkpt lat="42.94039" lon="1.92466">
        <ele>632</ele>
        <time>2014-10-11T11:23:08Z</time>
      </trkpt>
      <trkpt lat="42.9404" lon="1.92467">
        <ele>632</ele>
        <time>2014-10-11T11:23:10Z</time>
      </trkpt>
      <trkpt lat="42.94041" lon="1.92469">
        <ele>633</ele>
        <time>2014-10-11T11:23:13Z</time>
      </trkpt>
      <trkpt lat="42.94041" lon="1.9247">
        <ele>633</ele>
        <time>2014-10-11T11:23:15Z</time>
      </trkpt>
      <trkpt lat="42.9404" lon="1.92472">
        <ele>633</ele>
        <time>2014-10-11T11:23:17Z</time>
      </trkpt>
      <trkpt lat="42.9404" lon="1.92476">
        <ele>633</ele>
        <time>2014-10-11T11:23:20Z</time>
      </trkpt>
      <trkpt lat="42.94038" lon="1.92479">
        <ele>633</ele>
        <time>2014-10-11T11:23:23Z</time>
      </trkpt>
      <trkpt lat="42.94038" lon="1.92481">
        <ele>633</ele>
        <time>2014-10-11T11:23:25Z</time>
      </trkpt>
      <trkpt lat="42.94035" lon="1.92485">
        <ele>633</ele>
        <time>2014-10-11T11:23:27Z</time>
      </trkpt>
      <trkpt lat="42.94033" lon="1.92491">
        <ele>633</ele>
        <time>2014-10-11T11:23:30Z</time>
      </trkpt>
      <trkpt lat="42.94031" lon="1.92494">
        <ele>632</ele>
        <time>2014-10-11T11:23:32Z</time>
      </trkpt>
      <trkpt lat="42.9403" lon="1.92496">
        <ele>632</ele>
        <time>2014-10-11T11:23:34Z</time>
      </trkpt>
      <trkpt lat="42.9403" lon="1.92496">
        <ele>632</ele>
        <time>2014-10-11T11:23:36Z</time>
      </trkpt>
      <trkpt lat="42.9403" lon="1.92496">
        <ele>632</ele>
        <time>2014-10-11T11:23:38Z</time>
      </trkpt>
      <trkpt lat="42.94031" lon="1.92497">
        <ele>632</ele>
        <time>2014-10-11T11:23:41Z</time>
      </trkpt>
      <trkpt lat="42.9403" lon="1.92498">
        <ele>632</ele>
        <time>2014-10-11T11:23:43Z</time>
      </trkpt>
      <trkpt lat="42.9403" lon="1.925">
        <ele>631</ele>
        <time>2014-10-11T11:23:46Z</time>
      </trkpt>
      <trkpt lat="42.9403" lon="1.92502">
        <ele>631</ele>
        <time>2014-10-11T11:23:48Z</time>
      </trkpt>
      <trkpt lat="42.94029" lon="1.92503">
        <ele>631</ele>
        <time>2014-10-11T11:23:50Z</time>
      </trkpt>
      <trkpt lat="42.94029" lon="1.92504">
        <ele>631</ele>
        <time>2014-10-11T11:23:52Z</time>
      </trkpt>
      <trkpt lat="42.94028" lon="1.92505">
        <ele>630</ele>
        <time>2014-10-11T11:23:55Z</time>
      </trkpt>
      <trkpt lat="42.94027" lon="1.92507">
        <ele>630</ele>
        <time>2014-10-11T11:23:58Z</time>
      </trkpt>
      <trkpt lat="42.94026" lon="1.92508">
        <ele>630</ele>
        <time>2014-10-11T11:24:00Z</time>
      </trkpt>
      <trkpt lat="42.94026" lon="1.92509">
        <ele>630</ele>
        <time>2014-10-11T11:24:03Z</time>
      </trkpt>
      <trkpt lat="42.94026" lon="1.9251">
        <ele>630</ele>
        <time>2014-10-11T11:24:06Z</time>
      </trkpt>
      <trkpt lat="42.94026" lon="1.92509">
        <ele>630</ele>
        <time>2014-10-11T11:24:08Z</time>
      </trkpt>
      <trkpt lat="42.94026" lon="1.92509">
        <ele>630</ele>
        <time>2014-10-11T11:24:10Z</time>
      </trkpt>
      <trkpt lat="42.94026" lon="1.9251">
        <ele>630</ele>
        <time>2014-10-11T11:24:13Z</time>
      </trkpt>
      <trkpt lat="42.94027" lon="1.9251">
        <ele>630</ele>
        <time>2014-10-11T11:24:16Z</time>
      </trkpt>
      <trkpt lat="42.94028" lon="1.9251">
        <ele>630</ele>
        <time>2014-10-11T11:24:18Z</time>
      </trkpt>
      <trkpt lat="42.94027" lon="1.92511">
        <ele>630</ele>
        <time>2014-10-11T11:24:21Z</time>
      </trkpt>
      <trkpt lat="42.94026" lon="1.92511">
        <ele>630</ele>
        <time>2014-10-11T11:24:24Z</time>
      </trkpt>
      <trkpt lat="42.94024" lon="1.9251">
        <ele>630</ele>
        <time>2014-10-11T11:24:26Z</time>
      </trkpt>
      <trkpt lat="42.94022" lon="1.92508">
        <ele>629</ele>
        <time>2014-10-11T11:24:30Z</time>
      </trkpt>
      <trkpt lat="42.94022" lon="1.92508">
        <ele>628</ele>
        <time>2014-10-11T11:24:33Z</time>
      </trkpt>
      <trkpt lat="42.94018" lon="1.92508">
        <ele>628</ele>
        <time>2014-10-11T11:24:36Z</time>
      </trkpt>
      <trkpt lat="42.94015" lon="1.9251">
        <ele>628</ele>
        <time>2014-10-11T11:24:38Z</time>
      </trkpt>
      <trkpt lat="42.94013" lon="1.92512">
        <ele>627</ele>
        <time>2014-10-11T11:24:40Z</time>
      </trkpt>
      <trkpt lat="42.9401" lon="1.92515">
        <ele>627</ele>
        <time>2014-10-11T11:24:43Z</time>
      </trkpt>
      <trkpt lat="42.94007" lon="1.92516">
        <ele>626</ele>
        <time>2014-10-11T11:24:45Z</time>
      </trkpt>
      <trkpt lat="42.94005" lon="1.92517">
        <ele>626</ele>
        <time>2014-10-11T11:24:47Z</time>
      </trkpt>
      <trkpt lat="42.94003" lon="1.9252">
        <ele>625</ele>
        <time>2014-10-11T11:24:49Z</time>
      </trkpt>
      <trkpt lat="42.94001" lon="1.92522">
        <ele>625</ele>
        <time>2014-10-11T11:24:51Z</time>
      </trkpt>
      <trkpt lat="42.93997" lon="1.92523">
        <ele>625</ele>
        <time>2014-10-11T11:24:53Z</time>
      </trkpt>
      <trkpt lat="42.93994" lon="1.92524">
        <ele>624</ele>
        <time>2014-10-11T11:24:56Z</time>
      </trkpt>
      <trkpt lat="42.93989" lon="1.92547">
        <ele>626</ele>
        <time>2014-10-11T11:24:59Z</time>
      </trkpt>
      <trkpt lat="42.93988" lon="1.92549">
        <ele>626</ele>
        <time>2014-10-11T11:25:01Z</time>
      </trkpt>
      <trkpt lat="42.93988" lon="1.92555">
        <ele>626</ele>
        <time>2014-10-11T11:25:04Z</time>
      </trkpt>
      <trkpt lat="42.93986" lon="1.92559">
        <ele>626</ele>
        <time>2014-10-11T11:25:06Z</time>
      </trkpt>
      <trkpt lat="42.93984" lon="1.92563">
        <ele>626</ele>
        <time>2014-10-11T11:25:08Z</time>
      </trkpt>
      <trkpt lat="42.93982" lon="1.92569">
        <ele>627</ele>
        <time>2014-10-11T11:25:11Z</time>
      </trkpt>
      <trkpt lat="42.93982" lon="1.92572">
        <ele>628</ele>
        <time>2014-10-11T11:25:13Z</time>
      </trkpt>
      <trkpt lat="42.93981" lon="1.92576">
        <ele>628</ele>
        <time>2014-10-11T11:25:15Z</time>
      </trkpt>
      <trkpt lat="42.9398" lon="1.92582">
        <ele>628</ele>
        <time>2014-10-11T11:25:18Z</time>
      </trkpt>
      <trkpt lat="42.9398" lon="1.92586">
        <ele>629</ele>
        <time>2014-10-11T11:25:20Z</time>
      </trkpt>
      <trkpt lat="42.93979" lon="1.92589">
        <ele>630</ele>
        <time>2014-10-11T11:25:22Z</time>
      </trkpt>
      <trkpt lat="42.93978" lon="1.92595">
        <ele>631</ele>
        <time>2014-10-11T11:25:25Z</time>
      </trkpt>
      <trkpt lat="42.93976" lon="1.92601">
        <ele>632</ele>
        <time>2014-10-11T11:25:28Z</time>
      </trkpt>
      <trkpt lat="42.93975" lon="1.92604">
        <ele>632</ele>
        <time>2014-10-11T11:25:30Z</time>
      </trkpt>
      <trkpt lat="42.93973" lon="1.92608">
        <ele>632</ele>
        <time>2014-10-11T11:25:33Z</time>
      </trkpt>
      <trkpt lat="42.93972" lon="1.9261">
        <ele>632</ele>
        <time>2014-10-11T11:25:35Z</time>
      </trkpt>
      <trkpt lat="42.93971" lon="1.92612">
        <ele>633</ele>
        <time>2014-10-11T11:25:37Z</time>
      </trkpt>
      <trkpt lat="42.93968" lon="1.92613">
        <ele>633</ele>
        <time>2014-10-11T11:25:40Z</time>
      </trkpt>
      <trkpt lat="42.93968" lon="1.92616">
        <ele>633</ele>
        <time>2014-10-11T11:25:42Z</time>
      </trkpt>
      <trkpt lat="42.93967" lon="1.9262">
        <ele>633</ele>
        <time>2014-10-11T11:25:45Z</time>
      </trkpt>
      <trkpt lat="42.93965" lon="1.92623">
        <ele>634</ele>
        <time>2014-10-11T11:25:48Z</time>
      </trkpt>
      <trkpt lat="42.93964" lon="1.92627">
        <ele>635</ele>
        <time>2014-10-11T11:25:51Z</time>
      </trkpt>
      <trkpt lat="42.93963" lon="1.92629">
        <ele>635</ele>
        <time>2014-10-11T11:25:53Z</time>
      </trkpt>
      <trkpt lat="42.93961" lon="1.92631">
        <ele>635</ele>
        <time>2014-10-11T11:25:56Z</time>
      </trkpt>
      <trkpt lat="42.93958" lon="1.92635">
        <ele>636</ele>
        <time>2014-10-11T11:25:59Z</time>
      </trkpt>
      <trkpt lat="42.93958" lon="1.92638">
        <ele>636</ele>
        <time>2014-10-11T11:26:01Z</time>
      </trkpt>
      <trkpt lat="42.93957" lon="1.92639">
        <ele>637</ele>
        <time>2014-10-11T11:26:04Z</time>
      </trkpt>
      <trkpt lat="42.93958" lon="1.92641">
        <ele>637</ele>
        <time>2014-10-11T11:26:06Z</time>
      </trkpt>
      <trkpt lat="42.93958" lon="1.92644">
        <ele>637</ele>
        <time>2014-10-11T11:26:09Z</time>
      </trkpt>
      <trkpt lat="42.93957" lon="1.92646">
        <ele>637</ele>
        <time>2014-10-11T11:26:11Z</time>
      </trkpt>
      <trkpt lat="42.93956" lon="1.92648">
        <ele>637</ele>
        <time>2014-10-11T11:26:14Z</time>
      </trkpt>
      <trkpt lat="42.93955" lon="1.9265">
        <ele>637</ele>
        <time>2014-10-11T11:26:16Z</time>
      </trkpt>
      <trkpt lat="42.93954" lon="1.92653">
        <ele>637</ele>
        <time>2014-10-11T11:26:19Z</time>
      </trkpt>
      <trkpt lat="42.93953" lon="1.92656">
        <ele>638</ele>
        <time>2014-10-11T11:26:21Z</time>
      </trkpt>
      <trkpt lat="42.93952" lon="1.92657">
        <ele>638</ele>
        <time>2014-10-11T11:26:23Z</time>
      </trkpt>
      <trkpt lat="42.93952" lon="1.92658">
        <ele>638</ele>
        <time>2014-10-11T11:26:25Z</time>
      </trkpt>
      <trkpt lat="42.93952" lon="1.92659">
        <ele>638</ele>
        <time>2014-10-11T11:26:27Z</time>
      </trkpt>
      <trkpt lat="42.93952" lon="1.92661">
        <ele>639</ele>
        <time>2014-10-11T11:26:30Z</time>
      </trkpt>
      <trkpt lat="42.93952" lon="1.9267">
        <ele>638</ele>
        <time>2014-10-11T11:26:32Z</time>
      </trkpt>
      <trkpt lat="42.93952" lon="1.92669">
        <ele>638</ele>
        <time>2014-10-11T11:26:34Z</time>
      </trkpt>
      <trkpt lat="42.93952" lon="1.92669">
        <ele>638</ele>
        <time>2014-10-11T11:26:36Z</time>
      </trkpt>
      <trkpt lat="42.93953" lon="1.92667">
        <ele>638</ele>
        <time>2014-10-11T11:26:39Z</time>
      </trkpt>
      <trkpt lat="42.93954" lon="1.92664">
        <ele>638</ele>
        <time>2014-10-11T11:26:41Z</time>
      </trkpt>
      <trkpt lat="42.93956" lon="1.92656">
        <ele>637</ele>
        <time>2014-10-11T11:26:44Z</time>
      </trkpt>
      <trkpt lat="42.93956" lon="1.92649">
        <ele>636</ele>
        <time>2014-10-11T11:26:47Z</time>
      </trkpt>
      <trkpt lat="42.93956" lon="1.92645">
        <ele>635</ele>
        <time>2014-10-11T11:26:49Z</time>
      </trkpt>
      <trkpt lat="42.93957" lon="1.92643">
        <ele>633</ele>
        <time>2014-10-11T11:26:51Z</time>
      </trkpt>
      <trkpt lat="42.93957" lon="1.92636">
        <ele>632</ele>
        <time>2014-10-11T11:26:54Z</time>
      </trkpt>
      <trkpt lat="42.93958" lon="1.92633">
        <ele>631</ele>
        <time>2014-10-11T11:26:56Z</time>
      </trkpt>
      <trkpt lat="42.93959" lon="1.92631">
        <ele>630</ele>
        <time>2014-10-11T11:26:58Z</time>
      </trkpt>
      <trkpt lat="42.93959" lon="1.9263">
        <ele>629</ele>
        <time>2014-10-11T11:27:00Z</time>
      </trkpt>
      <trkpt lat="42.9396" lon="1.92628">
        <ele>629</ele>
        <time>2014-10-11T11:27:03Z</time>
      </trkpt>
      <trkpt lat="42.93961" lon="1.92626">
        <ele>628</ele>
        <time>2014-10-11T11:27:06Z</time>
      </trkpt>
      <trkpt lat="42.93961" lon="1.92624">
        <ele>628</ele>
        <time>2014-10-11T11:27:09Z</time>
      </trkpt>
      <trkpt lat="42.93962" lon="1.92623">
        <ele>628</ele>
        <time>2014-10-11T11:27:12Z</time>
      </trkpt>
      <trkpt lat="42.93962" lon="1.92622">
        <ele>627</ele>
        <time>2014-10-11T11:27:15Z</time>
      </trkpt>
      <trkpt lat="42.93963" lon="1.9262">
        <ele>627</ele>
        <time>2014-10-11T11:27:18Z</time>
      </trkpt>
      <trkpt lat="42.93964" lon="1.92619">
        <ele>627</ele>
        <time>2014-10-11T11:27:21Z</time>
      </trkpt>
      <trkpt lat="42.93965" lon="1.92618">
        <ele>627</ele>
        <time>2014-10-11T11:27:24Z</time>
      </trkpt>
      <trkpt lat="42.93965" lon="1.92616">
        <ele>627</ele>
        <time>2014-10-11T11:27:26Z</time>
      </trkpt>
      <trkpt lat="42.93965" lon="1.92615">
        <ele>627</ele>
        <time>2014-10-11T11:27:29Z</time>
      </trkpt>
      <trkpt lat="42.93964" lon="1.92615">
        <ele>626</ele>
        <time>2014-10-11T11:27:32Z</time>
      </trkpt>
      <trkpt lat="42.93961" lon="1.92615">
        <ele>626</ele>
        <time>2014-10-11T11:27:34Z</time>
      </trkpt>
      <trkpt lat="42.9396" lon="1.92614">
        <ele>625</ele>
        <time>2014-10-11T11:27:37Z</time>
      </trkpt>
      <trkpt lat="42.93958" lon="1.92613">
        <ele>624</ele>
        <time>2014-10-11T11:27:40Z</time>
      </trkpt>
      <trkpt lat="42.93956" lon="1.92612">
        <ele>624</ele>
        <time>2014-10-11T11:27:42Z</time>
      </trkpt>
      <trkpt lat="42.93955" lon="1.92612">
        <ele>623</ele>
        <time>2014-10-11T11:27:44Z</time>
      </trkpt>
      <trkpt lat="42.93953" lon="1.92611">
        <ele>623</ele>
        <time>2014-10-11T11:27:47Z</time>
      </trkpt>
      <trkpt lat="42.9395" lon="1.92611">
        <ele>621</ele>
        <time>2014-10-11T11:27:50Z</time>
      </trkpt>
      <trkpt lat="42.9395" lon="1.92611">
        <ele>620</ele>
        <time>2014-10-11T11:27:52Z</time>
      </trkpt>
      <trkpt lat="42.93948" lon="1.92611">
        <ele>619</ele>
        <time>2014-10-11T11:27:55Z</time>
      </trkpt>
      <trkpt lat="42.93946" lon="1.9261">
        <ele>618</ele>
        <time>2014-10-11T11:27:58Z</time>
      </trkpt>
      <trkpt lat="42.93944" lon="1.92609">
        <ele>617</ele>
        <time>2014-10-11T11:28:01Z</time>
      </trkpt>
      <trkpt lat="42.93941" lon="1.9261">
        <ele>616</ele>
        <time>2014-10-11T11:28:04Z</time>
      </trkpt>
      <trkpt lat="42.9394" lon="1.9261">
        <ele>615</ele>
        <time>2014-10-11T11:28:06Z</time>
      </trkpt>
      <trkpt lat="42.93938" lon="1.92608">
        <ele>614</ele>
        <time>2014-10-11T11:28:09Z</time>
      </trkpt>
      <trkpt lat="42.93935" lon="1.92607">
        <ele>613</ele>
        <time>2014-10-11T11:28:11Z</time>
      </trkpt>
      <trkpt lat="42.93933" lon="1.92607">
        <ele>612</ele>
        <time>2014-10-11T11:28:13Z</time>
      </trkpt>
      <trkpt lat="42.93931" lon="1.92606">
        <ele>611</ele>
        <time>2014-10-11T11:28:15Z</time>
      </trkpt>
      <trkpt lat="42.93927" lon="1.92607">
        <ele>610</ele>
        <time>2014-10-11T11:28:18Z</time>
      </trkpt>
      <trkpt lat="42.93924" lon="1.92608">
        <ele>609</ele>
        <time>2014-10-11T11:28:21Z</time>
      </trkpt>
      <trkpt lat="42.93922" lon="1.92608">
        <ele>609</ele>
        <time>2014-10-11T11:28:23Z</time>
      </trkpt>
      <trkpt lat="42.93919" lon="1.92607">
        <ele>608</ele>
        <time>2014-10-11T11:28:25Z</time>
      </trkpt>
      <trkpt lat="42.93919" lon="1.92603">
        <ele>607</ele>
        <time>2014-10-11T11:28:28Z</time>
      </trkpt>
      <trkpt lat="42.93919" lon="1.92602">
        <ele>607</ele>
        <time>2014-10-11T11:28:31Z</time>
      </trkpt>
      <trkpt lat="42.93919" lon="1.92602">
        <ele>606</ele>
        <time>2014-10-11T11:28:34Z</time>
      </trkpt>
      <trkpt lat="42.93918" lon="1.926">
        <ele>606</ele>
        <time>2014-10-11T11:28:37Z</time>
      </trkpt>
      <trkpt lat="42.93916" lon="1.92596">
        <ele>606</ele>
        <time>2014-10-11T11:28:40Z</time>
      </trkpt>
      <trkpt lat="42.93915" lon="1.92594">
        <ele>605</ele>
        <time>2014-10-11T11:28:43Z</time>
      </trkpt>
      <trkpt lat="42.93915" lon="1.92592">
        <ele>605</ele>
        <time>2014-10-11T11:28:45Z</time>
      </trkpt>
      <trkpt lat="42.93916" lon="1.92588">
        <ele>605</ele>
        <time>2014-10-11T11:28:48Z</time>
      </trkpt>
      <trkpt lat="42.93916" lon="1.92587">
        <ele>605</ele>
        <time>2014-10-11T11:28:51Z</time>
      </trkpt>
      <trkpt lat="42.93915" lon="1.92586">
        <ele>605</ele>
        <time>2014-10-11T11:28:53Z</time>
      </trkpt>
      <trkpt lat="42.93913" lon="1.92584">
        <ele>606</ele>
        <time>2014-10-11T11:28:56Z</time>
      </trkpt>
      <trkpt lat="42.93911" lon="1.92582">
        <ele>606</ele>
        <time>2014-10-11T11:28:59Z</time>
      </trkpt>
      <trkpt lat="42.9391" lon="1.9258">
        <ele>606</ele>
        <time>2014-10-11T11:29:01Z</time>
      </trkpt>
      <trkpt lat="42.93908" lon="1.9258">
        <ele>606</ele>
        <time>2014-10-11T11:29:04Z</time>
      </trkpt>
      <trkpt lat="42.93906" lon="1.92583">
        <ele>605</ele>
        <time>2014-10-11T11:29:07Z</time>
      </trkpt>
      <trkpt lat="42.93903" lon="1.92582">
        <ele>605</ele>
        <time>2014-10-11T11:29:10Z</time>
      </trkpt>
      <trkpt lat="42.93898" lon="1.92578">
        <ele>604</ele>
        <time>2014-10-11T11:29:12Z</time>
      </trkpt>
      <trkpt lat="42.93886" lon="1.92572">
        <ele>604</ele>
        <time>2014-10-11T11:29:15Z</time>
      </trkpt>
      <trkpt lat="42.93874" lon="1.92564">
        <ele>602</ele>
        <time>2014-10-11T11:29:18Z</time>
      </trkpt>
      <trkpt lat="42.93868" lon="1.9256">
        <ele>601</ele>
        <time>2014-10-11T11:29:20Z</time>
      </trkpt>
      <trkpt lat="42.93861" lon="1.92559">
        <ele>600</ele>
        <time>2014-10-11T11:29:23Z</time>
      </trkpt>
      <trkpt lat="42.93857" lon="1.9256">
        <ele>599</ele>
        <time>2014-10-11T11:29:25Z</time>
      </trkpt>
      <trkpt lat="42.93851" lon="1.9256">
        <ele>599</ele>
        <time>2014-10-11T11:29:27Z</time>
      </trkpt>
      <trkpt lat="42.93847" lon="1.92556">
        <ele>598</ele>
        <time>2014-10-11T11:29:29Z</time>
      </trkpt>
      <trkpt lat="42.93846" lon="1.92546">
        <ele>597</ele>
        <time>2014-10-11T11:29:32Z</time>
      </trkpt>
      <trkpt lat="42.93847" lon="1.92538">
        <ele>597</ele>
        <time>2014-10-11T11:29:34Z</time>
      </trkpt>
      <trkpt lat="42.93848" lon="1.92528">
        <ele>596</ele>
        <time>2014-10-11T11:29:36Z</time>
      </trkpt>
      <trkpt lat="42.93849" lon="1.92513">
        <ele>596</ele>
        <time>2014-10-11T11:29:39Z</time>
      </trkpt>
      <trkpt lat="42.93849" lon="1.92502">
        <ele>595</ele>
        <time>2014-10-11T11:29:41Z</time>
      </trkpt>
      <trkpt lat="42.93848" lon="1.92485">
        <ele>595</ele>
        <time>2014-10-11T11:29:44Z</time>
      </trkpt>
      <trkpt lat="42.93847" lon="1.92475">
        <ele>595</ele>
        <time>2014-10-11T11:29:46Z</time>
      </trkpt>
      <trkpt lat="42.93848" lon="1.92463">
        <ele>594</ele>
        <time>2014-10-11T11:29:49Z</time>
      </trkpt>
      <trkpt lat="42.93847" lon="1.92462">
        <ele>594</ele>
        <time>2014-10-11T11:29:51Z</time>
      </trkpt>
      <trkpt lat="42.93847" lon="1.92463">
        <ele>594</ele>
        <time>2014-10-11T11:29:53Z</time>
      </trkpt>
      <trkpt lat="42.93846" lon="1.92463">
        <ele>594</ele>
        <time>2014-10-11T11:29:56Z</time>
      </trkpt>
      <trkpt lat="42.93846" lon="1.92463">
        <ele>594</ele>
        <time>2014-10-11T11:29:59Z</time>
      </trkpt>
      <trkpt lat="42.93845" lon="1.92463">
        <ele>594</ele>
        <time>2014-10-11T11:30:03Z</time>
      </trkpt>
      <trkpt lat="42.93845" lon="1.92463">
        <ele>594</ele>
        <time>2014-10-11T11:30:05Z</time>
      </trkpt>
      <trkpt lat="42.93845" lon="1.92462">
        <ele>594</ele>
        <time>2014-10-11T11:30:08Z</time>
      </trkpt>
      <trkpt lat="42.93845" lon="1.92462">
        <ele>594</ele>
        <time>2014-10-11T11:30:12Z</time>
      </trkpt>
      <trkpt lat="42.93845" lon="1.92462">
        <ele>594</ele>
        <time>2014-10-11T11:30:14Z</time>
      </trkpt>
      <trkpt lat="42.93845" lon="1.92462">
        <ele>594</ele>
        <time>2014-10-11T11:30:17Z</time>
      </trkpt>
      <trkpt lat="42.93844" lon="1.92461">
        <ele>594</ele>
        <time>2014-10-11T11:30:20Z</time>
      </trkpt>
      <trkpt lat="42.93844" lon="1.92457">
        <ele>594</ele>
        <time>2014-10-11T11:30:22Z</time>
      </trkpt>
      <trkpt lat="42.93843" lon="1.92443">
        <ele>594</ele>
        <time>2014-10-11T11:30:25Z</time>
      </trkpt>
      <trkpt lat="42.93843" lon="1.92433">
        <ele>594</ele>
        <time>2014-10-11T11:30:27Z</time>
      </trkpt>
      <trkpt lat="42.93844" lon="1.92421">
        <ele>593</ele>
        <time>2014-10-11T11:30:30Z</time>
      </trkpt>
      <trkpt lat="42.93843" lon="1.92403">
        <ele>592</ele>
        <time>2014-10-11T11:30:33Z</time>
      </trkpt>
      <trkpt lat="42.93837" lon="1.9239">
        <ele>591</ele>
        <time>2014-10-11T11:30:35Z</time>
      </trkpt>
      <trkpt lat="42.93824" lon="1.9238">
        <ele>589</ele>
        <time>2014-10-11T11:30:38Z</time>
      </trkpt>
      <trkpt lat="42.93816" lon="1.92375">
        <ele>586</ele>
        <time>2014-10-11T11:30:40Z</time>
      </trkpt>
      <trkpt lat="42.93815" lon="1.92369">
        <ele>584</ele>
        <time>2014-10-11T11:30:42Z</time>
      </trkpt>
      <trkpt lat="42.93818" lon="1.92365">
        <ele>582</ele>
        <time>2014-10-11T11:30:44Z</time>
      </trkpt>
      <trkpt lat="42.93822" lon="1.92364">
        <ele>581</ele>
        <time>2014-10-11T11:30:46Z</time>
      </trkpt>
      <trkpt lat="42.93827" lon="1.92362">
        <ele>580</ele>
        <time>2014-10-11T11:30:49Z</time>
      </trkpt>
      <trkpt lat="42.93832" lon="1.9236">
        <ele>580</ele>
        <time>2014-10-11T11:30:52Z</time>
      </trkpt>
      <trkpt lat="42.93837" lon="1.92357">
        <ele>581</ele>
        <time>2014-10-11T11:30:55Z</time>
      </trkpt>
      <trkpt lat="42.93841" lon="1.92354">
        <ele>582</ele>
        <time>2014-10-11T11:30:57Z</time>
      </trkpt>
      <trkpt lat="42.93848" lon="1.92351">
        <ele>583</ele>
        <time>2014-10-11T11:31:00Z</time>
      </trkpt>
      <trkpt lat="42.93853" lon="1.9235">
        <ele>583</ele>
        <time>2014-10-11T11:31:02Z</time>
      </trkpt>
      <trkpt lat="42.93861" lon="1.9235">
        <ele>584</ele>
        <time>2014-10-11T11:31:05Z</time>
      </trkpt>
      <trkpt lat="42.93866" lon="1.92351">
        <ele>584</ele>
        <time>2014-10-11T11:31:08Z</time>
      </trkpt>
      <trkpt lat="42.93866" lon="1.9235">
        <ele>585</ele>
        <time>2014-10-11T11:31:11Z</time>
      </trkpt>
      <trkpt lat="42.93867" lon="1.9235">
        <ele>585</ele>
        <time>2014-10-11T11:31:13Z</time>
      </trkpt>
      <trkpt lat="42.93867" lon="1.92349">
        <ele>585</ele>
        <time>2014-10-11T11:31:15Z</time>
      </trkpt>
      <trkpt lat="42.93867" lon="1.92349">
        <ele>585</ele>
        <time>2014-10-11T11:31:17Z</time>
      </trkpt>
      <trkpt lat="42.93867" lon="1.92349">
        <ele>585</ele>
        <time>2014-10-11T11:31:19Z</time>
      </trkpt>
      <trkpt lat="42.93867" lon="1.92348">
        <ele>585</ele>
        <time>2014-10-11T11:31:21Z</time>
      </trkpt>
      <trkpt lat="42.93867" lon="1.92348">
        <ele>585</ele>
        <time>2014-10-11T11:31:23Z</time>
      </trkpt>
      <trkpt lat="42.93868" lon="1.92347">
        <ele>585</ele>
        <time>2014-10-11T11:31:26Z</time>
      </trkpt>
      <trkpt lat="42.93867" lon="1.92341">
        <ele>585</ele>
        <time>2014-10-11T11:31:29Z</time>
      </trkpt>
      <trkpt lat="42.9386" lon="1.92338">
        <ele>585</ele>
        <time>2014-10-11T11:31:31Z</time>
      </trkpt>
      <trkpt lat="42.9385" lon="1.92342">
        <ele>584</ele>
        <time>2014-10-11T11:31:34Z</time>
      </trkpt>
      <trkpt lat="42.93845" lon="1.92346">
        <ele>583</ele>
        <time>2014-10-11T11:31:36Z</time>
      </trkpt>
      <trkpt lat="42.93836" lon="1.92352">
        <ele>583</ele>
        <time>2014-10-11T11:31:39Z</time>
      </trkpt>
      <trkpt lat="42.9383" lon="1.92357">
        <ele>583</ele>
        <time>2014-10-11T11:31:41Z</time>
      </trkpt>
      <trkpt lat="42.93821" lon="1.92365">
        <ele>582</ele>
        <time>2014-10-11T11:31:44Z</time>
      </trkpt>
      <trkpt lat="42.93813" lon="1.92357">
        <ele>581</ele>
        <time>2014-10-11T11:31:47Z</time>
      </trkpt>
      <trkpt lat="42.93809" lon="1.92344">
        <ele>580</ele>
        <time>2014-10-11T11:31:49Z</time>
      </trkpt>
      <trkpt lat="42.93804" lon="1.92325">
        <ele>579</ele>
        <time>2014-10-11T11:31:51Z</time>
      </trkpt>
      <trkpt lat="42.93799" lon="1.92306">
        <ele>577</ele>
        <time>2014-10-11T11:31:53Z</time>
      </trkpt>
      <trkpt lat="42.93797" lon="1.92285">
        <ele>575</ele>
        <time>2014-10-11T11:31:56Z</time>
      </trkpt>
      <trkpt lat="42.93796" lon="1.92267">
        <ele>571</ele>
        <time>2014-10-11T11:31:59Z</time>
      </trkpt>
      <trkpt lat="42.93791" lon="1.92254">
        <ele>569</ele>
        <time>2014-10-11T11:32:01Z</time>
      </trkpt>
      <trkpt lat="42.93789" lon="1.92236">
        <ele>567</ele>
        <time>2014-10-11T11:32:04Z</time>
      </trkpt>
      <trkpt lat="42.93788" lon="1.92231">
        <ele>566</ele>
        <time>2014-10-11T11:32:06Z</time>
      </trkpt>
      <trkpt lat="42.93787" lon="1.9223">
        <ele>565</ele>
        <time>2014-10-11T11:32:10Z</time>
      </trkpt>
      <trkpt lat="42.93787" lon="1.92229">
        <ele>565</ele>
        <time>2014-10-11T11:32:15Z</time>
      </trkpt>
      <trkpt lat="42.93787" lon="1.92229">
        <ele>564</ele>
        <time>2014-10-11T11:32:18Z</time>
      </trkpt>
      <trkpt lat="42.93786" lon="1.92228">
        <ele>564</ele>
        <time>2014-10-11T11:32:21Z</time>
      </trkpt>
      <trkpt lat="42.93786" lon="1.92227">
        <ele>564</ele>
        <time>2014-10-11T11:32:24Z</time>
      </trkpt>
      <trkpt lat="42.93787" lon="1.92228">
        <ele>564</ele>
        <time>2014-10-11T11:32:29Z</time>
      </trkpt>
      <trkpt lat="42.93787" lon="1.92228">
        <ele>564</ele>
        <time>2014-10-11T11:32:31Z</time>
      </trkpt>
      <trkpt lat="42.93787" lon="1.92227">
        <ele>564</ele>
        <time>2014-10-11T11:32:37Z</time>
      </trkpt>
      <trkpt lat="42.93787" lon="1.92227">
        <ele>565</ele>
        <time>2014-10-11T11:32:40Z</time>
      </trkpt>
      <trkpt lat="42.93787" lon="1.92227">
        <ele>564</ele>
        <time>2014-10-11T11:32:44Z</time>
      </trkpt>
      <trkpt lat="42.93787" lon="1.92226">
        <ele>565</ele>
        <time>2014-10-11T11:32:46Z</time>
      </trkpt>
      <trkpt lat="42.93787" lon="1.92221">
        <ele>564</ele>
        <time>2014-10-11T11:32:49Z</time>
      </trkpt>
      <trkpt lat="42.93792" lon="1.92214">
        <ele>564</ele>
        <time>2014-10-11T11:32:52Z</time>
      </trkpt>
      <trkpt lat="42.938" lon="1.92205">
        <ele>564</ele>
        <time>2014-10-11T11:32:55Z</time>
      </trkpt>
      <trkpt lat="42.93809" lon="1.92194">
        <ele>563</ele>
        <time>2014-10-11T11:32:58Z</time>
      </trkpt>
      <trkpt lat="42.93819" lon="1.92179">
        <ele>563</ele>
        <time>2014-10-11T11:33:01Z</time>
      </trkpt>
      <trkpt lat="42.93825" lon="1.92159">
        <ele>562</ele>
        <time>2014-10-11T11:33:04Z</time>
      </trkpt>
      <trkpt lat="42.93828" lon="1.92144">
        <ele>562</ele>
        <time>2014-10-11T11:33:06Z</time>
      </trkpt>
      <trkpt lat="42.93832" lon="1.92129">
        <ele>562</ele>
        <time>2014-10-11T11:33:08Z</time>
      </trkpt>
      <trkpt lat="42.93839" lon="1.92109">
        <ele>561</ele>
        <time>2014-10-11T11:33:11Z</time>
      </trkpt>
      <trkpt lat="42.93846" lon="1.92087">
        <ele>560</ele>
        <time>2014-10-11T11:33:14Z</time>
      </trkpt>
      <trkpt lat="42.93846" lon="1.92062">
        <ele>560</ele>
        <time>2014-10-11T11:33:17Z</time>
      </trkpt>
      <trkpt lat="42.93842" lon="1.92046">
        <ele>559</ele>
        <time>2014-10-11T11:33:19Z</time>
      </trkpt>
      <trkpt lat="42.93833" lon="1.92022">
        <ele>557</ele>
        <time>2014-10-11T11:33:22Z</time>
      </trkpt>
      <trkpt lat="42.93828" lon="1.92006">
        <ele>556</ele>
        <time>2014-10-11T11:33:24Z</time>
      </trkpt>
      <trkpt lat="42.9382" lon="1.91986">
        <ele>554</ele>
        <time>2014-10-11T11:33:27Z</time>
      </trkpt>
      <trkpt lat="42.93812" lon="1.91973">
        <ele>553</ele>
        <time>2014-10-11T11:33:30Z</time>
      </trkpt>
      <trkpt lat="42.93807" lon="1.91962">
        <ele>552</ele>
        <time>2014-10-11T11:33:33Z</time>
      </trkpt>
      <trkpt lat="42.93803" lon="1.91954">
        <ele>552</ele>
        <time>2014-10-11T11:33:35Z</time>
      </trkpt>
      <trkpt lat="42.93798" lon="1.91942">
        <ele>552</ele>
        <time>2014-10-11T11:33:38Z</time>
      </trkpt>
      <trkpt lat="42.93793" lon="1.91931">
        <ele>551</ele>
        <time>2014-10-11T11:33:41Z</time>
      </trkpt>
      <trkpt lat="42.93788" lon="1.9192">
        <ele>551</ele>
        <time>2014-10-11T11:33:44Z</time>
      </trkpt>
      <trkpt lat="42.93785" lon="1.91913">
        <ele>551</ele>
        <time>2014-10-11T11:33:46Z</time>
      </trkpt>
      <trkpt lat="42.93784" lon="1.91906">
        <ele>551</ele>
        <time>2014-10-11T11:33:48Z</time>
      </trkpt>
      <trkpt lat="42.93781" lon="1.91901">
        <ele>551</ele>
        <time>2014-10-11T11:33:50Z</time>
      </trkpt>
      <trkpt lat="42.93778" lon="1.91891">
        <ele>551</ele>
        <time>2014-10-11T11:33:53Z</time>
      </trkpt>
      <trkpt lat="42.93776" lon="1.91881">
        <ele>551</ele>
        <time>2014-10-11T11:33:56Z</time>
      </trkpt>
      <trkpt lat="42.93775" lon="1.91876">
        <ele>552</ele>
        <time>2014-10-11T11:33:58Z</time>
      </trkpt>
      <trkpt lat="42.93774" lon="1.91873">
        <ele>552</ele>
        <time>2014-10-11T11:34:01Z</time>
      </trkpt>
      <trkpt lat="42.93774" lon="1.91874">
        <ele>553</ele>
        <time>2014-10-11T11:34:03Z</time>
      </trkpt>
      <trkpt lat="42.93773" lon="1.91874">
        <ele>553</ele>
        <time>2014-10-11T11:34:06Z</time>
      </trkpt>
      <trkpt lat="42.93773" lon="1.91874">
        <ele>553</ele>
        <time>2014-10-11T11:34:08Z</time>
      </trkpt>
      <trkpt lat="42.93763" lon="1.91877">
        <ele>553</ele>
        <time>2014-10-11T11:34:10Z</time>
      </trkpt>
      <trkpt lat="42.93763" lon="1.91876">
        <ele>553</ele>
        <time>2014-10-11T11:34:12Z</time>
      </trkpt>
      <trkpt lat="42.93763" lon="1.91874">
        <ele>553</ele>
        <time>2014-10-11T11:34:14Z</time>
      </trkpt>
      <trkpt lat="42.93763" lon="1.91865">
        <ele>554</ele>
        <time>2014-10-11T11:34:17Z</time>
      </trkpt>
      <trkpt lat="42.93762" lon="1.91858">
        <ele>554</ele>
        <time>2014-10-11T11:34:19Z</time>
      </trkpt>
      <trkpt lat="42.93762" lon="1.91853">
        <ele>554</ele>
        <time>2014-10-11T11:34:21Z</time>
      </trkpt>
      <trkpt lat="42.93762" lon="1.91847">
        <ele>555</ele>
        <time>2014-10-11T11:34:23Z</time>
      </trkpt>
      <trkpt lat="42.93763" lon="1.9184">
        <ele>555</ele>
        <time>2014-10-11T11:34:25Z</time>
      </trkpt>
      <trkpt lat="42.93762" lon="1.91833">
        <ele>556</ele>
        <time>2014-10-11T11:34:27Z</time>
      </trkpt>
      <trkpt lat="42.93762" lon="1.91823">
        <ele>556</ele>
        <time>2014-10-11T11:34:30Z</time>
      </trkpt>
      <trkpt lat="42.93762" lon="1.91819">
        <ele>557</ele>
        <time>2014-10-11T11:34:32Z</time>
      </trkpt>
      <trkpt lat="42.93763" lon="1.91815">
        <ele>558</ele>
        <time>2014-10-11T11:34:35Z</time>
      </trkpt>
      <trkpt lat="42.93763" lon="1.91815">
        <ele>558</ele>
        <time>2014-10-11T11:34:37Z</time>
      </trkpt>
      <trkpt lat="42.93766" lon="1.91808">
        <ele>557</ele>
        <time>2014-10-11T11:34:39Z</time>
      </trkpt>
      <trkpt lat="42.93766" lon="1.91804">
        <ele>557</ele>
        <time>2014-10-11T11:34:42Z</time>
      </trkpt>
      <trkpt lat="42.93765" lon="1.91797">
        <ele>558</ele>
        <time>2014-10-11T11:34:45Z</time>
      </trkpt>
      <trkpt lat="42.93763" lon="1.91791">
        <ele>558</ele>
        <time>2014-10-11T11:34:47Z</time>
      </trkpt>
      <trkpt lat="42.93762" lon="1.91787">
        <ele>558</ele>
        <time>2014-10-11T11:34:50Z</time>
      </trkpt>
      <trkpt lat="42.9376" lon="1.91781">
        <ele>558</ele>
        <time>2014-10-11T11:34:53Z</time>
      </trkpt>
      <trkpt lat="42.93759" lon="1.91779">
        <ele>558</ele>
        <time>2014-10-11T11:34:55Z</time>
      </trkpt>
      <trkpt lat="42.93759" lon="1.91774">
        <ele>558</ele>
        <time>2014-10-11T11:34:58Z</time>
      </trkpt>
      <trkpt lat="42.93757" lon="1.91772">
        <ele>558</ele>
        <time>2014-10-11T11:35:00Z</time>
      </trkpt>
      <trkpt lat="42.93756" lon="1.91773">
        <ele>558</ele>
        <time>2014-10-11T11:35:03Z</time>
      </trkpt>
      <trkpt lat="42.93754" lon="1.91765">
        <ele>559</ele>
        <time>2014-10-11T11:35:05Z</time>
      </trkpt>
      <trkpt lat="42.93755" lon="1.91765">
        <ele>559</ele>
        <time>2014-10-11T11:35:08Z</time>
      </trkpt>
      <trkpt lat="42.93756" lon="1.91768">
        <ele>559</ele>
        <time>2014-10-11T11:35:11Z</time>
      </trkpt>
      <trkpt lat="42.93758" lon="1.91773">
        <ele>559</ele>
        <time>2014-10-11T11:35:13Z</time>
      </trkpt>
      <trkpt lat="42.93758" lon="1.9178">
        <ele>559</ele>
        <time>2014-10-11T11:35:15Z</time>
      </trkpt>
      <trkpt lat="42.93758" lon="1.91788">
        <ele>560</ele>
        <time>2014-10-11T11:35:17Z</time>
      </trkpt>
      <trkpt lat="42.93757" lon="1.91806">
        <ele>560</ele>
        <time>2014-10-11T11:35:20Z</time>
      </trkpt>
      <trkpt lat="42.93757" lon="1.91821">
        <ele>559</ele>
        <time>2014-10-11T11:35:22Z</time>
      </trkpt>
      <trkpt lat="42.93758" lon="1.9185">
        <ele>558</ele>
        <time>2014-10-11T11:35:25Z</time>
      </trkpt>
      <trkpt lat="42.93761" lon="1.91872">
        <ele>558</ele>
        <time>2014-10-11T11:35:27Z</time>
      </trkpt>
      <trkpt lat="42.93768" lon="1.91894">
        <ele>557</ele>
        <time>2014-10-11T11:35:29Z</time>
      </trkpt>
      <trkpt lat="42.9378" lon="1.91914">
        <ele>556</ele>
        <time>2014-10-11T11:35:31Z</time>
      </trkpt>
      <trkpt lat="42.9379" lon="1.91935">
        <ele>555</ele>
        <time>2014-10-11T11:35:33Z</time>
      </trkpt>
      <trkpt lat="42.93803" lon="1.91962">
        <ele>555</ele>
        <time>2014-10-11T11:35:36Z</time>
      </trkpt>
      <trkpt lat="42.93811" lon="1.91976">
        <ele>555</ele>
        <time>2014-10-11T11:35:38Z</time>
      </trkpt>
      <trkpt lat="42.93818" lon="1.91989">
        <ele>555</ele>
        <time>2014-10-11T11:35:40Z</time>
      </trkpt>
      <trkpt lat="42.93825" lon="1.92006">
        <ele>556</ele>
        <time>2014-10-11T11:35:43Z</time>
      </trkpt>
      <trkpt lat="42.93829" lon="1.92017">
        <ele>556</ele>
        <time>2014-10-11T11:35:45Z</time>
      </trkpt>
      <trkpt lat="42.93834" lon="1.92033">
        <ele>557</ele>
        <time>2014-10-11T11:35:48Z</time>
      </trkpt>
      <trkpt lat="42.93839" lon="1.92046">
        <ele>557</ele>
        <time>2014-10-11T11:35:51Z</time>
      </trkpt>
      <trkpt lat="42.93842" lon="1.92059">
        <ele>558</ele>
        <time>2014-10-11T11:35:54Z</time>
      </trkpt>
      <trkpt lat="42.93844" lon="1.92073">
        <ele>559</ele>
        <time>2014-10-11T11:35:57Z</time>
      </trkpt>
      <trkpt lat="42.93842" lon="1.92082">
        <ele>560</ele>
        <time>2014-10-11T11:35:59Z</time>
      </trkpt>
      <trkpt lat="42.9384" lon="1.92091">
        <ele>560</ele>
        <time>2014-10-11T11:36:01Z</time>
      </trkpt>
      <trkpt lat="42.93837" lon="1.92098">
        <ele>561</ele>
        <time>2014-10-11T11:36:03Z</time>
      </trkpt>
      <trkpt lat="42.93831" lon="1.92111">
        <ele>561</ele>
        <time>2014-10-11T11:36:06Z</time>
      </trkpt>
      <trkpt lat="42.93825" lon="1.92126">
        <ele>562</ele>
        <time>2014-10-11T11:36:09Z</time>
      </trkpt>
      <trkpt lat="42.93821" lon="1.92144">
        <ele>563</ele>
        <time>2014-10-11T11:36:12Z</time>
      </trkpt>
      <trkpt lat="42.93819" lon="1.92157">
        <ele>563</ele>
        <time>2014-10-11T11:36:14Z</time>
      </trkpt>
      <trkpt lat="42.93811" lon="1.92173">
        <ele>564</ele>
        <time>2014-10-11T11:36:17Z</time>
      </trkpt>
      <trkpt lat="42.93801" lon="1.92187">
        <ele>565</ele>
        <time>2014-10-11T11:36:20Z</time>
      </trkpt>
      <trkpt lat="42.93794" lon="1.92196">
        <ele>565</ele>
        <time>2014-10-11T11:36:22Z</time>
      </trkpt>
      <trkpt lat="42.93783" lon="1.92209">
        <ele>566</ele>
        <time>2014-10-11T11:36:25Z</time>
      </trkpt>
      <trkpt lat="42.93774" lon="1.92222">
        <ele>566</ele>
        <time>2014-10-11T11:36:28Z</time>
      </trkpt>
      <trkpt lat="42.93764" lon="1.92233">
        <ele>567</ele>
        <time>2014-10-11T11:36:31Z</time>
      </trkpt>
      <trkpt lat="42.93757" lon="1.92243">
        <ele>568</ele>
        <time>2014-10-11T11:36:34Z</time>
      </trkpt>
      <trkpt lat="42.93753" lon="1.9225">
        <ele>568</ele>
        <time>2014-10-11T11:36:36Z</time>
      </trkpt>
      <trkpt lat="42.93749" lon="1.92262">
        <ele>568</ele>
        <time>2014-10-11T11:36:39Z</time>
      </trkpt>
      <trkpt lat="42.93749" lon="1.92271">
        <ele>568</ele>
        <time>2014-10-11T11:36:41Z</time>
      </trkpt>
      <trkpt lat="42.93749" lon="1.9228">
        <ele>568</ele>
        <time>2014-10-11T11:36:43Z</time>
      </trkpt>
      <trkpt lat="42.9375" lon="1.92288">
        <ele>569</ele>
        <time>2014-10-11T11:36:45Z</time>
      </trkpt>
      <trkpt lat="42.9375" lon="1.92296">
        <ele>569</ele>
        <time>2014-10-11T11:36:47Z</time>
      </trkpt>
      <trkpt lat="42.93751" lon="1.92304">
        <ele>569</ele>
        <time>2014-10-11T11:36:49Z</time>
      </trkpt>
      <trkpt lat="42.93751" lon="1.92312">
        <ele>570</ele>
        <time>2014-10-11T11:36:51Z</time>
      </trkpt>
      <trkpt lat="42.93752" lon="1.9232">
        <ele>570</ele>
        <time>2014-10-11T11:36:53Z</time>
      </trkpt>
      <trkpt lat="42.93753" lon="1.92328">
        <ele>570</ele>
        <time>2014-10-11T11:36:55Z</time>
      </trkpt>
      <trkpt lat="42.93754" lon="1.92341">
        <ele>570</ele>
        <time>2014-10-11T11:36:58Z</time>
      </trkpt>
      <trkpt lat="42.93755" lon="1.92355">
        <ele>571</ele>
        <time>2014-10-11T11:37:01Z</time>
      </trkpt>
      <trkpt lat="42.93753" lon="1.9237">
        <ele>571</ele>
        <time>2014-10-11T11:37:04Z</time>
      </trkpt>
      <trkpt lat="42.93751" lon="1.92385">
        <ele>571</ele>
        <time>2014-10-11T11:37:07Z</time>
      </trkpt>
      <trkpt lat="42.93749" lon="1.92396">
        <ele>571</ele>
        <time>2014-10-11T11:37:10Z</time>
      </trkpt>
      <trkpt lat="42.93748" lon="1.92408">
        <ele>572</ele>
        <time>2014-10-11T11:37:13Z</time>
      </trkpt>
      <trkpt lat="42.93747" lon="1.92415">
        <ele>573</ele>
        <time>2014-10-11T11:37:15Z</time>
      </trkpt>
      <trkpt lat="42.93745" lon="1.92425">
        <ele>573</ele>
        <time>2014-10-11T11:37:18Z</time>
      </trkpt>
      <trkpt lat="42.93744" lon="1.92437">
        <ele>573</ele>
        <time>2014-10-11T11:37:21Z</time>
      </trkpt>
      <trkpt lat="42.93743" lon="1.92448">
        <ele>574</ele>
        <time>2014-10-11T11:37:24Z</time>
      </trkpt>
      <trkpt lat="42.93742" lon="1.92456">
        <ele>575</ele>
        <time>2014-10-11T11:37:26Z</time>
      </trkpt>
      <trkpt lat="42.9374" lon="1.92469">
        <ele>575</ele>
        <time>2014-10-11T11:37:29Z</time>
      </trkpt>
      <trkpt lat="42.93739" lon="1.92482">
        <ele>576</ele>
        <time>2014-10-11T11:37:32Z</time>
      </trkpt>
      <trkpt lat="42.93737" lon="1.9249">
        <ele>576</ele>
        <time>2014-10-11T11:37:34Z</time>
      </trkpt>
      <trkpt lat="42.93736" lon="1.92498">
        <ele>576</ele>
        <time>2014-10-11T11:37:36Z</time>
      </trkpt>
      <trkpt lat="42.93734" lon="1.9251">
        <ele>577</ele>
        <time>2014-10-11T11:37:39Z</time>
      </trkpt>
      <trkpt lat="42.93732" lon="1.92523">
        <ele>577</ele>
        <time>2014-10-11T11:37:42Z</time>
      </trkpt>
      <trkpt lat="42.93731" lon="1.92531">
        <ele>578</ele>
        <time>2014-10-11T11:37:44Z</time>
      </trkpt>
      <trkpt lat="42.9373" lon="1.92544">
        <ele>578</ele>
        <time>2014-10-11T11:37:47Z</time>
      </trkpt>
      <trkpt lat="42.93729" lon="1.92557">
        <ele>579</ele>
        <time>2014-10-11T11:37:50Z</time>
      </trkpt>
      <trkpt lat="42.93729" lon="1.92566">
        <ele>579</ele>
        <time>2014-10-11T11:37:52Z</time>
      </trkpt>
      <trkpt lat="42.93729" lon="1.92575">
        <ele>580</ele>
        <time>2014-10-11T11:37:54Z</time>
      </trkpt>
      <trkpt lat="42.93728" lon="1.92585">
        <ele>580</ele>
        <time>2014-10-11T11:37:56Z</time>
      </trkpt>
      <trkpt lat="42.93728" lon="1.92599">
        <ele>581</ele>
        <time>2014-10-11T11:37:59Z</time>
      </trkpt>
      <trkpt lat="42.93728" lon="1.92613">
        <ele>581</ele>
        <time>2014-10-11T11:38:02Z</time>
      </trkpt>
      <trkpt lat="42.93728" lon="1.92621">
        <ele>581</ele>
        <time>2014-10-11T11:38:04Z</time>
      </trkpt>
      <trkpt lat="42.93728" lon="1.9263">
        <ele>582</ele>
        <time>2014-10-11T11:38:06Z</time>
      </trkpt>
      <trkpt lat="42.93727" lon="1.92643">
        <ele>582</ele>
        <time>2014-10-11T11:38:09Z</time>
      </trkpt>
      <trkpt lat="42.93726" lon="1.92653">
        <ele>583</ele>
        <time>2014-10-11T11:38:11Z</time>
      </trkpt>
      <trkpt lat="42.93724" lon="1.92667">
        <ele>583</ele>
        <time>2014-10-11T11:38:14Z</time>
      </trkpt>
      <trkpt lat="42.93722" lon="1.92675">
        <ele>584</ele>
        <time>2014-10-11T11:38:16Z</time>
      </trkpt>
      <trkpt lat="42.9372" lon="1.92684">
        <ele>584</ele>
        <time>2014-10-11T11:38:18Z</time>
      </trkpt>
      <trkpt lat="42.93716" lon="1.92695">
        <ele>584</ele>
        <time>2014-10-11T11:38:21Z</time>
      </trkpt>
      <trkpt lat="42.93713" lon="1.92703">
        <ele>584</ele>
        <time>2014-10-11T11:38:23Z</time>
      </trkpt>
      <trkpt lat="42.9371" lon="1.92715">
        <ele>585</ele>
        <time>2014-10-11T11:38:26Z</time>
      </trkpt>
      <trkpt lat="42.93708" lon="1.92723">
        <ele>586</ele>
        <time>2014-10-11T11:38:28Z</time>
      </trkpt>
      <trkpt lat="42.93705" lon="1.92731">
        <ele>586</ele>
        <time>2014-10-11T11:38:30Z</time>
      </trkpt>
      <trkpt lat="42.93703" lon="1.92744">
        <ele>587</ele>
        <time>2014-10-11T11:38:33Z</time>
      </trkpt>
      <trkpt lat="42.93702" lon="1.92752">
        <ele>587</ele>
        <time>2014-10-11T11:38:35Z</time>
      </trkpt>
      <trkpt lat="42.937" lon="1.92764">
        <ele>587</ele>
        <time>2014-10-11T11:38:38Z</time>
      </trkpt>
      <trkpt lat="42.93698" lon="1.92772">
        <ele>588</ele>
        <time>2014-10-11T11:38:40Z</time>
      </trkpt>
      <trkpt lat="42.93696" lon="1.92784">
        <ele>588</ele>
        <time>2014-10-11T11:38:43Z</time>
      </trkpt>
      <trkpt lat="42.93694" lon="1.92792">
        <ele>588</ele>
        <time>2014-10-11T11:38:45Z</time>
      </trkpt>
      <trkpt lat="42.93691" lon="1.92803">
        <ele>589</ele>
        <time>2014-10-11T11:38:48Z</time>
      </trkpt>
      <trkpt lat="42.93687" lon="1.92815">
        <ele>589</ele>
        <time>2014-10-11T11:38:51Z</time>
      </trkpt>
      <trkpt lat="42.93684" lon="1.92822">
        <ele>590</ele>
        <time>2014-10-11T11:38:53Z</time>
      </trkpt>
      <trkpt lat="42.93679" lon="1.92832">
        <ele>590</ele>
        <time>2014-10-11T11:38:56Z</time>
      </trkpt>
      <trkpt lat="42.93673" lon="1.92842">
        <ele>590</ele>
        <time>2014-10-11T11:38:59Z</time>
      </trkpt>
      <trkpt lat="42.93669" lon="1.92848">
        <ele>591</ele>
        <time>2014-10-11T11:39:01Z</time>
      </trkpt>
      <trkpt lat="42.93665" lon="1.92855">
        <ele>591</ele>
        <time>2014-10-11T11:39:03Z</time>
      </trkpt>
      <trkpt lat="42.93661" lon="1.92863">
        <ele>591</ele>
        <time>2014-10-11T11:39:05Z</time>
      </trkpt>
      <trkpt lat="42.93657" lon="1.9287">
        <ele>591</ele>
        <time>2014-10-11T11:39:07Z</time>
      </trkpt>
      <trkpt lat="42.93653" lon="1.92878">
        <ele>592</ele>
        <time>2014-10-11T11:39:09Z</time>
      </trkpt>
      <trkpt lat="42.9365" lon="1.92885">
        <ele>592</ele>
        <time>2014-10-11T11:39:11Z</time>
      </trkpt>
      <trkpt lat="42.93646" lon="1.92893">
        <ele>593</ele>
        <time>2014-10-11T11:39:13Z</time>
      </trkpt>
      <trkpt lat="42.93643" lon="1.92902">
        <ele>593</ele>
        <time>2014-10-11T11:39:15Z</time>
      </trkpt>
      <trkpt lat="42.93638" lon="1.92914">
        <ele>594</ele>
        <time>2014-10-11T11:39:18Z</time>
      </trkpt>
      <trkpt lat="42.93633" lon="1.92927">
        <ele>594</ele>
        <time>2014-10-11T11:39:21Z</time>
      </trkpt>
      <trkpt lat="42.93629" lon="1.92936">
        <ele>594</ele>
        <time>2014-10-11T11:39:23Z</time>
      </trkpt>
      <trkpt lat="42.93626" lon="1.92944">
        <ele>594</ele>
        <time>2014-10-11T11:39:25Z</time>
      </trkpt>
      <trkpt lat="42.93622" lon="1.92955">
        <ele>595</ele>
        <time>2014-10-11T11:39:28Z</time>
      </trkpt>
      <trkpt lat="42.93618" lon="1.92963">
        <ele>595</ele>
        <time>2014-10-11T11:39:30Z</time>
      </trkpt>
      <trkpt lat="42.93615" lon="1.92971">
        <ele>595</ele>
        <time>2014-10-11T11:39:32Z</time>
      </trkpt>
      <trkpt lat="42.93612" lon="1.9298">
        <ele>596</ele>
        <time>2014-10-11T11:39:34Z</time>
      </trkpt>
      <trkpt lat="42.93608" lon="1.92992">
        <ele>596</ele>
        <time>2014-10-11T11:39:37Z</time>
      </trkpt>
      <trkpt lat="42.93604" lon="1.93005">
        <ele>597</ele>
        <time>2014-10-11T11:39:40Z</time>
      </trkpt>
      <trkpt lat="42.93601" lon="1.93018">
        <ele>597</ele>
        <time>2014-10-11T11:39:43Z</time>
      </trkpt>
      <trkpt lat="42.936" lon="1.93028">
        <ele>598</ele>
        <time>2014-10-11T11:39:45Z</time>
      </trkpt>
      <trkpt lat="42.93599" lon="1.93037">
        <ele>598</ele>
        <time>2014-10-11T11:39:47Z</time>
      </trkpt>
      <trkpt lat="42.93599" lon="1.93047">
        <ele>598</ele>
        <time>2014-10-11T11:39:49Z</time>
      </trkpt>
      <trkpt lat="42.93599" lon="1.93062">
        <ele>598</ele>
        <time>2014-10-11T11:39:52Z</time>
      </trkpt>
      <trkpt lat="42.93598" lon="1.93078">
        <ele>598</ele>
        <time>2014-10-11T11:39:55Z</time>
      </trkpt>
      <trkpt lat="42.93597" lon="1.93093">
        <ele>598</ele>
        <time>2014-10-11T11:39:58Z</time>
      </trkpt>
      <trkpt lat="42.93597" lon="1.93109">
        <ele>598</ele>
        <time>2014-10-11T11:40:01Z</time>
      </trkpt>
      <trkpt lat="42.93596" lon="1.93118">
        <ele>598</ele>
        <time>2014-10-11T11:40:03Z</time>
      </trkpt>
      <trkpt lat="42.93595" lon="1.93128">
        <ele>599</ele>
        <time>2014-10-11T11:40:05Z</time>
      </trkpt>
      <trkpt lat="42.93594" lon="1.93138">
        <ele>598</ele>
        <time>2014-10-11T11:40:07Z</time>
      </trkpt>
      <trkpt lat="42.93593" lon="1.93149">
        <ele>598</ele>
        <time>2014-10-11T11:40:09Z</time>
      </trkpt>
      <trkpt lat="42.93593" lon="1.9316">
        <ele>598</ele>
        <time>2014-10-11T11:40:11Z</time>
      </trkpt>
      <trkpt lat="42.93592" lon="1.93171">
        <ele>598</ele>
        <time>2014-10-11T11:40:13Z</time>
      </trkpt>
      <trkpt lat="42.93591" lon="1.93183">
        <ele>598</ele>
        <time>2014-10-11T11:40:15Z</time>
      </trkpt>
      <trkpt lat="42.93591" lon="1.93195">
        <ele>599</ele>
        <time>2014-10-11T11:40:17Z</time>
      </trkpt>
      <trkpt lat="42.9359" lon="1.93208">
        <ele>599</ele>
        <time>2014-10-11T11:40:19Z</time>
      </trkpt>
      <trkpt lat="42.93589" lon="1.93221">
        <ele>599</ele>
        <time>2014-10-11T11:40:21Z</time>
      </trkpt>
      <trkpt lat="42.9359" lon="1.93233">
        <ele>599</ele>
        <time>2014-10-11T11:40:23Z</time>
      </trkpt>
      <trkpt lat="42.93591" lon="1.93245">
        <ele>600</ele>
        <time>2014-10-11T11:40:25Z</time>
      </trkpt>
      <trkpt lat="42.93594" lon="1.93257">
        <ele>600</ele>
        <time>2014-10-11T11:40:27Z</time>
      </trkpt>
      <trkpt lat="42.93598" lon="1.93268">
        <ele>600</ele>
        <time>2014-10-11T11:40:29Z</time>
      </trkpt>
      <trkpt lat="42.93604" lon="1.93283">
        <ele>601</ele>
        <time>2014-10-11T11:40:32Z</time>
      </trkpt>
      <trkpt lat="42.93609" lon="1.93298">
        <ele>601</ele>
        <time>2014-10-11T11:40:35Z</time>
      </trkpt>
      <trkpt lat="42.93611" lon="1.93314">
        <ele>601</ele>
        <time>2014-10-11T11:40:38Z</time>
      </trkpt>
      <trkpt lat="42.93612" lon="1.9333">
        <ele>601</ele>
        <time>2014-10-11T11:40:41Z</time>
      </trkpt>
      <trkpt lat="42.93612" lon="1.93346">
        <ele>602</ele>
        <time>2014-10-11T11:40:44Z</time>
      </trkpt>
      <trkpt lat="42.93611" lon="1.93362">
        <ele>602</ele>
        <time>2014-10-11T11:40:47Z</time>
      </trkpt>
      <trkpt lat="42.9361" lon="1.93378">
        <ele>603</ele>
        <time>2014-10-11T11:40:50Z</time>
      </trkpt>
      <trkpt lat="42.9361" lon="1.93389">
        <ele>603</ele>
        <time>2014-10-11T11:40:52Z</time>
      </trkpt>
      <trkpt lat="42.9361" lon="1.934">
        <ele>604</ele>
        <time>2014-10-11T11:40:54Z</time>
      </trkpt>
      <trkpt lat="42.93609" lon="1.9341">
        <ele>604</ele>
        <time>2014-10-11T11:40:56Z</time>
      </trkpt>
      <trkpt lat="42.93609" lon="1.93421">
        <ele>604</ele>
        <time>2014-10-11T11:40:58Z</time>
      </trkpt>
      <trkpt lat="42.93608" lon="1.93431">
        <ele>605</ele>
        <time>2014-10-11T11:41:00Z</time>
      </trkpt>
      <trkpt lat="42.93607" lon="1.93447">
        <ele>605</ele>
        <time>2014-10-11T11:41:03Z</time>
      </trkpt>
      <trkpt lat="42.93606" lon="1.93463">
        <ele>606</ele>
        <time>2014-10-11T11:41:06Z</time>
      </trkpt>
      <trkpt lat="42.93605" lon="1.93478">
        <ele>607</ele>
        <time>2014-10-11T11:41:09Z</time>
      </trkpt>
      <trkpt lat="42.93605" lon="1.93494">
        <ele>607</ele>
        <time>2014-10-11T11:41:12Z</time>
      </trkpt>
      <trkpt lat="42.93604" lon="1.93504">
        <ele>607</ele>
        <time>2014-10-11T11:41:14Z</time>
      </trkpt>
      <trkpt lat="42.93604" lon="1.93519">
        <ele>608</ele>
        <time>2014-10-11T11:41:17Z</time>
      </trkpt>
      <trkpt lat="42.93603" lon="1.93529">
        <ele>608</ele>
        <time>2014-10-11T11:41:19Z</time>
      </trkpt>
      <trkpt lat="42.93603" lon="1.93544">
        <ele>608</ele>
        <time>2014-10-11T11:41:22Z</time>
      </trkpt>
      <trkpt lat="42.93602" lon="1.93558">
        <ele>609</ele>
        <time>2014-10-11T11:41:25Z</time>
      </trkpt>
      <trkpt lat="42.93601" lon="1.93568">
        <ele>610</ele>
        <time>2014-10-11T11:41:27Z</time>
      </trkpt>
      <trkpt lat="42.93598" lon="1.93582">
        <ele>610</ele>
        <time>2014-10-11T11:41:30Z</time>
      </trkpt>
      <trkpt lat="42.93594" lon="1.93595">
        <ele>610</ele>
        <time>2014-10-11T11:41:33Z</time>
      </trkpt>
      <trkpt lat="42.93587" lon="1.93606">
        <ele>611</ele>
        <time>2014-10-11T11:41:36Z</time>
      </trkpt>
      <trkpt lat="42.93578" lon="1.93613">
        <ele>611</ele>
        <time>2014-10-11T11:41:39Z</time>
      </trkpt>
      <trkpt lat="42.93572" lon="1.93616">
        <ele>611</ele>
        <time>2014-10-11T11:41:41Z</time>
      </trkpt>
      <trkpt lat="42.93563" lon="1.9362">
        <ele>611</ele>
        <time>2014-10-11T11:41:44Z</time>
      </trkpt>
      <trkpt lat="42.93557" lon="1.93623">
        <ele>611</ele>
        <time>2014-10-11T11:41:46Z</time>
      </trkpt>
      <trkpt lat="42.93546" lon="1.93629">
        <ele>611</ele>
        <time>2014-10-11T11:41:49Z</time>
      </trkpt>
      <trkpt lat="42.9354" lon="1.93634">
        <ele>611</ele>
        <time>2014-10-11T11:41:51Z</time>
      </trkpt>
      <trkpt lat="42.93531" lon="1.93642">
        <ele>611</ele>
        <time>2014-10-11T11:41:54Z</time>
      </trkpt>
      <trkpt lat="42.93522" lon="1.93651">
        <ele>611</ele>
        <time>2014-10-11T11:41:57Z</time>
      </trkpt>
      <trkpt lat="42.93513" lon="1.9366">
        <ele>612</ele>
        <time>2014-10-11T11:42:00Z</time>
      </trkpt>
      <trkpt lat="42.93503" lon="1.93669">
        <ele>612</ele>
        <time>2014-10-11T11:42:03Z</time>
      </trkpt>
      <trkpt lat="42.93497" lon="1.93676">
        <ele>613</ele>
        <time>2014-10-11T11:42:05Z</time>
      </trkpt>
      <trkpt lat="42.93486" lon="1.93685">
        <ele>613</ele>
        <time>2014-10-11T11:42:08Z</time>
      </trkpt>
      <trkpt lat="42.93481" lon="1.93692">
        <ele>613</ele>
        <time>2014-10-11T11:42:10Z</time>
      </trkpt>
      <trkpt lat="42.93472" lon="1.93701">
        <ele>613</ele>
        <time>2014-10-11T11:42:13Z</time>
      </trkpt>
      <trkpt lat="42.93466" lon="1.93707">
        <ele>613</ele>
        <time>2014-10-11T11:42:15Z</time>
      </trkpt>
      <trkpt lat="42.93461" lon="1.93713">
        <ele>613</ele>
        <time>2014-10-11T11:42:17Z</time>
      </trkpt>
      <trkpt lat="42.93454" lon="1.93723">
        <ele>613</ele>
        <time>2014-10-11T11:42:20Z</time>
      </trkpt>
      <trkpt lat="42.93449" lon="1.93731">
        <ele>614</ele>
        <time>2014-10-11T11:42:22Z</time>
      </trkpt>
      <trkpt lat="42.93445" lon="1.9374">
        <ele>614</ele>
        <time>2014-10-11T11:42:24Z</time>
      </trkpt>
      <trkpt lat="42.93442" lon="1.93748">
        <ele>615</ele>
        <time>2014-10-11T11:42:26Z</time>
      </trkpt>
      <trkpt lat="42.93438" lon="1.93763">
        <ele>615</ele>
        <time>2014-10-11T11:42:29Z</time>
      </trkpt>
      <trkpt lat="42.93435" lon="1.93773">
        <ele>615</ele>
        <time>2014-10-11T11:42:31Z</time>
      </trkpt>
      <trkpt lat="42.93433" lon="1.93783">
        <ele>615</ele>
        <time>2014-10-11T11:42:33Z</time>
      </trkpt>
      <trkpt lat="42.9343" lon="1.93795">
        <ele>615</ele>
        <time>2014-10-11T11:42:35Z</time>
      </trkpt>
      <trkpt lat="42.93428" lon="1.93812">
        <ele>616</ele>
        <time>2014-10-11T11:42:38Z</time>
      </trkpt>
      <trkpt lat="42.93426" lon="1.93824">
        <ele>616</ele>
        <time>2014-10-11T11:42:40Z</time>
      </trkpt>
      <trkpt lat="42.93425" lon="1.93842">
        <ele>616</ele>
        <time>2014-10-11T11:42:43Z</time>
      </trkpt>
      <trkpt lat="42.93424" lon="1.93859">
        <ele>616</ele>
        <time>2014-10-11T11:42:46Z</time>
      </trkpt>
      <trkpt lat="42.93424" lon="1.93869">
        <ele>616</ele>
        <time>2014-10-11T11:42:48Z</time>
      </trkpt>
      <trkpt lat="42.93425" lon="1.93885">
        <ele>617</ele>
        <time>2014-10-11T11:42:51Z</time>
      </trkpt>
      <trkpt lat="42.93426" lon="1.93896">
        <ele>617</ele>
        <time>2014-10-11T11:42:53Z</time>
      </trkpt>
      <trkpt lat="42.93428" lon="1.93906">
        <ele>617</ele>
        <time>2014-10-11T11:42:55Z</time>
      </trkpt>
      <trkpt lat="42.93431" lon="1.93921">
        <ele>617</ele>
        <time>2014-10-11T11:42:58Z</time>
      </trkpt>
      <trkpt lat="42.93433" lon="1.93931">
        <ele>618</ele>
        <time>2014-10-11T11:43:00Z</time>
      </trkpt>
      <trkpt lat="42.93434" lon="1.9394">
        <ele>618</ele>
        <time>2014-10-11T11:43:02Z</time>
      </trkpt>
      <trkpt lat="42.93435" lon="1.93949">
        <ele>618</ele>
        <time>2014-10-11T11:43:04Z</time>
      </trkpt>
      <trkpt lat="42.93436" lon="1.93959">
        <ele>619</ele>
        <time>2014-10-11T11:43:06Z</time>
      </trkpt>
      <trkpt lat="42.93435" lon="1.93975">
        <ele>619</ele>
        <time>2014-10-11T11:43:09Z</time>
      </trkpt>
      <trkpt lat="42.93433" lon="1.93991">
        <ele>620</ele>
        <time>2014-10-11T11:43:12Z</time>
      </trkpt>
      <trkpt lat="42.93431" lon="1.94007">
        <ele>621</ele>
        <time>2014-10-11T11:43:15Z</time>
      </trkpt>
      <trkpt lat="42.93429" lon="1.94017">
        <ele>621</ele>
        <time>2014-10-11T11:43:17Z</time>
      </trkpt>
      <trkpt lat="42.93427" lon="1.94028">
        <ele>621</ele>
        <time>2014-10-11T11:43:19Z</time>
      </trkpt>
      <trkpt lat="42.93425" lon="1.94038">
        <ele>622</ele>
        <time>2014-10-11T11:43:21Z</time>
      </trkpt>
      <trkpt lat="42.93424" lon="1.94049">
        <ele>622</ele>
        <time>2014-10-11T11:43:23Z</time>
      </trkpt>
      <trkpt lat="42.93422" lon="1.94058">
        <ele>622</ele>
        <time>2014-10-11T11:43:25Z</time>
      </trkpt>
      <trkpt lat="42.9342" lon="1.94066">
        <ele>622</ele>
        <time>2014-10-11T11:43:27Z</time>
      </trkpt>
      <trkpt lat="42.93418" lon="1.94073">
        <ele>622</ele>
        <time>2014-10-11T11:43:29Z</time>
      </trkpt>
      <trkpt lat="42.93416" lon="1.94079">
        <ele>622</ele>
        <time>2014-10-11T11:43:31Z</time>
      </trkpt>
      <trkpt lat="42.93414" lon="1.94084">
        <ele>622</ele>
        <time>2014-10-11T11:43:33Z</time>
      </trkpt>
      <trkpt lat="42.93412" lon="1.94088">
        <ele>622</ele>
        <time>2014-10-11T11:43:35Z</time>
      </trkpt>
      <trkpt lat="42.9341" lon="1.94091">
        <ele>622</ele>
        <time>2014-10-11T11:43:37Z</time>
      </trkpt>
      <trkpt lat="42.93406" lon="1.94095">
        <ele>622</ele>
        <time>2014-10-11T11:43:40Z</time>
      </trkpt>
      <trkpt lat="42.93402" lon="1.94098">
        <ele>622</ele>
        <time>2014-10-11T11:43:43Z</time>
      </trkpt>
      <trkpt lat="42.93396" lon="1.94102">
        <ele>623</ele>
        <time>2014-10-11T11:43:45Z</time>
      </trkpt>
      <trkpt lat="42.93388" lon="1.94107">
        <ele>623</ele>
        <time>2014-10-11T11:43:47Z</time>
      </trkpt>
      <trkpt lat="42.93374" lon="1.94117">
        <ele>624</ele>
        <time>2014-10-11T11:43:50Z</time>
      </trkpt>
      <trkpt lat="42.93359" lon="1.94125">
        <ele>625</ele>
        <time>2014-10-11T11:43:53Z</time>
      </trkpt>
      <trkpt lat="42.93351" lon="1.94131">
        <ele>625</ele>
        <time>2014-10-11T11:43:55Z</time>
      </trkpt>
      <trkpt lat="42.93342" lon="1.94137">
        <ele>625</ele>
        <time>2014-10-11T11:43:57Z</time>
      </trkpt>
      <trkpt lat="42.93331" lon="1.94143">
        <ele>626</ele>
        <time>2014-10-11T11:44:00Z</time>
      </trkpt>
      <trkpt lat="42.93324" lon="1.94146">
        <ele>627</ele>
        <time>2014-10-11T11:44:02Z</time>
      </trkpt>
      <trkpt lat="42.93317" lon="1.94151">
        <ele>627</ele>
        <time>2014-10-11T11:44:04Z</time>
      </trkpt>
      <trkpt lat="42.93309" lon="1.94162">
        <ele>627</ele>
        <time>2014-10-11T11:44:07Z</time>
      </trkpt>
      <trkpt lat="42.93305" lon="1.94176">
        <ele>626</ele>
        <time>2014-10-11T11:44:10Z</time>
      </trkpt>
      <trkpt lat="42.93309" lon="1.94192">
        <ele>626</ele>
        <time>2014-10-11T11:44:13Z</time>
      </trkpt>
      <trkpt lat="42.93313" lon="1.94204">
        <ele>626</ele>
        <time>2014-10-11T11:44:15Z</time>
      </trkpt>
      <trkpt lat="42.93319" lon="1.94216">
        <ele>626</ele>
        <time>2014-10-11T11:44:17Z</time>
      </trkpt>
      <trkpt lat="42.93329" lon="1.94235">
        <ele>625</ele>
        <time>2014-10-11T11:44:20Z</time>
      </trkpt>
      <trkpt lat="42.93338" lon="1.94254">
        <ele>624</ele>
        <time>2014-10-11T11:44:23Z</time>
      </trkpt>
      <trkpt lat="42.93344" lon="1.94266">
        <ele>624</ele>
        <time>2014-10-11T11:44:25Z</time>
      </trkpt>
      <trkpt lat="42.93354" lon="1.94285">
        <ele>623</ele>
        <time>2014-10-11T11:44:28Z</time>
      </trkpt>
      <trkpt lat="42.9336" lon="1.94298">
        <ele>624</ele>
        <time>2014-10-11T11:44:30Z</time>
      </trkpt>
      <trkpt lat="42.93369" lon="1.94317">
        <ele>624</ele>
        <time>2014-10-11T11:44:33Z</time>
      </trkpt>
      <trkpt lat="42.93375" lon="1.9433">
        <ele>623</ele>
        <time>2014-10-11T11:44:35Z</time>
      </trkpt>
      <trkpt lat="42.93387" lon="1.94348">
        <ele>623</ele>
        <time>2014-10-11T11:44:38Z</time>
      </trkpt>
      <trkpt lat="42.93396" lon="1.94357">
        <ele>623</ele>
        <time>2014-10-11T11:44:40Z</time>
      </trkpt>
      <trkpt lat="42.93407" lon="1.94365">
        <ele>622</ele>
        <time>2014-10-11T11:44:42Z</time>
      </trkpt>
      <trkpt lat="42.93422" lon="1.94377">
        <ele>622</ele>
        <time>2014-10-11T11:44:45Z</time>
      </trkpt>
      <trkpt lat="42.93434" lon="1.94396">
        <ele>622</ele>
        <time>2014-10-11T11:44:48Z</time>
      </trkpt>
      <trkpt lat="42.93438" lon="1.94412">
        <ele>621</ele>
        <time>2014-10-11T11:44:50Z</time>
      </trkpt>
      <trkpt lat="42.93438" lon="1.94438">
        <ele>621</ele>
        <time>2014-10-11T11:44:53Z</time>
      </trkpt>
      <trkpt lat="42.93431" lon="1.94462">
        <ele>621</ele>
        <time>2014-10-11T11:44:56Z</time>
      </trkpt>
      <trkpt lat="42.93424" lon="1.94485">
        <ele>621</ele>
        <time>2014-10-11T11:44:59Z</time>
      </trkpt>
      <trkpt lat="42.93421" lon="1.945">
        <ele>621</ele>
        <time>2014-10-11T11:45:01Z</time>
      </trkpt>
      <trkpt lat="42.93419" lon="1.94516">
        <ele>622</ele>
        <time>2014-10-11T11:45:03Z</time>
      </trkpt>
      <trkpt lat="42.93417" lon="1.94531">
        <ele>621</ele>
        <time>2014-10-11T11:45:05Z</time>
      </trkpt>
      <trkpt lat="42.93413" lon="1.94555">
        <ele>620</ele>
        <time>2014-10-11T11:45:08Z</time>
      </trkpt>
      <trkpt lat="42.93409" lon="1.9457">
        <ele>619</ele>
        <time>2014-10-11T11:45:10Z</time>
      </trkpt>
      <trkpt lat="42.93403" lon="1.94584">
        <ele>619</ele>
        <time>2014-10-11T11:45:12Z</time>
      </trkpt>
      <trkpt lat="42.93395" lon="1.94604">
        <ele>619</ele>
        <time>2014-10-11T11:45:15Z</time>
      </trkpt>
      <trkpt lat="42.93391" lon="1.94625">
        <ele>619</ele>
        <time>2014-10-11T11:45:18Z</time>
      </trkpt>
      <trkpt lat="42.9339" lon="1.94648">
        <ele>618</ele>
        <time>2014-10-11T11:45:21Z</time>
      </trkpt>
      <trkpt lat="42.93391" lon="1.94671">
        <ele>618</ele>
        <time>2014-10-11T11:45:24Z</time>
      </trkpt>
      <trkpt lat="42.93394" lon="1.94694">
        <ele>618</ele>
        <time>2014-10-11T11:45:27Z</time>
      </trkpt>
      <trkpt lat="42.93398" lon="1.94708">
        <ele>617</ele>
        <time>2014-10-11T11:45:29Z</time>
      </trkpt>
      <trkpt lat="42.93404" lon="1.94731">
        <ele>617</ele>
        <time>2014-10-11T11:45:32Z</time>
      </trkpt>
      <trkpt lat="42.93405" lon="1.94757">
        <ele>616</ele>
        <time>2014-10-11T11:45:35Z</time>
      </trkpt>
      <trkpt lat="42.93405" lon="1.94774">
        <ele>616</ele>
        <time>2014-10-11T11:45:37Z</time>
      </trkpt>
      <trkpt lat="42.93407" lon="1.9479">
        <ele>616</ele>
        <time>2014-10-11T11:45:39Z</time>
      </trkpt>
      <trkpt lat="42.9341" lon="1.94816">
        <ele>616</ele>
        <time>2014-10-11T11:45:42Z</time>
      </trkpt>
      <trkpt lat="42.93409" lon="1.94839">
        <ele>615</ele>
        <time>2014-10-11T11:45:45Z</time>
      </trkpt>
      <trkpt lat="42.93406" lon="1.94852">
        <ele>616</ele>
        <time>2014-10-11T11:45:47Z</time>
      </trkpt>
      <trkpt lat="42.93401" lon="1.94865">
        <ele>616</ele>
        <time>2014-10-11T11:45:49Z</time>
      </trkpt>
      <trkpt lat="42.93396" lon="1.94877">
        <ele>616</ele>
        <time>2014-10-11T11:45:51Z</time>
      </trkpt>
      <trkpt lat="42.93388" lon="1.94897">
        <ele>616</ele>
        <time>2014-10-11T11:45:54Z</time>
      </trkpt>
      <trkpt lat="42.9338" lon="1.9492">
        <ele>615</ele>
        <time>2014-10-11T11:45:57Z</time>
      </trkpt>
      <trkpt lat="42.93375" lon="1.94944">
        <ele>615</ele>
        <time>2014-10-11T11:46:00Z</time>
      </trkpt>
      <trkpt lat="42.93371" lon="1.9496">
        <ele>614</ele>
        <time>2014-10-11T11:46:02Z</time>
      </trkpt>
      <trkpt lat="42.93367" lon="1.94975">
        <ele>614</ele>
        <time>2014-10-11T11:46:04Z</time>
      </trkpt>
      <trkpt lat="42.9336" lon="1.94998">
        <ele>613</ele>
        <time>2014-10-11T11:46:07Z</time>
      </trkpt>
      <trkpt lat="42.93354" lon="1.9502">
        <ele>613</ele>
        <time>2014-10-11T11:46:10Z</time>
      </trkpt>
      <trkpt lat="42.93349" lon="1.95042">
        <ele>613</ele>
        <time>2014-10-11T11:46:13Z</time>
      </trkpt>
      <trkpt lat="42.93346" lon="1.95058">
        <ele>613</ele>
        <time>2014-10-11T11:46:15Z</time>
      </trkpt>
      <trkpt lat="42.93341" lon="1.9508">
        <ele>613</ele>
        <time>2014-10-11T11:46:18Z</time>
      </trkpt>
      <trkpt lat="42.93336" lon="1.95103">
        <ele>614</ele>
        <time>2014-10-11T11:46:21Z</time>
      </trkpt>
      <trkpt lat="42.93331" lon="1.95117">
        <ele>614</ele>
        <time>2014-10-11T11:46:23Z</time>
      </trkpt>
      <trkpt lat="42.93324" lon="1.95135">
        <ele>614</ele>
        <time>2014-10-11T11:46:26Z</time>
      </trkpt>
      <trkpt lat="42.93318" lon="1.95151">
        <ele>615</ele>
        <time>2014-10-11T11:46:29Z</time>
      </trkpt>
      <trkpt lat="42.93314" lon="1.95162">
        <ele>615</ele>
        <time>2014-10-11T11:46:31Z</time>
      </trkpt>
      <trkpt lat="42.93308" lon="1.95181">
        <ele>615</ele>
        <time>2014-10-11T11:46:34Z</time>
      </trkpt>
      <trkpt lat="42.93304" lon="1.95204">
        <ele>615</ele>
        <time>2014-10-11T11:46:37Z</time>
      </trkpt>
      <trkpt lat="42.93297" lon="1.95228">
        <ele>614</ele>
        <time>2014-10-11T11:46:40Z</time>
      </trkpt>
      <trkpt lat="42.93284" lon="1.95246">
        <ele>614</ele>
        <time>2014-10-11T11:46:43Z</time>
      </trkpt>
      <trkpt lat="42.93273" lon="1.95255">
        <ele>613</ele>
        <time>2014-10-11T11:46:45Z</time>
      </trkpt>
      <trkpt lat="42.93262" lon="1.95265">
        <ele>612</ele>
        <time>2014-10-11T11:46:47Z</time>
      </trkpt>
      <trkpt lat="42.93244" lon="1.95278">
        <ele>612</ele>
        <time>2014-10-11T11:46:50Z</time>
      </trkpt>
      <trkpt lat="42.93227" lon="1.95292">
        <ele>611</ele>
        <time>2014-10-11T11:46:53Z</time>
      </trkpt>
      <trkpt lat="42.93214" lon="1.953">
        <ele>611</ele>
        <time>2014-10-11T11:46:55Z</time>
      </trkpt>
      <trkpt lat="42.93192" lon="1.95314">
        <ele>610</ele>
        <time>2014-10-11T11:46:58Z</time>
      </trkpt>
      <trkpt lat="42.9317" lon="1.9533">
        <ele>609</ele>
        <time>2014-10-11T11:47:01Z</time>
      </trkpt>
      <trkpt lat="42.93158" lon="1.95345">
        <ele>608</ele>
        <time>2014-10-11T11:47:03Z</time>
      </trkpt>
      <trkpt lat="42.93144" lon="1.9537">
        <ele>607</ele>
        <time>2014-10-11T11:47:06Z</time>
      </trkpt>
      <trkpt lat="42.9314" lon="1.95387">
        <ele>606</ele>
        <time>2014-10-11T11:47:08Z</time>
      </trkpt>
      <trkpt lat="42.93137" lon="1.95408">
        <ele>606</ele>
        <time>2014-10-11T11:47:10Z</time>
      </trkpt>
      <trkpt lat="42.93132" lon="1.9543">
        <ele>605</ele>
        <time>2014-10-11T11:47:12Z</time>
      </trkpt>
      <trkpt lat="42.93125" lon="1.95463">
        <ele>604</ele>
        <time>2014-10-11T11:47:15Z</time>
      </trkpt>
      <trkpt lat="42.93121" lon="1.95486">
        <ele>603</ele>
        <time>2014-10-11T11:47:17Z</time>
      </trkpt>
      <trkpt lat="42.93115" lon="1.95519">
        <ele>602</ele>
        <time>2014-10-11T11:47:20Z</time>
      </trkpt>
      <trkpt lat="42.93111" lon="1.9554">
        <ele>601</ele>
        <time>2014-10-11T11:47:22Z</time>
      </trkpt>
      <trkpt lat="42.93102" lon="1.9557">
        <ele>601</ele>
        <time>2014-10-11T11:47:25Z</time>
      </trkpt>
      <trkpt lat="42.93095" lon="1.95587">
        <ele>600</ele>
        <time>2014-10-11T11:47:27Z</time>
      </trkpt>
      <trkpt lat="42.93082" lon="1.95607">
        <ele>600</ele>
        <time>2014-10-11T11:47:30Z</time>
      </trkpt>
      <trkpt lat="42.93073" lon="1.95618">
        <ele>601</ele>
        <time>2014-10-11T11:47:32Z</time>
      </trkpt>
      <trkpt lat="42.9306" lon="1.95634">
        <ele>601</ele>
        <time>2014-10-11T11:47:35Z</time>
      </trkpt>
      <trkpt lat="42.93047" lon="1.9565">
        <ele>602</ele>
        <time>2014-10-11T11:47:38Z</time>
      </trkpt>
      <trkpt lat="42.93038" lon="1.95667">
        <ele>603</ele>
        <time>2014-10-11T11:47:41Z</time>
      </trkpt>
      <trkpt lat="42.93031" lon="1.95682">
        <ele>603</ele>
        <time>2014-10-11T11:47:44Z</time>
      </trkpt>
      <trkpt lat="42.93028" lon="1.95692">
        <ele>604</ele>
        <time>2014-10-11T11:47:46Z</time>
      </trkpt>
      <trkpt lat="42.93024" lon="1.95703">
        <ele>604</ele>
        <time>2014-10-11T11:47:49Z</time>
      </trkpt>
      <trkpt lat="42.93021" lon="1.95711">
        <ele>604</ele>
        <time>2014-10-11T11:47:51Z</time>
      </trkpt>
      <trkpt lat="42.93019" lon="1.95719">
        <ele>604</ele>
        <time>2014-10-11T11:47:53Z</time>
      </trkpt>
      <trkpt lat="42.93016" lon="1.95729">
        <ele>604</ele>
        <time>2014-10-11T11:47:55Z</time>
      </trkpt>
      <trkpt lat="42.93011" lon="1.95748">
        <ele>604</ele>
        <time>2014-10-11T11:47:58Z</time>
      </trkpt>
      <trkpt lat="42.93006" lon="1.95763">
        <ele>603</ele>
        <time>2014-10-11T11:48:00Z</time>
      </trkpt>
      <trkpt lat="42.93" lon="1.95782">
        <ele>602</ele>
        <time>2014-10-11T11:48:02Z</time>
      </trkpt>
      <trkpt lat="42.92992" lon="1.958">
        <ele>601</ele>
        <time>2014-10-11T11:48:04Z</time>
      </trkpt>
      <trkpt lat="42.92983" lon="1.95819">
        <ele>600</ele>
        <time>2014-10-11T11:48:06Z</time>
      </trkpt>
      <trkpt lat="42.92972" lon="1.9585">
        <ele>599</ele>
        <time>2014-10-11T11:48:09Z</time>
      </trkpt>
      <trkpt lat="42.92965" lon="1.95869">
        <ele>598</ele>
        <time>2014-10-11T11:48:11Z</time>
      </trkpt>
      <trkpt lat="42.92958" lon="1.95887">
        <ele>597</ele>
        <time>2014-10-11T11:48:13Z</time>
      </trkpt>
      <trkpt lat="42.92951" lon="1.95903">
        <ele>597</ele>
        <time>2014-10-11T11:48:15Z</time>
      </trkpt>
      <trkpt lat="42.9294" lon="1.95931">
        <ele>596</ele>
        <time>2014-10-11T11:48:18Z</time>
      </trkpt>
      <trkpt lat="42.92932" lon="1.9595">
        <ele>595</ele>
        <time>2014-10-11T11:48:20Z</time>
      </trkpt>
      <trkpt lat="42.92921" lon="1.95979">
        <ele>594</ele>
        <time>2014-10-11T11:48:23Z</time>
      </trkpt>
      <trkpt lat="42.92913" lon="1.95997">
        <ele>594</ele>
        <time>2014-10-11T11:48:25Z</time>
      </trkpt>
      <trkpt lat="42.92907" lon="1.96013">
        <ele>593</ele>
        <time>2014-10-11T11:48:27Z</time>
      </trkpt>
      <trkpt lat="42.92898" lon="1.96034">
        <ele>593</ele>
        <time>2014-10-11T11:48:30Z</time>
      </trkpt>
      <trkpt lat="42.92892" lon="1.96054">
        <ele>594</ele>
        <time>2014-10-11T11:48:33Z</time>
      </trkpt>
      <trkpt lat="42.92888" lon="1.96073">
        <ele>594</ele>
        <time>2014-10-11T11:48:36Z</time>
      </trkpt>
      <trkpt lat="42.92886" lon="1.96086">
        <ele>595</ele>
        <time>2014-10-11T11:48:38Z</time>
      </trkpt>
      <trkpt lat="42.92885" lon="1.96097">
        <ele>595</ele>
        <time>2014-10-11T11:48:40Z</time>
      </trkpt>
      <trkpt lat="42.92883" lon="1.96108">
        <ele>596</ele>
        <time>2014-10-11T11:48:42Z</time>
      </trkpt>
      <trkpt lat="42.92882" lon="1.96119">
        <ele>596</ele>
        <time>2014-10-11T11:48:44Z</time>
      </trkpt>
      <trkpt lat="42.9288" lon="1.96133">
        <ele>597</ele>
        <time>2014-10-11T11:48:46Z</time>
      </trkpt>
      <trkpt lat="42.92877" lon="1.96145">
        <ele>597</ele>
        <time>2014-10-11T11:48:48Z</time>
      </trkpt>
      <trkpt lat="42.92872" lon="1.96163">
        <ele>598</ele>
        <time>2014-10-11T11:48:51Z</time>
      </trkpt>
      <trkpt lat="42.92868" lon="1.96175">
        <ele>598</ele>
        <time>2014-10-11T11:48:53Z</time>
      </trkpt>
      <trkpt lat="42.92862" lon="1.96193">
        <ele>599</ele>
        <time>2014-10-11T11:48:56Z</time>
      </trkpt>
      <trkpt lat="42.92859" lon="1.96205">
        <ele>599</ele>
        <time>2014-10-11T11:48:58Z</time>
      </trkpt>
      <trkpt lat="42.92855" lon="1.96217">
        <ele>599</ele>
        <time>2014-10-11T11:49:00Z</time>
      </trkpt>
      <trkpt lat="42.9285" lon="1.96235">
        <ele>600</ele>
        <time>2014-10-11T11:49:03Z</time>
      </trkpt>
      <trkpt lat="42.92844" lon="1.96252">
        <ele>600</ele>
        <time>2014-10-11T11:49:06Z</time>
      </trkpt>
      <trkpt lat="42.92839" lon="1.96264">
        <ele>601</ele>
        <time>2014-10-11T11:49:08Z</time>
      </trkpt>
      <trkpt lat="42.92832" lon="1.9628">
        <ele>601</ele>
        <time>2014-10-11T11:49:11Z</time>
      </trkpt>
      <trkpt lat="42.92823" lon="1.96293">
        <ele>602</ele>
        <time>2014-10-11T11:49:14Z</time>
      </trkpt>
      <trkpt lat="42.92817" lon="1.963">
        <ele>602</ele>
        <time>2014-10-11T11:49:16Z</time>
      </trkpt>
      <trkpt lat="42.92808" lon="1.96303">
        <ele>603</ele>
        <time>2014-10-11T11:49:19Z</time>
      </trkpt>
      <trkpt lat="42.92801" lon="1.96301">
        <ele>605</ele>
        <time>2014-10-11T11:49:22Z</time>
      </trkpt>
      <trkpt lat="42.92794" lon="1.963">
        <ele>605</ele>
        <time>2014-10-11T11:49:25Z</time>
      </trkpt>
      <trkpt lat="42.92791" lon="1.96302">
        <ele>606</ele>
        <time>2014-10-11T11:49:27Z</time>
      </trkpt>
      <trkpt lat="42.92789" lon="1.96303">
        <ele>606</ele>
        <time>2014-10-11T11:49:29Z</time>
      </trkpt>
      <trkpt lat="42.92786" lon="1.96304">
        <ele>605</ele>
        <time>2014-10-11T11:49:31Z</time>
      </trkpt>
      <trkpt lat="42.92784" lon="1.96305">
        <ele>605</ele>
        <time>2014-10-11T11:49:33Z</time>
      </trkpt>
      <trkpt lat="42.92782" lon="1.96309">
        <ele>605</ele>
        <time>2014-10-11T11:49:36Z</time>
      </trkpt>
      <trkpt lat="42.92782" lon="1.96311">
        <ele>605</ele>
        <time>2014-10-11T11:49:38Z</time>
      </trkpt>
      <trkpt lat="42.92781" lon="1.96311">
        <ele>605</ele>
        <time>2014-10-11T11:49:40Z</time>
      </trkpt>
      <trkpt lat="42.92779" lon="1.96313">
        <ele>604</ele>
        <time>2014-10-11T11:49:43Z</time>
      </trkpt>
      <trkpt lat="42.92776" lon="1.96314">
        <ele>604</ele>
        <time>2014-10-11T11:49:45Z</time>
      </trkpt>
      <trkpt lat="42.92768" lon="1.96312">
        <ele>604</ele>
        <time>2014-10-11T11:49:48Z</time>
      </trkpt>
      <trkpt lat="42.92757" lon="1.96304">
        <ele>604</ele>
        <time>2014-10-11T11:49:51Z</time>
      </trkpt>
      <trkpt lat="42.92742" lon="1.96292">
        <ele>602</ele>
        <time>2014-10-11T11:49:54Z</time>
      </trkpt>
      <trkpt lat="42.9273" lon="1.96293">
        <ele>601</ele>
        <time>2014-10-11T11:49:56Z</time>
      </trkpt>
      <trkpt lat="42.92719" lon="1.96305">
        <ele>600</ele>
        <time>2014-10-11T11:49:58Z</time>
      </trkpt>
      <trkpt lat="42.92699" lon="1.963">
        <ele>598</ele>
        <time>2014-10-11T11:50:01Z</time>
      </trkpt>
      <trkpt lat="42.92683" lon="1.96275">
        <ele>596</ele>
        <time>2014-10-11T11:50:04Z</time>
      </trkpt>
      <trkpt lat="42.92672" lon="1.96258">
        <ele>594</ele>
        <time>2014-10-11T11:50:06Z</time>
      </trkpt>
      <trkpt lat="42.92659" lon="1.96239">
        <ele>593</ele>
        <time>2014-10-11T11:50:08Z</time>
      </trkpt>
      <trkpt lat="42.92644" lon="1.96201">
        <ele>591</ele>
        <time>2014-10-11T11:50:11Z</time>
      </trkpt>
      <trkpt lat="42.92633" lon="1.96179">
        <ele>589</ele>
        <time>2014-10-11T11:50:13Z</time>
      </trkpt>
      <trkpt lat="42.92621" lon="1.96161">
        <ele>587</ele>
        <time>2014-10-11T11:50:15Z</time>
      </trkpt>
      <trkpt lat="42.92609" lon="1.96146">
        <ele>585</ele>
        <time>2014-10-11T11:50:17Z</time>
      </trkpt>
      <trkpt lat="42.92599" lon="1.96129">
        <ele>583</ele>
        <time>2014-10-11T11:50:19Z</time>
      </trkpt>
      <trkpt lat="42.92583" lon="1.96097">
        <ele>581</ele>
        <time>2014-10-11T11:50:22Z</time>
      </trkpt>
      <trkpt lat="42.92571" lon="1.96074">
        <ele>580</ele>
        <time>2014-10-11T11:50:24Z</time>
      </trkpt>
      <trkpt lat="42.92554" lon="1.96042">
        <ele>577</ele>
        <time>2014-10-11T11:50:27Z</time>
      </trkpt>
      <trkpt lat="42.92537" lon="1.96003">
        <ele>573</ele>
        <time>2014-10-11T11:50:30Z</time>
      </trkpt>
      <trkpt lat="42.9251" lon="1.95965">
        <ele>571</ele>
        <time>2014-10-11T11:50:33Z</time>
      </trkpt>
      <trkpt lat="42.92492" lon="1.95939">
        <ele>568</ele>
        <time>2014-10-11T11:50:35Z</time>
      </trkpt>
      <trkpt lat="42.92463" lon="1.95901">
        <ele>564</ele>
        <time>2014-10-11T11:50:38Z</time>
      </trkpt>
      <trkpt lat="42.92432" lon="1.95864">
        <ele>560</ele>
        <time>2014-10-11T11:50:41Z</time>
      </trkpt>
      <trkpt lat="42.92401" lon="1.95835">
        <ele>558</ele>
        <time>2014-10-11T11:50:44Z</time>
      </trkpt>
      <trkpt lat="42.92367" lon="1.95812">
        <ele>554</ele>
        <time>2014-10-11T11:50:47Z</time>
      </trkpt>
      <trkpt lat="42.92338" lon="1.9579">
        <ele>550</ele>
        <time>2014-10-11T11:50:50Z</time>
      </trkpt>
      <trkpt lat="42.92323" lon="1.95764">
        <ele>549</ele>
        <time>2014-10-11T11:50:52Z</time>
      </trkpt>
      <trkpt lat="42.92304" lon="1.95746">
        <ele>546</ele>
        <time>2014-10-11T11:50:54Z</time>
      </trkpt>
      <trkpt lat="42.92276" lon="1.95732">
        <ele>542</ele>
        <time>2014-10-11T11:50:57Z</time>
      </trkpt>
      <trkpt lat="42.92242" lon="1.95728">
        <ele>539</ele>
        <time>2014-10-11T11:51:00Z</time>
      </trkpt>
      <trkpt lat="42.92218" lon="1.95729">
        <ele>537</ele>
        <time>2014-10-11T11:51:02Z</time>
      </trkpt>
      <trkpt lat="42.92197" lon="1.95729">
        <ele>534</ele>
        <time>2014-10-11T11:51:04Z</time>
      </trkpt>
      <trkpt lat="42.92177" lon="1.95726">
        <ele>532</ele>
        <time>2014-10-11T11:51:06Z</time>
      </trkpt>
      <trkpt lat="42.92163" lon="1.95708">
        <ele>529</ele>
        <time>2014-10-11T11:51:08Z</time>
      </trkpt>
      <trkpt lat="42.92145" lon="1.95693">
        <ele>527</ele>
        <time>2014-10-11T11:51:10Z</time>
      </trkpt>
      <trkpt lat="42.9212" lon="1.9567">
        <ele>524</ele>
        <time>2014-10-11T11:51:13Z</time>
      </trkpt>
      <trkpt lat="42.92105" lon="1.95643">
        <ele>522</ele>
        <time>2014-10-11T11:51:15Z</time>
      </trkpt>
      <trkpt lat="42.92081" lon="1.95611">
        <ele>520</ele>
        <time>2014-10-11T11:51:18Z</time>
      </trkpt>
      <trkpt lat="42.92072" lon="1.95575">
        <ele>517</ele>
        <time>2014-10-11T11:51:21Z</time>
      </trkpt>
      <trkpt lat="42.92071" lon="1.95535">
        <ele>515</ele>
        <time>2014-10-11T11:51:24Z</time>
      </trkpt>
      <trkpt lat="42.92071" lon="1.95508">
        <ele>514</ele>
        <time>2014-10-11T11:51:26Z</time>
      </trkpt>
      <trkpt lat="42.92073" lon="1.9548">
        <ele>513</ele>
        <time>2014-10-11T11:51:28Z</time>
      </trkpt>
      <trkpt lat="42.92075" lon="1.95451">
        <ele>512</ele>
        <time>2014-10-11T11:51:30Z</time>
      </trkpt>
      <trkpt lat="42.92082" lon="1.95413">
        <ele>509</ele>
        <time>2014-10-11T11:51:33Z</time>
      </trkpt>
      <trkpt lat="42.92081" lon="1.95399">
        <ele>508</ele>
        <time>2014-10-11T11:51:35Z</time>
      </trkpt>
      <trkpt lat="42.9208" lon="1.95386">
        <ele>506</ele>
        <time>2014-10-11T11:51:38Z</time>
      </trkpt>
      <trkpt lat="42.92082" lon="1.95375">
        <ele>505</ele>
        <time>2014-10-11T11:51:41Z</time>
      </trkpt>
      <trkpt lat="42.92081" lon="1.95372">
        <ele>505</ele>
        <time>2014-10-11T11:51:43Z</time>
      </trkpt>
      <trkpt lat="42.9208" lon="1.9537">
        <ele>505</ele>
        <time>2014-10-11T11:51:45Z</time>
      </trkpt>
      <trkpt lat="42.92065" lon="1.95359">
        <ele>505</ele>
        <time>2014-10-11T11:51:47Z</time>
      </trkpt>
      <trkpt lat="42.92065" lon="1.95358">
        <ele>505</ele>
        <time>2014-10-11T11:51:49Z</time>
      </trkpt>
      <trkpt lat="42.92066" lon="1.95358">
        <ele>505</ele>
        <time>2014-10-11T11:51:51Z</time>
      </trkpt>
      <trkpt lat="42.92065" lon="1.95355">
        <ele>505</ele>
        <time>2014-10-11T11:51:53Z</time>
      </trkpt>
      <trkpt lat="42.92063" lon="1.95359">
        <ele>505</ele>
        <time>2014-10-11T11:51:56Z</time>
      </trkpt>
      <trkpt lat="42.92063" lon="1.95368">
        <ele>505</ele>
        <time>2014-10-11T11:51:59Z</time>
      </trkpt>
      <trkpt lat="42.92062" lon="1.95374">
        <ele>505</ele>
        <time>2014-10-11T11:52:01Z</time>
      </trkpt>
      <trkpt lat="42.9206" lon="1.95381">
        <ele>505</ele>
        <time>2014-10-11T11:52:03Z</time>
      </trkpt>
      <trkpt lat="42.92056" lon="1.9539">
        <ele>506</ele>
        <time>2014-10-11T11:52:06Z</time>
      </trkpt>
      <trkpt lat="42.92051" lon="1.95397">
        <ele>506</ele>
        <time>2014-10-11T11:52:08Z</time>
      </trkpt>
      <trkpt lat="42.92048" lon="1.95411">
        <ele>505</ele>
        <time>2014-10-11T11:52:11Z</time>
      </trkpt>
      <trkpt lat="42.92046" lon="1.9542">
        <ele>505</ele>
        <time>2014-10-11T11:52:13Z</time>
      </trkpt>
      <trkpt lat="42.92044" lon="1.95429">
        <ele>505</ele>
        <time>2014-10-11T11:52:15Z</time>
      </trkpt>
      <trkpt lat="42.92041" lon="1.95437">
        <ele>505</ele>
        <time>2014-10-11T11:52:17Z</time>
      </trkpt>
      <trkpt lat="42.92036" lon="1.95446">
        <ele>505</ele>
        <time>2014-10-11T11:52:20Z</time>
      </trkpt>
      <trkpt lat="42.92033" lon="1.95451">
        <ele>505</ele>
        <time>2014-10-11T11:52:22Z</time>
      </trkpt>
      <trkpt lat="42.9203" lon="1.95457">
        <ele>505</ele>
        <time>2014-10-11T11:52:24Z</time>
      </trkpt>
      <trkpt lat="42.92023" lon="1.9547">
        <ele>504</ele>
        <time>2014-10-11T11:52:27Z</time>
      </trkpt>
      <trkpt lat="42.92014" lon="1.95485">
        <ele>504</ele>
        <time>2014-10-11T11:52:30Z</time>
      </trkpt>
      <trkpt lat="42.92008" lon="1.95495">
        <ele>503</ele>
        <time>2014-10-11T11:52:33Z</time>
      </trkpt>
      <trkpt lat="42.92" lon="1.95511">
        <ele>503</ele>
        <time>2014-10-11T11:52:35Z</time>
      </trkpt>
      <trkpt lat="42.91996" lon="1.95528">
        <ele>503</ele>
        <time>2014-10-11T11:52:38Z</time>
      </trkpt>
      <trkpt lat="42.91994" lon="1.95536">
        <ele>502</ele>
        <time>2014-10-11T11:52:40Z</time>
      </trkpt>
      <trkpt lat="42.91992" lon="1.95545">
        <ele>502</ele>
        <time>2014-10-11T11:52:42Z</time>
      </trkpt>
      <trkpt lat="42.91991" lon="1.95552">
        <ele>502</ele>
        <time>2014-10-11T11:52:45Z</time>
      </trkpt>
      <trkpt lat="42.91987" lon="1.95563">
        <ele>502</ele>
        <time>2014-10-11T11:52:47Z</time>
      </trkpt>
      <trkpt lat="42.91985" lon="1.95572">
        <ele>502</ele>
        <time>2014-10-11T11:52:49Z</time>
      </trkpt>
      <trkpt lat="42.9198" lon="1.95586">
        <ele>501</ele>
        <time>2014-10-11T11:52:52Z</time>
      </trkpt>
      <trkpt lat="42.91978" lon="1.95592">
        <ele>501</ele>
        <time>2014-10-11T11:52:54Z</time>
      </trkpt>
      <trkpt lat="42.91976" lon="1.95597">
        <ele>500</ele>
        <time>2014-10-11T11:52:57Z</time>
      </trkpt>
      <trkpt lat="42.91974" lon="1.956">
        <ele>499</ele>
        <time>2014-10-11T11:52:59Z</time>
      </trkpt>
      <trkpt lat="42.91972" lon="1.95603">
        <ele>498</ele>
        <time>2014-10-11T11:53:02Z</time>
      </trkpt>
      <trkpt lat="42.9197" lon="1.95606">
        <ele>498</ele>
        <time>2014-10-11T11:53:05Z</time>
      </trkpt>
      <trkpt lat="42.91969" lon="1.95611">
        <ele>499</ele>
        <time>2014-10-11T11:53:08Z</time>
      </trkpt>
      <trkpt lat="42.91969" lon="1.95613">
        <ele>499</ele>
        <time>2014-10-11T11:53:11Z</time>
      </trkpt>
      <trkpt lat="42.91969" lon="1.95615">
        <ele>499</ele>
        <time>2014-10-11T11:53:13Z</time>
      </trkpt>
      <trkpt lat="42.91969" lon="1.95617">
        <ele>499</ele>
        <time>2014-10-11T11:53:15Z</time>
      </trkpt>
      <trkpt lat="42.9197" lon="1.95621">
        <ele>499</ele>
        <time>2014-10-11T11:53:18Z</time>
      </trkpt>
      <trkpt lat="42.9197" lon="1.95624">
        <ele>499</ele>
        <time>2014-10-11T11:53:20Z</time>
      </trkpt>
      <trkpt lat="42.9197" lon="1.95626">
        <ele>499</ele>
        <time>2014-10-11T11:53:23Z</time>
      </trkpt>
      <trkpt lat="42.91969" lon="1.9563">
        <ele>499</ele>
        <time>2014-10-11T11:53:25Z</time>
      </trkpt>
      <trkpt lat="42.91969" lon="1.95631">
        <ele>499</ele>
        <time>2014-10-11T11:53:27Z</time>
      </trkpt>
      <trkpt lat="42.91969" lon="1.95632">
        <ele>499</ele>
        <time>2014-10-11T11:53:30Z</time>
      </trkpt>
      <trkpt lat="42.91969" lon="1.95633">
        <ele>499</ele>
        <time>2014-10-11T11:53:32Z</time>
      </trkpt>
      <trkpt lat="42.91969" lon="1.95634">
        <ele>499</ele>
        <time>2014-10-11T11:53:34Z</time>
      </trkpt>
      <trkpt lat="42.91968" lon="1.95634">
        <ele>499</ele>
        <time>2014-10-11T11:53:37Z</time>
      </trkpt>
      <trkpt lat="42.91968" lon="1.95635">
        <ele>499</ele>
        <time>2014-10-11T11:53:39Z</time>
      </trkpt>
      <trkpt lat="42.91966" lon="1.95637">
        <ele>499</ele>
        <time>2014-10-11T11:53:42Z</time>
      </trkpt>
      <trkpt lat="42.91964" lon="1.95639">
        <ele>499</ele>
        <time>2014-10-11T11:53:45Z</time>
      </trkpt>
      <trkpt lat="42.91963" lon="1.9564">
        <ele>499</ele>
        <time>2014-10-11T11:53:48Z</time>
      </trkpt>
      <trkpt lat="42.91963" lon="1.9564">
        <ele>499</ele>
        <time>2014-10-11T11:53:50Z</time>
      </trkpt>
      <trkpt lat="42.91962" lon="1.9564">
        <ele>499</ele>
        <time>2014-10-11T11:53:53Z</time>
      </trkpt>
      <trkpt lat="42.91962" lon="1.95641">
        <ele>499</ele>
        <time>2014-10-11T11:53:56Z</time>
      </trkpt>
      <trkpt lat="42.91962" lon="1.95644">
        <ele>499</ele>
        <time>2014-10-11T11:53:59Z</time>
      </trkpt>
      <trkpt lat="42.91961" lon="1.95648">
        <ele>500</ele>
        <time>2014-10-11T11:54:02Z</time>
      </trkpt>
      <trkpt lat="42.9196" lon="1.9565">
        <ele>500</ele>
        <time>2014-10-11T11:54:04Z</time>
      </trkpt>
      <trkpt lat="42.91958" lon="1.95653">
        <ele>500</ele>
        <time>2014-10-11T11:54:06Z</time>
      </trkpt>
      <trkpt lat="42.91956" lon="1.95658">
        <ele>501</ele>
        <time>2014-10-11T11:54:09Z</time>
      </trkpt>
      <trkpt lat="42.91953" lon="1.95661">
        <ele>501</ele>
        <time>2014-10-11T11:54:12Z</time>
      </trkpt>
      <trkpt lat="42.91951" lon="1.95663">
        <ele>502</ele>
        <time>2014-10-11T11:54:14Z</time>
      </trkpt>
      <trkpt lat="42.91948" lon="1.95668">
        <ele>502</ele>
        <time>2014-10-11T11:54:17Z</time>
      </trkpt>
      <trkpt lat="42.91946" lon="1.95672">
        <ele>502</ele>
        <time>2014-10-11T11:54:20Z</time>
      </trkpt>
      <trkpt lat="42.91943" lon="1.95678">
        <ele>502</ele>
        <time>2014-10-11T11:54:22Z</time>
      </trkpt>
      <trkpt lat="42.91941" lon="1.95681">
        <ele>502</ele>
        <time>2014-10-11T11:54:24Z</time>
      </trkpt>
      <trkpt lat="42.91939" lon="1.95685">
        <ele>502</ele>
        <time>2014-10-11T11:54:26Z</time>
      </trkpt>
      <trkpt lat="42.91935" lon="1.95691">
        <ele>502</ele>
        <time>2014-10-11T11:54:29Z</time>
      </trkpt>
      <trkpt lat="42.9193" lon="1.95697">
        <ele>502</ele>
        <time>2014-10-11T11:54:32Z</time>
      </trkpt>
      <trkpt lat="42.91927" lon="1.95701">
        <ele>502</ele>
        <time>2014-10-11T11:54:35Z</time>
      </trkpt>
      <trkpt lat="42.91921" lon="1.95707">
        <ele>502</ele>
        <time>2014-10-11T11:54:37Z</time>
      </trkpt>
      <trkpt lat="42.91917" lon="1.95713">
        <ele>502</ele>
        <time>2014-10-11T11:54:39Z</time>
      </trkpt>
      <trkpt lat="42.91911" lon="1.95721">
        <ele>502</ele>
        <time>2014-10-11T11:54:42Z</time>
      </trkpt>
      <trkpt lat="42.91908" lon="1.95728">
        <ele>502</ele>
        <time>2014-10-11T11:54:44Z</time>
      </trkpt>
      <trkpt lat="42.91903" lon="1.95735">
        <ele>503</ele>
        <time>2014-10-11T11:54:47Z</time>
      </trkpt>
      <trkpt lat="42.91897" lon="1.95743">
        <ele>503</ele>
        <time>2014-10-11T11:54:50Z</time>
      </trkpt>
      <trkpt lat="42.91892" lon="1.95748">
        <ele>504</ele>
        <time>2014-10-11T11:54:52Z</time>
      </trkpt>
      <trkpt lat="42.91887" lon="1.95754">
        <ele>504</ele>
        <time>2014-10-11T11:54:55Z</time>
      </trkpt>
      <trkpt lat="42.91881" lon="1.95761">
        <ele>504</ele>
        <time>2014-10-11T11:54:58Z</time>
      </trkpt>
      <trkpt lat="42.91877" lon="1.95765">
        <ele>505</ele>
        <time>2014-10-11T11:55:00Z</time>
      </trkpt>
      <trkpt lat="42.91872" lon="1.95773">
        <ele>505</ele>
        <time>2014-10-11T11:55:03Z</time>
      </trkpt>
      <trkpt lat="42.91869" lon="1.95778">
        <ele>505</ele>
        <time>2014-10-11T11:55:05Z</time>
      </trkpt>
      <trkpt lat="42.91865" lon="1.95783">
        <ele>505</ele>
        <time>2014-10-11T11:55:07Z</time>
      </trkpt>
      <trkpt lat="42.91861" lon="1.95789">
        <ele>506</ele>
        <time>2014-10-11T11:55:10Z</time>
      </trkpt>
      <trkpt lat="42.91855" lon="1.95796">
        <ele>506</ele>
        <time>2014-10-11T11:55:13Z</time>
      </trkpt>
      <trkpt lat="42.91852" lon="1.95801">
        <ele>506</ele>
        <time>2014-10-11T11:55:15Z</time>
      </trkpt>
      <trkpt lat="42.91847" lon="1.95809">
        <ele>506</ele>
        <time>2014-10-11T11:55:18Z</time>
      </trkpt>
      <trkpt lat="42.91842" lon="1.95819">
        <ele>506</ele>
        <time>2014-10-11T11:55:21Z</time>
      </trkpt>
      <trkpt lat="42.91838" lon="1.95828">
        <ele>506</ele>
        <time>2014-10-11T11:55:23Z</time>
      </trkpt>
      <trkpt lat="42.91835" lon="1.95839">
        <ele>506</ele>
        <time>2014-10-11T11:55:25Z</time>
      </trkpt>
      <trkpt lat="42.9183" lon="1.95855">
        <ele>505</ele>
        <time>2014-10-11T11:55:28Z</time>
      </trkpt>
      <trkpt lat="42.91827" lon="1.95865">
        <ele>505</ele>
        <time>2014-10-11T11:55:30Z</time>
      </trkpt>
      <trkpt lat="42.91823" lon="1.9588">
        <ele>506</ele>
        <time>2014-10-11T11:55:33Z</time>
      </trkpt>
      <trkpt lat="42.91819" lon="1.95888">
        <ele>506</ele>
        <time>2014-10-11T11:55:35Z</time>
      </trkpt>
      <trkpt lat="42.91815" lon="1.95896">
        <ele>506</ele>
        <time>2014-10-11T11:55:37Z</time>
      </trkpt>
      <trkpt lat="42.91809" lon="1.95906">
        <ele>506</ele>
        <time>2014-10-11T11:55:40Z</time>
      </trkpt>
      <trkpt lat="42.91806" lon="1.95911">
        <ele>506</ele>
        <time>2014-10-11T11:55:42Z</time>
      </trkpt>
      <trkpt lat="42.918" lon="1.95923">
        <ele>506</ele>
        <time>2014-10-11T11:55:45Z</time>
      </trkpt>
      <trkpt lat="42.91795" lon="1.95931">
        <ele>505</ele>
        <time>2014-10-11T11:55:47Z</time>
      </trkpt>
      <trkpt lat="42.91788" lon="1.95941">
        <ele>505</ele>
        <time>2014-10-11T11:55:50Z</time>
      </trkpt>
      <trkpt lat="42.91782" lon="1.95947">
        <ele>505</ele>
        <time>2014-10-11T11:55:52Z</time>
      </trkpt>
      <trkpt lat="42.91778" lon="1.95952">
        <ele>505</ele>
        <time>2014-10-11T11:55:54Z</time>
      </trkpt>
      <trkpt lat="42.91774" lon="1.95957">
        <ele>505</ele>
        <time>2014-10-11T11:55:56Z</time>
      </trkpt>
      <trkpt lat="42.91769" lon="1.95964">
        <ele>505</ele>
        <time>2014-10-11T11:55:59Z</time>
      </trkpt>
      <trkpt lat="42.91766" lon="1.95968">
        <ele>506</ele>
        <time>2014-10-11T11:56:01Z</time>
      </trkpt>
      <trkpt lat="42.91763" lon="1.95973">
        <ele>506</ele>
        <time>2014-10-11T11:56:03Z</time>
      </trkpt>
      <trkpt lat="42.9176" lon="1.95977">
        <ele>507</ele>
        <time>2014-10-11T11:56:05Z</time>
      </trkpt>
      <trkpt lat="42.91756" lon="1.95987">
        <ele>507</ele>
        <time>2014-10-11T11:56:08Z</time>
      </trkpt>
      <trkpt lat="42.91753" lon="1.95992">
        <ele>507</ele>
        <time>2014-10-11T11:56:10Z</time>
      </trkpt>
      <trkpt lat="42.9175" lon="1.95999">
        <ele>508</ele>
        <time>2014-10-11T11:56:13Z</time>
      </trkpt>
      <trkpt lat="42.91748" lon="1.96007">
        <ele>509</ele>
        <time>2014-10-11T11:56:16Z</time>
      </trkpt>
      <trkpt lat="42.91744" lon="1.96015">
        <ele>510</ele>
        <time>2014-10-11T11:56:19Z</time>
      </trkpt>
      <trkpt lat="42.91739" lon="1.96022">
        <ele>511</ele>
        <time>2014-10-11T11:56:22Z</time>
      </trkpt>
      <trkpt lat="42.91737" lon="1.96026">
        <ele>511</ele>
        <time>2014-10-11T11:56:24Z</time>
      </trkpt>
      <trkpt lat="42.91734" lon="1.96031">
        <ele>512</ele>
        <time>2014-10-11T11:56:26Z</time>
      </trkpt>
      <trkpt lat="42.91732" lon="1.96036">
        <ele>512</ele>
        <time>2014-10-11T11:56:28Z</time>
      </trkpt>
      <trkpt lat="42.9173" lon="1.96038">
        <ele>512</ele>
        <time>2014-10-11T11:56:30Z</time>
      </trkpt>
      <trkpt lat="42.91731" lon="1.96041">
        <ele>512</ele>
        <time>2014-10-11T11:56:33Z</time>
      </trkpt>
      <trkpt lat="42.91731" lon="1.96044">
        <ele>512</ele>
        <time>2014-10-11T11:56:36Z</time>
      </trkpt>
      <trkpt lat="42.91731" lon="1.96045">
        <ele>512</ele>
        <time>2014-10-11T11:56:38Z</time>
      </trkpt>
      <trkpt lat="42.91731" lon="1.96048">
        <ele>512</ele>
        <time>2014-10-11T11:56:41Z</time>
      </trkpt>
      <trkpt lat="42.91731" lon="1.96051">
        <ele>512</ele>
        <time>2014-10-11T11:56:44Z</time>
      </trkpt>
      <trkpt lat="42.91731" lon="1.96052">
        <ele>512</ele>
        <time>2014-10-11T11:56:47Z</time>
      </trkpt>
      <trkpt lat="42.91731" lon="1.96054">
        <ele>512</ele>
        <time>2014-10-11T11:56:49Z</time>
      </trkpt>
      <trkpt lat="42.9173" lon="1.96055">
        <ele>512</ele>
        <time>2014-10-11T11:56:52Z</time>
      </trkpt>
      <trkpt lat="42.9173" lon="1.96057">
        <ele>512</ele>
        <time>2014-10-11T11:56:55Z</time>
      </trkpt>
      <trkpt lat="42.91729" lon="1.96058">
        <ele>512</ele>
        <time>2014-10-11T11:56:57Z</time>
      </trkpt>
      <trkpt lat="42.91727" lon="1.96063">
        <ele>512</ele>
        <time>2014-10-11T11:56:59Z</time>
      </trkpt>
      <trkpt lat="42.91721" lon="1.96079">
        <ele>512</ele>
        <time>2014-10-11T11:57:02Z</time>
      </trkpt>
      <trkpt lat="42.91716" lon="1.96101">
        <ele>512</ele>
        <time>2014-10-11T11:57:05Z</time>
      </trkpt>
      <trkpt lat="42.91712" lon="1.96116">
        <ele>511</ele>
        <time>2014-10-11T11:57:07Z</time>
      </trkpt>
      <trkpt lat="42.91709" lon="1.96131">
        <ele>511</ele>
        <time>2014-10-11T11:57:09Z</time>
      </trkpt>
      <trkpt lat="42.91706" lon="1.96147">
        <ele>510</ele>
        <time>2014-10-11T11:57:12Z</time>
      </trkpt>
      <trkpt lat="42.91703" lon="1.96169">
        <ele>509</ele>
        <time>2014-10-11T11:57:14Z</time>
      </trkpt>
      <trkpt lat="42.91699" lon="1.96182">
        <ele>507</ele>
        <time>2014-10-11T11:57:17Z</time>
      </trkpt>
      <trkpt lat="42.91697" lon="1.96189">
        <ele>507</ele>
        <time>2014-10-11T11:57:19Z</time>
      </trkpt>
      <trkpt lat="42.91697" lon="1.96198">
        <ele>507</ele>
        <time>2014-10-11T11:57:21Z</time>
      </trkpt>
      <trkpt lat="42.91695" lon="1.96219">
        <ele>506</ele>
        <time>2014-10-11T11:57:24Z</time>
      </trkpt>
      <trkpt lat="42.91694" lon="1.96236">
        <ele>506</ele>
        <time>2014-10-11T11:57:26Z</time>
      </trkpt>
      <trkpt lat="42.91695" lon="1.96254">
        <ele>505</ele>
        <time>2014-10-11T11:57:28Z</time>
      </trkpt>
      <trkpt lat="42.91693" lon="1.96279">
        <ele>504</ele>
        <time>2014-10-11T11:57:31Z</time>
      </trkpt>
      <trkpt lat="42.91689" lon="1.96302">
        <ele>503</ele>
        <time>2014-10-11T11:57:34Z</time>
      </trkpt>
      <trkpt lat="42.91687" lon="1.96325">
        <ele>502</ele>
        <time>2014-10-11T11:57:37Z</time>
      </trkpt>
      <trkpt lat="42.91682" lon="1.96339">
        <ele>501</ele>
        <time>2014-10-11T11:57:39Z</time>
      </trkpt>
      <trkpt lat="42.91673" lon="1.96359">
        <ele>500</ele>
        <time>2014-10-11T11:57:42Z</time>
      </trkpt>
      <trkpt lat="42.91662" lon="1.96379">
        <ele>500</ele>
        <time>2014-10-11T11:57:45Z</time>
      </trkpt>
      <trkpt lat="42.91654" lon="1.96392">
        <ele>500</ele>
        <time>2014-10-11T11:57:47Z</time>
      </trkpt>
      <trkpt lat="42.91645" lon="1.96413">
        <ele>499</ele>
        <time>2014-10-11T11:57:50Z</time>
      </trkpt>
      <trkpt lat="42.91639" lon="1.96433">
        <ele>499</ele>
        <time>2014-10-11T11:57:53Z</time>
      </trkpt>
      <trkpt lat="42.91634" lon="1.96444">
        <ele>499</ele>
        <time>2014-10-11T11:57:56Z</time>
      </trkpt>
      <trkpt lat="42.91628" lon="1.96464">
        <ele>499</ele>
        <time>2014-10-11T11:57:58Z</time>
      </trkpt>
      <trkpt lat="42.91623" lon="1.96477">
        <ele>499</ele>
        <time>2014-10-11T11:58:00Z</time>
      </trkpt>
      <trkpt lat="42.91619" lon="1.96491">
        <ele>499</ele>
        <time>2014-10-11T11:58:02Z</time>
      </trkpt>
      <trkpt lat="42.91612" lon="1.96513">
        <ele>497</ele>
        <time>2014-10-11T11:58:05Z</time>
      </trkpt>
      <trkpt lat="42.91604" lon="1.96529">
        <ele>496</ele>
        <time>2014-10-11T11:58:07Z</time>
      </trkpt>
      <trkpt lat="42.9159" lon="1.96556">
        <ele>495</ele>
        <time>2014-10-11T11:58:10Z</time>
      </trkpt>
      <trkpt lat="42.91575" lon="1.96587">
        <ele>493</ele>
        <time>2014-10-11T11:58:13Z</time>
      </trkpt>
      <trkpt lat="42.91567" lon="1.96609">
        <ele>492</ele>
        <time>2014-10-11T11:58:15Z</time>
      </trkpt>
      <trkpt lat="42.91555" lon="1.96635">
        <ele>491</ele>
        <time>2014-10-11T11:58:18Z</time>
      </trkpt>
      <trkpt lat="42.91547" lon="1.9666">
        <ele>491</ele>
        <time>2014-10-11T11:58:21Z</time>
      </trkpt>
      <trkpt lat="42.91542" lon="1.96676">
        <ele>490</ele>
        <time>2014-10-11T11:58:23Z</time>
      </trkpt>
      <trkpt lat="42.91538" lon="1.96699">
        <ele>490</ele>
        <time>2014-10-11T11:58:26Z</time>
      </trkpt>
      <trkpt lat="42.91534" lon="1.96722">
        <ele>489</ele>
        <time>2014-10-11T11:58:29Z</time>
      </trkpt>
      <trkpt lat="42.9153" lon="1.96736">
        <ele>489</ele>
        <time>2014-10-11T11:58:32Z</time>
      </trkpt>
      <trkpt lat="42.91524" lon="1.96757">
        <ele>488</ele>
        <time>2014-10-11T11:58:34Z</time>
      </trkpt>
      <trkpt lat="42.9152" lon="1.9677">
        <ele>488</ele>
        <time>2014-10-11T11:58:36Z</time>
      </trkpt>
      <trkpt lat="42.91516" lon="1.96782">
        <ele>488</ele>
        <time>2014-10-11T11:58:38Z</time>
      </trkpt>
      <trkpt lat="42.91508" lon="1.96799">
        <ele>488</ele>
        <time>2014-10-11T11:58:41Z</time>
      </trkpt>
      <trkpt lat="42.91503" lon="1.9681">
        <ele>488</ele>
        <time>2014-10-11T11:58:43Z</time>
      </trkpt>
      <trkpt lat="42.91497" lon="1.9682">
        <ele>488</ele>
        <time>2014-10-11T11:58:45Z</time>
      </trkpt>
      <trkpt lat="42.91492" lon="1.96831">
        <ele>487</ele>
        <time>2014-10-11T11:58:47Z</time>
      </trkpt>
      <trkpt lat="42.91488" lon="1.96841">
        <ele>487</ele>
        <time>2014-10-11T11:58:49Z</time>
      </trkpt>
      <trkpt lat="42.91485" lon="1.96856">
        <ele>487</ele>
        <time>2014-10-11T11:58:52Z</time>
      </trkpt>
      <trkpt lat="42.91485" lon="1.96866">
        <ele>486</ele>
        <time>2014-10-11T11:58:54Z</time>
      </trkpt>
      <trkpt lat="42.91486" lon="1.96873">
        <ele>486</ele>
        <time>2014-10-11T11:58:57Z</time>
      </trkpt>
      <trkpt lat="42.91486" lon="1.96875">
        <ele>486</ele>
        <time>2014-10-11T11:59:00Z</time>
      </trkpt>
      <trkpt lat="42.91487" lon="1.96877">
        <ele>486</ele>
        <time>2014-10-11T11:59:03Z</time>
      </trkpt>
      <trkpt lat="42.91487" lon="1.96878">
        <ele>486</ele>
        <time>2014-10-11T11:59:05Z</time>
      </trkpt>
      <trkpt lat="42.91487" lon="1.9688">
        <ele>486</ele>
        <time>2014-10-11T11:59:08Z</time>
      </trkpt>
      <trkpt lat="42.91487" lon="1.96881">
        <ele>486</ele>
        <time>2014-10-11T11:59:11Z</time>
      </trkpt>
      <trkpt lat="42.91488" lon="1.96882">
        <ele>486</ele>
        <time>2014-10-11T11:59:14Z</time>
      </trkpt>
      <trkpt lat="42.91488" lon="1.96884">
        <ele>486</ele>
        <time>2014-10-11T11:59:17Z</time>
      </trkpt>
      <trkpt lat="42.91488" lon="1.96885">
        <ele>486</ele>
        <time>2014-10-11T11:59:19Z</time>
      </trkpt>
      <trkpt lat="42.91488" lon="1.96886">
        <ele>486</ele>
        <time>2014-10-11T11:59:22Z</time>
      </trkpt>
      <trkpt lat="42.91489" lon="1.96887">
        <ele>486</ele>
        <time>2014-10-11T11:59:24Z</time>
      </trkpt>
      <trkpt lat="42.91489" lon="1.96888">
        <ele>486</ele>
        <time>2014-10-11T11:59:27Z</time>
      </trkpt>
      <trkpt lat="42.91489" lon="1.96889">
        <ele>485</ele>
        <time>2014-10-11T11:59:31Z</time>
      </trkpt>
      <trkpt lat="42.91489" lon="1.9689">
        <ele>485</ele>
        <time>2014-10-11T11:59:33Z</time>
      </trkpt>
      <trkpt lat="42.91489" lon="1.9689">
        <ele>485</ele>
        <time>2014-10-11T11:59:36Z</time>
      </trkpt>
      <trkpt lat="42.91489" lon="1.96891">
        <ele>485</ele>
        <time>2014-10-11T11:59:39Z</time>
      </trkpt>
      <trkpt lat="42.91489" lon="1.96892">
        <ele>485</ele>
        <time>2014-10-11T11:59:43Z</time>
      </trkpt>
      <trkpt lat="42.91489" lon="1.96892">
        <ele>486</ele>
        <time>2014-10-11T11:59:46Z</time>
      </trkpt>
      <trkpt lat="42.91489" lon="1.96892">
        <ele>486</ele>
        <time>2014-10-11T11:59:49Z</time>
      </trkpt>
      <trkpt lat="42.91489" lon="1.96892">
        <ele>486</ele>
        <time>2014-10-11T11:59:53Z</time>
      </trkpt>
      <trkpt lat="42.91489" lon="1.96892">
        <ele>486</ele>
        <time>2014-10-11T11:59:55Z</time>
      </trkpt>
      <trkpt lat="42.91489" lon="1.96893">
        <ele>486</ele>
        <time>2014-10-11T11:59:57Z</time>
      </trkpt>
      <trkpt lat="42.91488" lon="1.96893">
        <ele>486</ele>
        <time>2014-10-11T12:00:01Z</time>
      </trkpt>
      <trkpt lat="42.91489" lon="1.96893">
        <ele>486</ele>
        <time>2014-10-11T12:00:03Z</time>
      </trkpt>
      <trkpt lat="42.91489" lon="1.96893">
        <ele>486</ele>
        <time>2014-10-11T12:00:06Z</time>
      </trkpt>
      <trkpt lat="42.91489" lon="1.96892">
        <ele>486</ele>
        <time>2014-10-11T12:00:08Z</time>
      </trkpt>
      <trkpt lat="42.91489" lon="1.96893">
        <ele>485</ele>
        <time>2014-10-11T12:00:10Z</time>
      </trkpt>
      <trkpt lat="42.91489" lon="1.96893">
        <ele>485</ele>
        <time>2014-10-11T12:00:14Z</time>
      </trkpt>
      <trkpt lat="42.91489" lon="1.96893">
        <ele>485</ele>
        <time>2014-10-11T12:00:16Z</time>
      </trkpt>
      <trkpt lat="42.91489" lon="1.96893">
        <ele>486</ele>
        <time>2014-10-11T12:00:22Z</time>
      </trkpt>
      <trkpt lat="42.91489" lon="1.96893">
        <ele>486</ele>
        <time>2014-10-11T12:00:24Z</time>
      </trkpt>
      <trkpt lat="42.9149" lon="1.96896">
        <ele>486</ele>
        <time>2014-10-11T12:00:27Z</time>
      </trkpt>
      <trkpt lat="42.91491" lon="1.96902">
        <ele>486</ele>
        <time>2014-10-11T12:00:30Z</time>
      </trkpt>
      <trkpt lat="42.91491" lon="1.96908">
        <ele>486</ele>
        <time>2014-10-11T12:00:32Z</time>
      </trkpt>
      <trkpt lat="42.91494" lon="1.96917">
        <ele>486</ele>
        <time>2014-10-11T12:00:35Z</time>
      </trkpt>
      <trkpt lat="42.91497" lon="1.96925">
        <ele>486</ele>
        <time>2014-10-11T12:00:38Z</time>
      </trkpt>
      <trkpt lat="42.91499" lon="1.96929">
        <ele>486</ele>
        <time>2014-10-11T12:00:40Z</time>
      </trkpt>
      <trkpt lat="42.91502" lon="1.96934">
        <ele>486</ele>
        <time>2014-10-11T12:00:42Z</time>
      </trkpt>
      <trkpt lat="42.91505" lon="1.9694">
        <ele>486</ele>
        <time>2014-10-11T12:00:45Z</time>
      </trkpt>
      <trkpt lat="42.91507" lon="1.96945">
        <ele>486</ele>
        <time>2014-10-11T12:00:48Z</time>
      </trkpt>
      <trkpt lat="42.91508" lon="1.96948">
        <ele>487</ele>
        <time>2014-10-11T12:00:50Z</time>
      </trkpt>
      <trkpt lat="42.9151" lon="1.96951">
        <ele>487</ele>
        <time>2014-10-11T12:00:52Z</time>
      </trkpt>
      <trkpt lat="42.9151" lon="1.96951">
        <ele>487</ele>
        <time>2014-10-11T12:00:55Z</time>
      </trkpt>
      <trkpt lat="42.9151" lon="1.96951">
        <ele>487</ele>
        <time>2014-10-11T12:00:57Z</time>
      </trkpt>
      <trkpt lat="42.9151" lon="1.96951">
        <ele>487</ele>
        <time>2014-10-11T12:00:59Z</time>
      </trkpt>
      <trkpt lat="42.91511" lon="1.96952">
        <ele>487</ele>
        <time>2014-10-11T12:01:01Z</time>
      </trkpt>
      <trkpt lat="42.91511" lon="1.96952">
        <ele>486</ele>
        <time>2014-10-11T12:01:04Z</time>
      </trkpt>
      <trkpt lat="42.91511" lon="1.96952">
        <ele>486</ele>
        <time>2014-10-11T12:01:07Z</time>
      </trkpt>
      <trkpt lat="42.91512" lon="1.96952">
        <ele>486</ele>
        <time>2014-10-11T12:01:10Z</time>
      </trkpt>
      <trkpt lat="42.91512" lon="1.96952">
        <ele>486</ele>
        <time>2014-10-11T12:01:12Z</time>
      </trkpt>
      <trkpt lat="42.91513" lon="1.96953">
        <ele>487</ele>
        <time>2014-10-11T12:01:15Z</time>
      </trkpt>
      <trkpt lat="42.91514" lon="1.96956">
        <ele>486</ele>
        <time>2014-10-11T12:01:18Z</time>
      </trkpt>
      <trkpt lat="42.91515" lon="1.96958">
        <ele>486</ele>
        <time>2014-10-11T12:01:20Z</time>
      </trkpt>
      <trkpt lat="42.91515" lon="1.9696">
        <ele>486</ele>
        <time>2014-10-11T12:01:23Z</time>
      </trkpt>
      <trkpt lat="42.91516" lon="1.9696">
        <ele>487</ele>
        <time>2014-10-11T12:01:26Z</time>
      </trkpt>
      <trkpt lat="42.91516" lon="1.9696">
        <ele>487</ele>
        <time>2014-10-11T12:01:28Z</time>
      </trkpt>
      <trkpt lat="42.91516" lon="1.9696">
        <ele>487</ele>
        <time>2014-10-11T12:01:30Z</time>
      </trkpt>
      <trkpt lat="42.91516" lon="1.96961">
        <ele>487</ele>
        <time>2014-10-11T12:01:33Z</time>
      </trkpt>
      <trkpt lat="42.91517" lon="1.96961">
        <ele>487</ele>
        <time>2014-10-11T12:01:36Z</time>
      </trkpt>
      <trkpt lat="42.91516" lon="1.96961">
        <ele>487</ele>
        <time>2014-10-11T12:01:39Z</time>
      </trkpt>
      <trkpt lat="42.91516" lon="1.96961">
        <ele>487</ele>
        <time>2014-10-11T12:01:42Z</time>
      </trkpt>
      <trkpt lat="42.91516" lon="1.96962">
        <ele>488</ele>
        <time>2014-10-11T12:01:45Z</time>
      </trkpt>
      <trkpt lat="42.91516" lon="1.96961">
        <ele>488</ele>
        <time>2014-10-11T12:01:47Z</time>
      </trkpt>
      <trkpt lat="42.91516" lon="1.96961">
        <ele>488</ele>
        <time>2014-10-11T12:01:49Z</time>
      </trkpt>
      <trkpt lat="42.91516" lon="1.96962">
        <ele>488</ele>
        <time>2014-10-11T12:01:52Z</time>
      </trkpt>
      <trkpt lat="42.91516" lon="1.96962">
        <ele>488</ele>
        <time>2014-10-11T12:01:54Z</time>
      </trkpt>
      <trkpt lat="42.91516" lon="1.96964">
        <ele>488</ele>
        <time>2014-10-11T12:01:57Z</time>
      </trkpt>
      <trkpt lat="42.91516" lon="1.96965">
        <ele>488</ele>
        <time>2014-10-11T12:01:59Z</time>
      </trkpt>
      <trkpt lat="42.91517" lon="1.96967">
        <ele>488</ele>
        <time>2014-10-11T12:02:02Z</time>
      </trkpt>
      <trkpt lat="42.91517" lon="1.96968">
        <ele>488</ele>
        <time>2014-10-11T12:02:05Z</time>
      </trkpt>
      <trkpt lat="42.91518" lon="1.96969">
        <ele>488</ele>
        <time>2014-10-11T12:02:07Z</time>
      </trkpt>
      <trkpt lat="42.91518" lon="1.96969">
        <ele>488</ele>
        <time>2014-10-11T12:02:09Z</time>
      </trkpt>
      <trkpt lat="42.91518" lon="1.9697">
        <ele>488</ele>
        <time>2014-10-11T12:02:12Z</time>
      </trkpt>
      <trkpt lat="42.91518" lon="1.96971">
        <ele>489</ele>
        <time>2014-10-11T12:02:15Z</time>
      </trkpt>
      <trkpt lat="42.91518" lon="1.96973">
        <ele>489</ele>
        <time>2014-10-11T12:02:18Z</time>
      </trkpt>
      <trkpt lat="42.91518" lon="1.96974">
        <ele>489</ele>
        <time>2014-10-11T12:02:21Z</time>
      </trkpt>
      <trkpt lat="42.91518" lon="1.96976">
        <ele>489</ele>
        <time>2014-10-11T12:02:24Z</time>
      </trkpt>
      <trkpt lat="42.91518" lon="1.96978">
        <ele>489</ele>
        <time>2014-10-11T12:02:26Z</time>
      </trkpt>
      <trkpt lat="42.91517" lon="1.96982">
        <ele>489</ele>
        <time>2014-10-11T12:02:29Z</time>
      </trkpt>
      <trkpt lat="42.91516" lon="1.96983">
        <ele>489</ele>
        <time>2014-10-11T12:02:32Z</time>
      </trkpt>
      <trkpt lat="42.91515" lon="1.96985">
        <ele>489</ele>
        <time>2014-10-11T12:02:35Z</time>
      </trkpt>
      <trkpt lat="42.91516" lon="1.96985">
        <ele>489</ele>
        <time>2014-10-11T12:02:37Z</time>
      </trkpt>
      <trkpt lat="42.91516" lon="1.96987">
        <ele>489</ele>
        <time>2014-10-11T12:02:39Z</time>
      </trkpt>
      <trkpt lat="42.91515" lon="1.96991">
        <ele>489</ele>
        <time>2014-10-11T12:02:42Z</time>
      </trkpt>
      <trkpt lat="42.91516" lon="1.96992">
        <ele>489</ele>
        <time>2014-10-11T12:02:44Z</time>
      </trkpt>
      <trkpt lat="42.91515" lon="1.96992">
        <ele>489</ele>
        <time>2014-10-11T12:02:47Z</time>
      </trkpt>
      <trkpt lat="42.91515" lon="1.96992">
        <ele>488</ele>
        <time>2014-10-11T12:02:49Z</time>
      </trkpt>
      <trkpt lat="42.91516" lon="1.96992">
        <ele>488</ele>
        <time>2014-10-11T12:02:51Z</time>
      </trkpt>
      <trkpt lat="42.91514" lon="1.96994">
        <ele>488</ele>
        <time>2014-10-11T12:02:54Z</time>
      </trkpt>
      <trkpt lat="42.91513" lon="1.96996">
        <ele>488</ele>
        <time>2014-10-11T12:02:56Z</time>
      </trkpt>
      <trkpt lat="42.91512" lon="1.96998">
        <ele>488</ele>
        <time>2014-10-11T12:02:58Z</time>
      </trkpt>
      <trkpt lat="42.9151" lon="1.97001">
        <ele>489</ele>
        <time>2014-10-11T12:03:01Z</time>
      </trkpt>
      <trkpt lat="42.91505" lon="1.97008">
        <ele>489</ele>
        <time>2014-10-11T12:03:04Z</time>
      </trkpt>
      <trkpt lat="42.91499" lon="1.97015">
        <ele>489</ele>
        <time>2014-10-11T12:03:07Z</time>
      </trkpt>
      <trkpt lat="42.91494" lon="1.97022">
        <ele>489</ele>
        <time>2014-10-11T12:03:09Z</time>
      </trkpt>
      <trkpt lat="42.91489" lon="1.97032">
        <ele>490</ele>
        <time>2014-10-11T12:03:12Z</time>
      </trkpt>
      <trkpt lat="42.91484" lon="1.97046">
        <ele>490</ele>
        <time>2014-10-11T12:03:15Z</time>
      </trkpt>
      <trkpt lat="42.91483" lon="1.97055">
        <ele>490</ele>
        <time>2014-10-11T12:03:17Z</time>
      </trkpt>
      <trkpt lat="42.9148" lon="1.97071">
        <ele>490</ele>
        <time>2014-10-11T12:03:20Z</time>
      </trkpt>
      <trkpt lat="42.91478" lon="1.9709">
        <ele>491</ele>
        <time>2014-10-11T12:03:23Z</time>
      </trkpt>
      <trkpt lat="42.91476" lon="1.97101">
        <ele>491</ele>
        <time>2014-10-11T12:03:25Z</time>
      </trkpt>
      <trkpt lat="42.91473" lon="1.97113">
        <ele>490</ele>
        <time>2014-10-11T12:03:27Z</time>
      </trkpt>
      <trkpt lat="42.91471" lon="1.97129">
        <ele>491</ele>
        <time>2014-10-11T12:03:30Z</time>
      </trkpt>
      <trkpt lat="42.9147" lon="1.97142">
        <ele>491</ele>
        <time>2014-10-11T12:03:33Z</time>
      </trkpt>
      <trkpt lat="42.91467" lon="1.97154">
        <ele>491</ele>
        <time>2014-10-11T12:03:36Z</time>
      </trkpt>
      <trkpt lat="42.91465" lon="1.97164">
        <ele>491</ele>
        <time>2014-10-11T12:03:39Z</time>
      </trkpt>
      <trkpt lat="42.91464" lon="1.97174">
        <ele>491</ele>
        <time>2014-10-11T12:03:42Z</time>
      </trkpt>
      <trkpt lat="42.91463" lon="1.97183">
        <ele>491</ele>
        <time>2014-10-11T12:03:44Z</time>
      </trkpt>
      <trkpt lat="42.91462" lon="1.97199">
        <ele>491</ele>
        <time>2014-10-11T12:03:47Z</time>
      </trkpt>
      <trkpt lat="42.91461" lon="1.97217">
        <ele>490</ele>
        <time>2014-10-11T12:03:50Z</time>
      </trkpt>
      <trkpt lat="42.91458" lon="1.97234">
        <ele>491</ele>
        <time>2014-10-11T12:03:53Z</time>
      </trkpt>
      <trkpt lat="42.91456" lon="1.97246">
        <ele>490</ele>
        <time>2014-10-11T12:03:55Z</time>
      </trkpt>
      <trkpt lat="42.91451" lon="1.97266">
        <ele>491</ele>
        <time>2014-10-11T12:03:58Z</time>
      </trkpt>
      <trkpt lat="42.91444" lon="1.97291">
        <ele>490</ele>
        <time>2014-10-11T12:04:01Z</time>
      </trkpt>
      <trkpt lat="42.91439" lon="1.97309">
        <ele>490</ele>
        <time>2014-10-11T12:04:03Z</time>
      </trkpt>
      <trkpt lat="42.91434" lon="1.97338">
        <ele>489</ele>
        <time>2014-10-11T12:04:06Z</time>
      </trkpt>
      <trkpt lat="42.91431" lon="1.97356">
        <ele>489</ele>
        <time>2014-10-11T12:04:08Z</time>
      </trkpt>
      <trkpt lat="42.91428" lon="1.97372">
        <ele>488</ele>
        <time>2014-10-11T12:04:10Z</time>
      </trkpt>
      <trkpt lat="42.91427" lon="1.97396">
        <ele>488</ele>
        <time>2014-10-11T12:04:13Z</time>
      </trkpt>
      <trkpt lat="42.91426" lon="1.97424">
        <ele>486</ele>
        <time>2014-10-11T12:04:16Z</time>
      </trkpt>
      <trkpt lat="42.91423" lon="1.97445">
        <ele>486</ele>
        <time>2014-10-11T12:04:18Z</time>
      </trkpt>
      <trkpt lat="42.91418" lon="1.97463">
        <ele>486</ele>
        <time>2014-10-11T12:04:20Z</time>
      </trkpt>
      <trkpt lat="42.91408" lon="1.97481">
        <ele>485</ele>
        <time>2014-10-11T12:04:23Z</time>
      </trkpt>
      <trkpt lat="42.91399" lon="1.97485">
        <ele>484</ele>
        <time>2014-10-11T12:04:25Z</time>
      </trkpt>
      <trkpt lat="42.91391" lon="1.97486">
        <ele>484</ele>
        <time>2014-10-11T12:04:27Z</time>
      </trkpt>
      <trkpt lat="42.91379" lon="1.97492">
        <ele>484</ele>
        <time>2014-10-11T12:04:30Z</time>
      </trkpt>
      <trkpt lat="42.9137" lon="1.97499">
        <ele>485</ele>
        <time>2014-10-11T12:04:32Z</time>
      </trkpt>
      <trkpt lat="42.91357" lon="1.97513">
        <ele>487</ele>
        <time>2014-10-11T12:04:35Z</time>
      </trkpt>
      <trkpt lat="42.91351" lon="1.9752">
        <ele>488</ele>
        <time>2014-10-11T12:04:37Z</time>
      </trkpt>
      <trkpt lat="42.91341" lon="1.9753">
        <ele>489</ele>
        <time>2014-10-11T12:04:40Z</time>
      </trkpt>
      <trkpt lat="42.91334" lon="1.97533">
        <ele>490</ele>
        <time>2014-10-11T12:04:42Z</time>
      </trkpt>
      <trkpt lat="42.91324" lon="1.9754">
        <ele>491</ele>
        <time>2014-10-11T12:04:45Z</time>
      </trkpt>
      <trkpt lat="42.91319" lon="1.97548">
        <ele>492</ele>
        <time>2014-10-11T12:04:47Z</time>
      </trkpt>
      <trkpt lat="42.91317" lon="1.97558">
        <ele>493</ele>
        <time>2014-10-11T12:04:49Z</time>
      </trkpt>
      <trkpt lat="42.91316" lon="1.97569">
        <ele>494</ele>
        <time>2014-10-11T12:04:51Z</time>
      </trkpt>
      <trkpt lat="42.91316" lon="1.97581">
        <ele>495</ele>
        <time>2014-10-11T12:04:53Z</time>
      </trkpt>
      <trkpt lat="42.91314" lon="1.97591">
        <ele>496</ele>
        <time>2014-10-11T12:04:55Z</time>
      </trkpt>
      <trkpt lat="42.91312" lon="1.97607">
        <ele>496</ele>
        <time>2014-10-11T12:04:58Z</time>
      </trkpt>
      <trkpt lat="42.9131" lon="1.97618">
        <ele>497</ele>
        <time>2014-10-11T12:05:00Z</time>
      </trkpt>
      <trkpt lat="42.91309" lon="1.97629">
        <ele>498</ele>
        <time>2014-10-11T12:05:03Z</time>
      </trkpt>
      <trkpt lat="42.91306" lon="1.97637">
        <ele>498</ele>
        <time>2014-10-11T12:05:06Z</time>
      </trkpt>
      <trkpt lat="42.91306" lon="1.97643">
        <ele>498</ele>
        <time>2014-10-11T12:05:08Z</time>
      </trkpt>
      <trkpt lat="42.91306" lon="1.97648">
        <ele>498</ele>
        <time>2014-10-11T12:05:11Z</time>
      </trkpt>
      <trkpt lat="42.91307" lon="1.97651">
        <ele>498</ele>
        <time>2014-10-11T12:05:13Z</time>
      </trkpt>
      <trkpt lat="42.91307" lon="1.97661">
        <ele>498</ele>
        <time>2014-10-11T12:05:16Z</time>
      </trkpt>
      <trkpt lat="42.91308" lon="1.97669">
        <ele>498</ele>
        <time>2014-10-11T12:05:18Z</time>
      </trkpt>
      <trkpt lat="42.91309" lon="1.97679">
        <ele>497</ele>
        <time>2014-10-11T12:05:20Z</time>
      </trkpt>
      <trkpt lat="42.91312" lon="1.97696">
        <ele>497</ele>
        <time>2014-10-11T12:05:23Z</time>
      </trkpt>
      <trkpt lat="42.91312" lon="1.97708">
        <ele>496</ele>
        <time>2014-10-11T12:05:25Z</time>
      </trkpt>
      <trkpt lat="42.91314" lon="1.97727">
        <ele>496</ele>
        <time>2014-10-11T12:05:28Z</time>
      </trkpt>
      <trkpt lat="42.91312" lon="1.97741">
        <ele>495</ele>
        <time>2014-10-11T12:05:30Z</time>
      </trkpt>
      <trkpt lat="42.91312" lon="1.97756">
        <ele>495</ele>
        <time>2014-10-11T12:05:32Z</time>
      </trkpt>
      <trkpt lat="42.91312" lon="1.97777">
        <ele>495</ele>
        <time>2014-10-11T12:05:35Z</time>
      </trkpt>
      <trkpt lat="42.91311" lon="1.97793">
        <ele>494</ele>
        <time>2014-10-11T12:05:37Z</time>
      </trkpt>
      <trkpt lat="42.9131" lon="1.97809">
        <ele>494</ele>
        <time>2014-10-11T12:05:39Z</time>
      </trkpt>
      <trkpt lat="42.91309" lon="1.97825">
        <ele>493</ele>
        <time>2014-10-11T12:05:41Z</time>
      </trkpt>
      <trkpt lat="42.91309" lon="1.97844">
        <ele>492</ele>
        <time>2014-10-11T12:05:43Z</time>
      </trkpt>
      <trkpt lat="42.91308" lon="1.97871">
        <ele>491</ele>
        <time>2014-10-11T12:05:46Z</time>
      </trkpt>
      <trkpt lat="42.9131" lon="1.97898">
        <ele>490</ele>
        <time>2014-10-11T12:05:49Z</time>
      </trkpt>
      <trkpt lat="42.91324" lon="1.97916">
        <ele>489</ele>
        <time>2014-10-11T12:05:52Z</time>
      </trkpt>
      <trkpt lat="42.91336" lon="1.97924">
        <ele>488</ele>
        <time>2014-10-11T12:05:54Z</time>
      </trkpt>
      <trkpt lat="42.91355" lon="1.97937">
        <ele>487</ele>
        <time>2014-10-11T12:05:57Z</time>
      </trkpt>
      <trkpt lat="42.91375" lon="1.97949">
        <ele>486</ele>
        <time>2014-10-11T12:06:00Z</time>
      </trkpt>
      <trkpt lat="42.91394" lon="1.97964">
        <ele>485</ele>
        <time>2014-10-11T12:06:03Z</time>
      </trkpt>
      <trkpt lat="42.91413" lon="1.97984">
        <ele>484</ele>
        <time>2014-10-11T12:06:06Z</time>
      </trkpt>
      <trkpt lat="42.91425" lon="1.97998">
        <ele>484</ele>
        <time>2014-10-11T12:06:08Z</time>
      </trkpt>
      <trkpt lat="42.9144" lon="1.98021">
        <ele>483</ele>
        <time>2014-10-11T12:06:11Z</time>
      </trkpt>
      <trkpt lat="42.91449" lon="1.98039">
        <ele>482</ele>
        <time>2014-10-11T12:06:13Z</time>
      </trkpt>
      <trkpt lat="42.91464" lon="1.98071">
        <ele>480</ele>
        <time>2014-10-11T12:06:16Z</time>
      </trkpt>
      <trkpt lat="42.91488" lon="1.98091">
        <ele>479</ele>
        <time>2014-10-11T12:06:19Z</time>
      </trkpt>
      <trkpt lat="42.91504" lon="1.98101">
        <ele>478</ele>
        <time>2014-10-11T12:06:21Z</time>
      </trkpt>
      <trkpt lat="42.91526" lon="1.98118">
        <ele>477</ele>
        <time>2014-10-11T12:06:24Z</time>
      </trkpt>
      <trkpt lat="42.91545" lon="1.98137">
        <ele>476</ele>
        <time>2014-10-11T12:06:27Z</time>
      </trkpt>
      <trkpt lat="42.91565" lon="1.98148">
        <ele>476</ele>
        <time>2014-10-11T12:06:30Z</time>
      </trkpt>
      <trkpt lat="42.91581" lon="1.98154">
        <ele>475</ele>
        <time>2014-10-11T12:06:33Z</time>
      </trkpt>
      <trkpt lat="42.9159" lon="1.9816">
        <ele>475</ele>
        <time>2014-10-11T12:06:35Z</time>
      </trkpt>
      <trkpt lat="42.916" lon="1.98168">
        <ele>475</ele>
        <time>2014-10-11T12:06:37Z</time>
      </trkpt>
      <trkpt lat="42.9161" lon="1.98183">
        <ele>475</ele>
        <time>2014-10-11T12:06:40Z</time>
      </trkpt>
      <trkpt lat="42.91619" lon="1.98198">
        <ele>474</ele>
        <time>2014-10-11T12:06:43Z</time>
      </trkpt>
      <trkpt lat="42.91624" lon="1.98208">
        <ele>474</ele>
        <time>2014-10-11T12:06:45Z</time>
      </trkpt>
      <trkpt lat="42.91629" lon="1.98216">
        <ele>474</ele>
        <time>2014-10-11T12:06:47Z</time>
      </trkpt>
      <trkpt lat="42.91631" lon="1.98223">
        <ele>473</ele>
        <time>2014-10-11T12:06:49Z</time>
      </trkpt>
      <trkpt lat="42.91634" lon="1.98229">
        <ele>473</ele>
        <time>2014-10-11T12:06:51Z</time>
      </trkpt>
      <trkpt lat="42.91637" lon="1.98235">
        <ele>473</ele>
        <time>2014-10-11T12:06:54Z</time>
      </trkpt>
      <trkpt lat="42.9164" lon="1.98245">
        <ele>473</ele>
        <time>2014-10-11T12:06:57Z</time>
      </trkpt>
      <trkpt lat="42.91642" lon="1.98252">
        <ele>473</ele>
        <time>2014-10-11T12:06:59Z</time>
      </trkpt>
      <trkpt lat="42.91649" lon="1.9826">
        <ele>473</ele>
        <time>2014-10-11T12:07:02Z</time>
      </trkpt>
      <trkpt lat="42.91655" lon="1.9827">
        <ele>474</ele>
        <time>2014-10-11T12:07:05Z</time>
      </trkpt>
      <trkpt lat="42.91662" lon="1.98283">
        <ele>474</ele>
        <time>2014-10-11T12:07:08Z</time>
      </trkpt>
      <trkpt lat="42.91667" lon="1.98294">
        <ele>473</ele>
        <time>2014-10-11T12:07:10Z</time>
      </trkpt>
      <trkpt lat="42.91676" lon="1.98311">
        <ele>473</ele>
        <time>2014-10-11T12:07:13Z</time>
      </trkpt>
      <trkpt lat="42.91687" lon="1.98331">
        <ele>473</ele>
        <time>2014-10-11T12:07:16Z</time>
      </trkpt>
      <trkpt lat="42.91698" lon="1.98352">
        <ele>473</ele>
        <time>2014-10-11T12:07:19Z</time>
      </trkpt>
      <trkpt lat="42.91708" lon="1.98375">
        <ele>473</ele>
        <time>2014-10-11T12:07:22Z</time>
      </trkpt>
      <trkpt lat="42.91711" lon="1.98394">
        <ele>473</ele>
        <time>2014-10-11T12:07:24Z</time>
      </trkpt>
      <trkpt lat="42.91715" lon="1.98413">
        <ele>473</ele>
        <time>2014-10-11T12:07:26Z</time>
      </trkpt>
      <trkpt lat="42.91719" lon="1.9843">
        <ele>473</ele>
        <time>2014-10-11T12:07:28Z</time>
      </trkpt>
      <trkpt lat="42.91727" lon="1.98455">
        <ele>473</ele>
        <time>2014-10-11T12:07:31Z</time>
      </trkpt>
      <trkpt lat="42.91737" lon="1.98479">
        <ele>473</ele>
        <time>2014-10-11T12:07:34Z</time>
      </trkpt>
      <trkpt lat="42.91748" lon="1.98503">
        <ele>473</ele>
        <time>2014-10-11T12:07:37Z</time>
      </trkpt>
      <trkpt lat="42.91756" lon="1.98519">
        <ele>473</ele>
        <time>2014-10-11T12:07:39Z</time>
      </trkpt>
      <trkpt lat="42.91764" lon="1.98532">
        <ele>473</ele>
        <time>2014-10-11T12:07:41Z</time>
      </trkpt>
      <trkpt lat="42.91772" lon="1.98547">
        <ele>473</ele>
        <time>2014-10-11T12:07:43Z</time>
      </trkpt>
      <trkpt lat="42.91781" lon="1.9856">
        <ele>473</ele>
        <time>2014-10-11T12:07:45Z</time>
      </trkpt>
      <trkpt lat="42.91797" lon="1.98578">
        <ele>473</ele>
        <time>2014-10-11T12:07:48Z</time>
      </trkpt>
      <trkpt lat="42.91814" lon="1.98595">
        <ele>472</ele>
        <time>2014-10-11T12:07:51Z</time>
      </trkpt>
      <trkpt lat="42.91825" lon="1.98605">
        <ele>472</ele>
        <time>2014-10-11T12:07:53Z</time>
      </trkpt>
      <trkpt lat="42.91843" lon="1.98619">
        <ele>471</ele>
        <time>2014-10-11T12:07:56Z</time>
      </trkpt>
      <trkpt lat="42.91859" lon="1.98638">
        <ele>471</ele>
        <time>2014-10-11T12:07:59Z</time>
      </trkpt>
      <trkpt lat="42.91869" lon="1.98665">
        <ele>471</ele>
        <time>2014-10-11T12:08:02Z</time>
      </trkpt>
      <trkpt lat="42.91876" lon="1.9869">
        <ele>470</ele>
        <time>2014-10-11T12:08:05Z</time>
      </trkpt>
      <trkpt lat="42.91884" lon="1.98705">
        <ele>470</ele>
        <time>2014-10-11T12:08:07Z</time>
      </trkpt>
      <trkpt lat="42.91899" lon="1.98724">
        <ele>470</ele>
        <time>2014-10-11T12:08:10Z</time>
      </trkpt>
      <trkpt lat="42.91908" lon="1.98739">
        <ele>470</ele>
        <time>2014-10-11T12:08:12Z</time>
      </trkpt>
      <trkpt lat="42.91915" lon="1.98758">
        <ele>469</ele>
        <time>2014-10-11T12:08:14Z</time>
      </trkpt>
      <trkpt lat="42.91923" lon="1.98789">
        <ele>469</ele>
        <time>2014-10-11T12:08:17Z</time>
      </trkpt>
      <trkpt lat="42.9193" lon="1.98808">
        <ele>468</ele>
        <time>2014-10-11T12:08:19Z</time>
      </trkpt>
      <trkpt lat="42.91946" lon="1.98829">
        <ele>468</ele>
        <time>2014-10-11T12:08:22Z</time>
      </trkpt>
      <trkpt lat="42.91959" lon="1.98841">
        <ele>468</ele>
        <time>2014-10-11T12:08:24Z</time>
      </trkpt>
      <trkpt lat="42.91973" lon="1.9885">
        <ele>467</ele>
        <time>2014-10-11T12:08:26Z</time>
      </trkpt>
      <trkpt lat="42.91986" lon="1.98859">
        <ele>467</ele>
        <time>2014-10-11T12:08:28Z</time>
      </trkpt>
      <trkpt lat="42.91999" lon="1.98869">
        <ele>466</ele>
        <time>2014-10-11T12:08:30Z</time>
      </trkpt>
      <trkpt lat="42.92019" lon="1.98888">
        <ele>466</ele>
        <time>2014-10-11T12:08:33Z</time>
      </trkpt>
      <trkpt lat="42.92036" lon="1.98913">
        <ele>465</ele>
        <time>2014-10-11T12:08:36Z</time>
      </trkpt>
      <trkpt lat="42.92051" lon="1.9894">
        <ele>465</ele>
        <time>2014-10-11T12:08:39Z</time>
      </trkpt>
      <trkpt lat="42.92059" lon="1.98956">
        <ele>465</ele>
        <time>2014-10-11T12:08:41Z</time>
      </trkpt>
      <trkpt lat="42.92072" lon="1.9898">
        <ele>465</ele>
        <time>2014-10-11T12:08:44Z</time>
      </trkpt>
      <trkpt lat="42.9208" lon="1.98997">
        <ele>464</ele>
        <time>2014-10-11T12:08:46Z</time>
      </trkpt>
      <trkpt lat="42.92091" lon="1.99021">
        <ele>464</ele>
        <time>2014-10-11T12:08:49Z</time>
      </trkpt>
      <trkpt lat="42.921" lon="1.99034">
        <ele>463</ele>
        <time>2014-10-11T12:08:51Z</time>
      </trkpt>
      <trkpt lat="42.92108" lon="1.99047">
        <ele>463</ele>
        <time>2014-10-11T12:08:53Z</time>
      </trkpt>
      <trkpt lat="42.9212" lon="1.99065">
        <ele>462</ele>
        <time>2014-10-11T12:08:56Z</time>
      </trkpt>
      <trkpt lat="42.92129" lon="1.99083">
        <ele>462</ele>
        <time>2014-10-11T12:08:59Z</time>
      </trkpt>
      <trkpt lat="42.92134" lon="1.99101">
        <ele>461</ele>
        <time>2014-10-11T12:09:02Z</time>
      </trkpt>
      <trkpt lat="42.92134" lon="1.99118">
        <ele>461</ele>
        <time>2014-10-11T12:09:05Z</time>
      </trkpt>
      <trkpt lat="42.92132" lon="1.99129">
        <ele>461</ele>
        <time>2014-10-11T12:09:07Z</time>
      </trkpt>
      <trkpt lat="42.92131" lon="1.99146">
        <ele>461</ele>
        <time>2014-10-11T12:09:10Z</time>
      </trkpt>
      <trkpt lat="42.92131" lon="1.99161">
        <ele>461</ele>
        <time>2014-10-11T12:09:12Z</time>
      </trkpt>
      <trkpt lat="42.92135" lon="1.99182">
        <ele>460</ele>
        <time>2014-10-11T12:09:15Z</time>
      </trkpt>
      <trkpt lat="42.9214" lon="1.99196">
        <ele>460</ele>
        <time>2014-10-11T12:09:17Z</time>
      </trkpt>
      <trkpt lat="42.92153" lon="1.99214">
        <ele>460</ele>
        <time>2014-10-11T12:09:20Z</time>
      </trkpt>
      <trkpt lat="42.92162" lon="1.99224">
        <ele>460</ele>
        <time>2014-10-11T12:09:22Z</time>
      </trkpt>
      <trkpt lat="42.92172" lon="1.99235">
        <ele>460</ele>
        <time>2014-10-11T12:09:24Z</time>
      </trkpt>
      <trkpt lat="42.92186" lon="1.99252">
        <ele>460</ele>
        <time>2014-10-11T12:09:27Z</time>
      </trkpt>
      <trkpt lat="42.92197" lon="1.99267">
        <ele>460</ele>
        <time>2014-10-11T12:09:30Z</time>
      </trkpt>
      <trkpt lat="42.92205" lon="1.99276">
        <ele>460</ele>
        <time>2014-10-11T12:09:32Z</time>
      </trkpt>
      <trkpt lat="42.92217" lon="1.9929">
        <ele>461</ele>
        <time>2014-10-11T12:09:35Z</time>
      </trkpt>
      <trkpt lat="42.9223" lon="1.99303">
        <ele>462</ele>
        <time>2014-10-11T12:09:38Z</time>
      </trkpt>
      <trkpt lat="42.92238" lon="1.99313">
        <ele>462</ele>
        <time>2014-10-11T12:09:40Z</time>
      </trkpt>
      <trkpt lat="42.9225" lon="1.99325">
        <ele>463</ele>
        <time>2014-10-11T12:09:43Z</time>
      </trkpt>
      <trkpt lat="42.9226" lon="1.99337">
        <ele>464</ele>
        <time>2014-10-11T12:09:46Z</time>
      </trkpt>
      <trkpt lat="42.9227" lon="1.99347">
        <ele>464</ele>
        <time>2014-10-11T12:09:49Z</time>
      </trkpt>
      <trkpt lat="42.92277" lon="1.99356">
        <ele>464</ele>
        <time>2014-10-11T12:09:51Z</time>
      </trkpt>
      <trkpt lat="42.92286" lon="1.99371">
        <ele>464</ele>
        <time>2014-10-11T12:09:54Z</time>
      </trkpt>
      <trkpt lat="42.92291" lon="1.99381">
        <ele>464</ele>
        <time>2014-10-11T12:09:56Z</time>
      </trkpt>
      <trkpt lat="42.92299" lon="1.99397">
        <ele>464</ele>
        <time>2014-10-11T12:09:59Z</time>
      </trkpt>
      <trkpt lat="42.92303" lon="1.99409">
        <ele>464</ele>
        <time>2014-10-11T12:10:01Z</time>
      </trkpt>
      <trkpt lat="42.92308" lon="1.99421">
        <ele>464</ele>
        <time>2014-10-11T12:10:03Z</time>
      </trkpt>
      <trkpt lat="42.92312" lon="1.99433">
        <ele>465</ele>
        <time>2014-10-11T12:10:05Z</time>
      </trkpt>
      <trkpt lat="42.92318" lon="1.99451">
        <ele>465</ele>
        <time>2014-10-11T12:10:08Z</time>
      </trkpt>
      <trkpt lat="42.92321" lon="1.99462">
        <ele>464</ele>
        <time>2014-10-11T12:10:10Z</time>
      </trkpt>
      <trkpt lat="42.92325" lon="1.99473">
        <ele>465</ele>
        <time>2014-10-11T12:10:12Z</time>
      </trkpt>
      <trkpt lat="42.92329" lon="1.99484">
        <ele>465</ele>
        <time>2014-10-11T12:10:14Z</time>
      </trkpt>
      <trkpt lat="42.92332" lon="1.99493">
        <ele>465</ele>
        <time>2014-10-11T12:10:16Z</time>
      </trkpt>
      <trkpt lat="42.92335" lon="1.99502">
        <ele>465</ele>
        <time>2014-10-11T12:10:18Z</time>
      </trkpt>
      <trkpt lat="42.92336" lon="1.99506">
        <ele>465</ele>
        <time>2014-10-11T12:10:20Z</time>
      </trkpt>
      <trkpt lat="42.92336" lon="1.99506">
        <ele>465</ele>
        <time>2014-10-11T12:10:22Z</time>
      </trkpt>
      <trkpt lat="42.92337" lon="1.99507">
        <ele>465</ele>
        <time>2014-10-11T12:10:25Z</time>
      </trkpt>
      <trkpt lat="42.92337" lon="1.99507">
        <ele>464</ele>
        <time>2014-10-11T12:10:27Z</time>
      </trkpt>
      <trkpt lat="42.92338" lon="1.99507">
        <ele>464</ele>
        <time>2014-10-11T12:10:30Z</time>
      </trkpt>
      <trkpt lat="42.92338" lon="1.99507">
        <ele>464</ele>
        <time>2014-10-11T12:10:33Z</time>
      </trkpt>
      <trkpt lat="42.92339" lon="1.99507">
        <ele>464</ele>
        <time>2014-10-11T12:10:37Z</time>
      </trkpt>
      <trkpt lat="42.92339" lon="1.99507">
        <ele>464</ele>
        <time>2014-10-11T12:10:40Z</time>
      </trkpt>
      <trkpt lat="42.92339" lon="1.99507">
        <ele>464</ele>
        <time>2014-10-11T12:10:42Z</time>
      </trkpt>
      <trkpt lat="42.92339" lon="1.99507">
        <ele>465</ele>
        <time>2014-10-11T12:10:46Z</time>
      </trkpt>
      <trkpt lat="42.92339" lon="1.99507">
        <ele>465</ele>
        <time>2014-10-11T12:10:51Z</time>
      </trkpt>
      <trkpt lat="42.92341" lon="1.99509">
        <ele>465</ele>
        <time>2014-10-11T12:10:53Z</time>
      </trkpt>
      <trkpt lat="42.92344" lon="1.99513">
        <ele>465</ele>
        <time>2014-10-11T12:10:55Z</time>
      </trkpt>
      <trkpt lat="42.92347" lon="1.99522">
        <ele>465</ele>
        <time>2014-10-11T12:10:57Z</time>
      </trkpt>
      <trkpt lat="42.92354" lon="1.99538">
        <ele>465</ele>
        <time>2014-10-11T12:11:00Z</time>
      </trkpt>
      <trkpt lat="42.92361" lon="1.99549">
        <ele>466</ele>
        <time>2014-10-11T12:11:02Z</time>
      </trkpt>
      <trkpt lat="42.92369" lon="1.99562">
        <ele>466</ele>
        <time>2014-10-11T12:11:04Z</time>
      </trkpt>
      <trkpt lat="42.92381" lon="1.9958">
        <ele>467</ele>
        <time>2014-10-11T12:11:07Z</time>
      </trkpt>
      <trkpt lat="42.9239" lon="1.99592">
        <ele>466</ele>
        <time>2014-10-11T12:11:09Z</time>
      </trkpt>
      <trkpt lat="42.92403" lon="1.99613">
        <ele>466</ele>
        <time>2014-10-11T12:11:12Z</time>
      </trkpt>
      <trkpt lat="42.92411" lon="1.99627">
        <ele>466</ele>
        <time>2014-10-11T12:11:14Z</time>
      </trkpt>
      <trkpt lat="42.92421" lon="1.99641">
        <ele>466</ele>
        <time>2014-10-11T12:11:16Z</time>
      </trkpt>
      <trkpt lat="42.92434" lon="1.99664">
        <ele>465</ele>
        <time>2014-10-11T12:11:19Z</time>
      </trkpt>
      <trkpt lat="42.92442" lon="1.9968">
        <ele>464</ele>
        <time>2014-10-11T12:11:21Z</time>
      </trkpt>
      <trkpt lat="42.92451" lon="1.99698">
        <ele>464</ele>
        <time>2014-10-11T12:11:23Z</time>
      </trkpt>
      <trkpt lat="42.92467" lon="1.99724">
        <ele>462</ele>
        <time>2014-10-11T12:11:26Z</time>
      </trkpt>
      <trkpt lat="42.92482" lon="1.99737">
        <ele>462</ele>
        <time>2014-10-11T12:11:28Z</time>
      </trkpt>
      <trkpt lat="42.92506" lon="1.99753">
        <ele>460</ele>
        <time>2014-10-11T12:11:31Z</time>
      </trkpt>
      <trkpt lat="42.92526" lon="1.99779">
        <ele>458</ele>
        <time>2014-10-11T12:11:34Z</time>
      </trkpt>
      <trkpt lat="42.92531" lon="1.99805">
        <ele>457</ele>
        <time>2014-10-11T12:11:36Z</time>
      </trkpt>
      <trkpt lat="42.92536" lon="1.99846">
        <ele>456</ele>
        <time>2014-10-11T12:11:39Z</time>
      </trkpt>
      <trkpt lat="42.92541" lon="1.99887">
        <ele>454</ele>
        <time>2014-10-11T12:11:42Z</time>
      </trkpt>
      <trkpt lat="42.92547" lon="1.99927">
        <ele>452</ele>
        <time>2014-10-11T12:11:45Z</time>
      </trkpt>
      <trkpt lat="42.92552" lon="1.99958">
        <ele>450</ele>
        <time>2014-10-11T12:11:48Z</time>
      </trkpt>
      <trkpt lat="42.92553" lon="1.99973">
        <ele>449</ele>
        <time>2014-10-11T12:11:50Z</time>
      </trkpt>
      <trkpt lat="42.92554" lon="1.99976">
        <ele>449</ele>
        <time>2014-10-11T12:11:53Z</time>
      </trkpt>
      <trkpt lat="42.92554" lon="1.99977">
        <ele>449</ele>
        <time>2014-10-11T12:11:56Z</time>
      </trkpt>
      <trkpt lat="42.92554" lon="1.99977">
        <ele>449</ele>
        <time>2014-10-11T12:12:00Z</time>
      </trkpt>
      <trkpt lat="42.92567" lon="2.00002">
        <ele>454</ele>
        <time>2014-10-11T12:12:05Z</time>
      </trkpt>
      <trkpt lat="42.92568" lon="2.00001">
        <ele>454</ele>
        <time>2014-10-11T12:12:08Z</time>
      </trkpt>
      <trkpt lat="42.92568" lon="2.00001">
        <ele>454</ele>
        <time>2014-10-11T12:12:10Z</time>
      </trkpt>
      <trkpt lat="42.9257" lon="2.00002">
        <ele>454</ele>
        <time>2014-10-11T12:12:13Z</time>
      </trkpt>
      <trkpt lat="42.92574" lon="2.00003">
        <ele>454</ele>
        <time>2014-10-11T12:12:16Z</time>
      </trkpt>
      <trkpt lat="42.92581" lon="2.00003">
        <ele>454</ele>
        <time>2014-10-11T12:12:19Z</time>
      </trkpt>
      <trkpt lat="42.92586" lon="2.00003">
        <ele>455</ele>
        <time>2014-10-11T12:12:21Z</time>
      </trkpt>
      <trkpt lat="42.92591" lon="2.00002">
        <ele>455</ele>
        <time>2014-10-11T12:12:23Z</time>
      </trkpt>
      <trkpt lat="42.92596" lon="2.00002">
        <ele>455</ele>
        <time>2014-10-11T12:12:25Z</time>
      </trkpt>
      <trkpt lat="42.92601" lon="2.00002">
        <ele>455</ele>
        <time>2014-10-11T12:12:27Z</time>
      </trkpt>
      <trkpt lat="42.92609" lon="2.00001">
        <ele>455</ele>
        <time>2014-10-11T12:12:29Z</time>
      </trkpt>
      <trkpt lat="42.92616" lon="2.00001">
        <ele>455</ele>
        <time>2014-10-11T12:12:31Z</time>
      </trkpt>
      <trkpt lat="42.92623" lon="2.00001">
        <ele>455</ele>
        <time>2014-10-11T12:12:33Z</time>
      </trkpt>
      <trkpt lat="42.92631" lon="2.00001">
        <ele>455</ele>
        <time>2014-10-11T12:12:35Z</time>
      </trkpt>
      <trkpt lat="42.92639" lon="2.00001">
        <ele>455</ele>
        <time>2014-10-11T12:12:37Z</time>
      </trkpt>
      <trkpt lat="42.92647" lon="1.99999">
        <ele>455</ele>
        <time>2014-10-11T12:12:39Z</time>
      </trkpt>
      <trkpt lat="42.92656" lon="1.99997">
        <ele>455</ele>
        <time>2014-10-11T12:12:41Z</time>
      </trkpt>
      <trkpt lat="42.92667" lon="1.99993">
        <ele>455</ele>
        <time>2014-10-11T12:12:44Z</time>
      </trkpt>
      <trkpt lat="42.92674" lon="1.99989">
        <ele>455</ele>
        <time>2014-10-11T12:12:46Z</time>
      </trkpt>
      <trkpt lat="42.92684" lon="1.99982">
        <ele>455</ele>
        <time>2014-10-11T12:12:49Z</time>
      </trkpt>
      <trkpt lat="42.92689" lon="1.99978">
        <ele>455</ele>
        <time>2014-10-11T12:12:51Z</time>
      </trkpt>
      <trkpt lat="42.92695" lon="1.99975">
        <ele>455</ele>
        <time>2014-10-11T12:12:53Z</time>
      </trkpt>
      <trkpt lat="42.92702" lon="1.9997">
        <ele>455</ele>
        <time>2014-10-11T12:12:55Z</time>
      </trkpt>
      <trkpt lat="42.9271" lon="1.99963">
        <ele>456</ele>
        <time>2014-10-11T12:12:58Z</time>
      </trkpt>
      <trkpt lat="42.92716" lon="1.99959">
        <ele>456</ele>
        <time>2014-10-11T12:13:00Z</time>
      </trkpt>
      <trkpt lat="42.92721" lon="1.99955">
        <ele>457</ele>
        <time>2014-10-11T12:13:02Z</time>
      </trkpt>
      <trkpt lat="42.92727" lon="1.9995">
        <ele>457</ele>
        <time>2014-10-11T12:13:04Z</time>
      </trkpt>
      <trkpt lat="42.92732" lon="1.99945">
        <ele>457</ele>
        <time>2014-10-11T12:13:06Z</time>
      </trkpt>
      <trkpt lat="42.92738" lon="1.9994">
        <ele>458</ele>
        <time>2014-10-11T12:13:08Z</time>
      </trkpt>
      <trkpt lat="42.92744" lon="1.99934">
        <ele>458</ele>
        <time>2014-10-11T12:13:10Z</time>
      </trkpt>
      <trkpt lat="42.92754" lon="1.99927">
        <ele>458</ele>
        <time>2014-10-11T12:13:13Z</time>
      </trkpt>
      <trkpt lat="42.9276" lon="1.99922">
        <ele>459</ele>
        <time>2014-10-11T12:13:15Z</time>
      </trkpt>
      <trkpt lat="42.9277" lon="1.99914">
        <ele>459</ele>
        <time>2014-10-11T12:13:18Z</time>
      </trkpt>
      <trkpt lat="42.92775" lon="1.9991">
        <ele>459</ele>
        <time>2014-10-11T12:13:20Z</time>
      </trkpt>
      <trkpt lat="42.92779" lon="1.99908">
        <ele>459</ele>
        <time>2014-10-11T12:13:22Z</time>
      </trkpt>
      <trkpt lat="42.92783" lon="1.99905">
        <ele>459</ele>
        <time>2014-10-11T12:13:24Z</time>
      </trkpt>
      <trkpt lat="42.92786" lon="1.99903">
        <ele>459</ele>
        <time>2014-10-11T12:13:26Z</time>
      </trkpt>
      <trkpt lat="42.92792" lon="1.99899">
        <ele>459</ele>
        <time>2014-10-11T12:13:29Z</time>
      </trkpt>
      <trkpt lat="42.92796" lon="1.99897">
        <ele>459</ele>
        <time>2014-10-11T12:13:31Z</time>
      </trkpt>
      <trkpt lat="42.92804" lon="1.99894">
        <ele>459</ele>
        <time>2014-10-11T12:13:34Z</time>
      </trkpt>
      <trkpt lat="42.92809" lon="1.99891">
        <ele>459</ele>
        <time>2014-10-11T12:13:36Z</time>
      </trkpt>
      <trkpt lat="42.9282" lon="1.99887">
        <ele>459</ele>
        <time>2014-10-11T12:13:39Z</time>
      </trkpt>
      <trkpt lat="42.92828" lon="1.99884">
        <ele>459</ele>
        <time>2014-10-11T12:13:41Z</time>
      </trkpt>
      <trkpt lat="42.92839" lon="1.9988">
        <ele>459</ele>
        <time>2014-10-11T12:13:43Z</time>
      </trkpt>
      <trkpt lat="42.92851" lon="1.99876">
        <ele>459</ele>
        <time>2014-10-11T12:13:45Z</time>
      </trkpt>
      <trkpt lat="42.9287" lon="1.99869">
        <ele>459</ele>
        <time>2014-10-11T12:13:48Z</time>
      </trkpt>
      <trkpt lat="42.92882" lon="1.99864">
        <ele>459</ele>
        <time>2014-10-11T12:13:50Z</time>
      </trkpt>
      <trkpt lat="42.92897" lon="1.99859">
        <ele>459</ele>
        <time>2014-10-11T12:13:53Z</time>
      </trkpt>
      <trkpt lat="42.9291" lon="1.99854">
        <ele>459</ele>
        <time>2014-10-11T12:13:56Z</time>
      </trkpt>
      <trkpt lat="42.92923" lon="1.99851">
        <ele>459</ele>
        <time>2014-10-11T12:13:59Z</time>
      </trkpt>
      <trkpt lat="42.92933" lon="1.99846">
        <ele>460</ele>
        <time>2014-10-11T12:14:01Z</time>
      </trkpt>
      <trkpt lat="42.92942" lon="1.99841">
        <ele>460</ele>
        <time>2014-10-11T12:14:03Z</time>
      </trkpt>
      <trkpt lat="42.92956" lon="1.99833">
        <ele>460</ele>
        <time>2014-10-11T12:14:06Z</time>
      </trkpt>
      <trkpt lat="42.92965" lon="1.99827">
        <ele>460</ele>
        <time>2014-10-11T12:14:09Z</time>
      </trkpt>
      <trkpt lat="42.92971" lon="1.99822">
        <ele>459</ele>
        <time>2014-10-11T12:14:11Z</time>
      </trkpt>
      <trkpt lat="42.92981" lon="1.99816">
        <ele>460</ele>
        <time>2014-10-11T12:14:14Z</time>
      </trkpt>
      <trkpt lat="42.92987" lon="1.99813">
        <ele>460</ele>
        <time>2014-10-11T12:14:16Z</time>
      </trkpt>
      <trkpt lat="42.92996" lon="1.99809">
        <ele>460</ele>
        <time>2014-10-11T12:14:19Z</time>
      </trkpt>
      <trkpt lat="42.93006" lon="1.99806">
        <ele>460</ele>
        <time>2014-10-11T12:14:22Z</time>
      </trkpt>
      <trkpt lat="42.93014" lon="1.99805">
        <ele>460</ele>
        <time>2014-10-11T12:14:25Z</time>
      </trkpt>
      <trkpt lat="42.93022" lon="1.99801">
        <ele>459</ele>
        <time>2014-10-11T12:14:28Z</time>
      </trkpt>
      <trkpt lat="42.93031" lon="1.99795">
        <ele>458</ele>
        <time>2014-10-11T12:14:31Z</time>
      </trkpt>
      <trkpt lat="42.93039" lon="1.99794">
        <ele>458</ele>
        <time>2014-10-11T12:14:33Z</time>
      </trkpt>
      <trkpt lat="42.93052" lon="1.99795">
        <ele>457</ele>
        <time>2014-10-11T12:14:36Z</time>
      </trkpt>
      <trkpt lat="42.93058" lon="1.99795">
        <ele>457</ele>
        <time>2014-10-11T12:14:38Z</time>
      </trkpt>
      <trkpt lat="42.93063" lon="1.99795">
        <ele>456</ele>
        <time>2014-10-11T12:14:40Z</time>
      </trkpt>
      <trkpt lat="42.93067" lon="1.99796">
        <ele>455</ele>
        <time>2014-10-11T12:14:42Z</time>
      </trkpt>
      <trkpt lat="42.93072" lon="1.99796">
        <ele>455</ele>
        <time>2014-10-11T12:14:44Z</time>
      </trkpt>
      <trkpt lat="42.93077" lon="1.99798">
        <ele>455</ele>
        <time>2014-10-11T12:14:46Z</time>
      </trkpt>
      <trkpt lat="42.93085" lon="1.99801">
        <ele>455</ele>
        <time>2014-10-11T12:14:49Z</time>
      </trkpt>
      <trkpt lat="42.93092" lon="1.99802">
        <ele>456</ele>
        <time>2014-10-11T12:14:52Z</time>
      </trkpt>
      <trkpt lat="42.93097" lon="1.99804">
        <ele>457</ele>
        <time>2014-10-11T12:14:55Z</time>
      </trkpt>
      <trkpt lat="42.93103" lon="1.99806">
        <ele>458</ele>
        <time>2014-10-11T12:14:58Z</time>
      </trkpt>
      <trkpt lat="42.93108" lon="1.9981">
        <ele>458</ele>
        <time>2014-10-11T12:15:01Z</time>
      </trkpt>
      <trkpt lat="42.93116" lon="1.99818">
        <ele>458</ele>
        <time>2014-10-11T12:15:04Z</time>
      </trkpt>
      <trkpt lat="42.93124" lon="1.99826">
        <ele>457</ele>
        <time>2014-10-11T12:15:07Z</time>
      </trkpt>
      <trkpt lat="42.93126" lon="1.99828">
        <ele>457</ele>
        <time>2014-10-11T12:15:09Z</time>
      </trkpt>
      <trkpt lat="42.93129" lon="1.99829">
        <ele>457</ele>
        <time>2014-10-11T12:15:11Z</time>
      </trkpt>
      <trkpt lat="42.93136" lon="1.99834">
        <ele>457</ele>
        <time>2014-10-11T12:15:14Z</time>
      </trkpt>
      <trkpt lat="42.93138" lon="1.99835">
        <ele>457</ele>
        <time>2014-10-11T12:15:16Z</time>
      </trkpt>
      <trkpt lat="42.9314" lon="1.99835">
        <ele>456</ele>
        <time>2014-10-11T12:15:18Z</time>
      </trkpt>
      <trkpt lat="42.9314" lon="1.99835">
        <ele>456</ele>
        <time>2014-10-11T12:15:20Z</time>
      </trkpt>
      <trkpt lat="42.93141" lon="1.99835">
        <ele>456</ele>
        <time>2014-10-11T12:15:22Z</time>
      </trkpt>
      <trkpt lat="42.93142" lon="1.99835">
        <ele>456</ele>
        <time>2014-10-11T12:15:26Z</time>
      </trkpt>
      <trkpt lat="42.93142" lon="1.99835">
        <ele>456</ele>
        <time>2014-10-11T12:15:28Z</time>
      </trkpt>
      <trkpt lat="42.93142" lon="1.99835">
        <ele>456</ele>
        <time>2014-10-11T12:15:31Z</time>
      </trkpt>
      <trkpt lat="42.93142" lon="1.99835">
        <ele>456</ele>
        <time>2014-10-11T12:15:36Z</time>
      </trkpt>
      <trkpt lat="42.93142" lon="1.99835">
        <ele>456</ele>
        <time>2014-10-11T12:15:38Z</time>
      </trkpt>
      <trkpt lat="42.93142" lon="1.99836">
        <ele>456</ele>
        <time>2014-10-11T12:15:41Z</time>
      </trkpt>
      <trkpt lat="42.93142" lon="1.99836">
        <ele>456</ele>
        <time>2014-10-11T12:15:43Z</time>
      </trkpt>
      <trkpt lat="42.93142" lon="1.99836">
        <ele>456</ele>
        <time>2014-10-11T12:15:50Z</time>
      </trkpt>
      <trkpt lat="42.93142" lon="1.99836">
        <ele>456</ele>
        <time>2014-10-11T12:15:52Z</time>
      </trkpt>
      <trkpt lat="42.93142" lon="1.99836">
        <ele>456</ele>
        <time>2014-10-11T12:15:56Z</time>
      </trkpt>
      <trkpt lat="42.93142" lon="1.99836">
        <ele>456</ele>
        <time>2014-10-11T12:15:58Z</time>
      </trkpt>
      <trkpt lat="42.93142" lon="1.99836">
        <ele>456</ele>
        <time>2014-10-11T12:16:00Z</time>
      </trkpt>
      <trkpt lat="42.93142" lon="1.99836">
        <ele>456</ele>
        <time>2014-10-11T12:16:02Z</time>
      </trkpt>
      <trkpt lat="42.93142" lon="1.99836">
        <ele>455</ele>
        <time>2014-10-11T12:16:05Z</time>
      </trkpt>
      <trkpt lat="42.93142" lon="1.99836">
        <ele>456</ele>
        <time>2014-10-11T12:16:08Z</time>
      </trkpt>
      <trkpt lat="42.93142" lon="1.99836">
        <ele>456</ele>
        <time>2014-10-11T12:16:11Z</time>
      </trkpt>
      <trkpt lat="42.93145" lon="1.99837">
        <ele>456</ele>
        <time>2014-10-11T12:16:14Z</time>
      </trkpt>
      <trkpt lat="42.93154" lon="1.99841">
        <ele>455</ele>
        <time>2014-10-11T12:16:17Z</time>
      </trkpt>
      <trkpt lat="42.93166" lon="1.99847">
        <ele>455</ele>
        <time>2014-10-11T12:16:20Z</time>
      </trkpt>
      <trkpt lat="42.93179" lon="1.99851">
        <ele>454</ele>
        <time>2014-10-11T12:16:22Z</time>
      </trkpt>
      <trkpt lat="42.932" lon="1.99858">
        <ele>453</ele>
        <time>2014-10-11T12:16:25Z</time>
      </trkpt>
      <trkpt lat="42.93223" lon="1.99867">
        <ele>451</ele>
        <time>2014-10-11T12:16:28Z</time>
      </trkpt>
      <trkpt lat="42.93237" lon="1.99873">
        <ele>450</ele>
        <time>2014-10-11T12:16:30Z</time>
      </trkpt>
      <trkpt lat="42.93257" lon="1.99872">
        <ele>449</ele>
        <time>2014-10-11T12:16:33Z</time>
      </trkpt>
      <trkpt lat="42.93276" lon="1.99874">
        <ele>448</ele>
        <time>2014-10-11T12:16:36Z</time>
      </trkpt>
      <trkpt lat="42.93294" lon="1.99879">
        <ele>446</ele>
        <time>2014-10-11T12:16:38Z</time>
      </trkpt>
      <trkpt lat="42.93307" lon="1.99883">
        <ele>446</ele>
        <time>2014-10-11T12:16:40Z</time>
      </trkpt>
      <trkpt lat="42.93319" lon="1.99887">
        <ele>446</ele>
        <time>2014-10-11T12:16:42Z</time>
      </trkpt>
      <trkpt lat="42.93332" lon="1.99891">
        <ele>446</ele>
        <time>2014-10-11T12:16:45Z</time>
      </trkpt>
      <trkpt lat="42.93338" lon="1.99893">
        <ele>447</ele>
        <time>2014-10-11T12:16:47Z</time>
      </trkpt>
      <trkpt lat="42.93344" lon="1.99895">
        <ele>447</ele>
        <time>2014-10-11T12:16:49Z</time>
      </trkpt>
      <trkpt lat="42.93351" lon="1.99899">
        <ele>447</ele>
        <time>2014-10-11T12:16:51Z</time>
      </trkpt>
      <trkpt lat="42.93363" lon="1.99908">
        <ele>446</ele>
        <time>2014-10-11T12:16:54Z</time>
      </trkpt>
      <trkpt lat="42.93373" lon="1.99911">
        <ele>446</ele>
        <time>2014-10-11T12:16:56Z</time>
      </trkpt>
      <trkpt lat="42.93382" lon="1.99914">
        <ele>445</ele>
        <time>2014-10-11T12:16:58Z</time>
      </trkpt>
      <trkpt lat="42.93389" lon="1.99915">
        <ele>445</ele>
        <time>2014-10-11T12:17:00Z</time>
      </trkpt>
      <trkpt lat="42.93394" lon="1.99915">
        <ele>444</ele>
        <time>2014-10-11T12:17:03Z</time>
      </trkpt>
      <trkpt lat="42.93404" lon="1.9992">
        <ele>444</ele>
        <time>2014-10-11T12:17:06Z</time>
      </trkpt>
      <trkpt lat="42.93409" lon="1.99935">
        <ele>443</ele>
        <time>2014-10-11T12:17:09Z</time>
      </trkpt>
      <trkpt lat="42.93409" lon="1.99951">
        <ele>443</ele>
        <time>2014-10-11T12:17:11Z</time>
      </trkpt>
      <trkpt lat="42.93411" lon="1.9996">
        <ele>443</ele>
        <time>2014-10-11T12:17:14Z</time>
      </trkpt>
      <trkpt lat="42.93418" lon="1.99976">
        <ele>442</ele>
        <time>2014-10-11T12:17:17Z</time>
      </trkpt>
      <trkpt lat="42.93422" lon="1.99998">
        <ele>442</ele>
        <time>2014-10-11T12:17:20Z</time>
      </trkpt>
      <trkpt lat="42.93427" lon="2.00012">
        <ele>440</ele>
        <time>2014-10-11T12:17:23Z</time>
      </trkpt>
      <trkpt lat="42.93433" lon="2.00014">
        <ele>439</ele>
        <time>2014-10-11T12:17:26Z</time>
      </trkpt>
      <trkpt lat="42.93437" lon="2.0002">
        <ele>438</ele>
        <time>2014-10-11T12:17:29Z</time>
      </trkpt>
      <trkpt lat="42.93441" lon="2.00031">
        <ele>438</ele>
        <time>2014-10-11T12:17:32Z</time>
      </trkpt>
      <trkpt lat="42.93444" lon="2.00041">
        <ele>439</ele>
        <time>2014-10-11T12:17:34Z</time>
      </trkpt>
      <trkpt lat="42.93446" lon="2.00048">
        <ele>439</ele>
        <time>2014-10-11T12:17:37Z</time>
      </trkpt>
      <trkpt lat="42.93448" lon="2.00057">
        <ele>440</ele>
        <time>2014-10-11T12:17:40Z</time>
      </trkpt>
      <trkpt lat="42.9345" lon="2.00062">
        <ele>441</ele>
        <time>2014-10-11T12:17:43Z</time>
      </trkpt>
      <trkpt lat="42.93449" lon="2.00054">
        <ele>441</ele>
        <time>2014-10-11T12:17:45Z</time>
      </trkpt>
      <trkpt lat="42.93447" lon="2.00042">
        <ele>441</ele>
        <time>2014-10-11T12:17:48Z</time>
      </trkpt>
      <trkpt lat="42.93443" lon="2.00028">
        <ele>440</ele>
        <time>2014-10-11T12:17:51Z</time>
      </trkpt>
      <trkpt lat="42.93441" lon="2.00021">
        <ele>439</ele>
        <time>2014-10-11T12:17:53Z</time>
      </trkpt>
      <trkpt lat="42.93438" lon="2.0002">
        <ele>438</ele>
        <time>2014-10-11T12:17:55Z</time>
      </trkpt>
      <trkpt lat="42.93436" lon="2.00019">
        <ele>438</ele>
        <time>2014-10-11T12:17:57Z</time>
      </trkpt>
      <trkpt lat="42.93435" lon="2.00017">
        <ele>438</ele>
        <time>2014-10-11T12:18:00Z</time>
      </trkpt>
      <trkpt lat="42.93435" lon="2.00015">
        <ele>438</ele>
        <time>2014-10-11T12:18:03Z</time>
      </trkpt>
      <trkpt lat="42.93436" lon="2.00015">
        <ele>438</ele>
        <time>2014-10-11T12:18:05Z</time>
      </trkpt>
      <trkpt lat="42.93437" lon="2.00014">
        <ele>438</ele>
        <time>2014-10-11T12:18:08Z</time>
      </trkpt>
      <trkpt lat="42.93444" lon="2.00013">
        <ele>438</ele>
        <time>2014-10-11T12:18:11Z</time>
      </trkpt>
      <trkpt lat="42.93456" lon="2.00007">
        <ele>438</ele>
        <time>2014-10-11T12:18:13Z</time>
      </trkpt>
      <trkpt lat="42.93467" lon="2.00006">
        <ele>437</ele>
        <time>2014-10-11T12:18:15Z</time>
      </trkpt>
      <trkpt lat="42.93481" lon="2.00002">
        <ele>437</ele>
        <time>2014-10-11T12:18:17Z</time>
      </trkpt>
      <trkpt lat="42.93494" lon="1.99999">
        <ele>436</ele>
        <time>2014-10-11T12:18:20Z</time>
      </trkpt>
      <trkpt lat="42.93514" lon="2.00001">
        <ele>435</ele>
        <time>2014-10-11T12:18:22Z</time>
      </trkpt>
      <trkpt lat="42.93526" lon="2.00002">
        <ele>434</ele>
        <time>2014-10-11T12:18:24Z</time>
      </trkpt>
      <trkpt lat="42.93537" lon="2.00002">
        <ele>434</ele>
        <time>2014-10-11T12:18:26Z</time>
      </trkpt>
      <trkpt lat="42.93548" lon="1.99997">
        <ele>433</ele>
        <time>2014-10-11T12:18:29Z</time>
      </trkpt>
      <trkpt lat="42.93567" lon="1.99983">
        <ele>433</ele>
        <time>2014-10-11T12:18:32Z</time>
      </trkpt>
      <trkpt lat="42.93581" lon="1.99975">
        <ele>432</ele>
        <time>2014-10-11T12:18:34Z</time>
      </trkpt>
      <trkpt lat="42.93594" lon="1.99965">
        <ele>431</ele>
        <time>2014-10-11T12:18:36Z</time>
      </trkpt>
      <trkpt lat="42.93607" lon="1.99955">
        <ele>429</ele>
        <time>2014-10-11T12:18:38Z</time>
      </trkpt>
      <trkpt lat="42.93618" lon="1.99943">
        <ele>428</ele>
        <time>2014-10-11T12:18:40Z</time>
      </trkpt>
      <trkpt lat="42.9363" lon="1.99932">
        <ele>426</ele>
        <time>2014-10-11T12:18:42Z</time>
      </trkpt>
      <trkpt lat="42.9364" lon="1.9993">
        <ele>425</ele>
        <time>2014-10-11T12:18:44Z</time>
      </trkpt>
      <trkpt lat="42.93654" lon="1.99925">
        <ele>424</ele>
        <time>2014-10-11T12:18:47Z</time>
      </trkpt>
      <trkpt lat="42.93663" lon="1.99922">
        <ele>424</ele>
        <time>2014-10-11T12:18:49Z</time>
      </trkpt>
      <trkpt lat="42.93677" lon="1.99917">
        <ele>424</ele>
        <time>2014-10-11T12:18:52Z</time>
      </trkpt>
      <trkpt lat="42.93685" lon="1.99915">
        <ele>424</ele>
        <time>2014-10-11T12:18:54Z</time>
      </trkpt>
      <trkpt lat="42.93695" lon="1.9991">
        <ele>424</ele>
        <time>2014-10-11T12:18:56Z</time>
      </trkpt>
      <trkpt lat="42.93702" lon="1.99906">
        <ele>424</ele>
        <time>2014-10-11T12:18:59Z</time>
      </trkpt>
      <trkpt lat="42.93714" lon="1.99899">
        <ele>425</ele>
        <time>2014-10-11T12:19:01Z</time>
      </trkpt>
      <trkpt lat="42.93723" lon="1.99894">
        <ele>425</ele>
        <time>2014-10-11T12:19:04Z</time>
      </trkpt>
      <trkpt lat="42.93735" lon="1.99886">
        <ele>425</ele>
        <time>2014-10-11T12:19:07Z</time>
      </trkpt>
      <trkpt lat="42.93747" lon="1.99881">
        <ele>424</ele>
        <time>2014-10-11T12:19:10Z</time>
      </trkpt>
      <trkpt lat="42.93763" lon="1.99876">
        <ele>424</ele>
        <time>2014-10-11T12:19:13Z</time>
      </trkpt>
      <trkpt lat="42.93781" lon="1.99871">
        <ele>423</ele>
        <time>2014-10-11T12:19:16Z</time>
      </trkpt>
      <trkpt lat="42.93795" lon="1.99858">
        <ele>422</ele>
        <time>2014-10-11T12:19:19Z</time>
      </trkpt>
      <trkpt lat="42.93809" lon="1.99848">
        <ele>421</ele>
        <time>2014-10-11T12:19:21Z</time>
      </trkpt>
      <trkpt lat="42.93821" lon="1.99841">
        <ele>421</ele>
        <time>2014-10-11T12:19:23Z</time>
      </trkpt>
      <trkpt lat="42.93835" lon="1.99834">
        <ele>420</ele>
        <time>2014-10-11T12:19:26Z</time>
      </trkpt>
      <trkpt lat="42.93858" lon="1.99828">
        <ele>420</ele>
        <time>2014-10-11T12:19:28Z</time>
      </trkpt>
      <trkpt lat="42.9388" lon="1.99823">
        <ele>418</ele>
        <time>2014-10-11T12:19:31Z</time>
      </trkpt>
      <trkpt lat="42.93901" lon="1.99819">
        <ele>416</ele>
        <time>2014-10-11T12:19:34Z</time>
      </trkpt>
      <trkpt lat="42.93912" lon="1.99822">
        <ele>415</ele>
        <time>2014-10-11T12:19:36Z</time>
      </trkpt>
      <trkpt lat="42.93926" lon="1.9983">
        <ele>414</ele>
        <time>2014-10-11T12:19:39Z</time>
      </trkpt>
      <trkpt lat="42.93947" lon="1.9984">
        <ele>413</ele>
        <time>2014-10-11T12:19:41Z</time>
      </trkpt>
      <trkpt lat="42.93959" lon="1.99845">
        <ele>412</ele>
        <time>2014-10-11T12:19:44Z</time>
      </trkpt>
      <trkpt lat="42.9397" lon="1.99846">
        <ele>411</ele>
        <time>2014-10-11T12:19:46Z</time>
      </trkpt>
      <trkpt lat="42.93986" lon="1.99847">
        <ele>410</ele>
        <time>2014-10-11T12:19:48Z</time>
      </trkpt>
      <trkpt lat="42.93996" lon="1.99848">
        <ele>410</ele>
        <time>2014-10-11T12:19:50Z</time>
      </trkpt>
      <trkpt lat="42.9401" lon="1.99852">
        <ele>410</ele>
        <time>2014-10-11T12:19:54Z</time>
      </trkpt>
      <trkpt lat="42.94021" lon="1.99857">
        <ele>410</ele>
        <time>2014-10-11T12:19:57Z</time>
      </trkpt>
      <trkpt lat="42.94035" lon="1.99858">
        <ele>410</ele>
        <time>2014-10-11T12:19:59Z</time>
      </trkpt>
      <trkpt lat="42.94056" lon="1.99864">
        <ele>408</ele>
        <time>2014-10-11T12:20:03Z</time>
      </trkpt>
      <trkpt lat="42.9408" lon="1.99872">
        <ele>406</ele>
        <time>2014-10-11T12:20:05Z</time>
      </trkpt>
      <trkpt lat="42.94091" lon="1.99873">
        <ele>403</ele>
        <time>2014-10-11T12:20:07Z</time>
      </trkpt>
      <trkpt lat="42.94099" lon="1.99873">
        <ele>401</ele>
        <time>2014-10-11T12:20:10Z</time>
      </trkpt>
      <trkpt lat="42.94104" lon="1.99874">
        <ele>400</ele>
        <time>2014-10-11T12:20:12Z</time>
      </trkpt>
      <trkpt lat="42.94109" lon="1.99875">
        <ele>399</ele>
        <time>2014-10-11T12:20:15Z</time>
      </trkpt>
      <trkpt lat="42.94114" lon="1.99877">
        <ele>399</ele>
        <time>2014-10-11T12:20:17Z</time>
      </trkpt>
      <trkpt lat="42.9412" lon="1.99879">
        <ele>399</ele>
        <time>2014-10-11T12:20:19Z</time>
      </trkpt>
      <trkpt lat="42.94125" lon="1.9988">
        <ele>398</ele>
        <time>2014-10-11T12:20:21Z</time>
      </trkpt>
      <trkpt lat="42.94128" lon="1.99881">
        <ele>398</ele>
        <time>2014-10-11T12:20:24Z</time>
      </trkpt>
      <trkpt lat="42.94133" lon="1.99882">
        <ele>398</ele>
        <time>2014-10-11T12:20:27Z</time>
      </trkpt>
      <trkpt lat="42.9414" lon="1.99884">
        <ele>398</ele>
        <time>2014-10-11T12:20:30Z</time>
      </trkpt>
      <trkpt lat="42.94145" lon="1.99885">
        <ele>398</ele>
        <time>2014-10-11T12:20:32Z</time>
      </trkpt>
      <trkpt lat="42.94151" lon="1.99886">
        <ele>398</ele>
        <time>2014-10-11T12:20:34Z</time>
      </trkpt>
      <trkpt lat="42.94156" lon="1.99887">
        <ele>398</ele>
        <time>2014-10-11T12:20:36Z</time>
      </trkpt>
      <trkpt lat="42.94163" lon="1.99889">
        <ele>398</ele>
        <time>2014-10-11T12:20:39Z</time>
      </trkpt>
      <trkpt lat="42.94173" lon="1.99893">
        <ele>398</ele>
        <time>2014-10-11T12:20:42Z</time>
      </trkpt>
      <trkpt lat="42.94185" lon="1.99899">
        <ele>398</ele>
        <time>2014-10-11T12:20:45Z</time>
      </trkpt>
      <trkpt lat="42.94198" lon="1.99905">
        <ele>398</ele>
        <time>2014-10-11T12:20:47Z</time>
      </trkpt>
      <trkpt lat="42.94207" lon="1.99909">
        <ele>398</ele>
        <time>2014-10-11T12:20:49Z</time>
      </trkpt>
      <trkpt lat="42.94218" lon="1.99916">
        <ele>397</ele>
        <time>2014-10-11T12:20:51Z</time>
      </trkpt>
      <trkpt lat="42.94229" lon="1.99922">
        <ele>397</ele>
        <time>2014-10-11T12:20:53Z</time>
      </trkpt>
      <trkpt lat="42.94241" lon="1.99929">
        <ele>397</ele>
        <time>2014-10-11T12:20:56Z</time>
      </trkpt>
      <trkpt lat="42.94259" lon="1.99937">
        <ele>397</ele>
        <time>2014-10-11T12:20:58Z</time>
      </trkpt>
      <trkpt lat="42.94271" lon="1.99943">
        <ele>397</ele>
        <time>2014-10-11T12:21:01Z</time>
      </trkpt>
      <trkpt lat="42.94288" lon="1.99952">
        <ele>396</ele>
        <time>2014-10-11T12:21:03Z</time>
      </trkpt>
      <trkpt lat="42.94298" lon="1.99961">
        <ele>397</ele>
        <time>2014-10-11T12:21:06Z</time>
      </trkpt>
      <trkpt lat="42.9431" lon="1.99978">
        <ele>396</ele>
        <time>2014-10-11T12:21:08Z</time>
      </trkpt>
      <trkpt lat="42.94324" lon="1.99988">
        <ele>396</ele>
        <time>2014-10-11T12:21:11Z</time>
      </trkpt>
      <trkpt lat="42.94334" lon="1.99992">
        <ele>396</ele>
        <time>2014-10-11T12:21:13Z</time>
      </trkpt>
      <trkpt lat="42.9435" lon="1.99996">
        <ele>397</ele>
        <time>2014-10-11T12:21:16Z</time>
      </trkpt>
      <trkpt lat="42.9436" lon="1.99999">
        <ele>397</ele>
        <time>2014-10-11T12:21:19Z</time>
      </trkpt>
      <trkpt lat="42.94376" lon="2.00003">
        <ele>397</ele>
        <time>2014-10-11T12:21:21Z</time>
      </trkpt>
      <trkpt lat="42.94388" lon="2.00004">
        <ele>397</ele>
        <time>2014-10-11T12:21:23Z</time>
      </trkpt>
      <trkpt lat="42.94407" lon="2.00004">
        <ele>396</ele>
        <time>2014-10-11T12:21:26Z</time>
      </trkpt>
      <trkpt lat="42.9442" lon="2.00004">
        <ele>396</ele>
        <time>2014-10-11T12:21:28Z</time>
      </trkpt>
      <trkpt lat="42.9444" lon="2.00005">
        <ele>395</ele>
        <time>2014-10-11T12:21:31Z</time>
      </trkpt>
      <trkpt lat="42.9446" lon="2.00003">
        <ele>395</ele>
        <time>2014-10-11T12:21:34Z</time>
      </trkpt>
      <trkpt lat="42.94474" lon="2.00003">
        <ele>395</ele>
        <time>2014-10-11T12:21:36Z</time>
      </trkpt>
      <trkpt lat="42.94487" lon="2.00003">
        <ele>394</ele>
        <time>2014-10-11T12:21:38Z</time>
      </trkpt>
      <trkpt lat="42.945" lon="2.00002">
        <ele>394</ele>
        <time>2014-10-11T12:21:41Z</time>
      </trkpt>
      <trkpt lat="42.9452" lon="2.00002">
        <ele>393</ele>
        <time>2014-10-11T12:21:43Z</time>
      </trkpt>
      <trkpt lat="42.94533" lon="2.00001">
        <ele>392</ele>
        <time>2014-10-11T12:21:45Z</time>
      </trkpt>
      <trkpt lat="42.94545" lon="2.00001">
        <ele>392</ele>
        <time>2014-10-11T12:21:47Z</time>
      </trkpt>
      <trkpt lat="42.94557" lon="2">
        <ele>392</ele>
        <time>2014-10-11T12:21:50Z</time>
      </trkpt>
      <trkpt lat="42.94574" lon="2.00001">
        <ele>392</ele>
        <time>2014-10-11T12:21:52Z</time>
      </trkpt>
      <trkpt lat="42.94585" lon="2">
        <ele>392</ele>
        <time>2014-10-11T12:21:54Z</time>
      </trkpt>
      <trkpt lat="42.94595" lon="2">
        <ele>392</ele>
        <time>2014-10-11T12:21:56Z</time>
      </trkpt>
      <trkpt lat="42.94605" lon="2">
        <ele>392</ele>
        <time>2014-10-11T12:21:59Z</time>
      </trkpt>
      <trkpt lat="42.94623" lon="1.99998">
        <ele>392</ele>
        <time>2014-10-11T12:22:01Z</time>
      </trkpt>
      <trkpt lat="42.94635" lon="1.99997">
        <ele>392</ele>
        <time>2014-10-11T12:22:03Z</time>
      </trkpt>
      <trkpt lat="42.94648" lon="1.99995">
        <ele>392</ele>
        <time>2014-10-11T12:22:05Z</time>
      </trkpt>
      <trkpt lat="42.94667" lon="1.99988">
        <ele>392</ele>
        <time>2014-10-11T12:22:09Z</time>
      </trkpt>
      <trkpt lat="42.94687" lon="1.99977">
        <ele>392</ele>
        <time>2014-10-11T12:22:11Z</time>
      </trkpt>
      <trkpt lat="42.94697" lon="1.99971">
        <ele>391</ele>
        <time>2014-10-11T12:22:13Z</time>
      </trkpt>
      <trkpt lat="42.94705" lon="1.99965">
        <ele>391</ele>
        <time>2014-10-11T12:22:15Z</time>
      </trkpt>
      <trkpt lat="42.94717" lon="1.99959">
        <ele>391</ele>
        <time>2014-10-11T12:22:18Z</time>
      </trkpt>
      <trkpt lat="42.94733" lon="1.9995">
        <ele>391</ele>
        <time>2014-10-11T12:22:20Z</time>
      </trkpt>
      <trkpt lat="42.94744" lon="1.99944">
        <ele>390</ele>
        <time>2014-10-11T12:22:22Z</time>
      </trkpt>
      <trkpt lat="42.94757" lon="1.99941">
        <ele>390</ele>
        <time>2014-10-11T12:22:24Z</time>
      </trkpt>
      <trkpt lat="42.94772" lon="1.99936">
        <ele>390</ele>
        <time>2014-10-11T12:22:26Z</time>
      </trkpt>
      <trkpt lat="42.94786" lon="1.99931">
        <ele>390</ele>
        <time>2014-10-11T12:22:28Z</time>
      </trkpt>
      <trkpt lat="42.94802" lon="1.99927">
        <ele>389</ele>
        <time>2014-10-11T12:22:30Z</time>
      </trkpt>
      <trkpt lat="42.94818" lon="1.99923">
        <ele>389</ele>
        <time>2014-10-11T12:22:32Z</time>
      </trkpt>
      <trkpt lat="42.94834" lon="1.99921">
        <ele>389</ele>
        <time>2014-10-11T12:22:34Z</time>
      </trkpt>
      <trkpt lat="42.9485" lon="1.99918">
        <ele>388</ele>
        <time>2014-10-11T12:22:36Z</time>
      </trkpt>
      <trkpt lat="42.94866" lon="1.99916">
        <ele>388</ele>
        <time>2014-10-11T12:22:39Z</time>
      </trkpt>
      <trkpt lat="42.9489" lon="1.99912">
        <ele>387</ele>
        <time>2014-10-11T12:22:41Z</time>
      </trkpt>
      <trkpt lat="42.94905" lon="1.99909">
        <ele>387</ele>
        <time>2014-10-11T12:22:43Z</time>
      </trkpt>
      <trkpt lat="42.94925" lon="1.99906">
        <ele>386</ele>
        <time>2014-10-11T12:22:46Z</time>
      </trkpt>
      <trkpt lat="42.94939" lon="1.99904">
        <ele>386</ele>
        <time>2014-10-11T12:22:48Z</time>
      </trkpt>
      <trkpt lat="42.94953" lon="1.99901">
        <ele>385</ele>
        <time>2014-10-11T12:22:51Z</time>
      </trkpt>
      <trkpt lat="42.94973" lon="1.99896">
        <ele>385</ele>
        <time>2014-10-11T12:22:53Z</time>
      </trkpt>
      <trkpt lat="42.94992" lon="1.99894">
        <ele>385</ele>
        <time>2014-10-11T12:22:56Z</time>
      </trkpt>
      <trkpt lat="42.95006" lon="1.99892">
        <ele>385</ele>
        <time>2014-10-11T12:22:58Z</time>
      </trkpt>
      <trkpt lat="42.95021" lon="1.9989">
        <ele>384</ele>
        <time>2014-10-11T12:23:00Z</time>
      </trkpt>
      <trkpt lat="42.95035" lon="1.99888">
        <ele>385</ele>
        <time>2014-10-11T12:23:02Z</time>
      </trkpt>
      <trkpt lat="42.9505" lon="1.99886">
        <ele>384</ele>
        <time>2014-10-11T12:23:04Z</time>
      </trkpt>
      <trkpt lat="42.95066" lon="1.99885">
        <ele>384</ele>
        <time>2014-10-11T12:23:06Z</time>
      </trkpt>
      <trkpt lat="42.9508" lon="1.99883">
        <ele>384</ele>
        <time>2014-10-11T12:23:09Z</time>
      </trkpt>
      <trkpt lat="42.95102" lon="1.99881">
        <ele>384</ele>
        <time>2014-10-11T12:23:11Z</time>
      </trkpt>
      <trkpt lat="42.95116" lon="1.9988">
        <ele>384</ele>
        <time>2014-10-11T12:23:13Z</time>
      </trkpt>
      <trkpt lat="42.95131" lon="1.99879">
        <ele>383</ele>
        <time>2014-10-11T12:23:15Z</time>
      </trkpt>
      <trkpt lat="42.95145" lon="1.99879">
        <ele>383</ele>
        <time>2014-10-11T12:23:17Z</time>
      </trkpt>
      <trkpt lat="42.95158" lon="1.99879">
        <ele>383</ele>
        <time>2014-10-11T12:23:20Z</time>
      </trkpt>
      <trkpt lat="42.95176" lon="1.99878">
        <ele>383</ele>
        <time>2014-10-11T12:23:22Z</time>
      </trkpt>
      <trkpt lat="42.95186" lon="1.99876">
        <ele>383</ele>
        <time>2014-10-11T12:23:24Z</time>
      </trkpt>
      <trkpt lat="42.95193" lon="1.99876">
        <ele>382</ele>
        <time>2014-10-11T12:23:26Z</time>
      </trkpt>
      <trkpt lat="42.952" lon="1.99876">
        <ele>382</ele>
        <time>2014-10-11T12:23:29Z</time>
      </trkpt>
      <trkpt lat="42.95203" lon="1.99876">
        <ele>382</ele>
        <time>2014-10-11T12:23:32Z</time>
      </trkpt>
      <trkpt lat="42.95204" lon="1.99877">
        <ele>382</ele>
        <time>2014-10-11T12:23:34Z</time>
      </trkpt>
      <trkpt lat="42.9523" lon="1.99883">
        <ele>383</ele>
        <time>2014-10-11T12:23:37Z</time>
      </trkpt>
      <trkpt lat="42.95238" lon="1.99883">
        <ele>382</ele>
        <time>2014-10-11T12:23:39Z</time>
      </trkpt>
      <trkpt lat="42.95364" lon="1.99902">
        <ele>382.22344970703</ele>
        <time>2014-10-11T12:23:56Z</time>
      </trkpt>
      <trkpt lat="42.95466" lon="1.99992">
        <ele>382.39129638672</ele>
        <time>2014-10-11T12:24:08Z</time>
      </trkpt>
      <trkpt lat="42.95493" lon="1.99869">
        <ele>382.51217651367</ele>
        <time>2014-10-11T12:24:17Z</time>
      </trkpt>
      <trkpt lat="42.95542" lon="1.99853">
        <ele>382.57556152344</ele>
        <time>2014-10-11T12:24:22Z</time>
      </trkpt>
      <trkpt lat="42.95459" lon="1.99659">
        <ele>382.8232421875</ele>
        <time>2014-10-11T12:24:40Z</time>
      </trkpt>
      <trkpt lat="42.95408" lon="1.99571">
        <ele>383.00994873047</ele>
        <time>2014-10-11T12:24:54Z</time>
      </trkpt>
      <trkpt lat="42.95287" lon="1.9935">
        <ele>383.16943359375</ele>
        <time>2014-10-11T12:25:07Z</time>
      </trkpt>
      <trkpt lat="42.95222" lon="1.99229">
        <ele>383.56741333008</ele>
        <time>2014-10-11T12:25:38Z</time>
      </trkpt>
      <trkpt lat="42.95197" lon="1.99133">
        <ele>384.44787597656</ele>
        <time>2014-10-11T12:26:47Z</time>
      </trkpt>
      <trkpt lat="42.95187" lon="1.98966">
        <ele>384.81567382812</ele>
        <time>2014-10-11T12:27:15Z</time>
      </trkpt>
      <trkpt lat="42.95205" lon="1.98814">
        <ele>385.27548217773</ele>
        <time>2014-10-11T12:27:50Z</time>
      </trkpt>
      <trkpt lat="42.95251" lon="1.98723">
        <ele>385.44293212891</ele>
        <time>2014-10-11T12:28:03Z</time>
      </trkpt>
      <trkpt lat="42.95312" lon="1.98624">
        <ele>385.59915161133</ele>
        <time>2014-10-11T12:28:15Z</time>
      </trkpt>
      <trkpt lat="42.95456" lon="1.98489">
        <ele>385.80572509766</ele>
        <time>2014-10-11T12:28:32Z</time>
      </trkpt>
      <trkpt lat="42.95514" lon="1.98427">
        <ele>386.12899780273</ele>
        <time>2014-10-11T12:28:56Z</time>
      </trkpt>
      <trkpt lat="42.95576" lon="1.98304">
        <ele>386.50988769531</ele>
        <time>2014-10-11T12:29:26Z</time>
      </trkpt>
      <trkpt lat="42.95611" lon="1.98169">
        <ele>387.09161376953</ele>
        <time>2014-10-11T12:30:11Z</time>
      </trkpt>
      <trkpt lat="42.9563" lon="1.9801">
        <ele>387.73272705078</ele>
        <time>2014-10-11T12:31:00Z</time>
      </trkpt>
      <trkpt lat="42.95621" lon="1.97892">
        <ele>388.10888671875</ele>
        <time>2014-10-11T12:31:29Z</time>
      </trkpt>
      <trkpt lat="42.95586" lon="1.97745">
        <ele>388.49703979492</ele>
        <time>2014-10-11T12:31:59Z</time>
      </trkpt>
      <trkpt lat="42.95506" lon="1.97442">
        <ele>389.04486083984</ele>
        <time>2014-10-11T12:32:41Z</time>
      </trkpt>
      <trkpt lat="42.95515" lon="1.97369">
        <ele>389.42211914062</ele>
        <time>2014-10-11T12:33:10Z</time>
      </trkpt>
      <trkpt lat="42.95497" lon="1.97314">
        <ele>389.67434692383</ele>
        <time>2014-10-11T12:33:29Z</time>
      </trkpt>
      <trkpt lat="42.95446" lon="1.9722">
        <ele>389.90133666992</ele>
        <time>2014-10-11T12:33:46Z</time>
      </trkpt>
      <trkpt lat="42.95518" lon="1.97188">
        <ele>390.07110595703</ele>
        <time>2014-10-11T12:33:59Z</time>
      </trkpt>
      <trkpt lat="42.95469" lon="1.97135">
        <ele>390.17105102539</ele>
        <time>2014-10-11T12:34:06Z</time>
      </trkpt>
      <trkpt lat="42.95454" lon="1.96848">
        <ele>390.53472900391</ele>
        <time>2014-10-11T12:34:34Z</time>
      </trkpt>
      <trkpt lat="42.95493" lon="1.96848">
        <ele>390.66174316406</ele>
        <time>2014-10-11T12:34:43Z</time>
      </trkpt>
      <trkpt lat="42.95509" lon="1.9689">
        <ele>390.75637817383</ele>
        <time>2014-10-11T12:34:49Z</time>
      </trkpt>
      <trkpt lat="42.95527" lon="1.96867">
        <ele>390.80822753906</ele>
        <time>2014-10-11T12:34:52Z</time>
      </trkpt>
      <trkpt lat="42.95567" lon="1.96922">
        <ele>390.81814575195</ele>
        <time>2014-10-11T12:34:52Z</time>
      </trkpt>
      <trkpt lat="42.95563" lon="1.96855">
        <ele>390.83367919922</ele>
        <time>2014-10-11T12:34:54Z</time>
      </trkpt>
      <trkpt lat="42.95547" lon="1.96754">
        <ele>390.91632080078</ele>
        <time>2014-10-11T12:35:01Z</time>
      </trkpt>
      <trkpt lat="42.95638" lon="1.96626">
        <ele>391.19622802734</ele>
        <time>2014-10-11T12:35:22Z</time>
      </trkpt>
      <trkpt lat="42.9567" lon="1.96521">
        <ele>391.40686035156</ele>
        <time>2014-10-11T12:35:39Z</time>
      </trkpt>
      <trkpt lat="42.95703" lon="1.96308">
        <ele>391.80270385742</ele>
        <time>2014-10-11T12:36:10Z</time>
      </trkpt>
      <trkpt lat="42.95761" lon="1.96044">
        <ele>392.3616027832</ele>
        <time>2014-10-11T12:36:54Z</time>
      </trkpt>
      <trkpt lat="42.959" lon="1.95707">
        <ele>393.04278564453</ele>
        <time>2014-10-11T12:37:48Z</time>
      </trkpt>
      <trkpt lat="42.95965" lon="1.95591">
        <ele>393.64669799805</ele>
        <time>2014-10-11T12:38:35Z</time>
      </trkpt>
      <trkpt lat="42.96052" lon="1.95613">
        <ele>393.962890625</ele>
        <time>2014-10-11T12:39:00Z</time>
      </trkpt>
      <trkpt lat="42.96226" lon="1.95623">
        <ele>394.27700805664</ele>
        <time>2014-10-11T12:39:25Z</time>
      </trkpt>
      <trkpt lat="42.96264" lon="1.95509">
        <ele>394.51278686523</ele>
        <time>2014-10-11T12:39:43Z</time>
      </trkpt>
      <trkpt lat="42.96307" lon="1.95533">
        <ele>394.65591430664</ele>
        <time>2014-10-11T12:39:54Z</time>
      </trkpt>
      <trkpt lat="42.96359" lon="1.95521">
        <ele>394.84017944336</ele>
        <time>2014-10-11T12:40:08Z</time>
      </trkpt>
      <trkpt lat="42.96416" lon="1.95549">
        <ele>394.91592407227</ele>
        <time>2014-10-11T12:40:13Z</time>
      </trkpt>
      <trkpt lat="42.96479" lon="1.95601">
        <ele>395.01458740234</ele>
        <time>2014-10-11T12:40:21Z</time>
      </trkpt>
      <trkpt lat="42.96569" lon="1.9558">
        <ele>395.14001464844</ele>
        <time>2014-10-11T12:40:31Z</time>
      </trkpt>
      <trkpt lat="42.96619" lon="1.95539">
        <ele>395.25036621094</ele>
        <time>2014-10-11T12:40:40Z</time>
      </trkpt>
      <trkpt lat="42.96659" lon="1.95448">
        <ele>395.48263549805</ele>
        <time>2014-10-11T12:40:59Z</time>
      </trkpt>
      <trkpt lat="42.9674" lon="1.95223">
        <ele>395.76428222656</ele>
        <time>2014-10-11T12:41:23Z</time>
      </trkpt>
      <trkpt lat="42.96746" lon="1.95121">
        <ele>396</ele>
        <time>2014-10-11T12:41:43Z</time>
      </trkpt>
      <trkpt lat="42.96747" lon="1.95105">
        <ele>396</ele>
        <time>2014-10-11T12:41:45Z</time>
      </trkpt>
      <trkpt lat="42.96749" lon="1.95081">
        <ele>396</ele>
        <time>2014-10-11T12:41:48Z</time>
      </trkpt>
      <trkpt lat="42.96752" lon="1.95065">
        <ele>396</ele>
        <time>2014-10-11T12:41:50Z</time>
      </trkpt>
      <trkpt lat="42.96757" lon="1.9505">
        <ele>397</ele>
        <time>2014-10-11T12:41:52Z</time>
      </trkpt>
      <trkpt lat="42.96766" lon="1.95029">
        <ele>396</ele>
        <time>2014-10-11T12:41:55Z</time>
      </trkpt>
      <trkpt lat="42.96776" lon="1.95008">
        <ele>397</ele>
        <time>2014-10-11T12:41:58Z</time>
      </trkpt>
      <trkpt lat="42.96784" lon="1.94994">
        <ele>397</ele>
        <time>2014-10-11T12:42:00Z</time>
      </trkpt>
      <trkpt lat="42.96795" lon="1.94972">
        <ele>396</ele>
        <time>2014-10-11T12:42:03Z</time>
      </trkpt>
      <trkpt lat="42.96803" lon="1.94957">
        <ele>396</ele>
        <time>2014-10-11T12:42:05Z</time>
      </trkpt>
      <trkpt lat="42.9681" lon="1.94941">
        <ele>396</ele>
        <time>2014-10-11T12:42:07Z</time>
      </trkpt>
      <trkpt lat="42.96818" lon="1.94925">
        <ele>396</ele>
        <time>2014-10-11T12:42:09Z</time>
      </trkpt>
      <trkpt lat="42.96826" lon="1.9491">
        <ele>396</ele>
        <time>2014-10-11T12:42:11Z</time>
      </trkpt>
      <trkpt lat="42.96834" lon="1.94895">
        <ele>396</ele>
        <time>2014-10-11T12:42:13Z</time>
      </trkpt>
      <trkpt lat="42.96841" lon="1.94879">
        <ele>396</ele>
        <time>2014-10-11T12:42:15Z</time>
      </trkpt>
      <trkpt lat="42.9685" lon="1.94854">
        <ele>396</ele>
        <time>2014-10-11T12:42:18Z</time>
      </trkpt>
      <trkpt lat="42.96855" lon="1.94837">
        <ele>396</ele>
        <time>2014-10-11T12:42:20Z</time>
      </trkpt>
      <trkpt lat="42.96859" lon="1.94811">
        <ele>396</ele>
        <time>2014-10-11T12:42:23Z</time>
      </trkpt>
      <trkpt lat="42.96859" lon="1.94786">
        <ele>396</ele>
        <time>2014-10-11T12:42:26Z</time>
      </trkpt>
      <trkpt lat="42.96859" lon="1.94762">
        <ele>396</ele>
        <time>2014-10-11T12:42:29Z</time>
      </trkpt>
      <trkpt lat="42.96859" lon="1.94746">
        <ele>396</ele>
        <time>2014-10-11T12:42:31Z</time>
      </trkpt>
      <trkpt lat="42.96859" lon="1.94729">
        <ele>396</ele>
        <time>2014-10-11T12:42:33Z</time>
      </trkpt>
      <trkpt lat="42.9686" lon="1.94713">
        <ele>396</ele>
        <time>2014-10-11T12:42:35Z</time>
      </trkpt>
      <trkpt lat="42.96862" lon="1.94689">
        <ele>396</ele>
        <time>2014-10-11T12:42:38Z</time>
      </trkpt>
      <trkpt lat="42.96866" lon="1.94674">
        <ele>396</ele>
        <time>2014-10-11T12:42:40Z</time>
      </trkpt>
      <trkpt lat="42.9687" lon="1.94659">
        <ele>396</ele>
        <time>2014-10-11T12:42:42Z</time>
      </trkpt>
      <trkpt lat="42.96875" lon="1.94638">
        <ele>396</ele>
        <time>2014-10-11T12:42:45Z</time>
      </trkpt>
      <trkpt lat="42.96883" lon="1.94622">
        <ele>396</ele>
        <time>2014-10-11T12:42:48Z</time>
      </trkpt>
      <trkpt lat="42.96892" lon="1.94627">
        <ele>396</ele>
        <time>2014-10-11T12:42:51Z</time>
      </trkpt>
      <trkpt lat="42.96896" lon="1.94641">
        <ele>397</ele>
        <time>2014-10-11T12:42:54Z</time>
      </trkpt>
      <trkpt lat="42.96899" lon="1.94652">
        <ele>397</ele>
        <time>2014-10-11T12:42:56Z</time>
      </trkpt>
      <trkpt lat="42.96904" lon="1.94668">
        <ele>397</ele>
        <time>2014-10-11T12:42:59Z</time>
      </trkpt>
      <trkpt lat="42.9691" lon="1.9468">
        <ele>397</ele>
        <time>2014-10-11T12:43:01Z</time>
      </trkpt>
      <trkpt lat="42.9692" lon="1.94698">
        <ele>397</ele>
        <time>2014-10-11T12:43:04Z</time>
      </trkpt>
      <trkpt lat="42.96926" lon="1.94711">
        <ele>397</ele>
        <time>2014-10-11T12:43:06Z</time>
      </trkpt>
      <trkpt lat="42.96936" lon="1.9473">
        <ele>397</ele>
        <time>2014-10-11T12:43:09Z</time>
      </trkpt>
      <trkpt lat="42.96945" lon="1.94749">
        <ele>396</ele>
        <time>2014-10-11T12:43:12Z</time>
      </trkpt>
      <trkpt lat="42.96948" lon="1.94762">
        <ele>396</ele>
        <time>2014-10-11T12:43:14Z</time>
      </trkpt>
      <trkpt lat="42.96949" lon="1.94775">
        <ele>396</ele>
        <time>2014-10-11T12:43:16Z</time>
      </trkpt>
      <trkpt lat="42.96949" lon="1.94794">
        <ele>396</ele>
        <time>2014-10-11T12:43:19Z</time>
      </trkpt>
      <trkpt lat="42.96949" lon="1.94812">
        <ele>397</ele>
        <time>2014-10-11T12:43:22Z</time>
      </trkpt>
      <trkpt lat="42.96947" lon="1.94825">
        <ele>397</ele>
        <time>2014-10-11T12:43:24Z</time>
      </trkpt>
      <trkpt lat="42.96946" lon="1.94838">
        <ele>397</ele>
        <time>2014-10-11T12:43:26Z</time>
      </trkpt>
      <trkpt lat="42.96945" lon="1.94851">
        <ele>397</ele>
        <time>2014-10-11T12:43:28Z</time>
      </trkpt>
      <trkpt lat="42.96943" lon="1.94869">
        <ele>397</ele>
        <time>2014-10-11T12:43:31Z</time>
      </trkpt>
      <trkpt lat="42.96941" lon="1.94881">
        <ele>397</ele>
        <time>2014-10-11T12:43:33Z</time>
      </trkpt>
      <trkpt lat="42.96941" lon="1.94893">
        <ele>397</ele>
        <time>2014-10-11T12:43:35Z</time>
      </trkpt>
      <trkpt lat="42.96941" lon="1.9491">
        <ele>397</ele>
        <time>2014-10-11T12:43:38Z</time>
      </trkpt>
      <trkpt lat="42.96941" lon="1.94921">
        <ele>397</ele>
        <time>2014-10-11T12:43:40Z</time>
      </trkpt>
      <trkpt lat="42.96946" lon="1.94933">
        <ele>397</ele>
        <time>2014-10-11T12:43:43Z</time>
      </trkpt>
      <trkpt lat="42.96952" lon="1.9494">
        <ele>396</ele>
        <time>2014-10-11T12:43:45Z</time>
      </trkpt>
      <trkpt lat="42.96958" lon="1.94945">
        <ele>396</ele>
        <time>2014-10-11T12:43:47Z</time>
      </trkpt>
      <trkpt lat="42.96962" lon="1.94947">
        <ele>395</ele>
        <time>2014-10-11T12:43:49Z</time>
      </trkpt>
      <trkpt lat="42.96964" lon="1.94949">
        <ele>395</ele>
        <time>2014-10-11T12:43:51Z</time>
      </trkpt>
      <trkpt lat="42.96966" lon="1.94951">
        <ele>395</ele>
        <time>2014-10-11T12:43:53Z</time>
      </trkpt>
      <trkpt lat="42.96968" lon="1.94953">
        <ele>395</ele>
        <time>2014-10-11T12:43:55Z</time>
      </trkpt>
      <trkpt lat="42.96972" lon="1.94954">
        <ele>394</ele>
        <time>2014-10-11T12:43:57Z</time>
      </trkpt>
      <trkpt lat="42.9698" lon="1.94956">
        <ele>394</ele>
        <time>2014-10-11T12:44:00Z</time>
      </trkpt>
      <trkpt lat="42.96993" lon="1.94961">
        <ele>394</ele>
        <time>2014-10-11T12:44:03Z</time>
      </trkpt>
      <trkpt lat="42.96999" lon="1.94956">
        <ele>393</ele>
        <time>2014-10-11T12:44:05Z</time>
      </trkpt>
      <trkpt lat="42.97003" lon="1.94946">
        <ele>393</ele>
        <time>2014-10-11T12:44:07Z</time>
      </trkpt>
      <trkpt lat="42.97008" lon="1.94927">
        <ele>393</ele>
        <time>2014-10-11T12:44:10Z</time>
      </trkpt>
      <trkpt lat="42.97017" lon="1.94913">
        <ele>393</ele>
        <time>2014-10-11T12:44:13Z</time>
      </trkpt>
      <trkpt lat="42.97024" lon="1.94912">
        <ele>393</ele>
        <time>2014-10-11T12:44:15Z</time>
      </trkpt>
      <trkpt lat="42.97035" lon="1.94915">
        <ele>393</ele>
        <time>2014-10-11T12:44:18Z</time>
      </trkpt>
      <trkpt lat="42.97046" lon="1.94923">
        <ele>393</ele>
        <time>2014-10-11T12:44:21Z</time>
      </trkpt>
      <trkpt lat="42.97053" lon="1.94936">
        <ele>393</ele>
        <time>2014-10-11T12:44:24Z</time>
      </trkpt>
      <trkpt lat="42.97063" lon="1.94948">
        <ele>393</ele>
        <time>2014-10-11T12:44:27Z</time>
      </trkpt>
      <trkpt lat="42.97075" lon="1.94956">
        <ele>393</ele>
        <time>2014-10-11T12:44:30Z</time>
      </trkpt>
      <trkpt lat="42.97085" lon="1.94958">
        <ele>393</ele>
        <time>2014-10-11T12:44:32Z</time>
      </trkpt>
      <trkpt lat="42.971" lon="1.94961">
        <ele>393</ele>
        <time>2014-10-11T12:44:35Z</time>
      </trkpt>
      <trkpt lat="42.97117" lon="1.94969">
        <ele>394</ele>
        <time>2014-10-11T12:44:38Z</time>
      </trkpt>
      <trkpt lat="42.9713" lon="1.9498">
        <ele>394</ele>
        <time>2014-10-11T12:44:41Z</time>
      </trkpt>
      <trkpt lat="42.9714" lon="1.94986">
        <ele>395</ele>
        <time>2014-10-11T12:44:44Z</time>
      </trkpt>
      <trkpt lat="42.97148" lon="1.94991">
        <ele>396</ele>
        <time>2014-10-11T12:44:47Z</time>
      </trkpt>
      <trkpt lat="42.97158" lon="1.94999">
        <ele>396</ele>
        <time>2014-10-11T12:44:49Z</time>
      </trkpt>
      <trkpt lat="42.97174" lon="1.95014">
        <ele>396</ele>
        <time>2014-10-11T12:44:52Z</time>
      </trkpt>
      <trkpt lat="42.97187" lon="1.95021">
        <ele>395</ele>
        <time>2014-10-11T12:44:54Z</time>
      </trkpt>
      <trkpt lat="42.97199" lon="1.95026">
        <ele>395</ele>
        <time>2014-10-11T12:44:56Z</time>
      </trkpt>
      <trkpt lat="42.97217" lon="1.9503">
        <ele>394</ele>
        <time>2014-10-11T12:44:59Z</time>
      </trkpt>
      <trkpt lat="42.97229" lon="1.95032">
        <ele>395</ele>
        <time>2014-10-11T12:45:01Z</time>
      </trkpt>
      <trkpt lat="42.97246" lon="1.95035">
        <ele>395</ele>
        <time>2014-10-11T12:45:04Z</time>
      </trkpt>
      <trkpt lat="42.97262" lon="1.95038">
        <ele>395</ele>
        <time>2014-10-11T12:45:07Z</time>
      </trkpt>
      <trkpt lat="42.97273" lon="1.95037">
        <ele>395</ele>
        <time>2014-10-11T12:45:09Z</time>
      </trkpt>
      <trkpt lat="42.97288" lon="1.95029">
        <ele>395</ele>
        <time>2014-10-11T12:45:12Z</time>
      </trkpt>
      <trkpt lat="42.97304" lon="1.95027">
        <ele>395</ele>
        <time>2014-10-11T12:45:15Z</time>
      </trkpt>
      <trkpt lat="42.97313" lon="1.95032">
        <ele>394</ele>
        <time>2014-10-11T12:45:17Z</time>
      </trkpt>
      <trkpt lat="42.97321" lon="1.95042">
        <ele>394</ele>
        <time>2014-10-11T12:45:20Z</time>
      </trkpt>
      <trkpt lat="42.97328" lon="1.95052">
        <ele>394</ele>
        <time>2014-10-11T12:45:23Z</time>
      </trkpt>
      <trkpt lat="42.97334" lon="1.95061">
        <ele>395</ele>
        <time>2014-10-11T12:45:26Z</time>
      </trkpt>
      <trkpt lat="42.97339" lon="1.95072">
        <ele>395</ele>
        <time>2014-10-11T12:45:29Z</time>
      </trkpt>
      <trkpt lat="42.97341" lon="1.95083">
        <ele>395</ele>
        <time>2014-10-11T12:45:32Z</time>
      </trkpt>
      <trkpt lat="42.97344" lon="1.95095">
        <ele>395</ele>
        <time>2014-10-11T12:45:35Z</time>
      </trkpt>
      <trkpt lat="42.9735" lon="1.95108">
        <ele>394</ele>
        <time>2014-10-11T12:45:38Z</time>
      </trkpt>
      <trkpt lat="42.97355" lon="1.95115">
        <ele>394</ele>
        <time>2014-10-11T12:45:40Z</time>
      </trkpt>
      <trkpt lat="42.97366" lon="1.95122">
        <ele>394</ele>
        <time>2014-10-11T12:45:43Z</time>
      </trkpt>
      <trkpt lat="42.97374" lon="1.9513">
        <ele>393</ele>
        <time>2014-10-11T12:45:46Z</time>
      </trkpt>
      <trkpt lat="42.97381" lon="1.95134">
        <ele>393</ele>
        <time>2014-10-11T12:45:48Z</time>
      </trkpt>
      <trkpt lat="42.97392" lon="1.95139">
        <ele>393</ele>
        <time>2014-10-11T12:45:51Z</time>
      </trkpt>
      <trkpt lat="42.97398" lon="1.95141">
        <ele>393</ele>
        <time>2014-10-11T12:45:53Z</time>
      </trkpt>
      <trkpt lat="42.97404" lon="1.95142">
        <ele>393</ele>
        <time>2014-10-11T12:45:55Z</time>
      </trkpt>
      <trkpt lat="42.97412" lon="1.95142">
        <ele>393</ele>
        <time>2014-10-11T12:45:57Z</time>
      </trkpt>
      <trkpt lat="42.97424" lon="1.95138">
        <ele>393</ele>
        <time>2014-10-11T12:46:00Z</time>
      </trkpt>
      <trkpt lat="42.97432" lon="1.95134">
        <ele>393</ele>
        <time>2014-10-11T12:46:02Z</time>
      </trkpt>
      <trkpt lat="42.9744" lon="1.9513">
        <ele>393</ele>
        <time>2014-10-11T12:46:04Z</time>
      </trkpt>
      <trkpt lat="42.97451" lon="1.9513">
        <ele>393</ele>
        <time>2014-10-11T12:46:07Z</time>
      </trkpt>
      <trkpt lat="42.97462" lon="1.95123">
        <ele>393</ele>
        <time>2014-10-11T12:46:10Z</time>
      </trkpt>
      <trkpt lat="42.97467" lon="1.95114">
        <ele>393</ele>
        <time>2014-10-11T12:46:12Z</time>
      </trkpt>
      <trkpt lat="42.97474" lon="1.95099">
        <ele>393</ele>
        <time>2014-10-11T12:46:15Z</time>
      </trkpt>
      <trkpt lat="42.97479" lon="1.95081">
        <ele>394</ele>
        <time>2014-10-11T12:46:18Z</time>
      </trkpt>
      <trkpt lat="42.97484" lon="1.95068">
        <ele>394</ele>
        <time>2014-10-11T12:46:20Z</time>
      </trkpt>
      <trkpt lat="42.97493" lon="1.95046">
        <ele>395</ele>
        <time>2014-10-11T12:46:23Z</time>
      </trkpt>
      <trkpt lat="42.97501" lon="1.95031">
        <ele>395</ele>
        <time>2014-10-11T12:46:25Z</time>
      </trkpt>
      <trkpt lat="42.97509" lon="1.95018">
        <ele>394</ele>
        <time>2014-10-11T12:46:27Z</time>
      </trkpt>
      <trkpt lat="42.97517" lon="1.95008">
        <ele>394</ele>
        <time>2014-10-11T12:46:29Z</time>
      </trkpt>
      <trkpt lat="42.97524" lon="1.94998">
        <ele>394</ele>
        <time>2014-10-11T12:46:31Z</time>
      </trkpt>
      <trkpt lat="42.97533" lon="1.94979">
        <ele>394</ele>
        <time>2014-10-11T12:46:34Z</time>
      </trkpt>
      <trkpt lat="42.97542" lon="1.94959">
        <ele>394</ele>
        <time>2014-10-11T12:46:37Z</time>
      </trkpt>
      <trkpt lat="42.97551" lon="1.94939">
        <ele>394</ele>
        <time>2014-10-11T12:46:40Z</time>
      </trkpt>
      <trkpt lat="42.97559" lon="1.94918">
        <ele>394</ele>
        <time>2014-10-11T12:46:43Z</time>
      </trkpt>
      <trkpt lat="42.97564" lon="1.94896">
        <ele>394</ele>
        <time>2014-10-11T12:46:46Z</time>
      </trkpt>
      <trkpt lat="42.97569" lon="1.9488">
        <ele>394</ele>
        <time>2014-10-11T12:46:48Z</time>
      </trkpt>
      <trkpt lat="42.97572" lon="1.94865">
        <ele>394</ele>
        <time>2014-10-11T12:46:50Z</time>
      </trkpt>
      <trkpt lat="42.97579" lon="1.94846">
        <ele>394</ele>
        <time>2014-10-11T12:46:53Z</time>
      </trkpt>
      <trkpt lat="42.97584" lon="1.94833">
        <ele>394</ele>
        <time>2014-10-11T12:46:55Z</time>
      </trkpt>
      <trkpt lat="42.97592" lon="1.94814">
        <ele>394</ele>
        <time>2014-10-11T12:46:58Z</time>
      </trkpt>
      <trkpt lat="42.97599" lon="1.94795">
        <ele>394</ele>
        <time>2014-10-11T12:47:01Z</time>
      </trkpt>
      <trkpt lat="42.97603" lon="1.94785">
        <ele>394</ele>
        <time>2014-10-11T12:47:03Z</time>
      </trkpt>
      <trkpt lat="42.97611" lon="1.94773">
        <ele>394</ele>
        <time>2014-10-11T12:47:06Z</time>
      </trkpt>
      <trkpt lat="42.97616" lon="1.94755">
        <ele>393</ele>
        <time>2014-10-11T12:47:09Z</time>
      </trkpt>
      <trkpt lat="42.97618" lon="1.94738">
        <ele>393</ele>
        <time>2014-10-11T12:47:12Z</time>
      </trkpt>
      <trkpt lat="42.97619" lon="1.94728">
        <ele>393</ele>
        <time>2014-10-11T12:47:14Z</time>
      </trkpt>
      <trkpt lat="42.97621" lon="1.94718">
        <ele>393</ele>
        <time>2014-10-11T12:47:16Z</time>
      </trkpt>
      <trkpt lat="42.97624" lon="1.94708">
        <ele>393</ele>
        <time>2014-10-11T12:47:18Z</time>
      </trkpt>
      <trkpt lat="42.97626" lon="1.9469">
        <ele>393</ele>
        <time>2014-10-11T12:47:21Z</time>
      </trkpt>
      <trkpt lat="42.97629" lon="1.94669">
        <ele>394</ele>
        <time>2014-10-11T12:47:24Z</time>
      </trkpt>
      <trkpt lat="42.97627" lon="1.94647">
        <ele>394</ele>
        <time>2014-10-11T12:47:27Z</time>
      </trkpt>
      <trkpt lat="42.97628" lon="1.94634">
        <ele>394</ele>
        <time>2014-10-11T12:47:29Z</time>
      </trkpt>
      <trkpt lat="42.9763" lon="1.94614">
        <ele>394</ele>
        <time>2014-10-11T12:47:32Z</time>
      </trkpt>
      <trkpt lat="42.97632" lon="1.94602">
        <ele>393</ele>
        <time>2014-10-11T12:47:34Z</time>
      </trkpt>
      <trkpt lat="42.97633" lon="1.94591">
        <ele>394</ele>
        <time>2014-10-11T12:47:36Z</time>
      </trkpt>
      <trkpt lat="42.97637" lon="1.94583">
        <ele>394</ele>
        <time>2014-10-11T12:47:38Z</time>
      </trkpt>
      <trkpt lat="42.97643" lon="1.94574">
        <ele>393</ele>
        <time>2014-10-11T12:47:40Z</time>
      </trkpt>
      <trkpt lat="42.97649" lon="1.9456">
        <ele>393</ele>
        <time>2014-10-11T12:47:43Z</time>
      </trkpt>
      <trkpt lat="42.97654" lon="1.94548">
        <ele>393</ele>
        <time>2014-10-11T12:47:45Z</time>
      </trkpt>
      <trkpt lat="42.97658" lon="1.9453">
        <ele>393</ele>
        <time>2014-10-11T12:47:48Z</time>
      </trkpt>
      <trkpt lat="42.97659" lon="1.9452">
        <ele>393</ele>
        <time>2014-10-11T12:47:50Z</time>
      </trkpt>
      <trkpt lat="42.97661" lon="1.94505">
        <ele>393</ele>
        <time>2014-10-11T12:47:53Z</time>
      </trkpt>
      <trkpt lat="42.9766" lon="1.94496">
        <ele>393</ele>
        <time>2014-10-11T12:47:55Z</time>
      </trkpt>
      <trkpt lat="42.97659" lon="1.94482">
        <ele>393</ele>
        <time>2014-10-11T12:47:58Z</time>
      </trkpt>
      <trkpt lat="42.97658" lon="1.94474">
        <ele>393</ele>
        <time>2014-10-11T12:48:00Z</time>
      </trkpt>
      <trkpt lat="42.97657" lon="1.94467">
        <ele>393</ele>
        <time>2014-10-11T12:48:02Z</time>
      </trkpt>
      <trkpt lat="42.97656" lon="1.94462">
        <ele>393</ele>
        <time>2014-10-11T12:48:04Z</time>
      </trkpt>
      <trkpt lat="42.97655" lon="1.94458">
        <ele>393</ele>
        <time>2014-10-11T12:48:06Z</time>
      </trkpt>
      <trkpt lat="42.97654" lon="1.94455">
        <ele>393</ele>
        <time>2014-10-11T12:48:08Z</time>
      </trkpt>
      <trkpt lat="42.97654" lon="1.94454">
        <ele>393</ele>
        <time>2014-10-11T12:48:10Z</time>
      </trkpt>
      <trkpt lat="42.97653" lon="1.94451">
        <ele>393</ele>
        <time>2014-10-11T12:48:13Z</time>
      </trkpt>
      <trkpt lat="42.97652" lon="1.94449">
        <ele>393</ele>
        <time>2014-10-11T12:48:16Z</time>
      </trkpt>
      <trkpt lat="42.97652" lon="1.94448">
        <ele>393</ele>
        <time>2014-10-11T12:48:18Z</time>
      </trkpt>
      <trkpt lat="42.97651" lon="1.94446">
        <ele>393</ele>
        <time>2014-10-11T12:48:21Z</time>
      </trkpt>
      <trkpt lat="42.9765" lon="1.94445">
        <ele>393</ele>
        <time>2014-10-11T12:48:24Z</time>
      </trkpt>
      <trkpt lat="42.9765" lon="1.94443">
        <ele>393</ele>
        <time>2014-10-11T12:48:27Z</time>
      </trkpt>
      <trkpt lat="42.9765" lon="1.94442">
        <ele>393</ele>
        <time>2014-10-11T12:48:29Z</time>
      </trkpt>
      <trkpt lat="42.97649" lon="1.94441">
        <ele>393</ele>
        <time>2014-10-11T12:48:31Z</time>
      </trkpt>
      <trkpt lat="42.97649" lon="1.94441">
        <ele>393</ele>
        <time>2014-10-11T12:48:33Z</time>
      </trkpt>
      <trkpt lat="42.97649" lon="1.9444">
        <ele>393</ele>
        <time>2014-10-11T12:48:36Z</time>
      </trkpt>
      <trkpt lat="42.97648" lon="1.94439">
        <ele>393</ele>
        <time>2014-10-11T12:48:39Z</time>
      </trkpt>
      <trkpt lat="42.97647" lon="1.94438">
        <ele>393</ele>
        <time>2014-10-11T12:48:42Z</time>
      </trkpt>
      <trkpt lat="42.97647" lon="1.94437">
        <ele>393</ele>
        <time>2014-10-11T12:48:45Z</time>
      </trkpt>
      <trkpt lat="42.97647" lon="1.94437">
        <ele>393</ele>
        <time>2014-10-11T12:48:47Z</time>
      </trkpt>
      <trkpt lat="42.97647" lon="1.94437">
        <ele>393</ele>
        <time>2014-10-11T12:48:50Z</time>
      </trkpt>
      <trkpt lat="42.97647" lon="1.94436">
        <ele>393</ele>
        <time>2014-10-11T12:48:53Z</time>
      </trkpt>
      <trkpt lat="42.97646" lon="1.94436">
        <ele>394</ele>
        <time>2014-10-11T12:48:56Z</time>
      </trkpt>
      <trkpt lat="42.97646" lon="1.94435">
        <ele>394</ele>
        <time>2014-10-11T12:48:59Z</time>
      </trkpt>
      <trkpt lat="42.97646" lon="1.94434">
        <ele>394</ele>
        <time>2014-10-11T12:49:01Z</time>
      </trkpt>
      <trkpt lat="42.97646" lon="1.94434">
        <ele>394</ele>
        <time>2014-10-11T12:49:03Z</time>
      </trkpt>
      <trkpt lat="42.97646" lon="1.94434">
        <ele>394</ele>
        <time>2014-10-11T12:49:06Z</time>
      </trkpt>
      <trkpt lat="42.97646" lon="1.94433">
        <ele>393</ele>
        <time>2014-10-11T12:49:09Z</time>
      </trkpt>
      <trkpt lat="42.97646" lon="1.94433">
        <ele>394</ele>
        <time>2014-10-11T12:49:11Z</time>
      </trkpt>
      <trkpt lat="42.97645" lon="1.94433">
        <ele>393</ele>
        <time>2014-10-11T12:49:13Z</time>
      </trkpt>
      <trkpt lat="42.97645" lon="1.94433">
        <ele>394</ele>
        <time>2014-10-11T12:49:16Z</time>
      </trkpt>
      <trkpt lat="42.97646" lon="1.94432">
        <ele>393</ele>
        <time>2014-10-11T12:49:19Z</time>
      </trkpt>
      <trkpt lat="42.97646" lon="1.94432">
        <ele>394</ele>
        <time>2014-10-11T12:49:22Z</time>
      </trkpt>
      <trkpt lat="42.97646" lon="1.94432">
        <ele>394</ele>
        <time>2014-10-11T12:49:25Z</time>
      </trkpt>
      <trkpt lat="42.97646" lon="1.94431">
        <ele>394</ele>
        <time>2014-10-11T12:49:28Z</time>
      </trkpt>
      <trkpt lat="42.97646" lon="1.94431">
        <ele>394</ele>
        <time>2014-10-11T12:49:30Z</time>
      </trkpt>
      <trkpt lat="42.97647" lon="1.94431">
        <ele>393</ele>
        <time>2014-10-11T12:49:34Z</time>
      </trkpt>
      <trkpt lat="42.97647" lon="1.94431">
        <ele>393</ele>
        <time>2014-10-11T12:49:36Z</time>
      </trkpt>
      <trkpt lat="42.97649" lon="1.94431">
        <ele>393</ele>
        <time>2014-10-11T12:49:39Z</time>
      </trkpt>
      <trkpt lat="42.97649" lon="1.94431">
        <ele>393</ele>
        <time>2014-10-11T12:49:41Z</time>
      </trkpt>
      <trkpt lat="42.9765" lon="1.94432">
        <ele>394</ele>
        <time>2014-10-11T12:49:44Z</time>
      </trkpt>
      <trkpt lat="42.97651" lon="1.94432">
        <ele>394</ele>
        <time>2014-10-11T12:49:47Z</time>
      </trkpt>
      <trkpt lat="42.97651" lon="1.94432">
        <ele>394</ele>
        <time>2014-10-11T12:49:50Z</time>
      </trkpt>
      <trkpt lat="42.9765" lon="1.94432">
        <ele>394</ele>
        <time>2014-10-11T12:49:53Z</time>
      </trkpt>
      <trkpt lat="42.97649" lon="1.94432">
        <ele>394</ele>
        <time>2014-10-11T12:49:56Z</time>
      </trkpt>
      <trkpt lat="42.97648" lon="1.94432">
        <ele>394</ele>
        <time>2014-10-11T12:49:59Z</time>
      </trkpt>
      <trkpt lat="42.97647" lon="1.94432">
        <ele>394</ele>
        <time>2014-10-11T12:50:02Z</time>
      </trkpt>
      <trkpt lat="42.97646" lon="1.94432">
        <ele>394</ele>
        <time>2014-10-11T12:50:04Z</time>
      </trkpt>
      <trkpt lat="42.97646" lon="1.94431">
        <ele>394</ele>
        <time>2014-10-11T12:50:07Z</time>
      </trkpt>
      <trkpt lat="42.97645" lon="1.94431">
        <ele>394</ele>
        <time>2014-10-11T12:50:10Z</time>
      </trkpt>
      <trkpt lat="42.97645" lon="1.94431">
        <ele>394</ele>
        <time>2014-10-11T12:50:12Z</time>
      </trkpt>
      <trkpt lat="42.97644" lon="1.94431">
        <ele>394</ele>
        <time>2014-10-11T12:50:15Z</time>
      </trkpt>
      <trkpt lat="42.97644" lon="1.94431">
        <ele>394</ele>
        <time>2014-10-11T12:50:18Z</time>
      </trkpt>
      <trkpt lat="42.97644" lon="1.94431">
        <ele>394</ele>
        <time>2014-10-11T12:50:20Z</time>
      </trkpt>
      <trkpt lat="42.97644" lon="1.94431">
        <ele>394</ele>
        <time>2014-10-11T12:50:23Z</time>
      </trkpt>
      <trkpt lat="42.97644" lon="1.94431">
        <ele>394</ele>
        <time>2014-10-11T12:50:26Z</time>
      </trkpt>
      <trkpt lat="42.97643" lon="1.94431">
        <ele>394</ele>
        <time>2014-10-11T12:50:30Z</time>
      </trkpt>
      <trkpt lat="42.97643" lon="1.94431">
        <ele>394</ele>
        <time>2014-10-11T12:50:33Z</time>
      </trkpt>
      <trkpt lat="42.97643" lon="1.94431">
        <ele>394</ele>
        <time>2014-10-11T12:50:36Z</time>
      </trkpt>
      <trkpt lat="42.97642" lon="1.94431">
        <ele>394</ele>
        <time>2014-10-11T12:50:40Z</time>
      </trkpt>
      <trkpt lat="42.97642" lon="1.94431">
        <ele>394</ele>
        <time>2014-10-11T12:50:44Z</time>
      </trkpt>
      <trkpt lat="42.97642" lon="1.94431">
        <ele>394</ele>
        <time>2014-10-11T12:50:56Z</time>
      </trkpt>
      <trkpt lat="42.97642" lon="1.94431">
        <ele>394</ele>
        <time>2014-10-11T12:50:58Z</time>
      </trkpt>
      <trkpt lat="42.97642" lon="1.94431">
        <ele>394</ele>
        <time>2014-10-11T12:51:02Z</time>
      </trkpt>
      <trkpt lat="42.97642" lon="1.94432">
        <ele>394</ele>
        <time>2014-10-11T12:51:05Z</time>
      </trkpt>
      <trkpt lat="42.97643" lon="1.94432">
        <ele>394</ele>
        <time>2014-10-11T12:51:08Z</time>
      </trkpt>
      <trkpt lat="42.97643" lon="1.94432">
        <ele>394</ele>
        <time>2014-10-11T12:51:11Z</time>
      </trkpt>
      <trkpt lat="42.97643" lon="1.94432">
        <ele>394</ele>
        <time>2014-10-11T12:51:13Z</time>
      </trkpt>
      <trkpt lat="42.97643" lon="1.94432">
        <ele>394</ele>
        <time>2014-10-11T12:51:15Z</time>
      </trkpt>
      <trkpt lat="42.97643" lon="1.94432">
        <ele>394</ele>
        <time>2014-10-11T12:51:20Z</time>
      </trkpt>
      <trkpt lat="42.97643" lon="1.94432">
        <ele>394</ele>
        <time>2014-10-11T12:51:22Z</time>
      </trkpt>
      <trkpt lat="42.97644" lon="1.94432">
        <ele>394</ele>
        <time>2014-10-11T12:51:26Z</time>
      </trkpt>
      <trkpt lat="42.97644" lon="1.94432">
        <ele>394</ele>
        <time>2014-10-11T12:51:28Z</time>
      </trkpt>
      <trkpt lat="42.97644" lon="1.94432">
        <ele>394</ele>
        <time>2014-10-11T12:51:32Z</time>
      </trkpt>
      <trkpt lat="42.97644" lon="1.94432">
        <ele>394</ele>
        <time>2014-10-11T12:51:35Z</time>
      </trkpt>
      <trkpt lat="42.97644" lon="1.94432">
        <ele>394</ele>
        <time>2014-10-11T12:51:38Z</time>
      </trkpt>
      <trkpt lat="42.97644" lon="1.94432">
        <ele>394</ele>
        <time>2014-10-11T12:51:44Z</time>
      </trkpt>
      <trkpt lat="42.97644" lon="1.94432">
        <ele>394</ele>
        <time>2014-10-11T12:51:48Z</time>
      </trkpt>
      <trkpt lat="42.97644" lon="1.94433">
        <ele>394</ele>
        <time>2014-10-11T12:51:51Z</time>
      </trkpt>
      <trkpt lat="42.97645" lon="1.94433">
        <ele>394</ele>
        <time>2014-10-11T12:51:53Z</time>
      </trkpt>
      <trkpt lat="42.97645" lon="1.94433">
        <ele>394</ele>
        <time>2014-10-11T12:51:58Z</time>
      </trkpt>
      <trkpt lat="42.97645" lon="1.94433">
        <ele>394</ele>
        <time>2014-10-11T12:52:01Z</time>
      </trkpt>
      <trkpt lat="42.97645" lon="1.94433">
        <ele>394</ele>
        <time>2014-10-11T12:52:04Z</time>
      </trkpt>
      <trkpt lat="42.97645" lon="1.94433">
        <ele>394</ele>
        <time>2014-10-11T12:52:08Z</time>
      </trkpt>
      <trkpt lat="42.97645" lon="1.94433">
        <ele>394</ele>
        <time>2014-10-11T12:52:10Z</time>
      </trkpt>
      <trkpt lat="42.97646" lon="1.94433">
        <ele>394</ele>
        <time>2014-10-11T12:52:14Z</time>
      </trkpt>
      <trkpt lat="42.97646" lon="1.94434">
        <ele>394</ele>
        <time>2014-10-11T12:52:16Z</time>
      </trkpt>
      <trkpt lat="42.97646" lon="1.94433">
        <ele>394</ele>
        <time>2014-10-11T12:52:20Z</time>
      </trkpt>
      <trkpt lat="42.97646" lon="1.94433">
        <ele>394</ele>
        <time>2014-10-11T12:52:22Z</time>
      </trkpt>
      <trkpt lat="42.97645" lon="1.94433">
        <ele>394</ele>
        <time>2014-10-11T12:52:26Z</time>
      </trkpt>
      <trkpt lat="42.97645" lon="1.94432">
        <ele>394</ele>
        <time>2014-10-11T12:52:30Z</time>
      </trkpt>
      <trkpt lat="42.97645" lon="1.94432">
        <ele>394</ele>
        <time>2014-10-11T12:52:33Z</time>
      </trkpt>
      <trkpt lat="42.97646" lon="1.94432">
        <ele>394</ele>
        <time>2014-10-11T12:52:35Z</time>
      </trkpt>
      <trkpt lat="42.97646" lon="1.94432">
        <ele>394</ele>
        <time>2014-10-11T12:52:38Z</time>
      </trkpt>
      <trkpt lat="42.97647" lon="1.94432">
        <ele>394</ele>
        <time>2014-10-11T12:52:40Z</time>
      </trkpt>
      <trkpt lat="42.97648" lon="1.94432">
        <ele>394</ele>
        <time>2014-10-11T12:52:43Z</time>
      </trkpt>
      <trkpt lat="42.97648" lon="1.94432">
        <ele>394</ele>
        <time>2014-10-11T12:52:45Z</time>
      </trkpt>
      <trkpt lat="42.97649" lon="1.94432">
        <ele>394</ele>
        <time>2014-10-11T12:52:47Z</time>
      </trkpt>
      <trkpt lat="42.97649" lon="1.94432">
        <ele>394</ele>
        <time>2014-10-11T12:52:50Z</time>
      </trkpt>
      <trkpt lat="42.97649" lon="1.94432">
        <ele>394</ele>
        <time>2014-10-11T12:52:52Z</time>
      </trkpt>
      <trkpt lat="42.9765" lon="1.94432">
        <ele>394</ele>
        <time>2014-10-11T12:52:55Z</time>
      </trkpt>
      <trkpt lat="42.9765" lon="1.94432">
        <ele>394</ele>
        <time>2014-10-11T12:52:57Z</time>
      </trkpt>
      <trkpt lat="42.9765" lon="1.94433">
        <ele>394</ele>
        <time>2014-10-11T12:52:59Z</time>
      </trkpt>
      <trkpt lat="42.97651" lon="1.94433">
        <ele>394</ele>
        <time>2014-10-11T12:53:02Z</time>
      </trkpt>
      <trkpt lat="42.9765" lon="1.94433">
        <ele>394</ele>
        <time>2014-10-11T12:53:06Z</time>
      </trkpt>
      <trkpt lat="42.9765" lon="1.94433">
        <ele>394</ele>
        <time>2014-10-11T12:53:09Z</time>
      </trkpt>
      <trkpt lat="42.9765" lon="1.94433">
        <ele>394</ele>
        <time>2014-10-11T12:53:13Z</time>
      </trkpt>
      <trkpt lat="42.9765" lon="1.94433">
        <ele>394</ele>
        <time>2014-10-11T12:53:16Z</time>
      </trkpt>
      <trkpt lat="42.97649" lon="1.94433">
        <ele>394</ele>
        <time>2014-10-11T12:53:19Z</time>
      </trkpt>
      <trkpt lat="42.97649" lon="1.94432">
        <ele>394</ele>
        <time>2014-10-11T12:53:21Z</time>
      </trkpt>
      <trkpt lat="42.97649" lon="1.94432">
        <ele>394</ele>
        <time>2014-10-11T12:53:24Z</time>
      </trkpt>
      <trkpt lat="42.97648" lon="1.94432">
        <ele>394</ele>
        <time>2014-10-11T12:53:28Z</time>
      </trkpt>
      <trkpt lat="42.97647" lon="1.94433">
        <ele>394</ele>
        <time>2014-10-11T12:53:31Z</time>
      </trkpt>
      <trkpt lat="42.97646" lon="1.94431">
        <ele>394</ele>
        <time>2014-10-11T12:53:33Z</time>
      </trkpt>
      <trkpt lat="42.97641" lon="1.94427">
        <ele>394</ele>
        <time>2014-10-11T12:53:36Z</time>
      </trkpt>
      <trkpt lat="42.97636" lon="1.94427">
        <ele>394</ele>
        <time>2014-10-11T12:53:38Z</time>
      </trkpt>
      <trkpt lat="42.97633" lon="1.94426">
        <ele>394</ele>
        <time>2014-10-11T12:53:40Z</time>
      </trkpt>
      <trkpt lat="42.97629" lon="1.94426">
        <ele>394</ele>
        <time>2014-10-11T12:53:42Z</time>
      </trkpt>
      <trkpt lat="42.97625" lon="1.94425">
        <ele>394</ele>
        <time>2014-10-11T12:53:44Z</time>
      </trkpt>
      <trkpt lat="42.97619" lon="1.94426">
        <ele>394</ele>
        <time>2014-10-11T12:53:46Z</time>
      </trkpt>
      <trkpt lat="42.97611" lon="1.94427">
        <ele>394</ele>
        <time>2014-10-11T12:53:48Z</time>
      </trkpt>
      <trkpt lat="42.97602" lon="1.94429">
        <ele>394</ele>
        <time>2014-10-11T12:53:50Z</time>
      </trkpt>
      <trkpt lat="42.97594" lon="1.94431">
        <ele>394</ele>
        <time>2014-10-11T12:53:52Z</time>
      </trkpt>
      <trkpt lat="42.97586" lon="1.94431">
        <ele>394</ele>
        <time>2014-10-11T12:53:54Z</time>
      </trkpt>
      <trkpt lat="42.97574" lon="1.94429">
        <ele>394</ele>
        <time>2014-10-11T12:53:57Z</time>
      </trkpt>
      <trkpt lat="42.97566" lon="1.94429">
        <ele>394</ele>
        <time>2014-10-11T12:53:59Z</time>
      </trkpt>
      <trkpt lat="42.97555" lon="1.94431">
        <ele>394</ele>
        <time>2014-10-11T12:54:02Z</time>
      </trkpt>
      <trkpt lat="42.97547" lon="1.94432">
        <ele>394</ele>
        <time>2014-10-11T12:54:04Z</time>
      </trkpt>
      <trkpt lat="42.97536" lon="1.94434">
        <ele>395</ele>
        <time>2014-10-11T12:54:07Z</time>
      </trkpt>
      <trkpt lat="42.97525" lon="1.94439">
        <ele>395</ele>
        <time>2014-10-11T12:54:10Z</time>
      </trkpt>
      <trkpt lat="42.97518" lon="1.94443">
        <ele>394</ele>
        <time>2014-10-11T12:54:12Z</time>
      </trkpt>
      <trkpt lat="42.97511" lon="1.94448">
        <ele>394</ele>
        <time>2014-10-11T12:54:14Z</time>
      </trkpt>
      <trkpt lat="42.97504" lon="1.94456">
        <ele>394</ele>
        <time>2014-10-11T12:54:16Z</time>
      </trkpt>
      <trkpt lat="42.97497" lon="1.94464">
        <ele>395</ele>
        <time>2014-10-11T12:54:18Z</time>
      </trkpt>
      <trkpt lat="42.97488" lon="1.94472">
        <ele>395</ele>
        <time>2014-10-11T12:54:20Z</time>
      </trkpt>
      <trkpt lat="42.9748" lon="1.94482">
        <ele>395</ele>
        <time>2014-10-11T12:54:22Z</time>
      </trkpt>
      <trkpt lat="42.97471" lon="1.94491">
        <ele>395</ele>
        <time>2014-10-11T12:54:24Z</time>
      </trkpt>
      <trkpt lat="42.97462" lon="1.94501">
        <ele>395</ele>
        <time>2014-10-11T12:54:26Z</time>
      </trkpt>
      <trkpt lat="42.97449" lon="1.94517">
        <ele>395</ele>
        <time>2014-10-11T12:54:29Z</time>
      </trkpt>
      <trkpt lat="42.9744" lon="1.94524">
        <ele>395</ele>
        <time>2014-10-11T12:54:31Z</time>
      </trkpt>
      <trkpt lat="42.9743" lon="1.94526">
        <ele>395</ele>
        <time>2014-10-11T12:54:33Z</time>
      </trkpt>
      <trkpt lat="42.97414" lon="1.94521">
        <ele>395</ele>
        <time>2014-10-11T12:54:36Z</time>
      </trkpt>
      <trkpt lat="42.97397" lon="1.94521">
        <ele>395</ele>
        <time>2014-10-11T12:54:39Z</time>
      </trkpt>
      <trkpt lat="42.97386" lon="1.94521">
        <ele>395</ele>
        <time>2014-10-11T12:54:41Z</time>
      </trkpt>
      <trkpt lat="42.97374" lon="1.94521">
        <ele>395</ele>
        <time>2014-10-11T12:54:43Z</time>
      </trkpt>
      <trkpt lat="42.97358" lon="1.94522">
        <ele>395</ele>
        <time>2014-10-11T12:54:46Z</time>
      </trkpt>
      <trkpt lat="42.97349" lon="1.94526">
        <ele>395</ele>
        <time>2014-10-11T12:54:48Z</time>
      </trkpt>
      <trkpt lat="42.97337" lon="1.94532">
        <ele>395</ele>
        <time>2014-10-11T12:54:51Z</time>
      </trkpt>
      <trkpt lat="42.97327" lon="1.94543">
        <ele>395</ele>
        <time>2014-10-11T12:54:54Z</time>
      </trkpt>
      <trkpt lat="42.97324" lon="1.94545">
        <ele>395</ele>
        <time>2014-10-11T12:54:56Z</time>
      </trkpt>
      <trkpt lat="42.97322" lon="1.94547">
        <ele>395</ele>
        <time>2014-10-11T12:54:59Z</time>
      </trkpt>
      <trkpt lat="42.97318" lon="1.94553">
        <ele>394</ele>
        <time>2014-10-11T12:55:02Z</time>
      </trkpt>
      <trkpt lat="42.97314" lon="1.94561">
        <ele>394</ele>
        <time>2014-10-11T12:55:05Z</time>
      </trkpt>
      <trkpt lat="42.9731" lon="1.94567">
        <ele>394</ele>
        <time>2014-10-11T12:55:07Z</time>
      </trkpt>
      <trkpt lat="42.97304" lon="1.94574">
        <ele>395</ele>
        <time>2014-10-11T12:55:09Z</time>
      </trkpt>
      <trkpt lat="42.97295" lon="1.94588">
        <ele>395</ele>
        <time>2014-10-11T12:55:12Z</time>
      </trkpt>
      <trkpt lat="42.97288" lon="1.94592">
        <ele>395</ele>
        <time>2014-10-11T12:55:14Z</time>
      </trkpt>
      <trkpt lat="42.9728" lon="1.94593">
        <ele>394</ele>
        <time>2014-10-11T12:55:17Z</time>
      </trkpt>
      <trkpt lat="42.97279" lon="1.94587">
        <ele>394</ele>
        <time>2014-10-11T12:55:20Z</time>
      </trkpt>
      <trkpt lat="42.9728" lon="1.94581">
        <ele>394</ele>
        <time>2014-10-11T12:55:22Z</time>
      </trkpt>
      <trkpt lat="42.97282" lon="1.94575">
        <ele>394</ele>
        <time>2014-10-11T12:55:24Z</time>
      </trkpt>
      <trkpt lat="42.97283" lon="1.94564">
        <ele>394</ele>
        <time>2014-10-11T12:55:27Z</time>
      </trkpt>
      <trkpt lat="42.97284" lon="1.94557">
        <ele>394</ele>
        <time>2014-10-11T12:55:29Z</time>
      </trkpt>
      <trkpt lat="42.97287" lon="1.94549">
        <ele>394</ele>
        <time>2014-10-11T12:55:31Z</time>
      </trkpt>
      <trkpt lat="42.9729" lon="1.94541">
        <ele>394</ele>
        <time>2014-10-11T12:55:33Z</time>
      </trkpt>
      <trkpt lat="42.97293" lon="1.94531">
        <ele>395</ele>
        <time>2014-10-11T12:55:35Z</time>
      </trkpt>
      <trkpt lat="42.97298" lon="1.94517">
        <ele>395</ele>
        <time>2014-10-11T12:55:38Z</time>
      </trkpt>
      <trkpt lat="42.97303" lon="1.94502">
        <ele>395</ele>
        <time>2014-10-11T12:55:41Z</time>
      </trkpt>
      <trkpt lat="42.97308" lon="1.94487">
        <ele>395</ele>
        <time>2014-10-11T12:55:44Z</time>
      </trkpt>
      <trkpt lat="42.97311" lon="1.9447">
        <ele>395</ele>
        <time>2014-10-11T12:55:47Z</time>
      </trkpt>
      <trkpt lat="42.97312" lon="1.94454">
        <ele>395</ele>
        <time>2014-10-11T12:55:50Z</time>
      </trkpt>
      <trkpt lat="42.97315" lon="1.94443">
        <ele>395</ele>
        <time>2014-10-11T12:55:52Z</time>
      </trkpt>
      <trkpt lat="42.97325" lon="1.94433">
        <ele>394</ele>
        <time>2014-10-11T12:55:55Z</time>
      </trkpt>
      <trkpt lat="42.97332" lon="1.94423">
        <ele>394</ele>
        <time>2014-10-11T12:55:58Z</time>
      </trkpt>
      <trkpt lat="42.97334" lon="1.94415">
        <ele>394</ele>
        <time>2014-10-11T12:56:00Z</time>
      </trkpt>
      <trkpt lat="42.97336" lon="1.94398">
        <ele>394</ele>
        <time>2014-10-11T12:56:03Z</time>
      </trkpt>
      <trkpt lat="42.97341" lon="1.94386">
        <ele>394</ele>
        <time>2014-10-11T12:56:06Z</time>
      </trkpt>
      <trkpt lat="42.97347" lon="1.9437">
        <ele>395</ele>
        <time>2014-10-11T12:56:09Z</time>
      </trkpt>
      <trkpt lat="42.97352" lon="1.94354">
        <ele>395</ele>
        <time>2014-10-11T12:56:12Z</time>
      </trkpt>
      <trkpt lat="42.97354" lon="1.94343">
        <ele>395</ele>
        <time>2014-10-11T12:56:14Z</time>
      </trkpt>
      <trkpt lat="42.97358" lon="1.94326">
        <ele>395</ele>
        <time>2014-10-11T12:56:17Z</time>
      </trkpt>
      <trkpt lat="42.97363" lon="1.94318">
        <ele>395</ele>
        <time>2014-10-11T12:56:19Z</time>
      </trkpt>
      <trkpt lat="42.9737" lon="1.94306">
        <ele>395</ele>
        <time>2014-10-11T12:56:22Z</time>
      </trkpt>
      <trkpt lat="42.97375" lon="1.94291">
        <ele>394</ele>
        <time>2014-10-11T12:56:25Z</time>
      </trkpt>
      <trkpt lat="42.97376" lon="1.94274">
        <ele>394</ele>
        <time>2014-10-11T12:56:28Z</time>
      </trkpt>
      <trkpt lat="42.97379" lon="1.94263">
        <ele>394</ele>
        <time>2014-10-11T12:56:31Z</time>
      </trkpt>
      <trkpt lat="42.97382" lon="1.94256">
        <ele>394</ele>
        <time>2014-10-11T12:56:33Z</time>
      </trkpt>
      <trkpt lat="42.97385" lon="1.94249">
        <ele>394</ele>
        <time>2014-10-11T12:56:36Z</time>
      </trkpt>
      <trkpt lat="42.97388" lon="1.94244">
        <ele>394</ele>
        <time>2014-10-11T12:56:38Z</time>
      </trkpt>
      <trkpt lat="42.9739" lon="1.94239">
        <ele>395</ele>
        <time>2014-10-11T12:56:40Z</time>
      </trkpt>
      <trkpt lat="42.97393" lon="1.94235">
        <ele>395</ele>
        <time>2014-10-11T12:56:42Z</time>
      </trkpt>
      <trkpt lat="42.97394" lon="1.9423">
        <ele>394</ele>
        <time>2014-10-11T12:56:45Z</time>
      </trkpt>
      <trkpt lat="42.97396" lon="1.94224">
        <ele>394</ele>
        <time>2014-10-11T12:56:48Z</time>
      </trkpt>
      <trkpt lat="42.97398" lon="1.94221">
        <ele>394</ele>
        <time>2014-10-11T12:56:50Z</time>
      </trkpt>
      <trkpt lat="42.974" lon="1.94216">
        <ele>394</ele>
        <time>2014-10-11T12:56:52Z</time>
      </trkpt>
      <trkpt lat="42.97403" lon="1.94204">
        <ele>394</ele>
        <time>2014-10-11T12:56:55Z</time>
      </trkpt>
      <trkpt lat="42.97406" lon="1.94195">
        <ele>394</ele>
        <time>2014-10-11T12:56:57Z</time>
      </trkpt>
      <trkpt lat="42.97412" lon="1.94178">
        <ele>394</ele>
        <time>2014-10-11T12:57:00Z</time>
      </trkpt>
      <trkpt lat="42.97416" lon="1.94158">
        <ele>394</ele>
        <time>2014-10-11T12:57:03Z</time>
      </trkpt>
      <trkpt lat="42.97422" lon="1.94144">
        <ele>394</ele>
        <time>2014-10-11T12:57:06Z</time>
      </trkpt>
      <trkpt lat="42.97428" lon="1.9413">
        <ele>395</ele>
        <time>2014-10-11T12:57:09Z</time>
      </trkpt>
      <trkpt lat="42.97432" lon="1.94119">
        <ele>394</ele>
        <time>2014-10-11T12:57:11Z</time>
      </trkpt>
      <trkpt lat="42.97434" lon="1.94099">
        <ele>394</ele>
        <time>2014-10-11T12:57:14Z</time>
      </trkpt>
      <trkpt lat="42.97436" lon="1.9408">
        <ele>394</ele>
        <time>2014-10-11T12:57:17Z</time>
      </trkpt>
      <trkpt lat="42.97438" lon="1.94059">
        <ele>395</ele>
        <time>2014-10-11T12:57:20Z</time>
      </trkpt>
      <trkpt lat="42.97439" lon="1.94039">
        <ele>395</ele>
        <time>2014-10-11T12:57:23Z</time>
      </trkpt>
      <trkpt lat="42.97441" lon="1.94029">
        <ele>395</ele>
        <time>2014-10-11T12:57:25Z</time>
      </trkpt>
      <trkpt lat="42.97443" lon="1.94016">
        <ele>395</ele>
        <time>2014-10-11T12:57:27Z</time>
      </trkpt>
      <trkpt lat="42.97447" lon="1.94002">
        <ele>395</ele>
        <time>2014-10-11T12:57:29Z</time>
      </trkpt>
      <trkpt lat="42.97451" lon="1.93983">
        <ele>395</ele>
        <time>2014-10-11T12:57:32Z</time>
      </trkpt>
      <trkpt lat="42.97458" lon="1.93963">
        <ele>395</ele>
        <time>2014-10-11T12:57:35Z</time>
      </trkpt>
      <trkpt lat="42.97462" lon="1.93951">
        <ele>395</ele>
        <time>2014-10-11T12:57:37Z</time>
      </trkpt>
      <trkpt lat="42.97466" lon="1.93937">
        <ele>395</ele>
        <time>2014-10-11T12:57:39Z</time>
      </trkpt>
      <trkpt lat="42.97468" lon="1.9392">
        <ele>395</ele>
        <time>2014-10-11T12:57:42Z</time>
      </trkpt>
      <trkpt lat="42.97471" lon="1.93904">
        <ele>395</ele>
        <time>2014-10-11T12:57:45Z</time>
      </trkpt>
      <trkpt lat="42.97474" lon="1.9389">
        <ele>395</ele>
        <time>2014-10-11T12:57:48Z</time>
      </trkpt>
      <trkpt lat="42.97477" lon="1.93877">
        <ele>395</ele>
        <time>2014-10-11T12:57:50Z</time>
      </trkpt>
      <trkpt lat="42.97479" lon="1.93864">
        <ele>395</ele>
        <time>2014-10-11T12:57:52Z</time>
      </trkpt>
      <trkpt lat="42.9748" lon="1.93847">
        <ele>395</ele>
        <time>2014-10-11T12:57:55Z</time>
      </trkpt>
      <trkpt lat="42.97481" lon="1.9383">
        <ele>395</ele>
        <time>2014-10-11T12:57:58Z</time>
      </trkpt>
      <trkpt lat="42.97482" lon="1.93819">
        <ele>395</ele>
        <time>2014-10-11T12:58:00Z</time>
      </trkpt>
      <trkpt lat="42.9749" lon="1.93802">
        <ele>395</ele>
        <time>2014-10-11T12:58:03Z</time>
      </trkpt>
      <trkpt lat="42.97493" lon="1.93788">
        <ele>394</ele>
        <time>2014-10-11T12:58:05Z</time>
      </trkpt>
      <trkpt lat="42.97493" lon="1.93765">
        <ele>394</ele>
        <time>2014-10-11T12:58:08Z</time>
      </trkpt>
      <trkpt lat="42.97493" lon="1.93756">
        <ele>394</ele>
        <time>2014-10-11T12:58:10Z</time>
      </trkpt>
      <trkpt lat="42.97496" lon="1.93744">
        <ele>394</ele>
        <time>2014-10-11T12:58:12Z</time>
      </trkpt>
      <trkpt lat="42.97502" lon="1.93724">
        <ele>394</ele>
        <time>2014-10-11T12:58:15Z</time>
      </trkpt>
      <trkpt lat="42.97504" lon="1.9371">
        <ele>394</ele>
        <time>2014-10-11T12:58:17Z</time>
      </trkpt>
      <trkpt lat="42.97505" lon="1.93696">
        <ele>395</ele>
        <time>2014-10-11T12:58:19Z</time>
      </trkpt>
      <trkpt lat="42.97508" lon="1.93677">
        <ele>395</ele>
        <time>2014-10-11T12:58:22Z</time>
      </trkpt>
      <trkpt lat="42.97511" lon="1.93664">
        <ele>395</ele>
        <time>2014-10-11T12:58:24Z</time>
      </trkpt>
      <trkpt lat="42.97515" lon="1.93646">
        <ele>395</ele>
        <time>2014-10-11T12:58:27Z</time>
      </trkpt>
      <trkpt lat="42.97518" lon="1.93637">
        <ele>395</ele>
        <time>2014-10-11T12:58:29Z</time>
      </trkpt>
      <trkpt lat="42.97523" lon="1.93622">
        <ele>395</ele>
        <time>2014-10-11T12:58:32Z</time>
      </trkpt>
      <trkpt lat="42.97524" lon="1.93609">
        <ele>395</ele>
        <time>2014-10-11T12:58:34Z</time>
      </trkpt>
      <trkpt lat="42.97525" lon="1.93592">
        <ele>395</ele>
        <time>2014-10-11T12:58:37Z</time>
      </trkpt>
      <trkpt lat="42.97527" lon="1.93581">
        <ele>396</ele>
        <time>2014-10-11T12:58:39Z</time>
      </trkpt>
      <trkpt lat="42.97528" lon="1.93569">
        <ele>396</ele>
        <time>2014-10-11T12:58:41Z</time>
      </trkpt>
      <trkpt lat="42.97532" lon="1.93552">
        <ele>396</ele>
        <time>2014-10-11T12:58:44Z</time>
      </trkpt>
      <trkpt lat="42.97535" lon="1.93538">
        <ele>396</ele>
        <time>2014-10-11T12:58:46Z</time>
      </trkpt>
      <trkpt lat="42.97538" lon="1.93526">
        <ele>396</ele>
        <time>2014-10-11T12:58:48Z</time>
      </trkpt>
      <trkpt lat="42.97541" lon="1.93509">
        <ele>396</ele>
        <time>2014-10-11T12:58:51Z</time>
      </trkpt>
      <trkpt lat="42.97545" lon="1.93498">
        <ele>396</ele>
        <time>2014-10-11T12:58:53Z</time>
      </trkpt>
      <trkpt lat="42.97549" lon="1.93484">
        <ele>396</ele>
        <time>2014-10-11T12:58:55Z</time>
      </trkpt>
      <trkpt lat="42.97554" lon="1.93463">
        <ele>396</ele>
        <time>2014-10-11T12:58:58Z</time>
      </trkpt>
      <trkpt lat="42.97558" lon="1.93449">
        <ele>396</ele>
        <time>2014-10-11T12:59:00Z</time>
      </trkpt>
      <trkpt lat="42.97562" lon="1.93427">
        <ele>395</ele>
        <time>2014-10-11T12:59:03Z</time>
      </trkpt>
      <trkpt lat="42.97562" lon="1.93405">
        <ele>395</ele>
        <time>2014-10-11T12:59:06Z</time>
      </trkpt>
      <trkpt lat="42.97562" lon="1.93393">
        <ele>395</ele>
        <time>2014-10-11T12:59:08Z</time>
      </trkpt>
      <trkpt lat="42.97562" lon="1.93384">
        <ele>395</ele>
        <time>2014-10-11T12:59:10Z</time>
      </trkpt>
      <trkpt lat="42.97563" lon="1.93369">
        <ele>395</ele>
        <time>2014-10-11T12:59:13Z</time>
      </trkpt>
      <trkpt lat="42.97564" lon="1.9336">
        <ele>395</ele>
        <time>2014-10-11T12:59:15Z</time>
      </trkpt>
      <trkpt lat="42.97564" lon="1.93346">
        <ele>395</ele>
        <time>2014-10-11T12:59:18Z</time>
      </trkpt>
      <trkpt lat="42.97564" lon="1.93336">
        <ele>395</ele>
        <time>2014-10-11T12:59:21Z</time>
      </trkpt>
      <trkpt lat="42.97564" lon="1.93323">
        <ele>395</ele>
        <time>2014-10-11T12:59:24Z</time>
      </trkpt>
      <trkpt lat="42.97561" lon="1.93315">
        <ele>396</ele>
        <time>2014-10-11T12:59:27Z</time>
      </trkpt>
      <trkpt lat="42.9756" lon="1.93311">
        <ele>396</ele>
        <time>2014-10-11T12:59:29Z</time>
      </trkpt>
      <trkpt lat="42.9756" lon="1.93306">
        <ele>397</ele>
        <time>2014-10-11T12:59:32Z</time>
      </trkpt>
      <trkpt lat="42.97559" lon="1.93303">
        <ele>397</ele>
        <time>2014-10-11T12:59:34Z</time>
      </trkpt>
      <trkpt lat="42.97559" lon="1.93297">
        <ele>397</ele>
        <time>2014-10-11T12:59:36Z</time>
      </trkpt>
      <trkpt lat="42.97559" lon="1.93284">
        <ele>397</ele>
        <time>2014-10-11T12:59:39Z</time>
      </trkpt>
      <trkpt lat="42.9756" lon="1.9328">
        <ele>395</ele>
        <time>2014-10-11T12:59:42Z</time>
      </trkpt>
      <trkpt lat="42.9756" lon="1.9328">
        <ele>394</ele>
        <time>2014-10-11T12:59:44Z</time>
      </trkpt>
      <trkpt lat="42.97561" lon="1.9328">
        <ele>394</ele>
        <time>2014-10-11T12:59:46Z</time>
      </trkpt>
      <trkpt lat="42.97561" lon="1.9328">
        <ele>394</ele>
        <time>2014-10-11T12:59:48Z</time>
      </trkpt>
      <trkpt lat="42.9756" lon="1.9328">
        <ele>394</ele>
        <time>2014-10-11T12:59:50Z</time>
      </trkpt>
      <trkpt lat="42.97559" lon="1.9328">
        <ele>394</ele>
        <time>2014-10-11T12:59:53Z</time>
      </trkpt>
      <trkpt lat="42.97558" lon="1.93279">
        <ele>394</ele>
        <time>2014-10-11T12:59:55Z</time>
      </trkpt>
      <trkpt lat="42.97557" lon="1.93278">
        <ele>394</ele>
        <time>2014-10-11T12:59:58Z</time>
      </trkpt>
      <trkpt lat="42.97556" lon="1.93278">
        <ele>394</ele>
        <time>2014-10-11T13:00:00Z</time>
      </trkpt>
      <trkpt lat="42.97555" lon="1.93278">
        <ele>394</ele>
        <time>2014-10-11T13:00:02Z</time>
      </trkpt>
      <trkpt lat="42.97554" lon="1.93277">
        <ele>394</ele>
        <time>2014-10-11T13:00:05Z</time>
      </trkpt>
      <trkpt lat="42.97554" lon="1.93277">
        <ele>394</ele>
        <time>2014-10-11T13:00:07Z</time>
      </trkpt>
      <trkpt lat="42.97553" lon="1.93276">
        <ele>394</ele>
        <time>2014-10-11T13:00:09Z</time>
      </trkpt>
      <trkpt lat="42.97552" lon="1.93275">
        <ele>394</ele>
        <time>2014-10-11T13:00:12Z</time>
      </trkpt>
      <trkpt lat="42.97552" lon="1.93275">
        <ele>394</ele>
        <time>2014-10-11T13:00:14Z</time>
      </trkpt>
      <trkpt lat="42.97554" lon="1.93277">
        <ele>394</ele>
        <time>2014-10-11T13:00:17Z</time>
      </trkpt>
      <trkpt lat="42.97556" lon="1.93279">
        <ele>394</ele>
        <time>2014-10-11T13:00:19Z</time>
      </trkpt>
      <trkpt lat="42.97558" lon="1.93282">
        <ele>394</ele>
        <time>2014-10-11T13:00:22Z</time>
      </trkpt>
      <trkpt lat="42.97562" lon="1.93283">
        <ele>394</ele>
        <time>2014-10-11T13:00:24Z</time>
      </trkpt>
      <trkpt lat="42.97571" lon="1.93289">
        <ele>394</ele>
        <time>2014-10-11T13:00:27Z</time>
      </trkpt>
      <trkpt lat="42.97578" lon="1.93297">
        <ele>394</ele>
        <time>2014-10-11T13:00:30Z</time>
      </trkpt>
      <trkpt lat="42.97584" lon="1.93302">
        <ele>395</ele>
        <time>2014-10-11T13:00:32Z</time>
      </trkpt>
      <trkpt lat="42.97591" lon="1.93307">
        <ele>395</ele>
        <time>2014-10-11T13:00:34Z</time>
      </trkpt>
      <trkpt lat="42.97598" lon="1.93314">
        <ele>395</ele>
        <time>2014-10-11T13:00:37Z</time>
      </trkpt>
      <trkpt lat="42.97604" lon="1.9332">
        <ele>395</ele>
        <time>2014-10-11T13:00:39Z</time>
      </trkpt>
      <trkpt lat="42.97611" lon="1.9333">
        <ele>395</ele>
        <time>2014-10-11T13:00:42Z</time>
      </trkpt>
      <trkpt lat="42.97615" lon="1.93346">
        <ele>395</ele>
        <time>2014-10-11T13:00:45Z</time>
      </trkpt>
      <trkpt lat="42.97619" lon="1.93364">
        <ele>395</ele>
        <time>2014-10-11T13:00:48Z</time>
      </trkpt>
      <trkpt lat="42.97623" lon="1.93383">
        <ele>394</ele>
        <time>2014-10-11T13:00:51Z</time>
      </trkpt>
      <trkpt lat="42.97624" lon="1.93403">
        <ele>394</ele>
        <time>2014-10-11T13:00:54Z</time>
      </trkpt>
      <trkpt lat="42.97633" lon="1.93408">
        <ele>394</ele>
        <time>2014-10-11T13:00:57Z</time>
      </trkpt>
      <trkpt lat="42.9764" lon="1.93409">
        <ele>394</ele>
        <time>2014-10-11T13:00:59Z</time>
      </trkpt>
      <trkpt lat="42.97651" lon="1.93408">
        <ele>394</ele>
        <time>2014-10-11T13:01:02Z</time>
      </trkpt>
      <trkpt lat="42.97654" lon="1.93397">
        <ele>395</ele>
        <time>2014-10-11T13:01:05Z</time>
      </trkpt>
      <trkpt lat="42.97658" lon="1.93385">
        <ele>395</ele>
        <time>2014-10-11T13:01:08Z</time>
      </trkpt>
      <trkpt lat="42.97662" lon="1.93374">
        <ele>395</ele>
        <time>2014-10-11T13:01:10Z</time>
      </trkpt>
      <trkpt lat="42.9767" lon="1.93361">
        <ele>395</ele>
        <time>2014-10-11T13:01:13Z</time>
      </trkpt>
      <trkpt lat="42.9768" lon="1.93347">
        <ele>395</ele>
        <time>2014-10-11T13:01:16Z</time>
      </trkpt>
      <trkpt lat="42.97689" lon="1.93334">
        <ele>395</ele>
        <time>2014-10-11T13:01:19Z</time>
      </trkpt>
      <trkpt lat="42.97694" lon="1.9332">
        <ele>395</ele>
        <time>2014-10-11T13:01:22Z</time>
      </trkpt>
      <trkpt lat="42.97697" lon="1.93309">
        <ele>395</ele>
        <time>2014-10-11T13:01:24Z</time>
      </trkpt>
      <trkpt lat="42.97701" lon="1.93297">
        <ele>395</ele>
        <time>2014-10-11T13:01:26Z</time>
      </trkpt>
      <trkpt lat="42.97704" lon="1.93287">
        <ele>395</ele>
        <time>2014-10-11T13:01:28Z</time>
      </trkpt>
      <trkpt lat="42.97708" lon="1.93274">
        <ele>396</ele>
        <time>2014-10-11T13:01:31Z</time>
      </trkpt>
      <trkpt lat="42.97712" lon="1.93264">
        <ele>396</ele>
        <time>2014-10-11T13:01:33Z</time>
      </trkpt>
      <trkpt lat="42.97718" lon="1.93254">
        <ele>396</ele>
        <time>2014-10-11T13:01:35Z</time>
      </trkpt>
      <trkpt lat="42.97723" lon="1.93238">
        <ele>397</ele>
        <time>2014-10-11T13:01:38Z</time>
      </trkpt>
      <trkpt lat="42.97727" lon="1.93224">
        <ele>397</ele>
        <time>2014-10-11T13:01:41Z</time>
      </trkpt>
      <trkpt lat="42.97732" lon="1.93208">
        <ele>397</ele>
        <time>2014-10-11T13:01:44Z</time>
      </trkpt>
      <trkpt lat="42.97736" lon="1.93191">
        <ele>396</ele>
        <time>2014-10-11T13:01:46Z</time>
      </trkpt>
      <trkpt lat="42.97743" lon="1.93164">
        <ele>396</ele>
        <time>2014-10-11T13:01:49Z</time>
      </trkpt>
      <trkpt lat="42.97747" lon="1.93148">
        <ele>396</ele>
        <time>2014-10-11T13:01:51Z</time>
      </trkpt>
      <trkpt lat="42.97753" lon="1.93139">
        <ele>396</ele>
        <time>2014-10-11T13:01:53Z</time>
      </trkpt>
      <trkpt lat="42.97766" lon="1.93126">
        <ele>396</ele>
        <time>2014-10-11T13:01:56Z</time>
      </trkpt>
      <trkpt lat="42.97776" lon="1.93115">
        <ele>395</ele>
        <time>2014-10-11T13:01:59Z</time>
      </trkpt>
      <trkpt lat="42.97786" lon="1.93104">
        <ele>395</ele>
        <time>2014-10-11T13:02:02Z</time>
      </trkpt>
      <trkpt lat="42.97796" lon="1.93091">
        <ele>395</ele>
        <time>2014-10-11T13:02:05Z</time>
      </trkpt>
      <trkpt lat="42.97805" lon="1.93072">
        <ele>394</ele>
        <time>2014-10-11T13:02:08Z</time>
      </trkpt>
      <trkpt lat="42.9781" lon="1.93053">
        <ele>394</ele>
        <time>2014-10-11T13:02:11Z</time>
      </trkpt>
      <trkpt lat="42.97814" lon="1.93041">
        <ele>394</ele>
        <time>2014-10-11T13:02:13Z</time>
      </trkpt>
      <trkpt lat="42.97818" lon="1.93029">
        <ele>394</ele>
        <time>2014-10-11T13:02:15Z</time>
      </trkpt>
      <trkpt lat="42.97823" lon="1.93015">
        <ele>394</ele>
        <time>2014-10-11T13:02:18Z</time>
      </trkpt>
      <trkpt lat="42.9783" lon="1.93008">
        <ele>394</ele>
        <time>2014-10-11T13:02:20Z</time>
      </trkpt>
      <trkpt lat="42.97843" lon="1.92998">
        <ele>394</ele>
        <time>2014-10-11T13:02:23Z</time>
      </trkpt>
      <trkpt lat="42.97856" lon="1.92989">
        <ele>394</ele>
        <time>2014-10-11T13:02:26Z</time>
      </trkpt>
      <trkpt lat="42.97868" lon="1.92978">
        <ele>394</ele>
        <time>2014-10-11T13:02:29Z</time>
      </trkpt>
      <trkpt lat="42.97877" lon="1.92972">
        <ele>394</ele>
        <time>2014-10-11T13:02:32Z</time>
      </trkpt>
      <trkpt lat="42.97881" lon="1.92971">
        <ele>395</ele>
        <time>2014-10-11T13:02:34Z</time>
      </trkpt>
      <trkpt lat="42.97889" lon="1.92968">
        <ele>395</ele>
        <time>2014-10-11T13:02:37Z</time>
      </trkpt>
      <trkpt lat="42.97899" lon="1.92968">
        <ele>394</ele>
        <time>2014-10-11T13:02:40Z</time>
      </trkpt>
      <trkpt lat="42.97907" lon="1.92969">
        <ele>394</ele>
        <time>2014-10-11T13:02:42Z</time>
      </trkpt>
      <trkpt lat="42.97911" lon="1.92971">
        <ele>394</ele>
        <time>2014-10-11T13:02:44Z</time>
      </trkpt>
      <trkpt lat="42.97918" lon="1.92974">
        <ele>394</ele>
        <time>2014-10-11T13:02:47Z</time>
      </trkpt>
      <trkpt lat="42.9792" lon="1.92978">
        <ele>394</ele>
        <time>2014-10-11T13:02:50Z</time>
      </trkpt>
      <trkpt lat="42.97919" lon="1.92985">
        <ele>394</ele>
        <time>2014-10-11T13:02:53Z</time>
      </trkpt>
      <trkpt lat="42.97921" lon="1.9299">
        <ele>394</ele>
        <time>2014-10-11T13:02:55Z</time>
      </trkpt>
      <trkpt lat="42.97924" lon="1.92994">
        <ele>393</ele>
        <time>2014-10-11T13:02:58Z</time>
      </trkpt>
      <trkpt lat="42.97926" lon="1.92996">
        <ele>393</ele>
        <time>2014-10-11T13:03:00Z</time>
      </trkpt>
      <trkpt lat="42.97931" lon="1.92999">
        <ele>393</ele>
        <time>2014-10-11T13:03:03Z</time>
      </trkpt>
      <trkpt lat="42.97934" lon="1.93003">
        <ele>394</ele>
        <time>2014-10-11T13:03:06Z</time>
      </trkpt>
      <trkpt lat="42.97934" lon="1.9301">
        <ele>394</ele>
        <time>2014-10-11T13:03:08Z</time>
      </trkpt>
      <trkpt lat="42.97934" lon="1.93024">
        <ele>394</ele>
        <time>2014-10-11T13:03:11Z</time>
      </trkpt>
      <trkpt lat="42.97936" lon="1.93031">
        <ele>394</ele>
        <time>2014-10-11T13:03:13Z</time>
      </trkpt>
      <trkpt lat="42.97938" lon="1.93039">
        <ele>394</ele>
        <time>2014-10-11T13:03:15Z</time>
      </trkpt>
      <trkpt lat="42.9794" lon="1.93053">
        <ele>394</ele>
        <time>2014-10-11T13:03:18Z</time>
      </trkpt>
      <trkpt lat="42.97943" lon="1.93059">
        <ele>394</ele>
        <time>2014-10-11T13:03:20Z</time>
      </trkpt>
      <trkpt lat="42.97945" lon="1.93068">
        <ele>394</ele>
        <time>2014-10-11T13:03:23Z</time>
      </trkpt>
      <trkpt lat="42.97943" lon="1.9308">
        <ele>395</ele>
        <time>2014-10-11T13:03:26Z</time>
      </trkpt>
      <trkpt lat="42.97942" lon="1.93089">
        <ele>395</ele>
        <time>2014-10-11T13:03:28Z</time>
      </trkpt>
      <trkpt lat="42.97941" lon="1.931">
        <ele>395</ele>
        <time>2014-10-11T13:03:31Z</time>
      </trkpt>
      <trkpt lat="42.97943" lon="1.9311">
        <ele>394</ele>
        <time>2014-10-11T13:03:34Z</time>
      </trkpt>
      <trkpt lat="42.97946" lon="1.93114">
        <ele>394</ele>
        <time>2014-10-11T13:03:36Z</time>
      </trkpt>
      <trkpt lat="42.97951" lon="1.93117">
        <ele>394</ele>
        <time>2014-10-11T13:03:39Z</time>
      </trkpt>
      <trkpt lat="42.9796" lon="1.93121">
        <ele>394</ele>
        <time>2014-10-11T13:03:42Z</time>
      </trkpt>
      <trkpt lat="42.97966" lon="1.93122">
        <ele>394</ele>
        <time>2014-10-11T13:03:44Z</time>
      </trkpt>
      <trkpt lat="42.97971" lon="1.9312">
        <ele>394</ele>
        <time>2014-10-11T13:03:46Z</time>
      </trkpt>
      <trkpt lat="42.97975" lon="1.93117">
        <ele>394</ele>
        <time>2014-10-11T13:03:48Z</time>
      </trkpt>
      <trkpt lat="42.97984" lon="1.9312">
        <ele>394</ele>
        <time>2014-10-11T13:03:51Z</time>
      </trkpt>
      <trkpt lat="42.97993" lon="1.93126">
        <ele>394</ele>
        <time>2014-10-11T13:03:54Z</time>
      </trkpt>
      <trkpt lat="42.97998" lon="1.93138">
        <ele>394</ele>
        <time>2014-10-11T13:03:57Z</time>
      </trkpt>
      <trkpt lat="42.98" lon="1.93145">
        <ele>394</ele>
        <time>2014-10-11T13:03:59Z</time>
      </trkpt>
      <trkpt lat="42.98008" lon="1.9316">
        <ele>394</ele>
        <time>2014-10-11T13:04:02Z</time>
      </trkpt>
      <trkpt lat="42.98014" lon="1.93182">
        <ele>394</ele>
        <time>2014-10-11T13:04:05Z</time>
      </trkpt>
      <trkpt lat="42.98019" lon="1.93194">
        <ele>395</ele>
        <time>2014-10-11T13:04:07Z</time>
      </trkpt>
      <trkpt lat="42.9802" lon="1.93206">
        <ele>395</ele>
        <time>2014-10-11T13:04:09Z</time>
      </trkpt>
      <trkpt lat="42.9802" lon="1.93226">
        <ele>396</ele>
        <time>2014-10-11T13:04:12Z</time>
      </trkpt>
      <trkpt lat="42.98023" lon="1.93237">
        <ele>395</ele>
        <time>2014-10-11T13:04:14Z</time>
      </trkpt>
      <trkpt lat="42.98033" lon="1.93246">
        <ele>395</ele>
        <time>2014-10-11T13:04:17Z</time>
      </trkpt>
      <trkpt lat="42.9804" lon="1.93249">
        <ele>394</ele>
        <time>2014-10-11T13:04:19Z</time>
      </trkpt>
      <trkpt lat="42.98048" lon="1.9325">
        <ele>394</ele>
        <time>2014-10-11T13:04:21Z</time>
      </trkpt>
      <trkpt lat="42.98061" lon="1.93249">
        <ele>394</ele>
        <time>2014-10-11T13:04:24Z</time>
      </trkpt>
      <trkpt lat="42.98069" lon="1.93248">
        <ele>394</ele>
        <time>2014-10-11T13:04:26Z</time>
      </trkpt>
      <trkpt lat="42.98081" lon="1.93245">
        <ele>394</ele>
        <time>2014-10-11T13:04:29Z</time>
      </trkpt>
      <trkpt lat="42.9809" lon="1.93238">
        <ele>394</ele>
        <time>2014-10-11T13:04:32Z</time>
      </trkpt>
      <trkpt lat="42.98095" lon="1.93231">
        <ele>394</ele>
        <time>2014-10-11T13:04:35Z</time>
      </trkpt>
      <trkpt lat="42.98098" lon="1.9323">
        <ele>395</ele>
        <time>2014-10-11T13:04:38Z</time>
      </trkpt>
      <trkpt lat="42.98099" lon="1.9323">
        <ele>395</ele>
        <time>2014-10-11T13:04:40Z</time>
      </trkpt>
      <trkpt lat="42.98113" lon="1.93219">
        <ele>394</ele>
        <time>2014-10-11T13:04:42Z</time>
      </trkpt>
      <trkpt lat="42.98117" lon="1.93215">
        <ele>393</ele>
        <time>2014-10-11T13:04:44Z</time>
      </trkpt>
      <trkpt lat="42.98123" lon="1.93204">
        <ele>393</ele>
        <time>2014-10-11T13:04:47Z</time>
      </trkpt>
      <trkpt lat="42.98129" lon="1.93199">
        <ele>393</ele>
        <time>2014-10-11T13:04:49Z</time>
      </trkpt>
      <trkpt lat="42.98135" lon="1.93192">
        <ele>393</ele>
        <time>2014-10-11T13:04:51Z</time>
      </trkpt>
      <trkpt lat="42.98139" lon="1.93184">
        <ele>393</ele>
        <time>2014-10-11T13:04:53Z</time>
      </trkpt>
      <trkpt lat="42.98146" lon="1.93175">
        <ele>393</ele>
        <time>2014-10-11T13:04:55Z</time>
      </trkpt>
      <trkpt lat="42.98157" lon="1.93164">
        <ele>394</ele>
        <time>2014-10-11T13:04:58Z</time>
      </trkpt>
      <trkpt lat="42.98168" lon="1.93155">
        <ele>394</ele>
        <time>2014-10-11T13:05:01Z</time>
      </trkpt>
      <trkpt lat="42.98176" lon="1.93141">
        <ele>394</ele>
        <time>2014-10-11T13:05:04Z</time>
      </trkpt>
      <trkpt lat="42.98183" lon="1.93138">
        <ele>394</ele>
        <time>2014-10-11T13:05:06Z</time>
      </trkpt>
      <trkpt lat="42.98194" lon="1.93131">
        <ele>394</ele>
        <time>2014-10-11T13:05:09Z</time>
      </trkpt>
      <trkpt lat="42.98204" lon="1.93124">
        <ele>394</ele>
        <time>2014-10-11T13:05:12Z</time>
      </trkpt>
      <trkpt lat="42.98209" lon="1.93116">
        <ele>394</ele>
        <time>2014-10-11T13:05:14Z</time>
      </trkpt>
      <trkpt lat="42.98215" lon="1.93101">
        <ele>394</ele>
        <time>2014-10-11T13:05:17Z</time>
      </trkpt>
      <trkpt lat="42.98221" lon="1.93088">
        <ele>394</ele>
        <time>2014-10-11T13:05:20Z</time>
      </trkpt>
      <trkpt lat="42.98225" lon="1.93083">
        <ele>394</ele>
        <time>2014-10-11T13:05:22Z</time>
      </trkpt>
      <trkpt lat="42.98227" lon="1.93074">
        <ele>394</ele>
        <time>2014-10-11T13:05:24Z</time>
      </trkpt>
      <trkpt lat="42.9823" lon="1.93061">
        <ele>394</ele>
        <time>2014-10-11T13:05:27Z</time>
      </trkpt>
      <trkpt lat="42.98234" lon="1.93058">
        <ele>395</ele>
        <time>2014-10-11T13:05:29Z</time>
      </trkpt>
      <trkpt lat="42.98242" lon="1.93062">
        <ele>396</ele>
        <time>2014-10-11T13:05:32Z</time>
      </trkpt>
      <trkpt lat="42.98251" lon="1.93067">
        <ele>396</ele>
        <time>2014-10-11T13:05:35Z</time>
      </trkpt>
      <trkpt lat="42.9826" lon="1.93071">
        <ele>395</ele>
        <time>2014-10-11T13:05:38Z</time>
      </trkpt>
      <trkpt lat="42.98269" lon="1.93075">
        <ele>395</ele>
        <time>2014-10-11T13:05:41Z</time>
      </trkpt>
      <trkpt lat="42.98275" lon="1.93079">
        <ele>396</ele>
        <time>2014-10-11T13:05:43Z</time>
      </trkpt>
      <trkpt lat="42.98283" lon="1.93087">
        <ele>396</ele>
        <time>2014-10-11T13:05:46Z</time>
      </trkpt>
      <trkpt lat="42.98291" lon="1.93096">
        <ele>397</ele>
        <time>2014-10-11T13:05:49Z</time>
      </trkpt>
      <trkpt lat="42.98296" lon="1.93102">
        <ele>396</ele>
        <time>2014-10-11T13:05:51Z</time>
      </trkpt>
      <trkpt lat="42.983" lon="1.9311">
        <ele>396</ele>
        <time>2014-10-11T13:05:53Z</time>
      </trkpt>
      <trkpt lat="42.98306" lon="1.93122">
        <ele>396</ele>
        <time>2014-10-11T13:05:56Z</time>
      </trkpt>
      <trkpt lat="42.9831" lon="1.93134">
        <ele>396</ele>
        <time>2014-10-11T13:05:59Z</time>
      </trkpt>
      <trkpt lat="42.98314" lon="1.93146">
        <ele>396</ele>
        <time>2014-10-11T13:06:02Z</time>
      </trkpt>
      <trkpt lat="42.98316" lon="1.93155">
        <ele>396</ele>
        <time>2014-10-11T13:06:05Z</time>
      </trkpt>
      <trkpt lat="42.98316" lon="1.93157">
        <ele>395</ele>
        <time>2014-10-11T13:06:07Z</time>
      </trkpt>
      <trkpt lat="42.98317" lon="1.93157">
        <ele>395</ele>
        <time>2014-10-11T13:06:10Z</time>
      </trkpt>
      <trkpt lat="42.98317" lon="1.93157">
        <ele>395</ele>
        <time>2014-10-11T13:06:12Z</time>
      </trkpt>
      <trkpt lat="42.98317" lon="1.93156">
        <ele>395</ele>
        <time>2014-10-11T13:06:14Z</time>
      </trkpt>
      <trkpt lat="42.98317" lon="1.93156">
        <ele>395</ele>
        <time>2014-10-11T13:06:16Z</time>
      </trkpt>
      <trkpt lat="42.98317" lon="1.93154">
        <ele>395</ele>
        <time>2014-10-11T13:06:19Z</time>
      </trkpt>
      <trkpt lat="42.98317" lon="1.93154">
        <ele>395</ele>
        <time>2014-10-11T13:06:21Z</time>
      </trkpt>
      <trkpt lat="42.98317" lon="1.93153">
        <ele>395</ele>
        <time>2014-10-11T13:06:23Z</time>
      </trkpt>
      <trkpt lat="42.98317" lon="1.93152">
        <ele>395</ele>
        <time>2014-10-11T13:06:25Z</time>
      </trkpt>
      <trkpt lat="42.9832" lon="1.93151">
        <ele>395</ele>
        <time>2014-10-11T13:06:29Z</time>
      </trkpt>
      <trkpt lat="42.9832" lon="1.93152">
        <ele>395</ele>
        <time>2014-10-11T13:06:31Z</time>
      </trkpt>
      <trkpt lat="42.9832" lon="1.93153">
        <ele>395</ele>
        <time>2014-10-11T13:06:33Z</time>
      </trkpt>
      <trkpt lat="42.9832" lon="1.93155">
        <ele>395</ele>
        <time>2014-10-11T13:06:36Z</time>
      </trkpt>
      <trkpt lat="42.98323" lon="1.93156">
        <ele>395</ele>
        <time>2014-10-11T13:06:38Z</time>
      </trkpt>
      <trkpt lat="42.98325" lon="1.93157">
        <ele>395</ele>
        <time>2014-10-11T13:06:40Z</time>
      </trkpt>
      <trkpt lat="42.98332" lon="1.9316">
        <ele>395</ele>
        <time>2014-10-11T13:06:43Z</time>
      </trkpt>
      <trkpt lat="42.98344" lon="1.93159">
        <ele>394</ele>
        <time>2014-10-11T13:06:46Z</time>
      </trkpt>
      <trkpt lat="42.98349" lon="1.9316">
        <ele>392</ele>
        <time>2014-10-11T13:06:48Z</time>
      </trkpt>
      <trkpt lat="42.98351" lon="1.93158">
        <ele>390</ele>
        <time>2014-10-11T13:06:51Z</time>
      </trkpt>
      <trkpt lat="42.98351" lon="1.93158">
        <ele>389</ele>
        <time>2014-10-11T13:06:53Z</time>
      </trkpt>
      <trkpt lat="42.98354" lon="1.93157">
        <ele>389</ele>
        <time>2014-10-11T13:06:55Z</time>
      </trkpt>
      <trkpt lat="42.9836" lon="1.93152">
        <ele>389</ele>
        <time>2014-10-11T13:06:58Z</time>
      </trkpt>
      <trkpt lat="42.98365" lon="1.93149">
        <ele>389</ele>
        <time>2014-10-11T13:07:00Z</time>
      </trkpt>
      <trkpt lat="42.98372" lon="1.93143">
        <ele>389</ele>
        <time>2014-10-11T13:07:03Z</time>
      </trkpt>
      <trkpt lat="42.98379" lon="1.93139">
        <ele>389</ele>
        <time>2014-10-11T13:07:06Z</time>
      </trkpt>
      <trkpt lat="42.98389" lon="1.93136">
        <ele>389</ele>
        <time>2014-10-11T13:07:09Z</time>
      </trkpt>
      <trkpt lat="42.98395" lon="1.93132">
        <ele>389</ele>
        <time>2014-10-11T13:07:11Z</time>
      </trkpt>
      <trkpt lat="42.98405" lon="1.93125">
        <ele>389</ele>
        <time>2014-10-11T13:07:14Z</time>
      </trkpt>
      <trkpt lat="42.98413" lon="1.93118">
        <ele>388</ele>
        <time>2014-10-11T13:07:17Z</time>
      </trkpt>
      <trkpt lat="42.98418" lon="1.93113">
        <ele>389</ele>
        <time>2014-10-11T13:07:19Z</time>
      </trkpt>
      <trkpt lat="42.98424" lon="1.93109">
        <ele>389</ele>
        <time>2014-10-11T13:07:21Z</time>
      </trkpt>
      <trkpt lat="42.9843" lon="1.93104">
        <ele>389</ele>
        <time>2014-10-11T13:07:23Z</time>
      </trkpt>
      <trkpt lat="42.98434" lon="1.93097">
        <ele>388</ele>
        <time>2014-10-11T13:07:25Z</time>
      </trkpt>
      <trkpt lat="42.98438" lon="1.93093">
        <ele>388</ele>
        <time>2014-10-11T13:07:27Z</time>
      </trkpt>
      <trkpt lat="42.98442" lon="1.93086">
        <ele>389</ele>
        <time>2014-10-11T13:07:29Z</time>
      </trkpt>
      <trkpt lat="42.98448" lon="1.93071">
        <ele>389</ele>
        <time>2014-10-11T13:07:32Z</time>
      </trkpt>
      <trkpt lat="42.98452" lon="1.93058">
        <ele>389</ele>
        <time>2014-10-11T13:07:34Z</time>
      </trkpt>
      <trkpt lat="42.98456" lon="1.93043">
        <ele>389</ele>
        <time>2014-10-11T13:07:36Z</time>
      </trkpt>
      <trkpt lat="42.9846" lon="1.93028">
        <ele>388</ele>
        <time>2014-10-11T13:07:38Z</time>
      </trkpt>
      <trkpt lat="42.98463" lon="1.93013">
        <ele>388</ele>
        <time>2014-10-11T13:07:40Z</time>
      </trkpt>
      <trkpt lat="42.98469" lon="1.9299">
        <ele>388</ele>
        <time>2014-10-11T13:07:43Z</time>
      </trkpt>
      <trkpt lat="42.98476" lon="1.92966">
        <ele>388</ele>
        <time>2014-10-11T13:07:46Z</time>
      </trkpt>
      <trkpt lat="42.98481" lon="1.92941">
        <ele>388</ele>
        <time>2014-10-11T13:07:49Z</time>
      </trkpt>
      <trkpt lat="42.98488" lon="1.92917">
        <ele>387</ele>
        <time>2014-10-11T13:07:52Z</time>
      </trkpt>
      <trkpt lat="42.98493" lon="1.92901">
        <ele>387</ele>
        <time>2014-10-11T13:07:54Z</time>
      </trkpt>
      <trkpt lat="42.98497" lon="1.92885">
        <ele>386</ele>
        <time>2014-10-11T13:07:56Z</time>
      </trkpt>
      <trkpt lat="42.98506" lon="1.92862">
        <ele>386</ele>
        <time>2014-10-11T13:07:59Z</time>
      </trkpt>
      <trkpt lat="42.9851" lon="1.92847">
        <ele>385</ele>
        <time>2014-10-11T13:08:01Z</time>
      </trkpt>
      <trkpt lat="42.98518" lon="1.92824">
        <ele>385</ele>
        <time>2014-10-11T13:08:04Z</time>
      </trkpt>
      <trkpt lat="42.9853" lon="1.92801">
        <ele>384</ele>
        <time>2014-10-11T13:08:07Z</time>
      </trkpt>
      <trkpt lat="42.98542" lon="1.92779">
        <ele>383</ele>
        <time>2014-10-11T13:08:10Z</time>
      </trkpt>
      <trkpt lat="42.98549" lon="1.92761">
        <ele>383</ele>
        <time>2014-10-11T13:08:12Z</time>
      </trkpt>
      <trkpt lat="42.98558" lon="1.92735">
        <ele>382</ele>
        <time>2014-10-11T13:08:15Z</time>
      </trkpt>
      <trkpt lat="42.98565" lon="1.92718">
        <ele>382</ele>
        <time>2014-10-11T13:08:17Z</time>
      </trkpt>
      <trkpt lat="42.98575" lon="1.92693">
        <ele>381</ele>
        <time>2014-10-11T13:08:20Z</time>
      </trkpt>
      <trkpt lat="42.98581" lon="1.92676">
        <ele>381</ele>
        <time>2014-10-11T13:08:22Z</time>
      </trkpt>
      <trkpt lat="42.9859" lon="1.92652">
        <ele>381</ele>
        <time>2014-10-11T13:08:25Z</time>
      </trkpt>
      <trkpt lat="42.98597" lon="1.92636">
        <ele>381</ele>
        <time>2014-10-11T13:08:27Z</time>
      </trkpt>
      <trkpt lat="42.98605" lon="1.92612">
        <ele>380</ele>
        <time>2014-10-11T13:08:30Z</time>
      </trkpt>
      <trkpt lat="42.98613" lon="1.92588">
        <ele>380</ele>
        <time>2014-10-11T13:08:33Z</time>
      </trkpt>
      <trkpt lat="42.98618" lon="1.92573">
        <ele>380</ele>
        <time>2014-10-11T13:08:35Z</time>
      </trkpt>
      <trkpt lat="42.98624" lon="1.92551">
        <ele>380</ele>
        <time>2014-10-11T13:08:38Z</time>
      </trkpt>
      <trkpt lat="42.98628" lon="1.92536">
        <ele>380</ele>
        <time>2014-10-11T13:08:40Z</time>
      </trkpt>
      <trkpt lat="42.98633" lon="1.92514">
        <ele>380</ele>
        <time>2014-10-11T13:08:43Z</time>
      </trkpt>
      <trkpt lat="42.98637" lon="1.92491">
        <ele>380</ele>
        <time>2014-10-11T13:08:46Z</time>
      </trkpt>
      <trkpt lat="42.98639" lon="1.92476">
        <ele>380</ele>
        <time>2014-10-11T13:08:48Z</time>
      </trkpt>
      <trkpt lat="42.98642" lon="1.92453">
        <ele>380</ele>
        <time>2014-10-11T13:08:51Z</time>
      </trkpt>
      <trkpt lat="42.98644" lon="1.92439">
        <ele>380</ele>
        <time>2014-10-11T13:08:53Z</time>
      </trkpt>
      <trkpt lat="42.98647" lon="1.92417">
        <ele>380</ele>
        <time>2014-10-11T13:08:56Z</time>
      </trkpt>
      <trkpt lat="42.98649" lon="1.92393">
        <ele>380</ele>
        <time>2014-10-11T13:08:59Z</time>
      </trkpt>
      <trkpt lat="42.98651" lon="1.92377">
        <ele>380</ele>
        <time>2014-10-11T13:09:01Z</time>
      </trkpt>
      <trkpt lat="42.98652" lon="1.9236">
        <ele>380</ele>
        <time>2014-10-11T13:09:03Z</time>
      </trkpt>
      <trkpt lat="42.98655" lon="1.92333">
        <ele>380</ele>
        <time>2014-10-11T13:09:06Z</time>
      </trkpt>
      <trkpt lat="42.98658" lon="1.92308">
        <ele>381</ele>
        <time>2014-10-11T13:09:09Z</time>
      </trkpt>
      <trkpt lat="42.9866" lon="1.92292">
        <ele>381</ele>
        <time>2014-10-11T13:09:11Z</time>
      </trkpt>
      <trkpt lat="42.98662" lon="1.92275">
        <ele>381</ele>
        <time>2014-10-11T13:09:13Z</time>
      </trkpt>
      <trkpt lat="42.98665" lon="1.92251">
        <ele>381</ele>
        <time>2014-10-11T13:09:16Z</time>
      </trkpt>
      <trkpt lat="42.98667" lon="1.92226">
        <ele>382</ele>
        <time>2014-10-11T13:09:19Z</time>
      </trkpt>
      <trkpt lat="42.98669" lon="1.92209">
        <ele>382</ele>
        <time>2014-10-11T13:09:21Z</time>
      </trkpt>
      <trkpt lat="42.98671" lon="1.92193">
        <ele>382</ele>
        <time>2014-10-11T13:09:23Z</time>
      </trkpt>
      <trkpt lat="42.98674" lon="1.92169">
        <ele>382</ele>
        <time>2014-10-11T13:09:26Z</time>
      </trkpt>
      <trkpt lat="42.98676" lon="1.92154">
        <ele>382</ele>
        <time>2014-10-11T13:09:28Z</time>
      </trkpt>
      <trkpt lat="42.98679" lon="1.9213">
        <ele>382</ele>
        <time>2014-10-11T13:09:31Z</time>
      </trkpt>
      <trkpt lat="42.98681" lon="1.92113">
        <ele>382</ele>
        <time>2014-10-11T13:09:33Z</time>
      </trkpt>
      <trkpt lat="42.98684" lon="1.92087">
        <ele>382</ele>
        <time>2014-10-11T13:09:36Z</time>
      </trkpt>
      <trkpt lat="42.98688" lon="1.92061">
        <ele>382</ele>
        <time>2014-10-11T13:09:39Z</time>
      </trkpt>
      <trkpt lat="42.98692" lon="1.92035">
        <ele>383</ele>
        <time>2014-10-11T13:09:42Z</time>
      </trkpt>
      <trkpt lat="42.98694" lon="1.92018">
        <ele>383</ele>
        <time>2014-10-11T13:09:44Z</time>
      </trkpt>
      <trkpt lat="42.98697" lon="1.91994">
        <ele>383</ele>
        <time>2014-10-11T13:09:47Z</time>
      </trkpt>
      <trkpt lat="42.98699" lon="1.91968">
        <ele>383</ele>
        <time>2014-10-11T13:09:50Z</time>
      </trkpt>
      <trkpt lat="42.98701" lon="1.91951">
        <ele>384</ele>
        <time>2014-10-11T13:09:52Z</time>
      </trkpt>
      <trkpt lat="42.98706" lon="1.91937">
        <ele>384</ele>
        <time>2014-10-11T13:09:54Z</time>
      </trkpt>
      <trkpt lat="42.98721" lon="1.9192">
        <ele>384</ele>
        <time>2014-10-11T13:09:57Z</time>
      </trkpt>
      <trkpt lat="42.98736" lon="1.91902">
        <ele>384</ele>
        <time>2014-10-11T13:10:00Z</time>
      </trkpt>
      <trkpt lat="42.98746" lon="1.9189">
        <ele>384</ele>
        <time>2014-10-11T13:10:02Z</time>
      </trkpt>
      <trkpt lat="42.98756" lon="1.91878">
        <ele>384</ele>
        <time>2014-10-11T13:10:04Z</time>
      </trkpt>
      <trkpt lat="42.98766" lon="1.91867">
        <ele>384</ele>
        <time>2014-10-11T13:10:06Z</time>
      </trkpt>
      <trkpt lat="42.98775" lon="1.91855">
        <ele>384</ele>
        <time>2014-10-11T13:10:08Z</time>
      </trkpt>
      <trkpt lat="42.98787" lon="1.91836">
        <ele>384</ele>
        <time>2014-10-11T13:10:11Z</time>
      </trkpt>
      <trkpt lat="42.98795" lon="1.91824">
        <ele>384</ele>
        <time>2014-10-11T13:10:13Z</time>
      </trkpt>
      <trkpt lat="42.988" lon="1.91811">
        <ele>384</ele>
        <time>2014-10-11T13:10:15Z</time>
      </trkpt>
      <trkpt lat="42.98804" lon="1.91797">
        <ele>383</ele>
        <time>2014-10-11T13:10:17Z</time>
      </trkpt>
      <trkpt lat="42.98809" lon="1.91778">
        <ele>383</ele>
        <time>2014-10-11T13:10:20Z</time>
      </trkpt>
      <trkpt lat="42.98812" lon="1.9176">
        <ele>383</ele>
        <time>2014-10-11T13:10:23Z</time>
      </trkpt>
      <trkpt lat="42.98816" lon="1.91747">
        <ele>383</ele>
        <time>2014-10-11T13:10:25Z</time>
      </trkpt>
      <trkpt lat="42.9882" lon="1.91729">
        <ele>383</ele>
        <time>2014-10-11T13:10:28Z</time>
      </trkpt>
      <trkpt lat="42.98822" lon="1.91717">
        <ele>383</ele>
        <time>2014-10-11T13:10:30Z</time>
      </trkpt>
      <trkpt lat="42.98824" lon="1.917">
        <ele>383</ele>
        <time>2014-10-11T13:10:33Z</time>
      </trkpt>
      <trkpt lat="42.98827" lon="1.91683">
        <ele>382</ele>
        <time>2014-10-11T13:10:36Z</time>
      </trkpt>
      <trkpt lat="42.98831" lon="1.91668">
        <ele>382</ele>
        <time>2014-10-11T13:10:39Z</time>
      </trkpt>
      <trkpt lat="42.98835" lon="1.91654">
        <ele>382</ele>
        <time>2014-10-11T13:10:42Z</time>
      </trkpt>
      <trkpt lat="42.98837" lon="1.91644">
        <ele>382</ele>
        <time>2014-10-11T13:10:44Z</time>
      </trkpt>
      <trkpt lat="42.98842" lon="1.91632">
        <ele>382</ele>
        <time>2014-10-11T13:10:47Z</time>
      </trkpt>
      <trkpt lat="42.98845" lon="1.91623">
        <ele>382</ele>
        <time>2014-10-11T13:10:49Z</time>
      </trkpt>
      <trkpt lat="42.98848" lon="1.91613">
        <ele>382</ele>
        <time>2014-10-11T13:10:51Z</time>
      </trkpt>
      <trkpt lat="42.98851" lon="1.91597">
        <ele>382</ele>
        <time>2014-10-11T13:10:54Z</time>
      </trkpt>
      <trkpt lat="42.98854" lon="1.91585">
        <ele>382</ele>
        <time>2014-10-11T13:10:56Z</time>
      </trkpt>
      <trkpt lat="42.98857" lon="1.91566">
        <ele>382</ele>
        <time>2014-10-11T13:10:59Z</time>
      </trkpt>
      <trkpt lat="42.98859" lon="1.91552">
        <ele>382</ele>
        <time>2014-10-11T13:11:01Z</time>
      </trkpt>
      <trkpt lat="42.9886" lon="1.91538">
        <ele>382</ele>
        <time>2014-10-11T13:11:03Z</time>
      </trkpt>
      <trkpt lat="42.98862" lon="1.91517">
        <ele>382</ele>
        <time>2014-10-11T13:11:06Z</time>
      </trkpt>
      <trkpt lat="42.98863" lon="1.91502">
        <ele>382</ele>
        <time>2014-10-11T13:11:08Z</time>
      </trkpt>
      <trkpt lat="42.98862" lon="1.9148">
        <ele>382</ele>
        <time>2014-10-11T13:11:11Z</time>
      </trkpt>
      <trkpt lat="42.98859" lon="1.91457">
        <ele>382</ele>
        <time>2014-10-11T13:11:14Z</time>
      </trkpt>
      <trkpt lat="42.98856" lon="1.91441">
        <ele>382</ele>
        <time>2014-10-11T13:11:16Z</time>
      </trkpt>
      <trkpt lat="42.98853" lon="1.91425">
        <ele>382</ele>
        <time>2014-10-11T13:11:18Z</time>
      </trkpt>
      <trkpt lat="42.9885" lon="1.91407">
        <ele>382</ele>
        <time>2014-10-11T13:11:20Z</time>
      </trkpt>
      <trkpt lat="42.98846" lon="1.9138">
        <ele>382</ele>
        <time>2014-10-11T13:11:23Z</time>
      </trkpt>
      <trkpt lat="42.98846" lon="1.91362">
        <ele>381</ele>
        <time>2014-10-11T13:11:25Z</time>
      </trkpt>
      <trkpt lat="42.98845" lon="1.91344">
        <ele>381</ele>
        <time>2014-10-11T13:11:27Z</time>
      </trkpt>
      <trkpt lat="42.98845" lon="1.91327">
        <ele>381</ele>
        <time>2014-10-11T13:11:29Z</time>
      </trkpt>
      <trkpt lat="42.98845" lon="1.9131">
        <ele>381</ele>
        <time>2014-10-11T13:11:31Z</time>
      </trkpt>
      <trkpt lat="42.98846" lon="1.91284">
        <ele>382</ele>
        <time>2014-10-11T13:11:34Z</time>
      </trkpt>
      <trkpt lat="42.98848" lon="1.91268">
        <ele>381</ele>
        <time>2014-10-11T13:11:36Z</time>
      </trkpt>
      <trkpt lat="42.98852" lon="1.91244">
        <ele>381</ele>
        <time>2014-10-11T13:11:39Z</time>
      </trkpt>
      <trkpt lat="42.98851" lon="1.91232">
        <ele>381</ele>
        <time>2014-10-11T13:11:41Z</time>
      </trkpt>
      <trkpt lat="42.98846" lon="1.91229">
        <ele>381</ele>
        <time>2014-10-11T13:11:44Z</time>
      </trkpt>
      <trkpt lat="42.98851" lon="1.9123">
        <ele>381</ele>
        <time>2014-10-11T13:11:47Z</time>
      </trkpt>
      <trkpt lat="42.98856" lon="1.91218">
        <ele>381</ele>
        <time>2014-10-11T13:11:50Z</time>
      </trkpt>
      <trkpt lat="42.98859" lon="1.91208">
        <ele>381</ele>
        <time>2014-10-11T13:11:52Z</time>
      </trkpt>
      <trkpt lat="42.98864" lon="1.91194">
        <ele>381</ele>
        <time>2014-10-11T13:11:55Z</time>
      </trkpt>
      <trkpt lat="42.98867" lon="1.91178">
        <ele>381</ele>
        <time>2014-10-11T13:11:58Z</time>
      </trkpt>
      <trkpt lat="42.98866" lon="1.91167">
        <ele>382</ele>
        <time>2014-10-11T13:12:00Z</time>
      </trkpt>
      <trkpt lat="42.98862" lon="1.9116">
        <ele>382</ele>
        <time>2014-10-11T13:12:02Z</time>
      </trkpt>
      <trkpt lat="42.98856" lon="1.91157">
        <ele>382</ele>
        <time>2014-10-11T13:12:05Z</time>
      </trkpt>
      <trkpt lat="42.98853" lon="1.91155">
        <ele>382</ele>
        <time>2014-10-11T13:12:07Z</time>
      </trkpt>
      <trkpt lat="42.98848" lon="1.91154">
        <ele>382</ele>
        <time>2014-10-11T13:12:10Z</time>
      </trkpt>
      <trkpt lat="42.98845" lon="1.91151">
        <ele>382</ele>
        <time>2014-10-11T13:12:12Z</time>
      </trkpt>
      <trkpt lat="42.98839" lon="1.91143">
        <ele>383</ele>
        <time>2014-10-11T13:12:15Z</time>
      </trkpt>
      <trkpt lat="42.9883" lon="1.91134">
        <ele>383</ele>
        <time>2014-10-11T13:12:18Z</time>
      </trkpt>
      <trkpt lat="42.98824" lon="1.91131">
        <ele>383</ele>
        <time>2014-10-11T13:12:20Z</time>
      </trkpt>
      <trkpt lat="42.98816" lon="1.91129">
        <ele>383</ele>
        <time>2014-10-11T13:12:23Z</time>
      </trkpt>
      <trkpt lat="42.9881" lon="1.91127">
        <ele>383</ele>
        <time>2014-10-11T13:12:25Z</time>
      </trkpt>
      <trkpt lat="42.9881" lon="1.91127">
        <ele>383</ele>
        <time>2014-10-11T13:12:28Z</time>
      </trkpt>
      <trkpt lat="42.98813" lon="1.91127">
        <ele>383</ele>
        <time>2014-10-11T13:12:30Z</time>
      </trkpt>
      <trkpt lat="42.98821" lon="1.9113">
        <ele>383</ele>
        <time>2014-10-11T13:12:33Z</time>
      </trkpt>
      <trkpt lat="42.98827" lon="1.91134">
        <ele>383</ele>
        <time>2014-10-11T13:12:35Z</time>
      </trkpt>
      <trkpt lat="42.98833" lon="1.91135">
        <ele>383</ele>
        <time>2014-10-11T13:12:37Z</time>
      </trkpt>
      <trkpt lat="42.98837" lon="1.9113">
        <ele>383</ele>
        <time>2014-10-11T13:12:39Z</time>
      </trkpt>
      <trkpt lat="42.9884" lon="1.91124">
        <ele>383</ele>
        <time>2014-10-11T13:12:41Z</time>
      </trkpt>
      <trkpt lat="42.98843" lon="1.91112">
        <ele>384</ele>
        <time>2014-10-11T13:12:44Z</time>
      </trkpt>
      <trkpt lat="42.98845" lon="1.91102">
        <ele>384</ele>
        <time>2014-10-11T13:12:46Z</time>
      </trkpt>
      <trkpt lat="42.98848" lon="1.91089">
        <ele>384</ele>
        <time>2014-10-11T13:12:49Z</time>
      </trkpt>
      <trkpt lat="42.98851" lon="1.91077">
        <ele>383</ele>
        <time>2014-10-11T13:12:52Z</time>
      </trkpt>
      <trkpt lat="42.98852" lon="1.91071">
        <ele>383</ele>
        <time>2014-10-11T13:12:54Z</time>
      </trkpt>
      <trkpt lat="42.98853" lon="1.91067">
        <ele>383</ele>
        <time>2014-10-11T13:12:57Z</time>
      </trkpt>
      <trkpt lat="42.98853" lon="1.91064">
        <ele>384</ele>
        <time>2014-10-11T13:12:59Z</time>
      </trkpt>
      <trkpt lat="42.98854" lon="1.91062">
        <ele>384</ele>
        <time>2014-10-11T13:13:01Z</time>
      </trkpt>
      <trkpt lat="42.98855" lon="1.9106">
        <ele>384</ele>
        <time>2014-10-11T13:13:03Z</time>
      </trkpt>
      <trkpt lat="42.98859" lon="1.91058">
        <ele>384</ele>
        <time>2014-10-11T13:13:06Z</time>
      </trkpt>
      <trkpt lat="42.98862" lon="1.91058">
        <ele>384</ele>
        <time>2014-10-11T13:13:08Z</time>
      </trkpt>
      <trkpt lat="42.98867" lon="1.91059">
        <ele>384</ele>
        <time>2014-10-11T13:13:11Z</time>
      </trkpt>
      <trkpt lat="42.98871" lon="1.9106">
        <ele>384</ele>
        <time>2014-10-11T13:13:13Z</time>
      </trkpt>
      <trkpt lat="42.98875" lon="1.91061">
        <ele>384</ele>
        <time>2014-10-11T13:13:16Z</time>
      </trkpt>
      <trkpt lat="42.98877" lon="1.91061">
        <ele>383</ele>
        <time>2014-10-11T13:13:18Z</time>
      </trkpt>
      <trkpt lat="42.98875" lon="1.91064">
        <ele>383</ele>
        <time>2014-10-11T13:13:21Z</time>
      </trkpt>
      <trkpt lat="42.9887" lon="1.91063">
        <ele>383</ele>
        <time>2014-10-11T13:13:23Z</time>
      </trkpt>
      <trkpt lat="42.98862" lon="1.91061">
        <ele>383</ele>
        <time>2014-10-11T13:13:26Z</time>
      </trkpt>
      <trkpt lat="42.98858" lon="1.9106">
        <ele>384</ele>
        <time>2014-10-11T13:13:28Z</time>
      </trkpt>
      <trkpt lat="42.98856" lon="1.91057">
        <ele>384</ele>
        <time>2014-10-11T13:13:31Z</time>
      </trkpt>
      <trkpt lat="42.98855" lon="1.91053">
        <ele>384</ele>
        <time>2014-10-11T13:13:33Z</time>
      </trkpt>
      <trkpt lat="42.98854" lon="1.91048">
        <ele>384</ele>
        <time>2014-10-11T13:13:35Z</time>
      </trkpt>
      <trkpt lat="42.98855" lon="1.91045">
        <ele>384</ele>
        <time>2014-10-11T13:13:37Z</time>
      </trkpt>
      <trkpt lat="42.98855" lon="1.91042">
        <ele>384</ele>
        <time>2014-10-11T13:13:40Z</time>
      </trkpt>
      <trkpt lat="42.98855" lon="1.91042">
        <ele>383</ele>
        <time>2014-10-11T13:13:42Z</time>
      </trkpt>
      <trkpt lat="42.98855" lon="1.91042">
        <ele>384</ele>
        <time>2014-10-11T13:13:44Z</time>
      </trkpt>
      <trkpt lat="42.98855" lon="1.91041">
        <ele>384</ele>
        <time>2014-10-11T13:13:46Z</time>
      </trkpt>
      <trkpt lat="42.98854" lon="1.91041">
        <ele>383</ele>
        <time>2014-10-11T13:13:48Z</time>
      </trkpt>
      <trkpt lat="42.98854" lon="1.9104">
        <ele>384</ele>
        <time>2014-10-11T13:13:50Z</time>
      </trkpt>
      <trkpt lat="42.98853" lon="1.9104">
        <ele>383</ele>
        <time>2014-10-11T13:13:53Z</time>
      </trkpt>
      <trkpt lat="42.98853" lon="1.91039">
        <ele>383</ele>
        <time>2014-10-11T13:13:55Z</time>
      </trkpt>
      <trkpt lat="42.98819" lon="1.91044">
        <ele>384</ele>
        <time>2014-10-11T13:13:58Z</time>
      </trkpt>
      <trkpt lat="42.98812" lon="1.91042">
        <ele>383</ele>
        <time>2014-10-11T13:14:00Z</time>
      </trkpt>
      <trkpt lat="42.98806" lon="1.9104">
        <ele>383</ele>
        <time>2014-10-11T13:14:02Z</time>
      </trkpt>
      <trkpt lat="42.98796" lon="1.91037">
        <ele>383</ele>
        <time>2014-10-11T13:14:05Z</time>
      </trkpt>
      <trkpt lat="42.98788" lon="1.91033">
        <ele>384</ele>
        <time>2014-10-11T13:14:07Z</time>
      </trkpt>
      <trkpt lat="42.98775" lon="1.91039">
        <ele>384</ele>
        <time>2014-10-11T13:14:10Z</time>
      </trkpt>
      <trkpt lat="42.98769" lon="1.91049">
        <ele>385</ele>
        <time>2014-10-11T13:14:12Z</time>
      </trkpt>
      <trkpt lat="42.98762" lon="1.91063">
        <ele>385</ele>
        <time>2014-10-11T13:14:15Z</time>
      </trkpt>
      <trkpt lat="42.98758" lon="1.91073">
        <ele>385</ele>
        <time>2014-10-11T13:14:17Z</time>
      </trkpt>
      <trkpt lat="42.98753" lon="1.91087">
        <ele>386</ele>
        <time>2014-10-11T13:14:20Z</time>
      </trkpt>
      <trkpt lat="42.9875" lon="1.91103">
        <ele>386</ele>
        <time>2014-10-11T13:14:23Z</time>
      </trkpt>
      <trkpt lat="42.98748" lon="1.91113">
        <ele>386</ele>
        <time>2014-10-11T13:14:25Z</time>
      </trkpt>
      <trkpt lat="42.98748" lon="1.91123">
        <ele>386</ele>
        <time>2014-10-11T13:14:27Z</time>
      </trkpt>
      <trkpt lat="42.98745" lon="1.91139">
        <ele>386</ele>
        <time>2014-10-11T13:14:30Z</time>
      </trkpt>
      <trkpt lat="42.98736" lon="1.9115">
        <ele>386</ele>
        <time>2014-10-11T13:14:33Z</time>
      </trkpt>
      <trkpt lat="42.98729" lon="1.91153">
        <ele>387</ele>
        <time>2014-10-11T13:14:35Z</time>
      </trkpt>
      <trkpt lat="42.98721" lon="1.91155">
        <ele>387</ele>
        <time>2014-10-11T13:14:37Z</time>
      </trkpt>
      <trkpt lat="42.98709" lon="1.91159">
        <ele>387</ele>
        <time>2014-10-11T13:14:40Z</time>
      </trkpt>
      <trkpt lat="42.98701" lon="1.91161">
        <ele>387</ele>
        <time>2014-10-11T13:14:42Z</time>
      </trkpt>
      <trkpt lat="42.98692" lon="1.91163">
        <ele>387</ele>
        <time>2014-10-11T13:14:44Z</time>
      </trkpt>
      <trkpt lat="42.98679" lon="1.91167">
        <ele>387</ele>
        <time>2014-10-11T13:14:47Z</time>
      </trkpt>
      <trkpt lat="42.98666" lon="1.9117">
        <ele>388</ele>
        <time>2014-10-11T13:14:50Z</time>
      </trkpt>
      <trkpt lat="42.98653" lon="1.91174">
        <ele>388</ele>
        <time>2014-10-11T13:14:53Z</time>
      </trkpt>
      <trkpt lat="42.98642" lon="1.91176">
        <ele>388</ele>
        <time>2014-10-11T13:14:56Z</time>
      </trkpt>
      <trkpt lat="42.98629" lon="1.91177">
        <ele>388</ele>
        <time>2014-10-11T13:14:59Z</time>
      </trkpt>
      <trkpt lat="42.98617" lon="1.91175">
        <ele>388</ele>
        <time>2014-10-11T13:15:02Z</time>
      </trkpt>
      <trkpt lat="42.98608" lon="1.91173">
        <ele>388</ele>
        <time>2014-10-11T13:15:04Z</time>
      </trkpt>
      <trkpt lat="42.98596" lon="1.91168">
        <ele>388</ele>
        <time>2014-10-11T13:15:07Z</time>
      </trkpt>
      <trkpt lat="42.98582" lon="1.91164">
        <ele>388</ele>
        <time>2014-10-11T13:15:10Z</time>
      </trkpt>
      <trkpt lat="42.98572" lon="1.91161">
        <ele>388</ele>
        <time>2014-10-11T13:15:12Z</time>
      </trkpt>
      <trkpt lat="42.98561" lon="1.91158">
        <ele>388</ele>
        <time>2014-10-11T13:15:14Z</time>
      </trkpt>
      <trkpt lat="42.98547" lon="1.91154">
        <ele>388</ele>
        <time>2014-10-11T13:15:17Z</time>
      </trkpt>
      <trkpt lat="42.98536" lon="1.91152">
        <ele>388</ele>
        <time>2014-10-11T13:15:20Z</time>
      </trkpt>
      <trkpt lat="42.98525" lon="1.91149">
        <ele>388</ele>
        <time>2014-10-11T13:15:23Z</time>
      </trkpt>
      <trkpt lat="42.98514" lon="1.91145">
        <ele>388</ele>
        <time>2014-10-11T13:15:26Z</time>
      </trkpt>
      <trkpt lat="42.98505" lon="1.91143">
        <ele>389</ele>
        <time>2014-10-11T13:15:28Z</time>
      </trkpt>
      <trkpt lat="42.98496" lon="1.9114">
        <ele>389</ele>
        <time>2014-10-11T13:15:30Z</time>
      </trkpt>
      <trkpt lat="42.98486" lon="1.91138">
        <ele>390</ele>
        <time>2014-10-11T13:15:32Z</time>
      </trkpt>
      <trkpt lat="42.98477" lon="1.91136">
        <ele>390</ele>
        <time>2014-10-11T13:15:34Z</time>
      </trkpt>
      <trkpt lat="42.98463" lon="1.91133">
        <ele>390</ele>
        <time>2014-10-11T13:15:37Z</time>
      </trkpt>
      <trkpt lat="42.98454" lon="1.91132">
        <ele>390</ele>
        <time>2014-10-11T13:15:39Z</time>
      </trkpt>
      <trkpt lat="42.98445" lon="1.91132">
        <ele>390</ele>
        <time>2014-10-11T13:15:41Z</time>
      </trkpt>
      <trkpt lat="42.98432" lon="1.91136">
        <ele>391</ele>
        <time>2014-10-11T13:15:44Z</time>
      </trkpt>
      <trkpt lat="42.98426" lon="1.91141">
        <ele>391</ele>
        <time>2014-10-11T13:15:46Z</time>
      </trkpt>
      <trkpt lat="42.98416" lon="1.91146">
        <ele>391</ele>
        <time>2014-10-11T13:15:49Z</time>
      </trkpt>
      <trkpt lat="42.98408" lon="1.91153">
        <ele>392</ele>
        <time>2014-10-11T13:15:52Z</time>
      </trkpt>
      <trkpt lat="42.98403" lon="1.91156">
        <ele>392</ele>
        <time>2014-10-11T13:15:54Z</time>
      </trkpt>
      <trkpt lat="42.98397" lon="1.91159">
        <ele>393</ele>
        <time>2014-10-11T13:15:56Z</time>
      </trkpt>
      <trkpt lat="42.98391" lon="1.91159">
        <ele>394</ele>
        <time>2014-10-11T13:15:58Z</time>
      </trkpt>
      <trkpt lat="42.98384" lon="1.91154">
        <ele>394</ele>
        <time>2014-10-11T13:16:01Z</time>
      </trkpt>
      <trkpt lat="42.9838" lon="1.91146">
        <ele>396</ele>
        <time>2014-10-11T13:16:04Z</time>
      </trkpt>
      <trkpt lat="42.98375" lon="1.91138">
        <ele>397</ele>
        <time>2014-10-11T13:16:07Z</time>
      </trkpt>
      <trkpt lat="42.98373" lon="1.91134">
        <ele>398</ele>
        <time>2014-10-11T13:16:09Z</time>
      </trkpt>
      <trkpt lat="42.98368" lon="1.91128">
        <ele>399</ele>
        <time>2014-10-11T13:16:12Z</time>
      </trkpt>
      <trkpt lat="42.98362" lon="1.91125">
        <ele>400</ele>
        <time>2014-10-11T13:16:15Z</time>
      </trkpt>
      <trkpt lat="42.98358" lon="1.91123">
        <ele>401</ele>
        <time>2014-10-11T13:16:17Z</time>
      </trkpt>
      <trkpt lat="42.9835" lon="1.9112">
        <ele>402</ele>
        <time>2014-10-11T13:16:20Z</time>
      </trkpt>
      <trkpt lat="42.98341" lon="1.9112">
        <ele>402</ele>
        <time>2014-10-11T13:16:23Z</time>
      </trkpt>
      <trkpt lat="42.9833" lon="1.91119">
        <ele>402</ele>
        <time>2014-10-11T13:16:26Z</time>
      </trkpt>
      <trkpt lat="42.98318" lon="1.91118">
        <ele>403</ele>
        <time>2014-10-11T13:16:29Z</time>
      </trkpt>
      <trkpt lat="42.9831" lon="1.91117">
        <ele>403</ele>
        <time>2014-10-11T13:16:31Z</time>
      </trkpt>
      <trkpt lat="42.98302" lon="1.91117">
        <ele>403</ele>
        <time>2014-10-11T13:16:33Z</time>
      </trkpt>
      <trkpt lat="42.98294" lon="1.91116">
        <ele>403</ele>
        <time>2014-10-11T13:16:35Z</time>
      </trkpt>
      <trkpt lat="42.98286" lon="1.91116">
        <ele>404</ele>
        <time>2014-10-11T13:16:37Z</time>
      </trkpt>
      <trkpt lat="42.98273" lon="1.91116">
        <ele>404</ele>
        <time>2014-10-11T13:16:40Z</time>
      </trkpt>
      <trkpt lat="42.98259" lon="1.91117">
        <ele>404</ele>
        <time>2014-10-11T13:16:43Z</time>
      </trkpt>
      <trkpt lat="42.98247" lon="1.91119">
        <ele>404</ele>
        <time>2014-10-11T13:16:46Z</time>
      </trkpt>
      <trkpt lat="42.98235" lon="1.9112">
        <ele>404</ele>
        <time>2014-10-11T13:16:49Z</time>
      </trkpt>
      <trkpt lat="42.98227" lon="1.9112">
        <ele>405</ele>
        <time>2014-10-11T13:16:51Z</time>
      </trkpt>
      <trkpt lat="42.98216" lon="1.9112">
        <ele>405</ele>
        <time>2014-10-11T13:16:54Z</time>
      </trkpt>
      <trkpt lat="42.98206" lon="1.9112">
        <ele>405</ele>
        <time>2014-10-11T13:16:57Z</time>
      </trkpt>
      <trkpt lat="42.98199" lon="1.9112">
        <ele>406</ele>
        <time>2014-10-11T13:17:00Z</time>
      </trkpt>
      <trkpt lat="42.98194" lon="1.91119">
        <ele>406</ele>
        <time>2014-10-11T13:17:03Z</time>
      </trkpt>
      <trkpt lat="42.9819" lon="1.91118">
        <ele>406</ele>
        <time>2014-10-11T13:17:06Z</time>
      </trkpt>
      <trkpt lat="42.98186" lon="1.91118">
        <ele>406</ele>
        <time>2014-10-11T13:17:09Z</time>
      </trkpt>
      <trkpt lat="42.98185" lon="1.91118">
        <ele>406</ele>
        <time>2014-10-11T13:17:11Z</time>
      </trkpt>
      <trkpt lat="42.98185" lon="1.91118">
        <ele>405</ele>
        <time>2014-10-11T13:17:14Z</time>
      </trkpt>
      <trkpt lat="42.98184" lon="1.9112">
        <ele>405</ele>
        <time>2014-10-11T13:17:17Z</time>
      </trkpt>
      <trkpt lat="42.98182" lon="1.9112">
        <ele>405</ele>
        <time>2014-10-11T13:17:20Z</time>
      </trkpt>
      <trkpt lat="42.98174" lon="1.91122">
        <ele>405</ele>
        <time>2014-10-11T13:17:23Z</time>
      </trkpt>
      <trkpt lat="42.9816" lon="1.91124">
        <ele>404</ele>
        <time>2014-10-11T13:17:26Z</time>
      </trkpt>
      <trkpt lat="42.98148" lon="1.91126">
        <ele>404</ele>
        <time>2014-10-11T13:17:28Z</time>
      </trkpt>
      <trkpt lat="42.98126" lon="1.9113">
        <ele>403</ele>
        <time>2014-10-11T13:17:31Z</time>
      </trkpt>
      <trkpt lat="42.98103" lon="1.91134">
        <ele>402</ele>
        <time>2014-10-11T13:17:34Z</time>
      </trkpt>
      <trkpt lat="42.98088" lon="1.91135">
        <ele>401</ele>
        <time>2014-10-11T13:17:36Z</time>
      </trkpt>
      <trkpt lat="42.98072" lon="1.91134">
        <ele>400</ele>
        <time>2014-10-11T13:17:38Z</time>
      </trkpt>
      <trkpt lat="42.98058" lon="1.91131">
        <ele>400</ele>
        <time>2014-10-11T13:17:40Z</time>
      </trkpt>
      <trkpt lat="42.98043" lon="1.91129">
        <ele>399</ele>
        <time>2014-10-11T13:17:42Z</time>
      </trkpt>
      <trkpt lat="42.98021" lon="1.91121">
        <ele>398</ele>
        <time>2014-10-11T13:17:45Z</time>
      </trkpt>
      <trkpt lat="42.97998" lon="1.91114">
        <ele>398</ele>
        <time>2014-10-11T13:17:48Z</time>
      </trkpt>
      <trkpt lat="42.97983" lon="1.91112">
        <ele>397</ele>
        <time>2014-10-11T13:17:50Z</time>
      </trkpt>
      <trkpt lat="42.97961" lon="1.9111">
        <ele>397</ele>
        <time>2014-10-11T13:17:53Z</time>
      </trkpt>
      <trkpt lat="42.97947" lon="1.9111">
        <ele>397</ele>
        <time>2014-10-11T13:17:55Z</time>
      </trkpt>
      <trkpt lat="42.97935" lon="1.91109">
        <ele>396</ele>
        <time>2014-10-11T13:17:57Z</time>
      </trkpt>
      <trkpt lat="42.97924" lon="1.91106">
        <ele>396</ele>
        <time>2014-10-11T13:17:59Z</time>
      </trkpt>
      <trkpt lat="42.97913" lon="1.91101">
        <ele>395</ele>
        <time>2014-10-11T13:18:01Z</time>
      </trkpt>
      <trkpt lat="42.97901" lon="1.91093">
        <ele>395</ele>
        <time>2014-10-11T13:18:03Z</time>
      </trkpt>
      <trkpt lat="42.97883" lon="1.91084">
        <ele>395</ele>
        <time>2014-10-11T13:18:06Z</time>
      </trkpt>
      <trkpt lat="42.97871" lon="1.91081">
        <ele>394</ele>
        <time>2014-10-11T13:18:08Z</time>
      </trkpt>
      <trkpt lat="42.97859" lon="1.91078">
        <ele>394</ele>
        <time>2014-10-11T13:18:10Z</time>
      </trkpt>
      <trkpt lat="42.97848" lon="1.91078">
        <ele>394</ele>
        <time>2014-10-11T13:18:12Z</time>
      </trkpt>
      <trkpt lat="42.97833" lon="1.91083">
        <ele>395</ele>
        <time>2014-10-11T13:18:15Z</time>
      </trkpt>
      <trkpt lat="42.97818" lon="1.91087">
        <ele>395</ele>
        <time>2014-10-11T13:18:18Z</time>
      </trkpt>
      <trkpt lat="42.97804" lon="1.91092">
        <ele>395</ele>
        <time>2014-10-11T13:18:21Z</time>
      </trkpt>
      <trkpt lat="42.97794" lon="1.91096">
        <ele>395</ele>
        <time>2014-10-11T13:18:23Z</time>
      </trkpt>
      <trkpt lat="42.97781" lon="1.91105">
        <ele>395</ele>
        <time>2014-10-11T13:18:26Z</time>
      </trkpt>
      <trkpt lat="42.97772" lon="1.91111">
        <ele>395</ele>
        <time>2014-10-11T13:18:29Z</time>
      </trkpt>
      <trkpt lat="42.97768" lon="1.91113">
        <ele>394</ele>
        <time>2014-10-11T13:18:32Z</time>
      </trkpt>
      <trkpt lat="42.97767" lon="1.91113">
        <ele>393</ele>
        <time>2014-10-11T13:18:35Z</time>
      </trkpt>
      <trkpt lat="42.97767" lon="1.91114">
        <ele>393</ele>
        <time>2014-10-11T13:18:38Z</time>
      </trkpt>
      <trkpt lat="42.97766" lon="1.91113">
        <ele>393</ele>
        <time>2014-10-11T13:18:41Z</time>
      </trkpt>
      <trkpt lat="42.97766" lon="1.91113">
        <ele>393</ele>
        <time>2014-10-11T13:18:44Z</time>
      </trkpt>
      <trkpt lat="42.97765" lon="1.91113">
        <ele>393</ele>
        <time>2014-10-11T13:18:46Z</time>
      </trkpt>
      <trkpt lat="42.97765" lon="1.91113">
        <ele>393</ele>
        <time>2014-10-11T13:18:49Z</time>
      </trkpt>
      <trkpt lat="42.97762" lon="1.91111">
        <ele>393</ele>
        <time>2014-10-11T13:18:52Z</time>
      </trkpt>
      <trkpt lat="42.97759" lon="1.91109">
        <ele>393</ele>
        <time>2014-10-11T13:18:54Z</time>
      </trkpt>
      <trkpt lat="42.97754" lon="1.91108">
        <ele>393</ele>
        <time>2014-10-11T13:18:57Z</time>
      </trkpt>
      <trkpt lat="42.9775" lon="1.91106">
        <ele>394</ele>
        <time>2014-10-11T13:18:59Z</time>
      </trkpt>
      <trkpt lat="42.97744" lon="1.911">
        <ele>394</ele>
        <time>2014-10-11T13:19:02Z</time>
      </trkpt>
      <trkpt lat="42.97739" lon="1.91099">
        <ele>395</ele>
        <time>2014-10-11T13:19:04Z</time>
      </trkpt>
      <trkpt lat="42.97732" lon="1.91097">
        <ele>396</ele>
        <time>2014-10-11T13:19:07Z</time>
      </trkpt>
      <trkpt lat="42.97726" lon="1.91095">
        <ele>396</ele>
        <time>2014-10-11T13:19:10Z</time>
      </trkpt>
      <trkpt lat="42.97725" lon="1.91095">
        <ele>396</ele>
        <time>2014-10-11T13:19:13Z</time>
      </trkpt>
      <trkpt lat="42.97725" lon="1.91095">
        <ele>396</ele>
        <time>2014-10-11T13:19:15Z</time>
      </trkpt>
      <trkpt lat="42.97725" lon="1.91095">
        <ele>396</ele>
        <time>2014-10-11T13:19:17Z</time>
      </trkpt>
      <trkpt lat="42.97709" lon="1.91082">
        <ele>397</ele>
        <time>2014-10-11T13:19:20Z</time>
      </trkpt>
      <trkpt lat="42.97701" lon="1.91072">
        <ele>397</ele>
        <time>2014-10-11T13:19:23Z</time>
      </trkpt>
      <trkpt lat="42.97692" lon="1.9106">
        <ele>397</ele>
        <time>2014-10-11T13:19:26Z</time>
      </trkpt>
      <trkpt lat="42.97684" lon="1.91051">
        <ele>398</ele>
        <time>2014-10-11T13:19:28Z</time>
      </trkpt>
      <trkpt lat="42.9767" lon="1.91037">
        <ele>398</ele>
        <time>2014-10-11T13:19:31Z</time>
      </trkpt>
      <trkpt lat="42.97659" lon="1.91029">
        <ele>398</ele>
        <time>2014-10-11T13:19:33Z</time>
      </trkpt>
      <trkpt lat="42.97643" lon="1.91016">
        <ele>399</ele>
        <time>2014-10-11T13:19:36Z</time>
      </trkpt>
      <trkpt lat="42.97624" lon="1.91004">
        <ele>399</ele>
        <time>2014-10-11T13:19:39Z</time>
      </trkpt>
      <trkpt lat="42.97606" lon="1.90991">
        <ele>400</ele>
        <time>2014-10-11T13:19:42Z</time>
      </trkpt>
      <trkpt lat="42.97593" lon="1.90982">
        <ele>400</ele>
        <time>2014-10-11T13:19:44Z</time>
      </trkpt>
      <trkpt lat="42.97581" lon="1.90973">
        <ele>400</ele>
        <time>2014-10-11T13:19:46Z</time>
      </trkpt>
      <trkpt lat="42.97569" lon="1.90965">
        <ele>400</ele>
        <time>2014-10-11T13:19:48Z</time>
      </trkpt>
      <trkpt lat="42.97556" lon="1.90958">
        <ele>400</ele>
        <time>2014-10-11T13:19:50Z</time>
      </trkpt>
      <trkpt lat="42.97538" lon="1.90951">
        <ele>401</ele>
        <time>2014-10-11T13:19:53Z</time>
      </trkpt>
      <trkpt lat="42.97527" lon="1.9095">
        <ele>401</ele>
        <time>2014-10-11T13:19:55Z</time>
      </trkpt>
      <trkpt lat="42.97516" lon="1.90951">
        <ele>402</ele>
        <time>2014-10-11T13:19:57Z</time>
      </trkpt>
      <trkpt lat="42.97505" lon="1.90954">
        <ele>403</ele>
        <time>2014-10-11T13:19:59Z</time>
      </trkpt>
      <trkpt lat="42.97488" lon="1.90958">
        <ele>404</ele>
        <time>2014-10-11T13:20:02Z</time>
      </trkpt>
      <trkpt lat="42.97474" lon="1.90964">
        <ele>404</ele>
        <time>2014-10-11T13:20:05Z</time>
      </trkpt>
      <trkpt lat="42.97465" lon="1.90968">
        <ele>405</ele>
        <time>2014-10-11T13:20:07Z</time>
      </trkpt>
      <trkpt lat="42.97456" lon="1.90972">
        <ele>405</ele>
        <time>2014-10-11T13:20:09Z</time>
      </trkpt>
      <trkpt lat="42.97441" lon="1.9098">
        <ele>406</ele>
        <time>2014-10-11T13:20:12Z</time>
      </trkpt>
      <trkpt lat="42.97425" lon="1.90988">
        <ele>407</ele>
        <time>2014-10-11T13:20:15Z</time>
      </trkpt>
      <trkpt lat="42.97412" lon="1.90999">
        <ele>407</ele>
        <time>2014-10-11T13:20:18Z</time>
      </trkpt>
      <trkpt lat="42.974" lon="1.91011">
        <ele>408</ele>
        <time>2014-10-11T13:20:21Z</time>
      </trkpt>
      <trkpt lat="42.97389" lon="1.91024">
        <ele>409</ele>
        <time>2014-10-11T13:20:24Z</time>
      </trkpt>
      <trkpt lat="42.97382" lon="1.91033">
        <ele>409</ele>
        <time>2014-10-11T13:20:26Z</time>
      </trkpt>
      <trkpt lat="42.97374" lon="1.91042">
        <ele>410</ele>
        <time>2014-10-11T13:20:28Z</time>
      </trkpt>
      <trkpt lat="42.97367" lon="1.91051">
        <ele>410</ele>
        <time>2014-10-11T13:20:30Z</time>
      </trkpt>
      <trkpt lat="42.9736" lon="1.9106">
        <ele>411</ele>
        <time>2014-10-11T13:20:32Z</time>
      </trkpt>
      <trkpt lat="42.97348" lon="1.91075">
        <ele>411</ele>
        <time>2014-10-11T13:20:35Z</time>
      </trkpt>
      <trkpt lat="42.9734" lon="1.91084">
        <ele>412</ele>
        <time>2014-10-11T13:20:37Z</time>
      </trkpt>
      <trkpt lat="42.97332" lon="1.91094">
        <ele>412</ele>
        <time>2014-10-11T13:20:39Z</time>
      </trkpt>
      <trkpt lat="42.97324" lon="1.91103">
        <ele>412</ele>
        <time>2014-10-11T13:20:41Z</time>
      </trkpt>
      <trkpt lat="42.97316" lon="1.91113">
        <ele>413</ele>
        <time>2014-10-11T13:20:43Z</time>
      </trkpt>
      <trkpt lat="42.97308" lon="1.91123">
        <ele>413</ele>
        <time>2014-10-11T13:20:45Z</time>
      </trkpt>
      <trkpt lat="42.97294" lon="1.91136">
        <ele>414</ele>
        <time>2014-10-11T13:20:48Z</time>
      </trkpt>
      <trkpt lat="42.97284" lon="1.91142">
        <ele>414</ele>
        <time>2014-10-11T13:20:50Z</time>
      </trkpt>
      <trkpt lat="42.97269" lon="1.91145">
        <ele>415</ele>
        <time>2014-10-11T13:20:53Z</time>
      </trkpt>
      <trkpt lat="42.97255" lon="1.91144">
        <ele>416</ele>
        <time>2014-10-11T13:20:56Z</time>
      </trkpt>
      <trkpt lat="42.97246" lon="1.91142">
        <ele>416</ele>
        <time>2014-10-11T13:20:58Z</time>
      </trkpt>
      <trkpt lat="42.97233" lon="1.91138">
        <ele>416</ele>
        <time>2014-10-11T13:21:01Z</time>
      </trkpt>
      <trkpt lat="42.9722" lon="1.91135">
        <ele>417</ele>
        <time>2014-10-11T13:21:04Z</time>
      </trkpt>
      <trkpt lat="42.97206" lon="1.91135">
        <ele>418</ele>
        <time>2014-10-11T13:21:07Z</time>
      </trkpt>
      <trkpt lat="42.97192" lon="1.91137">
        <ele>419</ele>
        <time>2014-10-11T13:21:10Z</time>
      </trkpt>
      <trkpt lat="42.97179" lon="1.91142">
        <ele>419</ele>
        <time>2014-10-11T13:21:13Z</time>
      </trkpt>
      <trkpt lat="42.9717" lon="1.91144">
        <ele>420</ele>
        <time>2014-10-11T13:21:15Z</time>
      </trkpt>
      <trkpt lat="42.97159" lon="1.91138">
        <ele>421</ele>
        <time>2014-10-11T13:21:18Z</time>
      </trkpt>
      <trkpt lat="42.97161" lon="1.91123">
        <ele>421</ele>
        <time>2014-10-11T13:21:21Z</time>
      </trkpt>
      <trkpt lat="42.97168" lon="1.9112">
        <ele>422</ele>
        <time>2014-10-11T13:21:23Z</time>
      </trkpt>
      <trkpt lat="42.97177" lon="1.91119">
        <ele>422</ele>
        <time>2014-10-11T13:21:25Z</time>
      </trkpt>
      <trkpt lat="42.97188" lon="1.91116">
        <ele>423</ele>
        <time>2014-10-11T13:21:28Z</time>
      </trkpt>
      <trkpt lat="42.97198" lon="1.91109">
        <ele>423</ele>
        <time>2014-10-11T13:21:31Z</time>
      </trkpt>
      <trkpt lat="42.972" lon="1.91092">
        <ele>424</ele>
        <time>2014-10-11T13:21:34Z</time>
      </trkpt>
      <trkpt lat="42.97195" lon="1.91083">
        <ele>425</ele>
        <time>2014-10-11T13:21:36Z</time>
      </trkpt>
      <trkpt lat="42.97188" lon="1.91075">
        <ele>426</ele>
        <time>2014-10-11T13:21:38Z</time>
      </trkpt>
      <trkpt lat="42.97177" lon="1.91063">
        <ele>426</ele>
        <time>2014-10-11T13:21:41Z</time>
      </trkpt>
      <trkpt lat="42.97171" lon="1.91055">
        <ele>427</ele>
        <time>2014-10-11T13:21:43Z</time>
      </trkpt>
      <trkpt lat="42.97161" lon="1.91041">
        <ele>427</ele>
        <time>2014-10-11T13:21:46Z</time>
      </trkpt>
      <trkpt lat="42.97152" lon="1.91024">
        <ele>428</ele>
        <time>2014-10-11T13:21:49Z</time>
      </trkpt>
      <trkpt lat="42.97147" lon="1.91004">
        <ele>429</ele>
        <time>2014-10-11T13:21:52Z</time>
      </trkpt>
      <trkpt lat="42.97142" lon="1.90986">
        <ele>430</ele>
        <time>2014-10-11T13:21:55Z</time>
      </trkpt>
      <trkpt lat="42.9714" lon="1.90975">
        <ele>431</ele>
        <time>2014-10-11T13:21:57Z</time>
      </trkpt>
      <trkpt lat="42.97136" lon="1.90963">
        <ele>431</ele>
        <time>2014-10-11T13:21:59Z</time>
      </trkpt>
      <trkpt lat="42.97128" lon="1.90949">
        <ele>432</ele>
        <time>2014-10-11T13:22:02Z</time>
      </trkpt>
      <trkpt lat="42.97121" lon="1.9094">
        <ele>432</ele>
        <time>2014-10-11T13:22:04Z</time>
      </trkpt>
      <trkpt lat="42.97113" lon="1.90931">
        <ele>433</ele>
        <time>2014-10-11T13:22:06Z</time>
      </trkpt>
      <trkpt lat="42.97105" lon="1.90922">
        <ele>434</ele>
        <time>2014-10-11T13:22:08Z</time>
      </trkpt>
      <trkpt lat="42.97096" lon="1.90913">
        <ele>434</ele>
        <time>2014-10-11T13:22:10Z</time>
      </trkpt>
      <trkpt lat="42.97085" lon="1.90901">
        <ele>435</ele>
        <time>2014-10-11T13:22:13Z</time>
      </trkpt>
      <trkpt lat="42.97076" lon="1.90886">
        <ele>435</ele>
        <time>2014-10-11T13:22:16Z</time>
      </trkpt>
      <trkpt lat="42.97073" lon="1.90874">
        <ele>436</ele>
        <time>2014-10-11T13:22:18Z</time>
      </trkpt>
      <trkpt lat="42.97075" lon="1.90855">
        <ele>437</ele>
        <time>2014-10-11T13:22:21Z</time>
      </trkpt>
      <trkpt lat="42.97084" lon="1.90841">
        <ele>437</ele>
        <time>2014-10-11T13:22:24Z</time>
      </trkpt>
      <trkpt lat="42.97092" lon="1.90834">
        <ele>438</ele>
        <time>2014-10-11T13:22:26Z</time>
      </trkpt>
      <trkpt lat="42.97099" lon="1.9082">
        <ele>439</ele>
        <time>2014-10-11T13:22:29Z</time>
      </trkpt>
      <trkpt lat="42.971" lon="1.90807">
        <ele>439</ele>
        <time>2014-10-11T13:22:31Z</time>
      </trkpt>
      <trkpt lat="42.971" lon="1.90794">
        <ele>440</ele>
        <time>2014-10-11T13:22:33Z</time>
      </trkpt>
      <trkpt lat="42.97097" lon="1.90775">
        <ele>441</ele>
        <time>2014-10-11T13:22:36Z</time>
      </trkpt>
      <trkpt lat="42.9709" lon="1.90754">
        <ele>442</ele>
        <time>2014-10-11T13:22:39Z</time>
      </trkpt>
      <trkpt lat="42.97085" lon="1.90741">
        <ele>443</ele>
        <time>2014-10-11T13:22:41Z</time>
      </trkpt>
      <trkpt lat="42.97081" lon="1.90728">
        <ele>443</ele>
        <time>2014-10-11T13:22:43Z</time>
      </trkpt>
      <trkpt lat="42.97076" lon="1.90715">
        <ele>444</ele>
        <time>2014-10-11T13:22:45Z</time>
      </trkpt>
      <trkpt lat="42.9707" lon="1.90695">
        <ele>444</ele>
        <time>2014-10-11T13:22:48Z</time>
      </trkpt>
      <trkpt lat="42.97065" lon="1.90674">
        <ele>445</ele>
        <time>2014-10-11T13:22:51Z</time>
      </trkpt>
      <trkpt lat="42.97062" lon="1.9066">
        <ele>446</ele>
        <time>2014-10-11T13:22:53Z</time>
      </trkpt>
      <trkpt lat="42.97058" lon="1.90639">
        <ele>447</ele>
        <time>2014-10-11T13:22:56Z</time>
      </trkpt>
      <trkpt lat="42.97055" lon="1.90625">
        <ele>448</ele>
        <time>2014-10-11T13:22:58Z</time>
      </trkpt>
      <trkpt lat="42.97052" lon="1.90605">
        <ele>449</ele>
        <time>2014-10-11T13:23:01Z</time>
      </trkpt>
      <trkpt lat="42.9705" lon="1.90593">
        <ele>449</ele>
        <time>2014-10-11T13:23:03Z</time>
      </trkpt>
      <trkpt lat="42.97048" lon="1.90579">
        <ele>449</ele>
        <time>2014-10-11T13:23:05Z</time>
      </trkpt>
      <trkpt lat="42.97044" lon="1.90559">
        <ele>450</ele>
        <time>2014-10-11T13:23:08Z</time>
      </trkpt>
      <trkpt lat="42.97041" lon="1.90547">
        <ele>450</ele>
        <time>2014-10-11T13:23:10Z</time>
      </trkpt>
      <trkpt lat="42.97039" lon="1.90534">
        <ele>451</ele>
        <time>2014-10-11T13:23:12Z</time>
      </trkpt>
      <trkpt lat="42.97036" lon="1.90522">
        <ele>452</ele>
        <time>2014-10-11T13:23:14Z</time>
      </trkpt>
      <trkpt lat="42.97031" lon="1.90504">
        <ele>452</ele>
        <time>2014-10-11T13:23:17Z</time>
      </trkpt>
      <trkpt lat="42.97028" lon="1.90493">
        <ele>453</ele>
        <time>2014-10-11T13:23:19Z</time>
      </trkpt>
      <trkpt lat="42.97023" lon="1.90478">
        <ele>453</ele>
        <time>2014-10-11T13:23:22Z</time>
      </trkpt>
      <trkpt lat="42.9702" lon="1.90468">
        <ele>454</ele>
        <time>2014-10-11T13:23:24Z</time>
      </trkpt>
      <trkpt lat="42.97014" lon="1.90455">
        <ele>454</ele>
        <time>2014-10-11T13:23:27Z</time>
      </trkpt>
      <trkpt lat="42.9701" lon="1.90447">
        <ele>455</ele>
        <time>2014-10-11T13:23:29Z</time>
      </trkpt>
      <trkpt lat="42.97002" lon="1.90439">
        <ele>456</ele>
        <time>2014-10-11T13:23:32Z</time>
      </trkpt>
      <trkpt lat="42.96997" lon="1.90434">
        <ele>456</ele>
        <time>2014-10-11T13:23:34Z</time>
      </trkpt>
      <trkpt lat="42.96989" lon="1.90426">
        <ele>456</ele>
        <time>2014-10-11T13:23:37Z</time>
      </trkpt>
      <trkpt lat="42.96978" lon="1.90419">
        <ele>457</ele>
        <time>2014-10-11T13:23:40Z</time>
      </trkpt>
      <trkpt lat="42.96972" lon="1.90414">
        <ele>457</ele>
        <time>2014-10-11T13:23:42Z</time>
      </trkpt>
      <trkpt lat="42.96961" lon="1.90407">
        <ele>458</ele>
        <time>2014-10-11T13:23:45Z</time>
      </trkpt>
      <trkpt lat="42.96954" lon="1.90403">
        <ele>458</ele>
        <time>2014-10-11T13:23:47Z</time>
      </trkpt>
      <trkpt lat="42.96947" lon="1.904">
        <ele>459</ele>
        <time>2014-10-11T13:23:49Z</time>
      </trkpt>
      <trkpt lat="42.96942" lon="1.90398">
        <ele>459</ele>
        <time>2014-10-11T13:23:51Z</time>
      </trkpt>
      <trkpt lat="42.96936" lon="1.90399">
        <ele>459</ele>
        <time>2014-10-11T13:23:54Z</time>
      </trkpt>
      <trkpt lat="42.96933" lon="1.904">
        <ele>460</ele>
        <time>2014-10-11T13:23:56Z</time>
      </trkpt>
      <trkpt lat="42.96928" lon="1.90402">
        <ele>460</ele>
        <time>2014-10-11T13:23:59Z</time>
      </trkpt>
      <trkpt lat="42.96923" lon="1.90404">
        <ele>460</ele>
        <time>2014-10-11T13:24:01Z</time>
      </trkpt>
      <trkpt lat="42.96915" lon="1.9041">
        <ele>460</ele>
        <time>2014-10-11T13:24:04Z</time>
      </trkpt>
      <trkpt lat="42.9691" lon="1.90415">
        <ele>461</ele>
        <time>2014-10-11T13:24:06Z</time>
      </trkpt>
      <trkpt lat="42.96902" lon="1.90421">
        <ele>461</ele>
        <time>2014-10-11T13:24:09Z</time>
      </trkpt>
      <trkpt lat="42.96897" lon="1.90426">
        <ele>462</ele>
        <time>2014-10-11T13:24:11Z</time>
      </trkpt>
      <trkpt lat="42.96892" lon="1.9043">
        <ele>462</ele>
        <time>2014-10-11T13:24:13Z</time>
      </trkpt>
      <trkpt lat="42.96884" lon="1.90436">
        <ele>462</ele>
        <time>2014-10-11T13:24:16Z</time>
      </trkpt>
      <trkpt lat="42.96878" lon="1.90441">
        <ele>463</ele>
        <time>2014-10-11T13:24:18Z</time>
      </trkpt>
      <trkpt lat="42.96871" lon="1.90445">
        <ele>464</ele>
        <time>2014-10-11T13:24:20Z</time>
      </trkpt>
      <trkpt lat="42.96864" lon="1.90448">
        <ele>464</ele>
        <time>2014-10-11T13:24:22Z</time>
      </trkpt>
      <trkpt lat="42.96855" lon="1.90451">
        <ele>464</ele>
        <time>2014-10-11T13:24:25Z</time>
      </trkpt>
      <trkpt lat="42.96849" lon="1.90453">
        <ele>464</ele>
        <time>2014-10-11T13:24:27Z</time>
      </trkpt>
      <trkpt lat="42.96841" lon="1.90454">
        <ele>465</ele>
        <time>2014-10-11T13:24:30Z</time>
      </trkpt>
      <trkpt lat="42.96838" lon="1.90455">
        <ele>465</ele>
        <time>2014-10-11T13:24:32Z</time>
      </trkpt>
      <trkpt lat="42.96835" lon="1.90454">
        <ele>465</ele>
        <time>2014-10-11T13:24:34Z</time>
      </trkpt>
      <trkpt lat="42.9683" lon="1.90452">
        <ele>466</ele>
        <time>2014-10-11T13:24:37Z</time>
      </trkpt>
      <trkpt lat="42.96825" lon="1.90453">
        <ele>466</ele>
        <time>2014-10-11T13:24:39Z</time>
      </trkpt>
      <trkpt lat="42.96816" lon="1.90453">
        <ele>467</ele>
        <time>2014-10-11T13:24:42Z</time>
      </trkpt>
      <trkpt lat="42.9681" lon="1.90454">
        <ele>467</ele>
        <time>2014-10-11T13:24:44Z</time>
      </trkpt>
      <trkpt lat="42.968" lon="1.90457">
        <ele>467</ele>
        <time>2014-10-11T13:24:47Z</time>
      </trkpt>
      <trkpt lat="42.96793" lon="1.90461">
        <ele>468</ele>
        <time>2014-10-11T13:24:49Z</time>
      </trkpt>
      <trkpt lat="42.96788" lon="1.90465">
        <ele>468</ele>
        <time>2014-10-11T13:24:51Z</time>
      </trkpt>
      <trkpt lat="42.96777" lon="1.90472">
        <ele>469</ele>
        <time>2014-10-11T13:24:53Z</time>
      </trkpt>
      <trkpt lat="42.96771" lon="1.90478">
        <ele>470</ele>
        <time>2014-10-11T13:24:55Z</time>
      </trkpt>
      <trkpt lat="42.96763" lon="1.90484">
        <ele>470</ele>
        <time>2014-10-11T13:24:59Z</time>
      </trkpt>
      <trkpt lat="42.96754" lon="1.90488">
        <ele>471</ele>
        <time>2014-10-11T13:25:02Z</time>
      </trkpt>
      <trkpt lat="42.96743" lon="1.9049">
        <ele>472</ele>
        <time>2014-10-11T13:25:04Z</time>
      </trkpt>
      <trkpt lat="42.96736" lon="1.90493">
        <ele>472</ele>
        <time>2014-10-11T13:25:07Z</time>
      </trkpt>
      <trkpt lat="42.96725" lon="1.90496">
        <ele>472</ele>
        <time>2014-10-11T13:25:10Z</time>
      </trkpt>
      <trkpt lat="42.9672" lon="1.90497">
        <ele>473</ele>
        <time>2014-10-11T13:25:12Z</time>
      </trkpt>
      <trkpt lat="42.96714" lon="1.90498">
        <ele>473</ele>
        <time>2014-10-11T13:25:15Z</time>
      </trkpt>
      <trkpt lat="42.96708" lon="1.90499">
        <ele>473</ele>
        <time>2014-10-11T13:25:17Z</time>
      </trkpt>
      <trkpt lat="42.96704" lon="1.905">
        <ele>473</ele>
        <time>2014-10-11T13:25:20Z</time>
      </trkpt>
      <trkpt lat="42.96697" lon="1.90501">
        <ele>474</ele>
        <time>2014-10-11T13:25:23Z</time>
      </trkpt>
      <trkpt lat="42.9669" lon="1.90503">
        <ele>474</ele>
        <time>2014-10-11T13:25:25Z</time>
      </trkpt>
      <trkpt lat="42.96685" lon="1.90505">
        <ele>474</ele>
        <time>2014-10-11T13:25:28Z</time>
      </trkpt>
      <trkpt lat="42.96676" lon="1.90508">
        <ele>474</ele>
        <time>2014-10-11T13:25:31Z</time>
      </trkpt>
      <trkpt lat="42.96667" lon="1.90511">
        <ele>475</ele>
        <time>2014-10-11T13:25:34Z</time>
      </trkpt>
      <trkpt lat="42.96658" lon="1.90515">
        <ele>475</ele>
        <time>2014-10-11T13:25:37Z</time>
      </trkpt>
      <trkpt lat="42.96647" lon="1.90519">
        <ele>476</ele>
        <time>2014-10-11T13:25:39Z</time>
      </trkpt>
      <trkpt lat="42.96639" lon="1.90522">
        <ele>476</ele>
        <time>2014-10-11T13:25:42Z</time>
      </trkpt>
      <trkpt lat="42.96628" lon="1.90525">
        <ele>477</ele>
        <time>2014-10-11T13:25:44Z</time>
      </trkpt>
      <trkpt lat="42.96621" lon="1.90528">
        <ele>477</ele>
        <time>2014-10-11T13:25:47Z</time>
      </trkpt>
      <trkpt lat="42.96614" lon="1.90531">
        <ele>477</ele>
        <time>2014-10-11T13:25:49Z</time>
      </trkpt>
      <trkpt lat="42.96606" lon="1.90535">
        <ele>478</ele>
        <time>2014-10-11T13:25:51Z</time>
      </trkpt>
      <trkpt lat="42.96595" lon="1.90542">
        <ele>479</ele>
        <time>2014-10-11T13:25:54Z</time>
      </trkpt>
      <trkpt lat="42.96583" lon="1.9055">
        <ele>480</ele>
        <time>2014-10-11T13:25:56Z</time>
      </trkpt>
      <trkpt lat="42.96574" lon="1.90557">
        <ele>480</ele>
        <time>2014-10-11T13:25:59Z</time>
      </trkpt>
      <trkpt lat="42.96569" lon="1.90562">
        <ele>480</ele>
        <time>2014-10-11T13:26:02Z</time>
      </trkpt>
      <trkpt lat="42.96563" lon="1.90568">
        <ele>481</ele>
        <time>2014-10-11T13:26:05Z</time>
      </trkpt>
      <trkpt lat="42.96556" lon="1.90575">
        <ele>481</ele>
        <time>2014-10-11T13:26:07Z</time>
      </trkpt>
      <trkpt lat="42.96551" lon="1.90579">
        <ele>481</ele>
        <time>2014-10-11T13:26:10Z</time>
      </trkpt>
      <trkpt lat="42.96545" lon="1.90585">
        <ele>482</ele>
        <time>2014-10-11T13:26:12Z</time>
      </trkpt>
      <trkpt lat="42.96535" lon="1.90593">
        <ele>482</ele>
        <time>2014-10-11T13:26:14Z</time>
      </trkpt>
      <trkpt lat="42.96528" lon="1.90596">
        <ele>483</ele>
        <time>2014-10-11T13:26:17Z</time>
      </trkpt>
      <trkpt lat="42.96519" lon="1.90594">
        <ele>484</ele>
        <time>2014-10-11T13:26:19Z</time>
      </trkpt>
      <trkpt lat="42.96514" lon="1.90589">
        <ele>484</ele>
        <time>2014-10-11T13:26:22Z</time>
      </trkpt>
      <trkpt lat="42.96509" lon="1.90579">
        <ele>484</ele>
        <time>2014-10-11T13:26:25Z</time>
      </trkpt>
      <trkpt lat="42.96506" lon="1.90567">
        <ele>485</ele>
        <time>2014-10-11T13:26:27Z</time>
      </trkpt>
      <trkpt lat="42.96503" lon="1.90555">
        <ele>485</ele>
        <time>2014-10-11T13:26:30Z</time>
      </trkpt>
      <trkpt lat="42.965" lon="1.90547">
        <ele>486</ele>
        <time>2014-10-11T13:26:33Z</time>
      </trkpt>
      <trkpt lat="42.96496" lon="1.90538">
        <ele>486</ele>
        <time>2014-10-11T13:26:36Z</time>
      </trkpt>
      <trkpt lat="42.96493" lon="1.90528">
        <ele>486</ele>
        <time>2014-10-11T13:26:38Z</time>
      </trkpt>
      <trkpt lat="42.9649" lon="1.90521">
        <ele>487</ele>
        <time>2014-10-11T13:26:40Z</time>
      </trkpt>
      <trkpt lat="42.96489" lon="1.90513">
        <ele>487</ele>
        <time>2014-10-11T13:26:43Z</time>
      </trkpt>
      <trkpt lat="42.96486" lon="1.905">
        <ele>488</ele>
        <time>2014-10-11T13:26:45Z</time>
      </trkpt>
      <trkpt lat="42.96481" lon="1.90489">
        <ele>488</ele>
        <time>2014-10-11T13:26:48Z</time>
      </trkpt>
      <trkpt lat="42.96478" lon="1.90482">
        <ele>488</ele>
        <time>2014-10-11T13:26:50Z</time>
      </trkpt>
      <trkpt lat="42.96475" lon="1.90475">
        <ele>489</ele>
        <time>2014-10-11T13:26:53Z</time>
      </trkpt>
      <trkpt lat="42.96471" lon="1.90464">
        <ele>489</ele>
        <time>2014-10-11T13:26:56Z</time>
      </trkpt>
      <trkpt lat="42.96467" lon="1.90454">
        <ele>490</ele>
        <time>2014-10-11T13:26:58Z</time>
      </trkpt>
      <trkpt lat="42.96465" lon="1.90446">
        <ele>490</ele>
        <time>2014-10-11T13:27:00Z</time>
      </trkpt>
      <trkpt lat="42.96463" lon="1.90438">
        <ele>491</ele>
        <time>2014-10-11T13:27:03Z</time>
      </trkpt>
      <trkpt lat="42.96459" lon="1.90427">
        <ele>491</ele>
        <time>2014-10-11T13:27:06Z</time>
      </trkpt>
      <trkpt lat="42.96456" lon="1.90415">
        <ele>491</ele>
        <time>2014-10-11T13:27:08Z</time>
      </trkpt>
      <trkpt lat="42.96454" lon="1.90408">
        <ele>492</ele>
        <time>2014-10-11T13:27:10Z</time>
      </trkpt>
      <trkpt lat="42.96452" lon="1.90399">
        <ele>492</ele>
        <time>2014-10-11T13:27:12Z</time>
      </trkpt>
      <trkpt lat="42.96449" lon="1.90391">
        <ele>493</ele>
        <time>2014-10-11T13:27:15Z</time>
      </trkpt>
      <trkpt lat="42.96445" lon="1.90378">
        <ele>493</ele>
        <time>2014-10-11T13:27:17Z</time>
      </trkpt>
      <trkpt lat="42.96442" lon="1.90365">
        <ele>494</ele>
        <time>2014-10-11T13:27:20Z</time>
      </trkpt>
      <trkpt lat="42.96439" lon="1.90357">
        <ele>494</ele>
        <time>2014-10-11T13:27:22Z</time>
      </trkpt>
      <trkpt lat="42.96437" lon="1.90349">
        <ele>495</ele>
        <time>2014-10-11T13:27:25Z</time>
      </trkpt>
      <trkpt lat="42.96433" lon="1.90338">
        <ele>495</ele>
        <time>2014-10-11T13:27:27Z</time>
      </trkpt>
      <trkpt lat="42.9643" lon="1.90333">
        <ele>495</ele>
        <time>2014-10-11T13:27:30Z</time>
      </trkpt>
      <trkpt lat="42.96428" lon="1.9033">
        <ele>496</ele>
        <time>2014-10-11T13:27:32Z</time>
      </trkpt>
      <trkpt lat="42.96426" lon="1.90327">
        <ele>496</ele>
        <time>2014-10-11T13:27:35Z</time>
      </trkpt>
      <trkpt lat="42.96421" lon="1.90321">
        <ele>496</ele>
        <time>2014-10-11T13:27:37Z</time>
      </trkpt>
      <trkpt lat="42.96414" lon="1.90315">
        <ele>497</ele>
        <time>2014-10-11T13:27:40Z</time>
      </trkpt>
      <trkpt lat="42.96409" lon="1.9031">
        <ele>497</ele>
        <time>2014-10-11T13:27:42Z</time>
      </trkpt>
      <trkpt lat="42.96404" lon="1.90305">
        <ele>497</ele>
        <time>2014-10-11T13:27:45Z</time>
      </trkpt>
      <trkpt lat="42.96396" lon="1.90299">
        <ele>498</ele>
        <time>2014-10-11T13:27:47Z</time>
      </trkpt>
      <trkpt lat="42.96389" lon="1.90292">
        <ele>498</ele>
        <time>2014-10-11T13:27:50Z</time>
      </trkpt>
      <trkpt lat="42.96384" lon="1.90288">
        <ele>498</ele>
        <time>2014-10-11T13:27:52Z</time>
      </trkpt>
      <trkpt lat="42.96381" lon="1.90283">
        <ele>499</ele>
        <time>2014-10-11T13:27:55Z</time>
      </trkpt>
      <trkpt lat="42.96374" lon="1.90274">
        <ele>499</ele>
        <time>2014-10-11T13:27:57Z</time>
      </trkpt>
      <trkpt lat="42.96368" lon="1.90265">
        <ele>500</ele>
        <time>2014-10-11T13:28:01Z</time>
      </trkpt>
      <trkpt lat="42.96361" lon="1.90257">
        <ele>501</ele>
        <time>2014-10-11T13:28:03Z</time>
      </trkpt>
      <trkpt lat="42.96354" lon="1.90249">
        <ele>501</ele>
        <time>2014-10-11T13:28:06Z</time>
      </trkpt>
      <trkpt lat="42.96348" lon="1.90244">
        <ele>502</ele>
        <time>2014-10-11T13:28:08Z</time>
      </trkpt>
      <trkpt lat="42.96341" lon="1.90242">
        <ele>502</ele>
        <time>2014-10-11T13:28:11Z</time>
      </trkpt>
      <trkpt lat="42.96331" lon="1.9024">
        <ele>502</ele>
        <time>2014-10-11T13:28:14Z</time>
      </trkpt>
      <trkpt lat="42.96326" lon="1.90238">
        <ele>502</ele>
        <time>2014-10-11T13:28:16Z</time>
      </trkpt>
      <trkpt lat="42.96317" lon="1.90238">
        <ele>502</ele>
        <time>2014-10-11T13:28:19Z</time>
      </trkpt>
      <trkpt lat="42.96307" lon="1.90237">
        <ele>502</ele>
        <time>2014-10-11T13:28:21Z</time>
      </trkpt>
      <trkpt lat="42.963" lon="1.90237">
        <ele>502</ele>
        <time>2014-10-11T13:28:24Z</time>
      </trkpt>
      <trkpt lat="42.96289" lon="1.90236">
        <ele>502</ele>
        <time>2014-10-11T13:28:27Z</time>
      </trkpt>
      <trkpt lat="42.96281" lon="1.90236">
        <ele>502</ele>
        <time>2014-10-11T13:28:29Z</time>
      </trkpt>
      <trkpt lat="42.96278" lon="1.90236">
        <ele>502</ele>
        <time>2014-10-11T13:28:32Z</time>
      </trkpt>
      <trkpt lat="42.96276" lon="1.90235">
        <ele>501</ele>
        <time>2014-10-11T13:28:35Z</time>
      </trkpt>
      <trkpt lat="42.96262" lon="1.90234">
        <ele>501</ele>
        <time>2014-10-11T13:28:39Z</time>
      </trkpt>
      <trkpt lat="42.96262" lon="1.90235">
        <ele>501</ele>
        <time>2014-10-11T13:28:42Z</time>
      </trkpt>
      <trkpt lat="42.96258" lon="1.90233">
        <ele>501</ele>
        <time>2014-10-11T13:28:44Z</time>
      </trkpt>
      <trkpt lat="42.96246" lon="1.90228">
        <ele>501</ele>
        <time>2014-10-11T13:28:48Z</time>
      </trkpt>
      <trkpt lat="42.96229" lon="1.90226">
        <ele>500</ele>
        <time>2014-10-11T13:28:50Z</time>
      </trkpt>
      <trkpt lat="42.96211" lon="1.90246">
        <ele>498</ele>
        <time>2014-10-11T13:28:53Z</time>
      </trkpt>
      <trkpt lat="42.96198" lon="1.90263">
        <ele>496</ele>
        <time>2014-10-11T13:28:55Z</time>
      </trkpt>
      <trkpt lat="42.96174" lon="1.9029">
        <ele>493</ele>
        <time>2014-10-11T13:28:58Z</time>
      </trkpt>
      <trkpt lat="42.96149" lon="1.90315">
        <ele>489</ele>
        <time>2014-10-11T13:29:01Z</time>
      </trkpt>
      <trkpt lat="42.96133" lon="1.90331">
        <ele>486</ele>
        <time>2014-10-11T13:29:04Z</time>
      </trkpt>
      <trkpt lat="42.96111" lon="1.90357">
        <ele>483</ele>
        <time>2014-10-11T13:29:06Z</time>
      </trkpt>
      <trkpt lat="42.96091" lon="1.90388">
        <ele>480</ele>
        <time>2014-10-11T13:29:09Z</time>
      </trkpt>
      <trkpt lat="42.96078" lon="1.9041">
        <ele>478</ele>
        <time>2014-10-11T13:29:11Z</time>
      </trkpt>
      <trkpt lat="42.96064" lon="1.90432">
        <ele>476</ele>
        <time>2014-10-11T13:29:13Z</time>
      </trkpt>
      <trkpt lat="42.96044" lon="1.90465">
        <ele>473</ele>
        <time>2014-10-11T13:29:16Z</time>
      </trkpt>
      <trkpt lat="42.96023" lon="1.90498">
        <ele>470</ele>
        <time>2014-10-11T13:29:19Z</time>
      </trkpt>
      <trkpt lat="42.9601" lon="1.9052">
        <ele>467</ele>
        <time>2014-10-11T13:29:21Z</time>
      </trkpt>
      <trkpt lat="42.96" lon="1.90544">
        <ele>465</ele>
        <time>2014-10-11T13:29:23Z</time>
      </trkpt>
      <trkpt lat="42.95992" lon="1.90568">
        <ele>462</ele>
        <time>2014-10-11T13:29:26Z</time>
      </trkpt>
      <trkpt lat="42.9598" lon="1.90598">
        <ele>461</ele>
        <time>2014-10-11T13:29:28Z</time>
      </trkpt>
      <trkpt lat="42.95963" lon="1.90624">
        <ele>458</ele>
        <time>2014-10-11T13:29:31Z</time>
      </trkpt>
      <trkpt lat="42.95943" lon="1.90646">
        <ele>456</ele>
        <time>2014-10-11T13:29:34Z</time>
      </trkpt>
      <trkpt lat="42.95926" lon="1.90661">
        <ele>454</ele>
        <time>2014-10-11T13:29:37Z</time>
      </trkpt>
      <trkpt lat="42.95905" lon="1.9067">
        <ele>452</ele>
        <time>2014-10-11T13:29:39Z</time>
      </trkpt>
      <trkpt lat="42.95889" lon="1.90667">
        <ele>450</ele>
        <time>2014-10-11T13:29:41Z</time>
      </trkpt>
      <trkpt lat="42.95874" lon="1.90663">
        <ele>449</ele>
        <time>2014-10-11T13:29:43Z</time>
      </trkpt>
      <trkpt lat="42.95858" lon="1.90655">
        <ele>448</ele>
        <time>2014-10-11T13:29:45Z</time>
      </trkpt>
      <trkpt lat="42.95842" lon="1.90645">
        <ele>447</ele>
        <time>2014-10-11T13:29:48Z</time>
      </trkpt>
      <trkpt lat="42.95815" lon="1.90635">
        <ele>445</ele>
        <time>2014-10-11T13:29:50Z</time>
      </trkpt>
      <trkpt lat="42.95788" lon="1.90648">
        <ele>443</ele>
        <time>2014-10-11T13:29:53Z</time>
      </trkpt>
      <trkpt lat="42.95771" lon="1.90659">
        <ele>443</ele>
        <time>2014-10-11T13:29:55Z</time>
      </trkpt>
      <trkpt lat="42.95757" lon="1.90669">
        <ele>443</ele>
        <time>2014-10-11T13:29:57Z</time>
      </trkpt>
      <trkpt lat="42.95736" lon="1.90683">
        <ele>443</ele>
        <time>2014-10-11T13:30:00Z</time>
      </trkpt>
      <trkpt lat="42.95727" lon="1.90694">
        <ele>442</ele>
        <time>2014-10-11T13:30:02Z</time>
      </trkpt>
      <trkpt lat="42.9572" lon="1.90705">
        <ele>442</ele>
        <time>2014-10-11T13:30:05Z</time>
      </trkpt>
      <trkpt lat="42.95714" lon="1.9072">
        <ele>442</ele>
        <time>2014-10-11T13:30:07Z</time>
      </trkpt>
      <trkpt lat="42.95712" lon="1.90728">
        <ele>443</ele>
        <time>2014-10-11T13:30:09Z</time>
      </trkpt>
      <trkpt lat="42.9571" lon="1.90735">
        <ele>443</ele>
        <time>2014-10-11T13:30:11Z</time>
      </trkpt>
      <trkpt lat="42.95708" lon="1.90741">
        <ele>443</ele>
        <time>2014-10-11T13:30:13Z</time>
      </trkpt>
      <trkpt lat="42.95705" lon="1.90748">
        <ele>443</ele>
        <time>2014-10-11T13:30:16Z</time>
      </trkpt>
      <trkpt lat="42.95703" lon="1.90753">
        <ele>443</ele>
        <time>2014-10-11T13:30:18Z</time>
      </trkpt>
      <trkpt lat="42.95701" lon="1.90762">
        <ele>442</ele>
        <time>2014-10-11T13:30:21Z</time>
      </trkpt>
      <trkpt lat="42.95699" lon="1.90768">
        <ele>442</ele>
        <time>2014-10-11T13:30:24Z</time>
      </trkpt>
      <trkpt lat="42.95697" lon="1.90779">
        <ele>442</ele>
        <time>2014-10-11T13:30:26Z</time>
      </trkpt>
      <trkpt lat="42.95694" lon="1.90788">
        <ele>442</ele>
        <time>2014-10-11T13:30:28Z</time>
      </trkpt>
      <trkpt lat="42.95691" lon="1.90799">
        <ele>441</ele>
        <time>2014-10-11T13:30:30Z</time>
      </trkpt>
      <trkpt lat="42.95684" lon="1.90817">
        <ele>440</ele>
        <time>2014-10-11T13:30:34Z</time>
      </trkpt>
      <trkpt lat="42.95673" lon="1.90828">
        <ele>439</ele>
        <time>2014-10-11T13:30:36Z</time>
      </trkpt>
      <trkpt lat="42.95667" lon="1.90824">
        <ele>438</ele>
        <time>2014-10-11T13:30:38Z</time>
      </trkpt>
      <trkpt lat="42.95662" lon="1.90819">
        <ele>437</ele>
        <time>2014-10-11T13:30:40Z</time>
      </trkpt>
      <trkpt lat="42.95657" lon="1.90813">
        <ele>436</ele>
        <time>2014-10-11T13:30:42Z</time>
      </trkpt>
      <trkpt lat="42.95649" lon="1.90802">
        <ele>436</ele>
        <time>2014-10-11T13:30:45Z</time>
      </trkpt>
      <trkpt lat="42.95641" lon="1.9079">
        <ele>436</ele>
        <time>2014-10-11T13:30:48Z</time>
      </trkpt>
      <trkpt lat="42.95634" lon="1.90783">
        <ele>436</ele>
        <time>2014-10-11T13:30:50Z</time>
      </trkpt>
      <trkpt lat="42.9563" lon="1.90775">
        <ele>436</ele>
        <time>2014-10-11T13:30:52Z</time>
      </trkpt>
      <trkpt lat="42.95621" lon="1.90766">
        <ele>436</ele>
        <time>2014-10-11T13:30:55Z</time>
      </trkpt>
      <trkpt lat="42.95612" lon="1.90758">
        <ele>436</ele>
        <time>2014-10-11T13:30:58Z</time>
      </trkpt>
      <trkpt lat="42.95607" lon="1.90752">
        <ele>436</ele>
        <time>2014-10-11T13:31:00Z</time>
      </trkpt>
      <trkpt lat="42.95603" lon="1.90743">
        <ele>436</ele>
        <time>2014-10-11T13:31:04Z</time>
      </trkpt>
      <trkpt lat="42.956" lon="1.90733">
        <ele>436</ele>
        <time>2014-10-11T13:31:06Z</time>
      </trkpt>
      <trkpt lat="42.95595" lon="1.9072">
        <ele>436</ele>
        <time>2014-10-11T13:31:09Z</time>
      </trkpt>
      <trkpt lat="42.95591" lon="1.90708">
        <ele>436</ele>
        <time>2014-10-11T13:31:12Z</time>
      </trkpt>
      <trkpt lat="42.95587" lon="1.90699">
        <ele>437</ele>
        <time>2014-10-11T13:31:15Z</time>
      </trkpt>
      <trkpt lat="42.95583" lon="1.90685">
        <ele>437</ele>
        <time>2014-10-11T13:31:17Z</time>
      </trkpt>
      <trkpt lat="42.95576" lon="1.9067">
        <ele>437</ele>
        <time>2014-10-11T13:31:20Z</time>
      </trkpt>
      <trkpt lat="42.95573" lon="1.90659">
        <ele>438</ele>
        <time>2014-10-11T13:31:22Z</time>
      </trkpt>
      <trkpt lat="42.95569" lon="1.90648">
        <ele>438</ele>
        <time>2014-10-11T13:31:25Z</time>
      </trkpt>
      <trkpt lat="42.95564" lon="1.9063">
        <ele>438</ele>
        <time>2014-10-11T13:31:27Z</time>
      </trkpt>
      <trkpt lat="42.95559" lon="1.90613">
        <ele>438</ele>
        <time>2014-10-11T13:31:30Z</time>
      </trkpt>
      <trkpt lat="42.95556" lon="1.90601">
        <ele>438</ele>
        <time>2014-10-11T13:31:32Z</time>
      </trkpt>
      <trkpt lat="42.95554" lon="1.90588">
        <ele>439</ele>
        <time>2014-10-11T13:31:34Z</time>
      </trkpt>
      <trkpt lat="42.95549" lon="1.90569">
        <ele>439</ele>
        <time>2014-10-11T13:31:37Z</time>
      </trkpt>
      <trkpt lat="42.95546" lon="1.90556">
        <ele>439</ele>
        <time>2014-10-11T13:31:39Z</time>
      </trkpt>
      <trkpt lat="42.95543" lon="1.90537">
        <ele>439</ele>
        <time>2014-10-11T13:31:42Z</time>
      </trkpt>
      <trkpt lat="42.95542" lon="1.90519">
        <ele>439</ele>
        <time>2014-10-11T13:31:45Z</time>
      </trkpt>
      <trkpt lat="42.95542" lon="1.90512">
        <ele>439</ele>
        <time>2014-10-11T13:31:48Z</time>
      </trkpt>
      <trkpt lat="42.95544" lon="1.90502">
        <ele>439</ele>
        <time>2014-10-11T13:31:50Z</time>
      </trkpt>
      <trkpt lat="42.95542" lon="1.90488">
        <ele>440</ele>
        <time>2014-10-11T13:31:53Z</time>
      </trkpt>
      <trkpt lat="42.95536" lon="1.90474">
        <ele>440</ele>
        <time>2014-10-11T13:31:56Z</time>
      </trkpt>
      <trkpt lat="42.95535" lon="1.90463">
        <ele>440</ele>
        <time>2014-10-11T13:31:59Z</time>
      </trkpt>
      <trkpt lat="42.95535" lon="1.90446">
        <ele>440</ele>
        <time>2014-10-11T13:32:01Z</time>
      </trkpt>
      <trkpt lat="42.95535" lon="1.90428">
        <ele>440</ele>
        <time>2014-10-11T13:32:04Z</time>
      </trkpt>
      <trkpt lat="42.95535" lon="1.9041">
        <ele>441</ele>
        <time>2014-10-11T13:32:07Z</time>
      </trkpt>
      <trkpt lat="42.95536" lon="1.90391">
        <ele>442</ele>
        <time>2014-10-11T13:32:10Z</time>
      </trkpt>
      <trkpt lat="42.95538" lon="1.90378">
        <ele>442</ele>
        <time>2014-10-11T13:32:12Z</time>
      </trkpt>
      <trkpt lat="42.9554" lon="1.90359">
        <ele>442</ele>
        <time>2014-10-11T13:32:15Z</time>
      </trkpt>
      <trkpt lat="42.95542" lon="1.9034">
        <ele>442</ele>
        <time>2014-10-11T13:32:18Z</time>
      </trkpt>
      <trkpt lat="42.95544" lon="1.90329">
        <ele>442</ele>
        <time>2014-10-11T13:32:20Z</time>
      </trkpt>
      <trkpt lat="42.95547" lon="1.90311">
        <ele>442</ele>
        <time>2014-10-11T13:32:23Z</time>
      </trkpt>
      <trkpt lat="42.95551" lon="1.90294">
        <ele>442</ele>
        <time>2014-10-11T13:32:26Z</time>
      </trkpt>
      <trkpt lat="42.95554" lon="1.90282">
        <ele>442</ele>
        <time>2014-10-11T13:32:28Z</time>
      </trkpt>
      <trkpt lat="42.95558" lon="1.90271">
        <ele>442</ele>
        <time>2014-10-11T13:32:30Z</time>
      </trkpt>
      <trkpt lat="42.95563" lon="1.90254">
        <ele>443</ele>
        <time>2014-10-11T13:32:33Z</time>
      </trkpt>
      <trkpt lat="42.95568" lon="1.90238">
        <ele>443</ele>
        <time>2014-10-11T13:32:36Z</time>
      </trkpt>
      <trkpt lat="42.95574" lon="1.90222">
        <ele>443</ele>
        <time>2014-10-11T13:32:39Z</time>
      </trkpt>
      <trkpt lat="42.95578" lon="1.90212">
        <ele>443</ele>
        <time>2014-10-11T13:32:42Z</time>
      </trkpt>
      <trkpt lat="42.95585" lon="1.90196">
        <ele>443</ele>
        <time>2014-10-11T13:32:44Z</time>
      </trkpt>
      <trkpt lat="42.95592" lon="1.90177">
        <ele>444</ele>
        <time>2014-10-11T13:32:47Z</time>
      </trkpt>
      <trkpt lat="42.95599" lon="1.9016">
        <ele>444</ele>
        <time>2014-10-11T13:32:50Z</time>
      </trkpt>
      <trkpt lat="42.95604" lon="1.90147">
        <ele>445</ele>
        <time>2014-10-11T13:32:53Z</time>
      </trkpt>
      <trkpt lat="42.95612" lon="1.90126">
        <ele>445</ele>
        <time>2014-10-11T13:32:55Z</time>
      </trkpt>
      <trkpt lat="42.9562" lon="1.90105">
        <ele>445</ele>
        <time>2014-10-11T13:32:58Z</time>
      </trkpt>
      <trkpt lat="42.95625" lon="1.90091">
        <ele>446</ele>
        <time>2014-10-11T13:33:00Z</time>
      </trkpt>
      <trkpt lat="42.9563" lon="1.90077">
        <ele>446</ele>
        <time>2014-10-11T13:33:03Z</time>
      </trkpt>
      <trkpt lat="42.95638" lon="1.90055">
        <ele>446</ele>
        <time>2014-10-11T13:33:05Z</time>
      </trkpt>
      <trkpt lat="42.95645" lon="1.90034">
        <ele>446</ele>
        <time>2014-10-11T13:33:08Z</time>
      </trkpt>
      <trkpt lat="42.9565" lon="1.90021">
        <ele>446</ele>
        <time>2014-10-11T13:33:10Z</time>
      </trkpt>
      <trkpt lat="42.95656" lon="1.90007">
        <ele>446</ele>
        <time>2014-10-11T13:33:13Z</time>
      </trkpt>
      <trkpt lat="42.95664" lon="1.89986">
        <ele>447</ele>
        <time>2014-10-11T13:33:15Z</time>
      </trkpt>
      <trkpt lat="42.95672" lon="1.89965">
        <ele>447</ele>
        <time>2014-10-11T13:33:18Z</time>
      </trkpt>
      <trkpt lat="42.9568" lon="1.89945">
        <ele>447</ele>
        <time>2014-10-11T13:33:21Z</time>
      </trkpt>
      <trkpt lat="42.95688" lon="1.89923">
        <ele>447</ele>
        <time>2014-10-11T13:33:24Z</time>
      </trkpt>
      <trkpt lat="42.95696" lon="1.89902">
        <ele>448</ele>
        <time>2014-10-11T13:33:27Z</time>
      </trkpt>
      <trkpt lat="42.95701" lon="1.89888">
        <ele>448</ele>
        <time>2014-10-11T13:33:29Z</time>
      </trkpt>
      <trkpt lat="42.95707" lon="1.89874">
        <ele>449</ele>
        <time>2014-10-11T13:33:31Z</time>
      </trkpt>
      <trkpt lat="42.95715" lon="1.89854">
        <ele>449</ele>
        <time>2014-10-11T13:33:34Z</time>
      </trkpt>
      <trkpt lat="42.95722" lon="1.89833">
        <ele>449</ele>
        <time>2014-10-11T13:33:37Z</time>
      </trkpt>
      <trkpt lat="42.95727" lon="1.8982">
        <ele>449</ele>
        <time>2014-10-11T13:33:39Z</time>
      </trkpt>
      <trkpt lat="42.95732" lon="1.89807">
        <ele>449</ele>
        <time>2014-10-11T13:33:41Z</time>
      </trkpt>
      <trkpt lat="42.95739" lon="1.89788">
        <ele>449</ele>
        <time>2014-10-11T13:33:44Z</time>
      </trkpt>
      <trkpt lat="42.95747" lon="1.8977">
        <ele>449</ele>
        <time>2014-10-11T13:33:47Z</time>
      </trkpt>
      <trkpt lat="42.95751" lon="1.89759">
        <ele>450</ele>
        <time>2014-10-11T13:33:49Z</time>
      </trkpt>
      <trkpt lat="42.95755" lon="1.89748">
        <ele>450</ele>
        <time>2014-10-11T13:33:51Z</time>
      </trkpt>
      <trkpt lat="42.95761" lon="1.89734">
        <ele>450</ele>
        <time>2014-10-11T13:33:54Z</time>
      </trkpt>
      <trkpt lat="42.95768" lon="1.89718">
        <ele>450</ele>
        <time>2014-10-11T13:33:57Z</time>
      </trkpt>
      <trkpt lat="42.95773" lon="1.89706">
        <ele>451</ele>
        <time>2014-10-11T13:33:59Z</time>
      </trkpt>
      <trkpt lat="42.95777" lon="1.89694">
        <ele>451</ele>
        <time>2014-10-11T13:34:01Z</time>
      </trkpt>
      <trkpt lat="42.95784" lon="1.89677">
        <ele>451</ele>
        <time>2014-10-11T13:34:04Z</time>
      </trkpt>
      <trkpt lat="42.95791" lon="1.89659">
        <ele>452</ele>
        <time>2014-10-11T13:34:07Z</time>
      </trkpt>
      <trkpt lat="42.95796" lon="1.89646">
        <ele>452</ele>
        <time>2014-10-11T13:34:09Z</time>
      </trkpt>
      <trkpt lat="42.95801" lon="1.8963">
        <ele>452</ele>
        <time>2014-10-11T13:34:12Z</time>
      </trkpt>
      <trkpt lat="42.95804" lon="1.89619">
        <ele>452</ele>
        <time>2014-10-11T13:34:15Z</time>
      </trkpt>
      <trkpt lat="42.95807" lon="1.89611">
        <ele>452</ele>
        <time>2014-10-11T13:34:18Z</time>
      </trkpt>
      <trkpt lat="42.9581" lon="1.89604">
        <ele>452</ele>
        <time>2014-10-11T13:34:20Z</time>
      </trkpt>
      <trkpt lat="42.95814" lon="1.89593">
        <ele>452</ele>
        <time>2014-10-11T13:34:23Z</time>
      </trkpt>
      <trkpt lat="42.95817" lon="1.89584">
        <ele>452</ele>
        <time>2014-10-11T13:34:25Z</time>
      </trkpt>
      <trkpt lat="42.95821" lon="1.8957">
        <ele>452</ele>
        <time>2014-10-11T13:34:28Z</time>
      </trkpt>
      <trkpt lat="42.95822" lon="1.8956">
        <ele>453</ele>
        <time>2014-10-11T13:34:30Z</time>
      </trkpt>
      <trkpt lat="42.95824" lon="1.89551">
        <ele>453</ele>
        <time>2014-10-11T13:34:32Z</time>
      </trkpt>
      <trkpt lat="42.95827" lon="1.89538">
        <ele>453</ele>
        <time>2014-10-11T13:34:35Z</time>
      </trkpt>
      <trkpt lat="42.9583" lon="1.89529">
        <ele>453</ele>
        <time>2014-10-11T13:34:37Z</time>
      </trkpt>
      <trkpt lat="42.95832" lon="1.89521">
        <ele>453</ele>
        <time>2014-10-11T13:34:39Z</time>
      </trkpt>
      <trkpt lat="42.95834" lon="1.89507">
        <ele>454</ele>
        <time>2014-10-11T13:34:42Z</time>
      </trkpt>
      <trkpt lat="42.95837" lon="1.89496">
        <ele>454</ele>
        <time>2014-10-11T13:34:45Z</time>
      </trkpt>
      <trkpt lat="42.95839" lon="1.89483">
        <ele>454</ele>
        <time>2014-10-11T13:34:48Z</time>
      </trkpt>
      <trkpt lat="42.95841" lon="1.89472">
        <ele>454</ele>
        <time>2014-10-11T13:34:50Z</time>
      </trkpt>
      <trkpt lat="42.95844" lon="1.89452">
        <ele>454</ele>
        <time>2014-10-11T13:34:53Z</time>
      </trkpt>
      <trkpt lat="42.95847" lon="1.8943">
        <ele>455</ele>
        <time>2014-10-11T13:34:56Z</time>
      </trkpt>
      <trkpt lat="42.95849" lon="1.89416">
        <ele>455</ele>
        <time>2014-10-11T13:34:58Z</time>
      </trkpt>
      <trkpt lat="42.9585" lon="1.89402">
        <ele>455</ele>
        <time>2014-10-11T13:35:00Z</time>
      </trkpt>
      <trkpt lat="42.95851" lon="1.89387">
        <ele>456</ele>
        <time>2014-10-11T13:35:02Z</time>
      </trkpt>
      <trkpt lat="42.95852" lon="1.89365">
        <ele>456</ele>
        <time>2014-10-11T13:35:05Z</time>
      </trkpt>
      <trkpt lat="42.95853" lon="1.89349">
        <ele>456</ele>
        <time>2014-10-11T13:35:07Z</time>
      </trkpt>
      <trkpt lat="42.95854" lon="1.89334">
        <ele>456</ele>
        <time>2014-10-11T13:35:09Z</time>
      </trkpt>
      <trkpt lat="42.95854" lon="1.8932">
        <ele>456</ele>
        <time>2014-10-11T13:35:11Z</time>
      </trkpt>
      <trkpt lat="42.95855" lon="1.89296">
        <ele>456</ele>
        <time>2014-10-11T13:35:14Z</time>
      </trkpt>
      <trkpt lat="42.95856" lon="1.8928">
        <ele>456</ele>
        <time>2014-10-11T13:35:16Z</time>
      </trkpt>
      <trkpt lat="42.95856" lon="1.89265">
        <ele>457</ele>
        <time>2014-10-11T13:35:18Z</time>
      </trkpt>
      <trkpt lat="42.95855" lon="1.89248">
        <ele>457</ele>
        <time>2014-10-11T13:35:20Z</time>
      </trkpt>
      <trkpt lat="42.95855" lon="1.89233">
        <ele>457</ele>
        <time>2014-10-11T13:35:22Z</time>
      </trkpt>
      <trkpt lat="42.95853" lon="1.89218">
        <ele>458</ele>
        <time>2014-10-11T13:35:24Z</time>
      </trkpt>
      <trkpt lat="42.95852" lon="1.89206">
        <ele>458</ele>
        <time>2014-10-11T13:35:27Z</time>
      </trkpt>
      <trkpt lat="42.95857" lon="1.89214">
        <ele>458</ele>
        <time>2014-10-11T13:35:30Z</time>
      </trkpt>
      <trkpt lat="42.9579" lon="1.88879">
        <ele>461</ele>
        <time>2014-10-11T13:36:08Z</time>
      </trkpt>
      <trkpt lat="42.95787" lon="1.88856">
        <ele>461</ele>
        <time>2014-10-11T13:36:11Z</time>
      </trkpt>
      <trkpt lat="42.95788" lon="1.88839">
        <ele>461</ele>
        <time>2014-10-11T13:36:14Z</time>
      </trkpt>
      <trkpt lat="42.95788" lon="1.88823">
        <ele>461</ele>
        <time>2014-10-11T13:36:17Z</time>
      </trkpt>
      <trkpt lat="42.95788" lon="1.88815">
        <ele>462</ele>
        <time>2014-10-11T13:36:19Z</time>
      </trkpt>
      <trkpt lat="42.95787" lon="1.88805">
        <ele>462</ele>
        <time>2014-10-11T13:36:21Z</time>
      </trkpt>
      <trkpt lat="42.95787" lon="1.88787">
        <ele>462</ele>
        <time>2014-10-11T13:36:24Z</time>
      </trkpt>
      <trkpt lat="42.95787" lon="1.8877">
        <ele>463</ele>
        <time>2014-10-11T13:36:27Z</time>
      </trkpt>
      <trkpt lat="42.95787" lon="1.88753">
        <ele>463</ele>
        <time>2014-10-11T13:36:30Z</time>
      </trkpt>
      <trkpt lat="42.95787" lon="1.88735">
        <ele>463</ele>
        <time>2014-10-11T13:36:33Z</time>
      </trkpt>
      <trkpt lat="42.95787" lon="1.88723">
        <ele>463</ele>
        <time>2014-10-11T13:36:35Z</time>
      </trkpt>
      <trkpt lat="42.95787" lon="1.88711">
        <ele>463</ele>
        <time>2014-10-11T13:36:37Z</time>
      </trkpt>
      <trkpt lat="42.95788" lon="1.88698">
        <ele>463</ele>
        <time>2014-10-11T13:36:39Z</time>
      </trkpt>
      <trkpt lat="42.9579" lon="1.88677">
        <ele>463</ele>
        <time>2014-10-11T13:36:42Z</time>
      </trkpt>
      <trkpt lat="42.95792" lon="1.88655">
        <ele>463</ele>
        <time>2014-10-11T13:36:45Z</time>
      </trkpt>
      <trkpt lat="42.95794" lon="1.88641">
        <ele>463</ele>
        <time>2014-10-11T13:36:47Z</time>
      </trkpt>
      <trkpt lat="42.95797" lon="1.8862">
        <ele>463</ele>
        <time>2014-10-11T13:36:50Z</time>
      </trkpt>
      <trkpt lat="42.95798" lon="1.88605">
        <ele>463</ele>
        <time>2014-10-11T13:36:52Z</time>
      </trkpt>
      <trkpt lat="42.95802" lon="1.88581">
        <ele>463</ele>
        <time>2014-10-11T13:36:55Z</time>
      </trkpt>
      <trkpt lat="42.95804" lon="1.88566">
        <ele>462</ele>
        <time>2014-10-11T13:36:57Z</time>
      </trkpt>
      <trkpt lat="42.95809" lon="1.88544">
        <ele>463</ele>
        <time>2014-10-11T13:37:00Z</time>
      </trkpt>
      <trkpt lat="42.95815" lon="1.88521">
        <ele>463</ele>
        <time>2014-10-11T13:37:03Z</time>
      </trkpt>
      <trkpt lat="42.95819" lon="1.88504">
        <ele>463</ele>
        <time>2014-10-11T13:37:05Z</time>
      </trkpt>
      <trkpt lat="42.95826" lon="1.88479">
        <ele>463</ele>
        <time>2014-10-11T13:37:08Z</time>
      </trkpt>
      <trkpt lat="42.9583" lon="1.88461">
        <ele>462</ele>
        <time>2014-10-11T13:37:10Z</time>
      </trkpt>
      <trkpt lat="42.95837" lon="1.88435">
        <ele>462</ele>
        <time>2014-10-11T13:37:13Z</time>
      </trkpt>
      <trkpt lat="42.95841" lon="1.88417">
        <ele>462</ele>
        <time>2014-10-11T13:37:15Z</time>
      </trkpt>
      <trkpt lat="42.95849" lon="1.88389">
        <ele>462</ele>
        <time>2014-10-11T13:37:18Z</time>
      </trkpt>
      <trkpt lat="42.95857" lon="1.88361">
        <ele>462</ele>
        <time>2014-10-11T13:37:21Z</time>
      </trkpt>
      <trkpt lat="42.95862" lon="1.88343">
        <ele>462</ele>
        <time>2014-10-11T13:37:23Z</time>
      </trkpt>
      <trkpt lat="42.95869" lon="1.88316">
        <ele>461</ele>
        <time>2014-10-11T13:37:26Z</time>
      </trkpt>
      <trkpt lat="42.95876" lon="1.8829">
        <ele>462</ele>
        <time>2014-10-11T13:37:29Z</time>
      </trkpt>
      <trkpt lat="42.95881" lon="1.88271">
        <ele>462</ele>
        <time>2014-10-11T13:37:31Z</time>
      </trkpt>
      <trkpt lat="42.95887" lon="1.88253">
        <ele>462</ele>
        <time>2014-10-11T13:37:33Z</time>
      </trkpt>
      <trkpt lat="42.95892" lon="1.88234">
        <ele>462</ele>
        <time>2014-10-11T13:37:35Z</time>
      </trkpt>
      <trkpt lat="42.959" lon="1.88205">
        <ele>461</ele>
        <time>2014-10-11T13:37:38Z</time>
      </trkpt>
      <trkpt lat="42.95905" lon="1.88187">
        <ele>461</ele>
        <time>2014-10-11T13:37:40Z</time>
      </trkpt>
      <trkpt lat="42.95913" lon="1.88158">
        <ele>461</ele>
        <time>2014-10-11T13:37:43Z</time>
      </trkpt>
      <trkpt lat="42.95921" lon="1.88129">
        <ele>461</ele>
        <time>2014-10-11T13:37:46Z</time>
      </trkpt>
      <trkpt lat="42.9593" lon="1.88101">
        <ele>462</ele>
        <time>2014-10-11T13:37:49Z</time>
      </trkpt>
      <trkpt lat="42.95935" lon="1.88082">
        <ele>461</ele>
        <time>2014-10-11T13:37:51Z</time>
      </trkpt>
      <trkpt lat="42.95942" lon="1.88063">
        <ele>461</ele>
        <time>2014-10-11T13:37:53Z</time>
      </trkpt>
      <trkpt lat="42.95949" lon="1.88045">
        <ele>462</ele>
        <time>2014-10-11T13:37:55Z</time>
      </trkpt>
      <trkpt lat="42.95959" lon="1.88018">
        <ele>461</ele>
        <time>2014-10-11T13:37:58Z</time>
      </trkpt>
      <trkpt lat="42.95965" lon="1.88">
        <ele>462</ele>
        <time>2014-10-11T13:38:00Z</time>
      </trkpt>
      <trkpt lat="42.9597" lon="1.87981">
        <ele>462</ele>
        <time>2014-10-11T13:38:02Z</time>
      </trkpt>
      <trkpt lat="42.95975" lon="1.87963">
        <ele>462</ele>
        <time>2014-10-11T13:38:04Z</time>
      </trkpt>
      <trkpt lat="42.9598" lon="1.87944">
        <ele>462</ele>
        <time>2014-10-11T13:38:06Z</time>
      </trkpt>
      <trkpt lat="42.95987" lon="1.87916">
        <ele>462</ele>
        <time>2014-10-11T13:38:09Z</time>
      </trkpt>
      <trkpt lat="42.95994" lon="1.87887">
        <ele>461</ele>
        <time>2014-10-11T13:38:12Z</time>
      </trkpt>
      <trkpt lat="42.96003" lon="1.87859">
        <ele>461</ele>
        <time>2014-10-11T13:38:15Z</time>
      </trkpt>
      <trkpt lat="42.96009" lon="1.87841">
        <ele>461</ele>
        <time>2014-10-11T13:38:17Z</time>
      </trkpt>
      <trkpt lat="42.96016" lon="1.87824">
        <ele>461</ele>
        <time>2014-10-11T13:38:19Z</time>
      </trkpt>
      <trkpt lat="42.96022" lon="1.87807">
        <ele>461</ele>
        <time>2014-10-11T13:38:21Z</time>
      </trkpt>
      <trkpt lat="42.96028" lon="1.87789">
        <ele>461</ele>
        <time>2014-10-11T13:38:23Z</time>
      </trkpt>
      <trkpt lat="42.96034" lon="1.87769">
        <ele>461</ele>
        <time>2014-10-11T13:38:25Z</time>
      </trkpt>
      <trkpt lat="42.9604" lon="1.87748">
        <ele>462</ele>
        <time>2014-10-11T13:38:28Z</time>
      </trkpt>
      <trkpt lat="42.96048" lon="1.87718">
        <ele>462</ele>
        <time>2014-10-11T13:38:30Z</time>
      </trkpt>
      <trkpt lat="42.96057" lon="1.87687">
        <ele>462</ele>
        <time>2014-10-11T13:38:33Z</time>
      </trkpt>
      <trkpt lat="42.96064" lon="1.87657">
        <ele>462</ele>
        <time>2014-10-11T13:38:36Z</time>
      </trkpt>
      <trkpt lat="42.96071" lon="1.87628">
        <ele>462</ele>
        <time>2014-10-11T13:38:39Z</time>
      </trkpt>
      <trkpt lat="42.96077" lon="1.876">
        <ele>462</ele>
        <time>2014-10-11T13:38:42Z</time>
      </trkpt>
      <trkpt lat="42.96079" lon="1.87582">
        <ele>462</ele>
        <time>2014-10-11T13:38:44Z</time>
      </trkpt>
      <trkpt lat="42.9608" lon="1.87559">
        <ele>462</ele>
        <time>2014-10-11T13:38:47Z</time>
      </trkpt>
      <trkpt lat="42.96082" lon="1.87537">
        <ele>462</ele>
        <time>2014-10-11T13:38:50Z</time>
      </trkpt>
      <trkpt lat="42.96083" lon="1.87517">
        <ele>462</ele>
        <time>2014-10-11T13:38:53Z</time>
      </trkpt>
      <trkpt lat="42.96083" lon="1.87496">
        <ele>461</ele>
        <time>2014-10-11T13:38:56Z</time>
      </trkpt>
      <trkpt lat="42.96084" lon="1.87481">
        <ele>461</ele>
        <time>2014-10-11T13:38:58Z</time>
      </trkpt>
      <trkpt lat="42.96083" lon="1.8746">
        <ele>461</ele>
        <time>2014-10-11T13:39:01Z</time>
      </trkpt>
      <trkpt lat="42.96083" lon="1.87444">
        <ele>461</ele>
        <time>2014-10-11T13:39:03Z</time>
      </trkpt>
      <trkpt lat="42.96081" lon="1.87428">
        <ele>462</ele>
        <time>2014-10-11T13:39:05Z</time>
      </trkpt>
      <trkpt lat="42.96079" lon="1.87412">
        <ele>462</ele>
        <time>2014-10-11T13:39:07Z</time>
      </trkpt>
      <trkpt lat="42.96077" lon="1.87389">
        <ele>462</ele>
        <time>2014-10-11T13:39:10Z</time>
      </trkpt>
      <trkpt lat="42.96074" lon="1.87368">
        <ele>462</ele>
        <time>2014-10-11T13:39:13Z</time>
      </trkpt>
      <trkpt lat="42.96072" lon="1.87354">
        <ele>463</ele>
        <time>2014-10-11T13:39:15Z</time>
      </trkpt>
      <trkpt lat="42.96069" lon="1.8734">
        <ele>463</ele>
        <time>2014-10-11T13:39:17Z</time>
      </trkpt>
      <trkpt lat="42.96063" lon="1.87318">
        <ele>463</ele>
        <time>2014-10-11T13:39:20Z</time>
      </trkpt>
      <trkpt lat="42.96056" lon="1.87295">
        <ele>464</ele>
        <time>2014-10-11T13:39:23Z</time>
      </trkpt>
      <trkpt lat="42.96049" lon="1.87273">
        <ele>464</ele>
        <time>2014-10-11T13:39:26Z</time>
      </trkpt>
      <trkpt lat="42.96044" lon="1.87258">
        <ele>464</ele>
        <time>2014-10-11T13:39:28Z</time>
      </trkpt>
      <trkpt lat="42.96038" lon="1.87243">
        <ele>464</ele>
        <time>2014-10-11T13:39:30Z</time>
      </trkpt>
      <trkpt lat="42.9603" lon="1.8722">
        <ele>464</ele>
        <time>2014-10-11T13:39:33Z</time>
      </trkpt>
      <trkpt lat="42.96023" lon="1.87197">
        <ele>464</ele>
        <time>2014-10-11T13:39:36Z</time>
      </trkpt>
      <trkpt lat="42.96014" lon="1.87174">
        <ele>465</ele>
        <time>2014-10-11T13:39:39Z</time>
      </trkpt>
      <trkpt lat="42.96006" lon="1.87151">
        <ele>465</ele>
        <time>2014-10-11T13:39:42Z</time>
      </trkpt>
      <trkpt lat="42.96001" lon="1.87136">
        <ele>466</ele>
        <time>2014-10-11T13:39:44Z</time>
      </trkpt>
      <trkpt lat="42.95997" lon="1.8712">
        <ele>466</ele>
        <time>2014-10-11T13:39:46Z</time>
      </trkpt>
      <trkpt lat="42.95993" lon="1.87105">
        <ele>466</ele>
        <time>2014-10-11T13:39:48Z</time>
      </trkpt>
      <trkpt lat="42.95984" lon="1.87082">
        <ele>466</ele>
        <time>2014-10-11T13:39:51Z</time>
      </trkpt>
      <trkpt lat="42.95977" lon="1.87067">
        <ele>466</ele>
        <time>2014-10-11T13:39:53Z</time>
      </trkpt>
      <trkpt lat="42.95971" lon="1.87052">
        <ele>466</ele>
        <time>2014-10-11T13:39:55Z</time>
      </trkpt>
      <trkpt lat="42.95965" lon="1.87036">
        <ele>467</ele>
        <time>2014-10-11T13:39:57Z</time>
      </trkpt>
      <trkpt lat="42.95959" lon="1.8702">
        <ele>467</ele>
        <time>2014-10-11T13:39:59Z</time>
      </trkpt>
      <trkpt lat="42.95954" lon="1.87004">
        <ele>467</ele>
        <time>2014-10-11T13:40:01Z</time>
      </trkpt>
      <trkpt lat="42.95948" lon="1.86988">
        <ele>467</ele>
        <time>2014-10-11T13:40:03Z</time>
      </trkpt>
      <trkpt lat="42.95941" lon="1.86973">
        <ele>467</ele>
        <time>2014-10-11T13:40:05Z</time>
      </trkpt>
      <trkpt lat="42.95934" lon="1.86958">
        <ele>466</ele>
        <time>2014-10-11T13:40:07Z</time>
      </trkpt>
      <trkpt lat="42.95927" lon="1.86942">
        <ele>467</ele>
        <time>2014-10-11T13:40:09Z</time>
      </trkpt>
      <trkpt lat="42.9592" lon="1.86927">
        <ele>467</ele>
        <time>2014-10-11T13:40:11Z</time>
      </trkpt>
      <trkpt lat="42.95914" lon="1.86912">
        <ele>467</ele>
        <time>2014-10-11T13:40:13Z</time>
      </trkpt>
      <trkpt lat="42.95908" lon="1.86897">
        <ele>467</ele>
        <time>2014-10-11T13:40:15Z</time>
      </trkpt>
      <trkpt lat="42.95901" lon="1.86881">
        <ele>467</ele>
        <time>2014-10-11T13:40:17Z</time>
      </trkpt>
      <trkpt lat="42.9589" lon="1.8686">
        <ele>468</ele>
        <time>2014-10-11T13:40:20Z</time>
      </trkpt>
      <trkpt lat="42.95883" lon="1.86846">
        <ele>468</ele>
        <time>2014-10-11T13:40:22Z</time>
      </trkpt>
      <trkpt lat="42.95876" lon="1.86832">
        <ele>468</ele>
        <time>2014-10-11T13:40:24Z</time>
      </trkpt>
      <trkpt lat="42.95869" lon="1.86819">
        <ele>468</ele>
        <time>2014-10-11T13:40:26Z</time>
      </trkpt>
      <trkpt lat="42.95861" lon="1.86806">
        <ele>469</ele>
        <time>2014-10-11T13:40:28Z</time>
      </trkpt>
      <trkpt lat="42.95853" lon="1.86793">
        <ele>469</ele>
        <time>2014-10-11T13:40:30Z</time>
      </trkpt>
      <trkpt lat="42.95846" lon="1.86781">
        <ele>469</ele>
        <time>2014-10-11T13:40:32Z</time>
      </trkpt>
      <trkpt lat="42.95839" lon="1.86769">
        <ele>468</ele>
        <time>2014-10-11T13:40:34Z</time>
      </trkpt>
      <trkpt lat="42.95831" lon="1.86758">
        <ele>468</ele>
        <time>2014-10-11T13:40:36Z</time>
      </trkpt>
      <trkpt lat="42.95824" lon="1.86747">
        <ele>468</ele>
        <time>2014-10-11T13:40:38Z</time>
      </trkpt>
      <trkpt lat="42.95813" lon="1.8673">
        <ele>468</ele>
        <time>2014-10-11T13:40:41Z</time>
      </trkpt>
      <trkpt lat="42.95806" lon="1.86718">
        <ele>469</ele>
        <time>2014-10-11T13:40:43Z</time>
      </trkpt>
      <trkpt lat="42.95795" lon="1.86701">
        <ele>469</ele>
        <time>2014-10-11T13:40:46Z</time>
      </trkpt>
      <trkpt lat="42.95788" lon="1.8669">
        <ele>469</ele>
        <time>2014-10-11T13:40:48Z</time>
      </trkpt>
      <trkpt lat="42.95776" lon="1.86674">
        <ele>469</ele>
        <time>2014-10-11T13:40:51Z</time>
      </trkpt>
      <trkpt lat="42.95768" lon="1.86664">
        <ele>469</ele>
        <time>2014-10-11T13:40:53Z</time>
      </trkpt>
      <trkpt lat="42.9576" lon="1.86653">
        <ele>470</ele>
        <time>2014-10-11T13:40:55Z</time>
      </trkpt>
      <trkpt lat="42.95753" lon="1.86643">
        <ele>470</ele>
        <time>2014-10-11T13:40:57Z</time>
      </trkpt>
      <trkpt lat="42.95745" lon="1.86632">
        <ele>470</ele>
        <time>2014-10-11T13:40:59Z</time>
      </trkpt>
      <trkpt lat="42.95735" lon="1.86616">
        <ele>470</ele>
        <time>2014-10-11T13:41:02Z</time>
      </trkpt>
      <trkpt lat="42.95729" lon="1.86604">
        <ele>470</ele>
        <time>2014-10-11T13:41:04Z</time>
      </trkpt>
      <trkpt lat="42.95722" lon="1.86593">
        <ele>470</ele>
        <time>2014-10-11T13:41:06Z</time>
      </trkpt>
      <trkpt lat="42.95716" lon="1.86584">
        <ele>470</ele>
        <time>2014-10-11T13:41:08Z</time>
      </trkpt>
      <trkpt lat="42.95711" lon="1.86575">
        <ele>470</ele>
        <time>2014-10-11T13:41:10Z</time>
      </trkpt>
      <trkpt lat="42.95707" lon="1.86569">
        <ele>470</ele>
        <time>2014-10-11T13:41:12Z</time>
      </trkpt>
      <trkpt lat="42.95703" lon="1.86559">
        <ele>470</ele>
        <time>2014-10-11T13:41:15Z</time>
      </trkpt>
      <trkpt lat="42.95701" lon="1.86555">
        <ele>470</ele>
        <time>2014-10-11T13:41:17Z</time>
      </trkpt>
      <trkpt lat="42.95699" lon="1.86548">
        <ele>470</ele>
        <time>2014-10-11T13:41:20Z</time>
      </trkpt>
      <trkpt lat="42.95697" lon="1.86546">
        <ele>471</ele>
        <time>2014-10-11T13:41:22Z</time>
      </trkpt>
      <trkpt lat="42.95695" lon="1.86542">
        <ele>471</ele>
        <time>2014-10-11T13:41:25Z</time>
      </trkpt>
      <trkpt lat="42.95692" lon="1.86537">
        <ele>471</ele>
        <time>2014-10-11T13:41:27Z</time>
      </trkpt>
      <trkpt lat="42.95689" lon="1.86533">
        <ele>471</ele>
        <time>2014-10-11T13:41:29Z</time>
      </trkpt>
      <trkpt lat="42.95687" lon="1.86528">
        <ele>471</ele>
        <time>2014-10-11T13:41:31Z</time>
      </trkpt>
      <trkpt lat="42.95684" lon="1.86522">
        <ele>471</ele>
        <time>2014-10-11T13:41:33Z</time>
      </trkpt>
      <trkpt lat="42.95678" lon="1.86515">
        <ele>471</ele>
        <time>2014-10-11T13:41:35Z</time>
      </trkpt>
      <trkpt lat="42.9567" lon="1.86504">
        <ele>471</ele>
        <time>2014-10-11T13:41:38Z</time>
      </trkpt>
      <trkpt lat="42.95661" lon="1.86493">
        <ele>471</ele>
        <time>2014-10-11T13:41:41Z</time>
      </trkpt>
      <trkpt lat="42.95654" lon="1.86486">
        <ele>471</ele>
        <time>2014-10-11T13:41:43Z</time>
      </trkpt>
      <trkpt lat="42.95645" lon="1.86476">
        <ele>471</ele>
        <time>2014-10-11T13:41:46Z</time>
      </trkpt>
      <trkpt lat="42.95635" lon="1.86465">
        <ele>471</ele>
        <time>2014-10-11T13:41:49Z</time>
      </trkpt>
      <trkpt lat="42.95628" lon="1.86458">
        <ele>472</ele>
        <time>2014-10-11T13:41:51Z</time>
      </trkpt>
      <trkpt lat="42.95621" lon="1.86451">
        <ele>472</ele>
        <time>2014-10-11T13:41:53Z</time>
      </trkpt>
      <trkpt lat="42.95612" lon="1.86444">
        <ele>472</ele>
        <time>2014-10-11T13:41:55Z</time>
      </trkpt>
      <trkpt lat="42.95603" lon="1.86438">
        <ele>473</ele>
        <time>2014-10-11T13:41:57Z</time>
      </trkpt>
      <trkpt lat="42.95588" lon="1.86428">
        <ele>473</ele>
        <time>2014-10-11T13:42:00Z</time>
      </trkpt>
      <trkpt lat="42.95571" lon="1.86419">
        <ele>473</ele>
        <time>2014-10-11T13:42:03Z</time>
      </trkpt>
      <trkpt lat="42.95561" lon="1.86413">
        <ele>474</ele>
        <time>2014-10-11T13:42:05Z</time>
      </trkpt>
      <trkpt lat="42.9555" lon="1.86408">
        <ele>474</ele>
        <time>2014-10-11T13:42:07Z</time>
      </trkpt>
      <trkpt lat="42.95533" lon="1.864">
        <ele>474</ele>
        <time>2014-10-11T13:42:10Z</time>
      </trkpt>
      <trkpt lat="42.95522" lon="1.86396">
        <ele>474</ele>
        <time>2014-10-11T13:42:12Z</time>
      </trkpt>
      <trkpt lat="42.9551" lon="1.86393">
        <ele>474</ele>
        <time>2014-10-11T13:42:14Z</time>
      </trkpt>
      <trkpt lat="42.95499" lon="1.8639">
        <ele>474</ele>
        <time>2014-10-11T13:42:16Z</time>
      </trkpt>
      <trkpt lat="42.95482" lon="1.86386">
        <ele>474</ele>
        <time>2014-10-11T13:42:19Z</time>
      </trkpt>
      <trkpt lat="42.95465" lon="1.86382">
        <ele>475</ele>
        <time>2014-10-11T13:42:22Z</time>
      </trkpt>
      <trkpt lat="42.95455" lon="1.8638">
        <ele>475</ele>
        <time>2014-10-11T13:42:24Z</time>
      </trkpt>
      <trkpt lat="42.95445" lon="1.86377">
        <ele>475</ele>
        <time>2014-10-11T13:42:26Z</time>
      </trkpt>
      <trkpt lat="42.95429" lon="1.86374">
        <ele>475</ele>
        <time>2014-10-11T13:42:29Z</time>
      </trkpt>
      <trkpt lat="42.95419" lon="1.86374">
        <ele>475</ele>
        <time>2014-10-11T13:42:31Z</time>
      </trkpt>
      <trkpt lat="42.95408" lon="1.86374">
        <ele>476</ele>
        <time>2014-10-11T13:42:33Z</time>
      </trkpt>
      <trkpt lat="42.95396" lon="1.86374">
        <ele>476</ele>
        <time>2014-10-11T13:42:35Z</time>
      </trkpt>
      <trkpt lat="42.9538" lon="1.86374">
        <ele>476</ele>
        <time>2014-10-11T13:42:38Z</time>
      </trkpt>
      <trkpt lat="42.95364" lon="1.86372">
        <ele>476</ele>
        <time>2014-10-11T13:42:41Z</time>
      </trkpt>
      <trkpt lat="42.95347" lon="1.86373">
        <ele>477</ele>
        <time>2014-10-11T13:42:44Z</time>
      </trkpt>
      <trkpt lat="42.95335" lon="1.86374">
        <ele>477</ele>
        <time>2014-10-11T13:42:46Z</time>
      </trkpt>
      <trkpt lat="42.95325" lon="1.86376">
        <ele>477</ele>
        <time>2014-10-11T13:42:48Z</time>
      </trkpt>
      <trkpt lat="42.9531" lon="1.86381">
        <ele>478</ele>
        <time>2014-10-11T13:42:51Z</time>
      </trkpt>
      <trkpt lat="42.953" lon="1.86386">
        <ele>478</ele>
        <time>2014-10-11T13:42:53Z</time>
      </trkpt>
      <trkpt lat="42.95289" lon="1.86392">
        <ele>478</ele>
        <time>2014-10-11T13:42:55Z</time>
      </trkpt>
      <trkpt lat="42.95278" lon="1.86398">
        <ele>478</ele>
        <time>2014-10-11T13:42:57Z</time>
      </trkpt>
      <trkpt lat="42.95263" lon="1.86408">
        <ele>478</ele>
        <time>2014-10-11T13:43:00Z</time>
      </trkpt>
      <trkpt lat="42.95253" lon="1.86415">
        <ele>479</ele>
        <time>2014-10-11T13:43:02Z</time>
      </trkpt>
      <trkpt lat="42.95243" lon="1.86421">
        <ele>478</ele>
        <time>2014-10-11T13:43:04Z</time>
      </trkpt>
      <trkpt lat="42.95234" lon="1.86427">
        <ele>479</ele>
        <time>2014-10-11T13:43:06Z</time>
      </trkpt>
      <trkpt lat="42.95218" lon="1.86437">
        <ele>479</ele>
        <time>2014-10-11T13:43:09Z</time>
      </trkpt>
      <trkpt lat="42.95207" lon="1.86444">
        <ele>479</ele>
        <time>2014-10-11T13:43:11Z</time>
      </trkpt>
      <trkpt lat="42.95197" lon="1.86451">
        <ele>479</ele>
        <time>2014-10-11T13:43:13Z</time>
      </trkpt>
      <trkpt lat="42.95187" lon="1.86457">
        <ele>479</ele>
        <time>2014-10-11T13:43:15Z</time>
      </trkpt>
      <trkpt lat="42.95176" lon="1.86463">
        <ele>479</ele>
        <time>2014-10-11T13:43:17Z</time>
      </trkpt>
      <trkpt lat="42.95166" lon="1.86469">
        <ele>479</ele>
        <time>2014-10-11T13:43:19Z</time>
      </trkpt>
      <trkpt lat="42.95151" lon="1.86477">
        <ele>480</ele>
        <time>2014-10-11T13:43:22Z</time>
      </trkpt>
      <trkpt lat="42.95143" lon="1.8648">
        <ele>480</ele>
        <time>2014-10-11T13:43:24Z</time>
      </trkpt>
      <trkpt lat="42.95133" lon="1.86484">
        <ele>480</ele>
        <time>2014-10-11T13:43:26Z</time>
      </trkpt>
      <trkpt lat="42.95118" lon="1.86489">
        <ele>481</ele>
        <time>2014-10-11T13:43:29Z</time>
      </trkpt>
      <trkpt lat="42.95104" lon="1.86493">
        <ele>481</ele>
        <time>2014-10-11T13:43:32Z</time>
      </trkpt>
      <trkpt lat="42.95094" lon="1.86495">
        <ele>481</ele>
        <time>2014-10-11T13:43:34Z</time>
      </trkpt>
      <trkpt lat="42.95084" lon="1.86498">
        <ele>481</ele>
        <time>2014-10-11T13:43:36Z</time>
      </trkpt>
      <trkpt lat="42.95067" lon="1.86501">
        <ele>482</ele>
        <time>2014-10-11T13:43:39Z</time>
      </trkpt>
      <trkpt lat="42.95055" lon="1.86503">
        <ele>482</ele>
        <time>2014-10-11T13:43:41Z</time>
      </trkpt>
      <trkpt lat="42.95045" lon="1.86504">
        <ele>482</ele>
        <time>2014-10-11T13:43:43Z</time>
      </trkpt>
      <trkpt lat="42.95029" lon="1.86505">
        <ele>483</ele>
        <time>2014-10-11T13:43:46Z</time>
      </trkpt>
      <trkpt lat="42.95018" lon="1.86505">
        <ele>483</ele>
        <time>2014-10-11T13:43:48Z</time>
      </trkpt>
      <trkpt lat="42.95007" lon="1.86505">
        <ele>483</ele>
        <time>2014-10-11T13:43:50Z</time>
      </trkpt>
      <trkpt lat="42.94992" lon="1.86504">
        <ele>483</ele>
        <time>2014-10-11T13:43:53Z</time>
      </trkpt>
      <trkpt lat="42.94978" lon="1.86502">
        <ele>483</ele>
        <time>2014-10-11T13:43:56Z</time>
      </trkpt>
      <trkpt lat="42.94964" lon="1.86501">
        <ele>483</ele>
        <time>2014-10-11T13:43:59Z</time>
      </trkpt>
      <trkpt lat="42.9495" lon="1.86498">
        <ele>483</ele>
        <time>2014-10-11T13:44:02Z</time>
      </trkpt>
      <trkpt lat="42.94936" lon="1.86494">
        <ele>484</ele>
        <time>2014-10-11T13:44:05Z</time>
      </trkpt>
      <trkpt lat="42.94922" lon="1.8649">
        <ele>484</ele>
        <time>2014-10-11T13:44:08Z</time>
      </trkpt>
      <trkpt lat="42.94908" lon="1.86485">
        <ele>484</ele>
        <time>2014-10-11T13:44:11Z</time>
      </trkpt>
      <trkpt lat="42.94899" lon="1.86482">
        <ele>484</ele>
        <time>2014-10-11T13:44:13Z</time>
      </trkpt>
      <trkpt lat="42.94889" lon="1.86477">
        <ele>484</ele>
        <time>2014-10-11T13:44:15Z</time>
      </trkpt>
      <trkpt lat="42.94875" lon="1.8647">
        <ele>484</ele>
        <time>2014-10-11T13:44:18Z</time>
      </trkpt>
      <trkpt lat="42.94862" lon="1.86462">
        <ele>485</ele>
        <time>2014-10-11T13:44:21Z</time>
      </trkpt>
      <trkpt lat="42.94849" lon="1.86455">
        <ele>485</ele>
        <time>2014-10-11T13:44:24Z</time>
      </trkpt>
      <trkpt lat="42.94838" lon="1.8645">
        <ele>485</ele>
        <time>2014-10-11T13:44:27Z</time>
      </trkpt>
      <trkpt lat="42.94834" lon="1.86445">
        <ele>485</ele>
        <time>2014-10-11T13:44:30Z</time>
      </trkpt>
      <trkpt lat="42.9483" lon="1.86441">
        <ele>485</ele>
        <time>2014-10-11T13:44:33Z</time>
      </trkpt>
      <trkpt lat="42.94825" lon="1.86438">
        <ele>486</ele>
        <time>2014-10-11T13:44:36Z</time>
      </trkpt>
      <trkpt lat="42.94822" lon="1.86435">
        <ele>486</ele>
        <time>2014-10-11T13:44:38Z</time>
      </trkpt>
      <trkpt lat="42.94816" lon="1.8643">
        <ele>486</ele>
        <time>2014-10-11T13:44:41Z</time>
      </trkpt>
      <trkpt lat="42.9481" lon="1.86421">
        <ele>486</ele>
        <time>2014-10-11T13:44:44Z</time>
      </trkpt>
      <trkpt lat="42.94806" lon="1.86417">
        <ele>486</ele>
        <time>2014-10-11T13:44:47Z</time>
      </trkpt>
      <trkpt lat="42.94801" lon="1.86416">
        <ele>486</ele>
        <time>2014-10-11T13:44:50Z</time>
      </trkpt>
      <trkpt lat="42.94798" lon="1.86415">
        <ele>486</ele>
        <time>2014-10-11T13:44:52Z</time>
      </trkpt>
      <trkpt lat="42.94797" lon="1.86415">
        <ele>486</ele>
        <time>2014-10-11T13:44:54Z</time>
      </trkpt>
      <trkpt lat="42.94796" lon="1.86414">
        <ele>486</ele>
        <time>2014-10-11T13:44:56Z</time>
      </trkpt>
      <trkpt lat="42.94793" lon="1.86411">
        <ele>486</ele>
        <time>2014-10-11T13:44:59Z</time>
      </trkpt>
      <trkpt lat="42.94788" lon="1.86405">
        <ele>486</ele>
        <time>2014-10-11T13:45:02Z</time>
      </trkpt>
      <trkpt lat="42.94781" lon="1.86396">
        <ele>486</ele>
        <time>2014-10-11T13:45:05Z</time>
      </trkpt>
      <trkpt lat="42.94773" lon="1.86386">
        <ele>486</ele>
        <time>2014-10-11T13:45:08Z</time>
      </trkpt>
      <trkpt lat="42.94764" lon="1.86375">
        <ele>486</ele>
        <time>2014-10-11T13:45:11Z</time>
      </trkpt>
      <trkpt lat="42.94755" lon="1.86362">
        <ele>487</ele>
        <time>2014-10-11T13:45:14Z</time>
      </trkpt>
      <trkpt lat="42.94745" lon="1.86347">
        <ele>487</ele>
        <time>2014-10-11T13:45:17Z</time>
      </trkpt>
      <trkpt lat="42.94738" lon="1.86337">
        <ele>487</ele>
        <time>2014-10-11T13:45:19Z</time>
      </trkpt>
      <trkpt lat="42.94731" lon="1.86326">
        <ele>487</ele>
        <time>2014-10-11T13:45:21Z</time>
      </trkpt>
      <trkpt lat="42.94722" lon="1.8631">
        <ele>488</ele>
        <time>2014-10-11T13:45:24Z</time>
      </trkpt>
      <trkpt lat="42.94712" lon="1.86295">
        <ele>488</ele>
        <time>2014-10-11T13:45:27Z</time>
      </trkpt>
      <trkpt lat="42.94704" lon="1.86281">
        <ele>489</ele>
        <time>2014-10-11T13:45:30Z</time>
      </trkpt>
      <trkpt lat="42.94696" lon="1.86268">
        <ele>489</ele>
        <time>2014-10-11T13:45:33Z</time>
      </trkpt>
      <trkpt lat="42.94687" lon="1.86252">
        <ele>489</ele>
        <time>2014-10-11T13:45:36Z</time>
      </trkpt>
      <trkpt lat="42.94677" lon="1.86237">
        <ele>489</ele>
        <time>2014-10-11T13:45:39Z</time>
      </trkpt>
      <trkpt lat="42.94668" lon="1.86222">
        <ele>490</ele>
        <time>2014-10-11T13:45:42Z</time>
      </trkpt>
      <trkpt lat="42.94661" lon="1.86211">
        <ele>490</ele>
        <time>2014-10-11T13:45:44Z</time>
      </trkpt>
      <trkpt lat="42.94651" lon="1.86195">
        <ele>490</ele>
        <time>2014-10-11T13:45:47Z</time>
      </trkpt>
      <trkpt lat="42.9464" lon="1.86178">
        <ele>490</ele>
        <time>2014-10-11T13:45:50Z</time>
      </trkpt>
      <trkpt lat="42.9463" lon="1.86162">
        <ele>491</ele>
        <time>2014-10-11T13:45:53Z</time>
      </trkpt>
      <trkpt lat="42.94619" lon="1.86147">
        <ele>491</ele>
        <time>2014-10-11T13:45:56Z</time>
      </trkpt>
      <trkpt lat="42.94609" lon="1.86131">
        <ele>491</ele>
        <time>2014-10-11T13:45:59Z</time>
      </trkpt>
      <trkpt lat="42.94598" lon="1.86112">
        <ele>491</ele>
        <time>2014-10-11T13:46:02Z</time>
      </trkpt>
      <trkpt lat="42.94587" lon="1.86093">
        <ele>492</ele>
        <time>2014-10-11T13:46:05Z</time>
      </trkpt>
      <trkpt lat="42.94577" lon="1.86079">
        <ele>492</ele>
        <time>2014-10-11T13:46:07Z</time>
      </trkpt>
      <trkpt lat="42.94567" lon="1.86065">
        <ele>492</ele>
        <time>2014-10-11T13:46:09Z</time>
      </trkpt>
      <trkpt lat="42.94555" lon="1.86044">
        <ele>492</ele>
        <time>2014-10-11T13:46:12Z</time>
      </trkpt>
      <trkpt lat="42.94543" lon="1.86025">
        <ele>493</ele>
        <time>2014-10-11T13:46:15Z</time>
      </trkpt>
      <trkpt lat="42.9453" lon="1.86005">
        <ele>493</ele>
        <time>2014-10-11T13:46:18Z</time>
      </trkpt>
      <trkpt lat="42.94517" lon="1.85984">
        <ele>494</ele>
        <time>2014-10-11T13:46:21Z</time>
      </trkpt>
      <trkpt lat="42.94507" lon="1.85964">
        <ele>494</ele>
        <time>2014-10-11T13:46:24Z</time>
      </trkpt>
      <trkpt lat="42.94495" lon="1.85944">
        <ele>494</ele>
        <time>2014-10-11T13:46:27Z</time>
      </trkpt>
      <trkpt lat="42.94482" lon="1.85924">
        <ele>495</ele>
        <time>2014-10-11T13:46:30Z</time>
      </trkpt>
      <trkpt lat="42.94471" lon="1.8591">
        <ele>495</ele>
        <time>2014-10-11T13:46:32Z</time>
      </trkpt>
      <trkpt lat="42.94453" lon="1.8589">
        <ele>496</ele>
        <time>2014-10-11T13:46:35Z</time>
      </trkpt>
      <trkpt lat="42.94441" lon="1.85877">
        <ele>496</ele>
        <time>2014-10-11T13:46:37Z</time>
      </trkpt>
      <trkpt lat="42.9443" lon="1.85865">
        <ele>496</ele>
        <time>2014-10-11T13:46:39Z</time>
      </trkpt>
      <trkpt lat="42.94413" lon="1.85847">
        <ele>496</ele>
        <time>2014-10-11T13:46:42Z</time>
      </trkpt>
      <trkpt lat="42.94399" lon="1.85837">
        <ele>497</ele>
        <time>2014-10-11T13:46:44Z</time>
      </trkpt>
      <trkpt lat="42.94379" lon="1.85821">
        <ele>497</ele>
        <time>2014-10-11T13:46:47Z</time>
      </trkpt>
      <trkpt lat="42.94366" lon="1.85811">
        <ele>498</ele>
        <time>2014-10-11T13:46:49Z</time>
      </trkpt>
      <trkpt lat="42.94347" lon="1.85797">
        <ele>498</ele>
        <time>2014-10-11T13:46:52Z</time>
      </trkpt>
      <trkpt lat="42.94328" lon="1.85784">
        <ele>498</ele>
        <time>2014-10-11T13:46:55Z</time>
      </trkpt>
      <trkpt lat="42.94312" lon="1.85773">
        <ele>497</ele>
        <time>2014-10-11T13:46:58Z</time>
      </trkpt>
      <trkpt lat="42.943" lon="1.85765">
        <ele>497</ele>
        <time>2014-10-11T13:47:00Z</time>
      </trkpt>
      <trkpt lat="42.94284" lon="1.85752">
        <ele>497</ele>
        <time>2014-10-11T13:47:03Z</time>
      </trkpt>
      <trkpt lat="42.94268" lon="1.8574">
        <ele>497</ele>
        <time>2014-10-11T13:47:06Z</time>
      </trkpt>
      <trkpt lat="42.94252" lon="1.85731">
        <ele>497</ele>
        <time>2014-10-11T13:47:09Z</time>
      </trkpt>
      <trkpt lat="42.94243" lon="1.85725">
        <ele>497</ele>
        <time>2014-10-11T13:47:11Z</time>
      </trkpt>
      <trkpt lat="42.94233" lon="1.8572">
        <ele>497</ele>
        <time>2014-10-11T13:47:13Z</time>
      </trkpt>
      <trkpt lat="42.94221" lon="1.85712">
        <ele>497</ele>
        <time>2014-10-11T13:47:16Z</time>
      </trkpt>
      <trkpt lat="42.94214" lon="1.85706">
        <ele>497</ele>
        <time>2014-10-11T13:47:19Z</time>
      </trkpt>
      <trkpt lat="42.9421" lon="1.85696">
        <ele>497</ele>
        <time>2014-10-11T13:47:22Z</time>
      </trkpt>
      <trkpt lat="42.94206" lon="1.85688">
        <ele>497</ele>
        <time>2014-10-11T13:47:24Z</time>
      </trkpt>
      <trkpt lat="42.94202" lon="1.85681">
        <ele>496</ele>
        <time>2014-10-11T13:47:26Z</time>
      </trkpt>
      <trkpt lat="42.94196" lon="1.85671">
        <ele>496</ele>
        <time>2014-10-11T13:47:29Z</time>
      </trkpt>
      <trkpt lat="42.94192" lon="1.85666">
        <ele>496</ele>
        <time>2014-10-11T13:47:31Z</time>
      </trkpt>
      <trkpt lat="42.94189" lon="1.85663">
        <ele>496</ele>
        <time>2014-10-11T13:47:33Z</time>
      </trkpt>
      <trkpt lat="42.94187" lon="1.85661">
        <ele>496</ele>
        <time>2014-10-11T13:47:35Z</time>
      </trkpt>
      <trkpt lat="42.94183" lon="1.85658">
        <ele>496</ele>
        <time>2014-10-11T13:47:38Z</time>
      </trkpt>
      <trkpt lat="42.94182" lon="1.85655">
        <ele>496</ele>
        <time>2014-10-11T13:47:40Z</time>
      </trkpt>
      <trkpt lat="42.94181" lon="1.85654">
        <ele>496</ele>
        <time>2014-10-11T13:47:42Z</time>
      </trkpt>
      <trkpt lat="42.9418" lon="1.85651">
        <ele>496</ele>
        <time>2014-10-11T13:47:45Z</time>
      </trkpt>
      <trkpt lat="42.94178" lon="1.85649">
        <ele>496</ele>
        <time>2014-10-11T13:47:47Z</time>
      </trkpt>
      <trkpt lat="42.94174" lon="1.85647">
        <ele>496</ele>
        <time>2014-10-11T13:47:50Z</time>
      </trkpt>
      <trkpt lat="42.94172" lon="1.85643">
        <ele>496</ele>
        <time>2014-10-11T13:47:52Z</time>
      </trkpt>
      <trkpt lat="42.94168" lon="1.85636">
        <ele>496</ele>
        <time>2014-10-11T13:47:55Z</time>
      </trkpt>
      <trkpt lat="42.94165" lon="1.85629">
        <ele>496</ele>
        <time>2014-10-11T13:47:58Z</time>
      </trkpt>
      <trkpt lat="42.94163" lon="1.85621">
        <ele>496</ele>
        <time>2014-10-11T13:48:01Z</time>
      </trkpt>
      <trkpt lat="42.94161" lon="1.85614">
        <ele>496</ele>
        <time>2014-10-11T13:48:04Z</time>
      </trkpt>
      <trkpt lat="42.9416" lon="1.85605">
        <ele>496</ele>
        <time>2014-10-11T13:48:07Z</time>
      </trkpt>
      <trkpt lat="42.94158" lon="1.85599">
        <ele>496</ele>
        <time>2014-10-11T13:48:09Z</time>
      </trkpt>
      <trkpt lat="42.94151" lon="1.85591">
        <ele>496</ele>
        <time>2014-10-11T13:48:12Z</time>
      </trkpt>
      <trkpt lat="42.94145" lon="1.85586">
        <ele>496</ele>
        <time>2014-10-11T13:48:14Z</time>
      </trkpt>
      <trkpt lat="42.94137" lon="1.85579">
        <ele>497</ele>
        <time>2014-10-11T13:48:17Z</time>
      </trkpt>
      <trkpt lat="42.94131" lon="1.85573">
        <ele>497</ele>
        <time>2014-10-11T13:48:19Z</time>
      </trkpt>
      <trkpt lat="42.94122" lon="1.85563">
        <ele>497</ele>
        <time>2014-10-11T13:48:22Z</time>
      </trkpt>
      <trkpt lat="42.94112" lon="1.85555">
        <ele>497</ele>
        <time>2014-10-11T13:48:25Z</time>
      </trkpt>
      <trkpt lat="42.94105" lon="1.85549">
        <ele>497</ele>
        <time>2014-10-11T13:48:27Z</time>
      </trkpt>
      <trkpt lat="42.94098" lon="1.85544">
        <ele>497</ele>
        <time>2014-10-11T13:48:29Z</time>
      </trkpt>
      <trkpt lat="42.94089" lon="1.85535">
        <ele>497</ele>
        <time>2014-10-11T13:48:32Z</time>
      </trkpt>
      <trkpt lat="42.94082" lon="1.85529">
        <ele>497</ele>
        <time>2014-10-11T13:48:34Z</time>
      </trkpt>
      <trkpt lat="42.94072" lon="1.8552">
        <ele>497</ele>
        <time>2014-10-11T13:48:37Z</time>
      </trkpt>
      <trkpt lat="42.94065" lon="1.85516">
        <ele>497</ele>
        <time>2014-10-11T13:48:39Z</time>
      </trkpt>
      <trkpt lat="42.94055" lon="1.8552">
        <ele>497</ele>
        <time>2014-10-11T13:48:42Z</time>
      </trkpt>
      <trkpt lat="42.9405" lon="1.85524">
        <ele>497</ele>
        <time>2014-10-11T13:48:44Z</time>
      </trkpt>
      <trkpt lat="42.94046" lon="1.85528">
        <ele>497</ele>
        <time>2014-10-11T13:48:46Z</time>
      </trkpt>
      <trkpt lat="42.94044" lon="1.85529">
        <ele>497</ele>
        <time>2014-10-11T13:48:48Z</time>
      </trkpt>
      <trkpt lat="42.94044" lon="1.85529">
        <ele>497</ele>
        <time>2014-10-11T13:48:50Z</time>
      </trkpt>
      <trkpt lat="42.94044" lon="1.85528">
        <ele>497</ele>
        <time>2014-10-11T13:48:53Z</time>
      </trkpt>
      <trkpt lat="42.94044" lon="1.85528">
        <ele>497</ele>
        <time>2014-10-11T13:48:55Z</time>
      </trkpt>
    </trkseg>
  </trk>
</gpx>